# Wetter Temperatur Luftdruck Luftfeuchtigkeit Sichtweite Windgeschwindigkeit Windrichtung Zeit
1 Clouds 20 1010 94 10000 4 160 11:45 22.04.2021
2 Rain 21 1009 88 10000 5 150 11:23 22.04.2021
3 Rain 21 1010 88 10000 5 150 10:45 22.04.2021
4 Rain 21 1010 88 10000 5 150 10:22 22.04.2021
5 Rain 21 1010 88 10000 6 160 09:44 22.04.2021
6 Rain 22 1010 78 10000 4 150 09:19 22.04.2021
7 Clouds 23 1010 69 10000 7 150 08:38 22.04.2021
8 Clouds 23 1010 69 10000 7 150 08:18 22.04.2021
9 Clouds 23 1011 69 10000 7 140 07:40 22.04.2021
10 Clouds 24 1011 69 10000 7 140 07:20 22.04.2021
11 Clouds 24 1011 64 10000 8 150 06:23 22.04.2021
12 Clouds 23 1012 68 10000 8 160 05:25 22.04.2021
13 Clouds 22 1012 73 10000 7 150 03:31 22.04.2021
14 Clear 18 1012 88 10000 6 140 00:52 22.04.2021
15 Clear 18 1012 88 10000 4 140 23:47 21.04.2021
16 Clear 18 1012 88 10000 5 140 23:25 21.04.2021
17 Rain 18 1012 88 10000 4 150 22:42 21.04.2021
18 Rain 18 1012 88 10000 4 150 22:23 21.04.2021
19 Rain 18 1012 82 10000 6 140 21:42 21.04.2021
20 Rain 18 1012 82 10000 6 140 21:23 21.04.2021
21 Rain 18 1013 82 10000 5 140 20:42 21.04.2021
22 Rain 18 1013 82 10000 5 140 20:19 21.04.2021
23 Rain 18 1014 82 10000 6 140 19:42 21.04.2021
24 Rain 18 1014 82 10000 6 140 19:23 21.04.2021
25 Rain 18 1014 82 10000 6 140 18:45 21.04.2021
26 Rain 18 1015 82 10000 6 150 18:26 21.04.2021
27 Rain 19 1015 77 10000 6 140 17:47 21.04.2021
28 Rain 19 1015 77 10000 5 150 17:24 21.04.2021
29 Rain 19 1015 77 10000 6 150 16:48 21.04.2021
30 Rain 19 1015 77 10000 7 140 15:57 21.04.2021
31 Rain 19 1015 72 10000 7 140 15:39 21.04.2021
32 Rain 19 1015 77 10000 7 140 14:48 21.04.2021
33 Rain 19 1015 73 10000 6 140 14:30 21.04.2021
34 Rain 19 1015 73 10000 6 130 13:51 21.04.2021
35 Rain 19 1014 73 10000 6 130 13:24 21.04.2021
36 Clear 20 1014 73 10000 6 130 12:58 21.04.2021
37 Clear 20 1014 68 10000 8 130 12:29 21.04.2021
38 Clear 20 1014 68 10000 8 130 12:29 21.04.2021
39 Clear 21 1014 68 10000 8 130 11:49 21.04.2021
40 Clear 21 1014 68 10000 7 140 11:29 21.04.2021
41 Rain 21 1014 64 10000 8 150 10:48 21.04.2021
42 Rain 22 1014 64 10000 9 140 10:18 21.04.2021
43 Clouds 22 1014 56 10000 9 140 09:41 21.04.2021
44 Clouds 23 1015 56 10000 9 140 08:56 21.04.2021
45 Clouds 23 1015 56 10000 9 140 08:56 21.04.2021
46 Clouds 23 1015 60 10000 8 150 08:37 21.04.2021
47 Clouds 23 1015 60 10000 8 150 08:18 21.04.2021
48 Clouds 24 1016 53 10000 9 160 07:29 21.04.2021
49 Clouds 22 1016 56 10000 10 150 06:25 21.04.2021
50 Clear 22 1018 60 10000 8 150 04:41 21.04.2021
51 Clear 17 1017 82 10000 6 130 00:50 21.04.2021
52 Clear 16 1017 88 10000 6 130 23:48 20.04.2021
53 Clear 16 1016 82 10000 6 130 22:56 20.04.2021
54 Rain 16 1016 82 10000 5 130 22:36 20.04.2021
55 Rain 16 1016 82 10000 5 130 22:18 20.04.2021
56 Rain 16 1016 82 10000 6 130 21:44 20.04.2021
57 Rain 16 1016 82 10000 6 130 21:23 20.04.2021
58 Rain 16 1017 82 10000 7 140 20:42 20.04.2021
59 Rain 16 1017 82 10000 7 140 20:22 20.04.2021
60 Rain 16 1017 82 10000 7 130 19:52 20.04.2021
61 Rain 16 1017 82 10000 6 140 19:33 20.04.2021
62 Rain 16 1017 82 10000 6 130 18:54 20.04.2021
63 Rain 16 1017 77 10000 7 130 18:35 20.04.2021
64 Rain 16 1018 77 10000 6 140 17:43 20.04.2021
65 Rain 16 1017 77 10000 6 140 16:57 20.04.2021
66 Rain 16 1017 77 10000 7 130 16:36 20.04.2021
67 Rain 16 1017 77 10000 7 130 15:42 20.04.2021
68 Rain 17 1017 77 10000 7 130 15:23 20.04.2021
69 Rain 17 1018 77 10000 6 130 14:49 20.04.2021
70 Rain 17 1017 77 10000 7 130 14:24 20.04.2021
71 Rain 18 1016 72 10000 7 130 13:29 20.04.2021
72 Clear 18 1016 72 10000 6 130 12:55 20.04.2021
73 -273 0 0 0 0 0 12:31 20.04.2021
74 Clear 19 1016 64 10000 7 120 11:47 20.04.2021
75 Clear 20 1016 56 10000 6 130 11:28 20.04.2021
76 Clear 20 1016 49 10000 7 130 10:55 20.04.2021
77 Clear 20 1016 46 10000 6 130 10:36 20.04.2021
78 Clear 21 1016 46 10000 6 130 10:18 20.04.2021
79 Clear 22 1016 38 10000 8 150 09:19 20.04.2021
80 Clear 21 1016 40 10000 6 140 08:46 20.04.2021
81 Clear 21 1017 43 10000 8 130 07:59 20.04.2021
82 Clear 21 1017 49 10000 7 130 07:33 20.04.2021
83 Clear 22 1018 37 10000 6 150 05:48 20.04.2021
84 Clear 22 1018 37 10000 6 140 05:30 20.04.2021
85 Clear 20 1019 49 10000 7 140 04:24 20.04.2021
86 Clear 14 1018 77 10000 6 130 00:51 20.04.2021
87 Clear 13 1017 82 10000 6 130 00:20 20.04.2021
88 Clear 13 1017 76 10000 5 130 23:31 19.04.2021
89 Clear 13 1017 76 10000 5 120 22:43 19.04.2021
90 Clear 13 1017 71 10000 5 130 22:22 19.04.2021
91 Rain 13 1017 71 10000 4 140 21:42 19.04.2021
92 Rain 13 1017 71 10000 4 140 21:20 19.04.2021
93 Rain 13 1017 71 10000 4 130 20:41 19.04.2021
94 Clear 13 1017 71 10000 4 130 20:20 19.04.2021
95 Rain 13 1017 67 10000 5 130 19:48 19.04.2021
96 Rain 14 1017 67 10000 5 130 19:26 19.04.2021
97 Rain 14 1017 67 10000 5 130 18:56 19.04.2021
98 Rain 14 1018 67 10000 5 130 18:37 19.04.2021
99 Rain 14 1018 67 10000 5 130 18:18 19.04.2021
100 Rain 14 1018 67 10000 5 140 17:43 19.04.2021
101 Rain 14 1018 67 10000 5 140 17:22 19.04.2021
102 Rain 14 1018 63 10000 5 140 16:41 19.04.2021
103 Rain 14 1018 63 10000 5 140 16:22 19.04.2021
104 Rain 15 1018 58 10000 4 130 15:40 19.04.2021
105 Rain 15 1018 58 10000 4 130 15:22 19.04.2021
106 Rain 15 1017 55 10000 5 130 14:41 19.04.2021
107 Rain 16 1017 55 10000 5 130 14:22 19.04.2021
108 Rain 16 1017 51 10000 4 140 13:48 19.04.2021
109 Rain 16 1017 55 10000 5 140 13:25 19.04.2021
110 Clear 17 1016 52 10000 5 160 12:43 19.04.2021
111 Clear 17 1016 52 10000 5 160 12:43 19.04.2021
112 Clear 18 1016 52 10000 5 160 12:23 19.04.2021
113 Clear 18 1016 45 10000 6 160 11:54 19.04.2021
114 Clear 20 1016 42 10000 5 140 11:26 19.04.2021
115 Clear 20 1016 40 10000 4 140 10:47 19.04.2021
116 Clear 21 1016 40 10000 6 160 10:25 19.04.2021
117 Clear 20 1016 43 10000 6 180 09:50 19.04.2021
118 Clear 20 1016 40 10000 5 160 09:30 19.04.2021
119 Clear 20 1016 40 10000 5 160 09:30 19.04.2021
120 Clear 22 1016 37 10000 5 160 08:59 19.04.2021
121 Clear 23 1017 40 10000 5 170 08:28 19.04.2021
122 Clear 21 1017 35 10000 4 180 07:48 19.04.2021
123 Clear 22 1017 35 10000 4 170 07:19 19.04.2021
124 Clear 22 1018 37 10000 4 170 06:36 19.04.2021
125 Clear 16 1019 59 10000 5 140 02:35 19.04.2021
126 Clear 13 1019 67 10000 3 130 00:49 19.04.2021
127 Clear 12 1019 71 10000 2 150 23:50 18.04.2021
128 Clear 12 1019 71 10000 2 150 23:18 18.04.2021
129 Clear 12 1019 71 10000 3 150 22:47 18.04.2021
130 Clear 12 1019 71 10000 2 150 22:29 18.04.2021
131 Clear 12 1019 66 10000 3 130 21:29 18.04.2021
132 Clear 12 1019 62 10000 3 120 20:59 18.04.2021
133 Clear 12 1019 66 10000 2 140 20:39 18.04.2021
134 Clear 12 1019 66 10000 2 140 20:39 18.04.2021
135 Clear 13 1019 66 10000 2 140 20:20 18.04.2021
136 Clear 13 1019 66 10000 3 140 19:45 18.04.2021
137 Clear 13 1020 62 10000 3 140 19:25 18.04.2021
138 Clear 13 1020 58 10000 3 130 18:54 18.04.2021
139 Clear 13 1020 58 10000 3 130 18:54 18.04.2021
140 Clear 13 1020 58 10000 3 130 18:30 18.04.2021
141 Clear 13 1020 54 10000 4 140 17:50 18.04.2021
142 Clear 13 1020 51 10000 4 140 17:31 18.04.2021
143 Clear 14 1021 47 10000 3 150 16:54 18.04.2021
144 Clear 14 1021 41 10000 5 150 16:36 18.04.2021
145 Clear 14 1020 31 10000 5 140 15:51 18.04.2021
146 Clear 15 1021 29 10000 4 140 15:32 18.04.2021
147 Clear 15 1021 27 10000 4 130 14:58 18.04.2021
148 Clear 15 1020 29 10000 5 140 14:40 18.04.2021
149 Clear 15 1020 29 10000 5 140 14:18 18.04.2021
150 Clear 16 1020 29 10000 4 150 13:44 18.04.2021
151 Clear 16 1020 29 10000 4 140 13:26 18.04.2021
152 Clear 17 1020 29 10000 5 150 12:36 18.04.2021
153 Clear 17 1019 31 10000 5 150 11:52 18.04.2021
154 Clear 18 1019 34 10000 5 150 11:27 18.04.2021
155 Clear 18 1019 34 10000 5 180 10:54 18.04.2021
156 Clear 18 1019 34 10000 4 190 10:35 18.04.2021
157 Clear 19 1019 34 10000 5 200 09:58 18.04.2021
158 Clear 19 1020 34 10000 5 190 09:39 18.04.2021
159 Clear 19 1020 34 10000 5 190 09:39 18.04.2021
160 Clear 19 1020 34 10000 5 190 09:19 18.04.2021
161 Clear 19 1020 28 10000 2 0 08:40 18.04.2021
162 Clear 20 1020 28 10000 2 0 08:19 18.04.2021
163 Clear 21 1021 30 10000 2 0 07:39 18.04.2021
164 Clear 19 1023 27 10000 2 60 05:45 18.04.2021
165 Clear 19 1023 27 10000 2 0 05:24 18.04.2021
166 Clear 17 1024 29 10000 3 130 03:26 18.04.2021
167 Clear 16 1024 48 10000 2 130 02:22 18.04.2021
168 Clear 12 1024 71 10000 1 100 00:40 18.04.2021
169 Clear 11 1023 71 10000 1 210 23:39 17.04.2021
170 Clear 11 1023 71 10000 1 190 22:54 17.04.2021
171 Clear 11 1023 71 10000 1 210 22:31 17.04.2021
172 Clear 11 1023 71 10000 1 210 21:51 17.04.2021
173 Clear 12 1023 71 10000 2 220 21:31 17.04.2021
174 Clear 12 1022 66 10000 2 200 20:51 17.04.2021
175 Clear 12 1022 66 10000 2 180 20:28 17.04.2021
176 Clear 12 1023 58 10000 2 160 19:46 17.04.2021
177 Clear 12 1023 58 10000 2 160 19:46 17.04.2021
178 Clear 12 1023 58 10000 2 150 19:22 17.04.2021
179 Clear 13 1023 47 10000 2 120 18:56 17.04.2021
180 Clear 13 1023 50 10000 3 140 18:36 17.04.2021
181 Clear 13 1023 47 10000 3 140 17:57 17.04.2021
182 Clear 13 1024 41 10000 2 120 17:39 17.04.2021
183 Clear 13 1023 44 10000 2 70 16:53 17.04.2021
184 Clear 13 1024 44 10000 3 110 16:28 17.04.2021
185 Clear 13 1024 44 10000 3 110 16:28 17.04.2021
186 Clear 14 1023 38 10000 4 70 15:42 17.04.2021
187 Clear 14 1023 36 10000 3 70 14:50 17.04.2021
188 Clear 15 1023 31 10000 4 70 14:30 17.04.2021
189 Clear 15 1022 31 10000 4 50 13:47 17.04.2021
190 Clear 16 1022 33 10000 4 50 13:20 17.04.2021
191 Clear 16 1021 45 10000 5 50 12:39 17.04.2021
192 Clear 17 1021 45 10000 3 20 12:18 17.04.2021
193 Clear 18 1021 39 10000 4 40 11:39 17.04.2021
194 Clear 18 1021 39 10000 4 40 11:20 17.04.2021
195 Clear 19 1021 42 10000 5 10 10:41 17.04.2021
196 Clear 19 1021 42 10000 5 10 10:23 17.04.2021
197 Clear 20 1021 42 10000 6 360 09:19 17.04.2021
198 Clear 19 1021 42 10000 8 20 08:34 17.04.2021
199 Clear 19 1021 45 10000 8 350 07:59 17.04.2021
200 Clouds 17 1022 63 8000 6 360 06:42 17.04.2021
201 Haze 19 1021 68 4000 6 20 03:49 17.04.2021
202 Mist 19 1020 77 2500 3 320 02:28 17.04.2021
203 Mist 16 1018 94 2500 1 340 00:43 17.04.2021
204 Mist 16 1018 94 2500 1 340 00:21 17.04.2021
205 Mist 16 1018 88 5000 1 0 23:43 16.04.2021
206 Mist 15 1017 88 5000 2.02 252 22:59 16.04.2021
207 Clouds 16 1017 82 6000 1 350 22:41 16.04.2021
208 Clouds 16 1017 82 6000 1 350 22:20 16.04.2021
209 Clouds 16 1017 88 6000 1 330 21:45 16.04.2021
210 Clouds 16 1017 82 7000 1 0 21:27 16.04.2021
211 Clouds 16 1016 88 7000 1 350 20:46 16.04.2021
212 Clouds 16 1016 82 7000 2.9 228 20:20 16.04.2021
213 Clouds 16 1016 77 7000 1 160 19:49 16.04.2021
214 Clouds 17 1016 82 7000 2 150 19:21 16.04.2021
215 Rain 17 1017 82 8000 3 150 18:28 16.04.2021
216 Rain 17 1017 77 8000 2 150 17:54 16.04.2021
217 Rain 17 1018 82 8000 2 170 17:20 16.04.2021
218 Rain 18 1017 77 8000 2 150 16:57 16.04.2021
219 Rain 18 1018 77 8000 2 120 16:38 16.04.2021
220 Rain 18 1018 77 8000 2 120 16:20 16.04.2021
221 Rain 18 1017 77 8000 3 140 15:39 16.04.2021
222 Rain 18 1017 77 8000 3 100 14:56 16.04.2021
223 Rain 18 1017 72 8000 3 100 14:37 16.04.2021
224 Rain 18 1016 72 8000 5 110 13:58 16.04.2021
225 Rain 19 1016 68 8000 4 80 13:36 16.04.2021
226 Rain 19 1016 68 8000 4 80 13:18 16.04.2021
227 Clouds 20 1015 64 8000 5 60 12:42 16.04.2021
228 Rain 20 1015 64 8000 5 60 12:21 16.04.2021
229 Clear 21 1015 56 10000 5 360 11:42 16.04.2021
230 Clear 22 1015 56 10000 5 360 11:21 16.04.2021
231 Clear 24 1014 44 10000 2 10 10:42 16.04.2021
232 Clear 24 1014 44 10000 2 10 10:21 16.04.2021
233 Clear 24 1014 44 10000 2 0 09:44 16.04.2021
234 Clear 25 1014 47 10000 1 0 09:22 16.04.2021
235 Clear 25 1015 47 10000 2 160 08:45 16.04.2021
236 Clear 25 1015 53 10000 2 40 08:19 16.04.2021
237 Clouds 24 1015 53 8000 3 0 07:45 16.04.2021
238 Clouds 24 1015 53 8000 3 0 07:25 16.04.2021
239 Clouds 23 1016 53 8000 3 330 06:41 16.04.2021
240 Clouds 22 1016 60 8000 1 0 05:32 16.04.2021
241 Clouds 15 1017 88 7000 2 200 01:47 16.04.2021
242 Clouds 14 1016 94 6000 1 200 00:45 16.04.2021
243 Mist 13 1015 94 5000 1 170 00:22 16.04.2021
244 Mist 13 1015 94 5000 1 170 23:56 15.04.2021
245 Clouds 12 1015 94 6000 2 160 23:32 15.04.2021
246 Clear 13 1016 94 6000 2 150 22:50 15.04.2021
247 Clear 13 1016 94 7000 2 160 22:23 15.04.2021
248 Clear 13 1016 94 7000 1 150 21:43 15.04.2021
249 Clear 13 1015 94 10000 2 160 21:25 15.04.2021
250 Rain 13 1015 94 10000 2 160 20:49 15.04.2021
251 Rain 13 1015 94 10000 2 140 20:25 15.04.2021
252 Rain 13 1015 94 10000 2 140 20:25 15.04.2021
253 Rain 13 1016 94 10000 2 160 19:48 15.04.2021
254 Rain 13 1016 88 10000 3 160 19:28 15.04.2021
255 Rain 13 1016 88 10000 3 160 18:59 15.04.2021
256 Rain 13 1016 88 10000 3 160 18:37 15.04.2021
257 Rain 13 1016 88 10000 3 160 18:18 15.04.2021
258 Rain 13 1016 88 10000 3 150 17:51 15.04.2021
259 Rain 13 1017 88 10000 3 150 17:29 15.04.2021
260 Rain 13 1017 88 10000 3 150 16:44 15.04.2021
261 Rain 13 1017 88 10000 3 150 16:24 15.04.2021
262 Rain 13 1016 88 10000 4 150 15:47 15.04.2021
263 Rain 13 1017 88 10000 4 150 15:27 15.04.2021
264 Rain 14 1016 77 10000 5 150 14:44 15.04.2021
265 Rain 14 1016 77 10000 5 150 14:25 15.04.2021
266 Rain 14 1016 77 10000 5 160 13:48 15.04.2021
267 Rain 14 1016 72 10000 4 150 13:25 15.04.2021
268 Rain 14 1015 72 10000 5 150 12:49 15.04.2021
269 Clear 15 1015 63 10000 5 150 12:26 15.04.2021
270 Clear 15 1015 63 10000 5 150 11:48 15.04.2021
271 Clear 15 1015 63 10000 6 150 11:27 15.04.2021
272 Clear 16 1015 55 10000 5 150 10:58 15.04.2021
273 Clear 16 1015 55 10000 6 150 10:39 15.04.2021
274 Clear 16 1015 55 10000 6 150 10:20 15.04.2021
275 Clear 16 1015 59 10000 6 160 09:29 15.04.2021
276 Clear 16 1016 59 10000 6 170 08:52 15.04.2021
277 Clear 16 1016 55 10000 5 160 08:29 15.04.2021
278 Clear 16 1016 59 10000 5 170 07:33 15.04.2021
279 Clear 17 1017 51 10000 5 140 06:56 15.04.2021
280 Clear 15 1017 51 10000 7 160 06:33 15.04.2021
281 Clear 15 1017 51 10000 7 160 06:33 15.04.2021
282 Clear 15 1019 47 10000 6 150 04:54 15.04.2021
283 Clear 14 1018 58 10000 5 130 02:58 15.04.2021
284 Clear 11 1018 66 10000 4 120 23:49 14.04.2021
285 Clear 11 1018 71 10000 4 130 23:29 14.04.2021
286 Clear 11 1018 71 10000 3 130 22:47 14.04.2021
287 Rain 11 1018 66 10000 3 120 22:28 14.04.2021
288 Clear 11 1019 66 10000 2 110 21:56 14.04.2021
289 Clear 11 1019 66 10000 3 120 21:37 14.04.2021
290 Clear 11 1019 66 10000 3 120 21:18 14.04.2021
291 Clear 11 1019 66 10000 4 120 20:36 14.04.2021
292 Clear 11 1019 66 10000 4 120 20:18 14.04.2021
293 Clear 11 1020 62 10000 3 120 19:38 14.04.2021
294 Clear 11 1020 62 10000 3 120 19:18 14.04.2021
295 Clear 11 1021 58 10000 4 100 18:49 14.04.2021
296 Clear 11 1020 58 10000 4 110 18:19 14.04.2021
297 Clear 12 1021 58 10000 4 120 17:51 14.04.2021
298 Clear 12 1021 58 10000 3 110 17:24 14.04.2021
299 Clear 12 1021 54 10000 4 100 16:43 14.04.2021
300 Clear 12 1021 54 10000 4 100 16:22 14.04.2021
301 Clear 12 1021 50 10000 4 110 15:40 14.04.2021
302 Clear 12 1021 50 10000 3 100 15:18 14.04.2021
303 Clear 12 1021 50 10000 3 80 14:42 14.04.2021
304 Clear 12 1021 50 10000 3 80 14:21 14.04.2021
305 Clear 12 1020 47 10000 3 80 13:47 14.04.2021
306 Clear 12 1020 44 10000 4 100 12:48 14.04.2021
307 Clear 13 1020 44 10000 4 120 12:24 14.04.2021
308 Clear 13 1020 38 10000 3 110 11:42 14.04.2021
309 Rain 13 1020 38 10000 3 110 11:23 14.04.2021
310 Rain 14 1020 36 10000 5 80 10:35 14.04.2021
311 Clear 15 1020 36 10000 4 90 09:46 14.04.2021
312 Clear 15 1021 41 10000 4 60 09:27 14.04.2021
313 Rain 15 1020 41 10000 5 40 08:56 14.04.2021
314 Rain 15 1021 41 10000 3 60 08:32 14.04.2021
315 Clear 16 1022 38 10000 5 50 07:51 14.04.2021
316 Rain 16 1022 39 10000 4 40 06:35 14.04.2021
317 Clear 15 1023 47 10000 3 30 05:52 14.04.2021
318 Clear 13 1023 50 10000 5 90 02:57 14.04.2021
319 Clear 12 1022 58 10000 4 70 01:19 14.04.2021
320 Clouds 12 1022 66 10000 4 50 00:34 14.04.2021
321 Clouds 12 1022 76 10000 3 30 23:38 13.04.2021
322 Rain 11 1021 71 10000 4 40 22:45 13.04.2021
323 Rain 12 1021 71 10000 4 40 22:22 13.04.2021
324 Rain 12 1021 76 10000 4 30 21:50 13.04.2021
325 Rain 12 1021 76 10000 3 50 21:32 13.04.2021
326 Rain 12 1021 76 10000 3 50 20:52 13.04.2021
327 Rain 12 1021 76 10000 3 30 20:25 13.04.2021
328 Rain 12 1020 76 10000 4 30 19:59 13.04.2021
329 Rain 12 1021 76 10000 4 30 19:26 13.04.2021
330 Clear 12 1021 76 10000 4 40 18:57 13.04.2021
331 Rain 12 1021 76 10000 4 40 18:32 13.04.2021
332 Clear 12 1022 76 10000 4 20 17:41 13.04.2021
333 Clear 12 1022 76 10000 4 20 17:22 13.04.2021
334 Clear 12 1021 76 10000 4 30 16:50 13.04.2021
335 Clear 12 1022 76 10000 5 50 16:31 13.04.2021
336 Clouds 13 1022 76 10000 3 50 15:56 13.04.2021
337 Clear 13 1021 76 10000 3 60 15:38 13.04.2021
338 Clear 13 1021 72 10000 4 60 14:58 13.04.2021
339 Clear 13 1021 72 10000 4 80 14:25 13.04.2021
340 Rain 13 1020 72 10000 4 50 13:57 13.04.2021
341 Rain 13 1020 72 10000 6 40 13:39 13.04.2021
342 Clear 13 1020 72 10000 6 40 13:20 13.04.2021
343 Clear 14 1019 77 10000 6 40 12:46 13.04.2021
344 Rain 14 1020 72 10000 5 60 12:22 13.04.2021
345 Clouds 15 1019 72 10000 6 40 11:37 13.04.2021
346 Clouds 15 1019 67 10000 6 50 10:58 13.04.2021
347 Clouds 15 1019 67 10000 6 50 10:58 13.04.2021
348 Clouds 16 1019 67 10000 6 30 10:40 13.04.2021
349 Clouds 16 1019 67 10000 6 30 10:19 13.04.2021
350 Clouds 16 1019 63 10000 6 40 09:49 13.04.2021
351 Clouds 17 1019 63 10000 7 20 09:23 13.04.2021
352 Clouds 17 1019 59 10000 6 30 08:43 13.04.2021
353 Clouds 18 1019 63 10000 6 30 08:21 13.04.2021
354 Clouds 18 1019 63 10000 4 20 07:43 13.04.2021
355 Clouds 18 1019 63 10000 4 20 07:22 13.04.2021
356 Clouds 19 1019 56 10000 4 30 06:19 13.04.2021
357 Clouds 19 1019 77 6000 6 10 03:41 13.04.2021
358 Mist 16 1018 94 3000 2 350 01:31 13.04.2021
359 Mist 15 1017 94 2500 1 20 23:50 12.04.2021
360 Mist 15 1017 94 3200 2 290 23:32 12.04.2021
361 Mist 15 1017 100 3400 1 0 22:46 12.04.2021
362 Mist 15 1017 94 3600 2 260 22:28 12.04.2021
363 Mist 15 1017 94 4000 1 280 21:48 12.04.2021
364 Mist 15 1017 94 4000 1 240 21:24 12.04.2021
365 Mist 15 1017 94 3600 2 280 20:46 12.04.2021
366 Mist 16 1017 88 3600 2 320 20:26 12.04.2021
367 Mist 16 1017 88 3800 2 320 19:58 12.04.2021
368 Mist 16 1017 88 3800 3 310 19:39 12.04.2021
369 Mist 16 1017 88 3800 3 310 19:20 12.04.2021
370 Mist 16 1017 88 4000 2 310 18:47 12.04.2021
371 Mist 17 1017 82 4000 2 280 18:29 12.04.2021
372 Clouds 17 1003 86 10000 1.95 308 17:46 12.04.2021
373 Clouds 17 1003 86 10000 0.45 316 17:25 12.04.2021
374 Mist 17 1017 82 5000 3 300 16:49 12.04.2021
375 Rain 17 1017 82 6000 3 280 16:28 12.04.2021
376 Clouds 17 1017 82 6000 3 290 15:54 12.04.2021
377 Clouds 17 1017 82 6000 4 280 15:33 12.04.2021
378 Clouds 17 1017 82 6000 4 280 14:55 12.04.2021
379 Rain 17 1016 88 6000 3 260 14:36 12.04.2021
380 Rain 17 1016 88 6000 3 270 13:53 12.04.2021
381 Clouds 17 1015 88 6000 4 310 13:31 12.04.2021
382 Clouds 17 1015 88 6000 4 300 12:56 12.04.2021
383 Clouds 17 1014 82 7000 4 310 12:36 12.04.2021
384 Clouds 17 1014 82 7000 4 310 12:18 12.04.2021
385 Clouds 18 1013 82 7000 3 290 11:24 12.04.2021
386 Clouds 18 1013 88 7000 3 290 10:47 12.04.2021
387 Clouds 17 1014 94 7000 3 310 10:27 12.04.2021
388 Clouds 17 1014 94 7000 3 290 09:50 12.04.2021
389 Clouds 17 1014 94 6000 4 290 09:21 12.04.2021
390 Rain 17 1014 94 7000 4 280 08:39 12.04.2021
391 Rain 17 1015 94 3500 4 290 07:42 12.04.2021
392 Rain 17 1015 94 3500 4 290 07:21 12.04.2021
393 Rain 17 1015 94 3800 4 280 06:25 12.04.2021
394 Rain 18 1015 88 6000 3 320 05:41 12.04.2021
395 Rain 17 1015 100 6000 2 220 01:40 12.04.2021
396 Rain 17 1001 97 298 0.45 302 00:25 12.04.2021
397 Rain 17 1001 97 298 2 236 23:49 11.04.2021
398 Rain 17 1001 97 938 0.45 290 23:29 11.04.2021
399 Rain 17 1001 97 938 0.45 302 22:46 11.04.2021
400 Rain 17 1001 97 1736 0.45 296 22:25 11.04.2021
401 Rain 17 1015 100 10000 4 150 21:50 11.04.2021
402 Rain 17 1016 100 10000 5 150 21:30 11.04.2021
403 Rain 17 1016 100 10000 5 160 20:58 11.04.2021
404 Rain 17 1017 100 10000 5 150 20:31 11.04.2021
405 Rain 17 1017 100 10000 4 150 19:58 11.04.2021
406 Rain 17 1018 100 6000 5 160 19:39 11.04.2021
407 Rain 17 1018 100 10000 5 160 19:19 11.04.2021
408 Rain 17 1018 100 10000 5 160 19:19 11.04.2021
409 Rain 17 1018 100 6000 5 160 19:19 11.04.2021
410 Rain 17 1018 100 10000 5 160 18:45 11.04.2021
411 Rain 17 1018 100 10000 5 150 18:26 11.04.2021
412 Rain 17 1019 100 10000 4 150 17:48 11.04.2021
413 Rain 17 1019 100 10000 4 150 17:28 11.04.2021
414 Rain 17 1019 100 8000 5 140 16:52 11.04.2021
415 Rain 17 1020 100 8000 4 150 16:25 11.04.2021
416 Rain 17 1020 100 8000 6 150 15:57 11.04.2021
417 Rain 17 1020 100 8000 4 160 15:38 11.04.2021
418 Rain 17 1020 100 8000 4 160 15:19 11.04.2021
419 Rain 17 1020 100 7000 5 150 14:46 11.04.2021
420 Rain 17 1020 100 7000 5 150 14:18 11.04.2021
421 Rain 17 1019 100 6000 4 150 13:36 11.04.2021
422 Rain 17 1019 100 6000 4 150 13:18 11.04.2021
423 Rain 17 1020 100 4000 4 140 12:23 11.04.2021
424 Rain 17 1019 100 5000 4 140 11:53 11.04.2021
425 Rain 17 1019 94 5000 4 140 11:31 11.04.2021
426 Rain 16 1020 94 7000 3 130 10:56 11.04.2021
427 Rain 16 1020 100 2500 2 110 10:38 11.04.2021
428 Rain 16 1020 100 2500 2 110 10:19 11.04.2021
429 Rain 16 1021 100 3000 3 110 09:37 11.04.2021
430 Rain 16 1021 100 3000 3 110 09:19 11.04.2021
431 Rain 16 1021 94 4500 3 120 08:30 11.04.2021
432 Mist 16 1021 94 4500 3 120 08:30 11.04.2021
433 Rain 15 1022 94 4500 4 120 07:24 11.04.2021
434 Rain 15 1023 100 4500 4 120 06:56 11.04.2021
435 Rain 15 1024 94 4500 3 100 05:44 11.04.2021
436 Mist 15 1025 94 4500 3 110 05:21 11.04.2021
437 Clouds 15 1025 88 10000 5 110 04:35 11.04.2021
438 Rain 15 1025 88 10000 6 110 02:45 11.04.2021
439 Rain 15 1025 82 10000 5 110 00:40 11.04.2021
440 Rain 15 1024 82 10000 5 110 23:49 10.04.2021
441 Clear 15 1024 82 10000 5 120 23:26 10.04.2021
442 Clear 15 1024 82 10000 5 110 22:45 10.04.2021
443 Clear 15 1024 82 10000 4 100 22:23 10.04.2021
444 Clear 15 1024 82 10000 4 110 21:50 10.04.2021
445 Clear 15 1024 82 10000 4 110 21:50 10.04.2021
446 Clear 15 1024 82 10000 4 110 21:23 10.04.2021
447 Clear 15 1024 82 10000 4 110 20:47 10.04.2021
448 Clear 15 1025 82 10000 3 100 20:24 10.04.2021
449 Rain 15 1025 82 10000 3 120 19:45 10.04.2021
450 Rain 15 1025 82 10000 4 110 19:26 10.04.2021
451 Rain 15 1025 82 10000 4 110 18:52 10.04.2021
452 Rain 15 1026 77 10000 4 120 18:31 10.04.2021
453 Rain 15 1026 77 10000 4 120 18:30 10.04.2021
454 Rain 15 1026 77 10000 5 110 17:40 10.04.2021
455 Rain 15 1026 77 10000 5 110 17:21 10.04.2021
456 Rain 15 1026 77 10000 5 100 16:31 10.04.2021
457 Rain 15 1026 77 10000 5 100 15:55 10.04.2021
458 Rain 15 1026 77 10000 4 100 15:32 10.04.2021
459 Rain 15 1026 77 10000 5 110 14:47 10.04.2021
460 Rain 15 1026 77 10000 5 100 14:21 10.04.2021
461 Rain 15 1026 72 10000 4 100 13:43 10.04.2021
462 Clouds 15 1011 69 10000 4.07 85 12:55 10.04.2021
463 Clouds 16 1026 63 10000 6 110 12:34 10.04.2021
464 Clouds 16 1025 63 10000 5 100 11:50 10.04.2021
465 Clouds 17 1025 55 10000 5 110 11:26 10.04.2021
466 Clouds 17 1025 52 10000 6 110 10:52 10.04.2021
467 Clouds 18 1025 48 10000 6 90 10:31 10.04.2021
468 Clouds 18 1025 48 10000 7 100 09:52 10.04.2021
469 Clouds 18 1024 48 10000 7 110 09:23 10.04.2021
470 Clouds 19 1025 45 10000 7 90 08:49 10.04.2021
471 Clouds 19 1025 45 10000 6 100 08:29 10.04.2021
472 Clouds 19 1025 45 10000 6 100 08:29 10.04.2021
473 Clouds 19 1026 45 10000 7 100 07:40 10.04.2021
474 Clouds 19 1026 45 10000 7 100 07:21 10.04.2021
475 Clouds 19 1028 45 10000 5 90 06:24 10.04.2021
476 Clouds 18 1028 55 10000 6 110 04:26 10.04.2021
477 Clouds 16 1028 72 10000 4 110 02:51 10.04.2021
478 Clouds 16 1027 72 10000 4 90 02:33 10.04.2021
479 Clouds 13 1026 71 10000 1 0 00:44 10.04.2021
480 Clear 12 1026 71 10000 1 0 00:25 10.04.2021
481 Clear 11 1025 66 10000 2 80 23:41 09.04.2021
482 Clear 11 1025 66 10000 3 70 22:59 09.04.2021
483 Clear 11 1025 66 10000 3 60 22:38 09.04.2021
484 Clear 11 1025 66 10000 3 60 21:56 09.04.2021
485 Clear 11 1026 66 10000 2 40 21:38 09.04.2021
486 Clear 11 1026 66 10000 2 40 21:18 09.04.2021
487 Clouds 11 1011 57 10000 2.15 50 20:42 09.04.2021
488 Clear 11 1026 66 10000 2 10 20:22 09.04.2021
489 Clear 11 1026 62 10000 2 30 19:44 09.04.2021
490 Rain 12 1026 47 10000 3 50 19:24 09.04.2021
491 Rain 12 1026 43 10000 3 30 18:54 09.04.2021
492 Rain 12 1026 37 10000 3 50 18:32 09.04.2021
493 Rain 12 1026 35 10000 2 60 17:54 09.04.2021
494 Rain 12 1026 35 10000 2 80 17:36 09.04.2021
495 Rain 12 1026 33 10000 2 80 16:56 09.04.2021
496 Rain 12 1026 28 10000 4 70 16:34 09.04.2021
497 Rain 13 1026 26 10000 3 80 15:51 09.04.2021
498 Rain 13 1026 26 10000 4 70 15:33 09.04.2021
499 Rain 13 1025 26 10000 4 70 14:57 09.04.2021
500 Rain 13 1025 29 10000 3 80 14:33 09.04.2021
501 Rain 14 1024 29 10000 4 60 13:52 09.04.2021
502 Rain 14 1025 29 10000 3 70 13:24 09.04.2021
503 Clear 15 1024 29 10000 4 80 12:51 09.04.2021
504 Clouds 15 1022 43 10000 0.89 285 12:32 09.04.2021
505 Clear 16 1024 27 10000 4 60 11:45 09.04.2021
506 Clear 16 1024 27 10000 4 60 11:45 09.04.2021
507 Clear 17 1024 25 10000 5 60 11:22 09.04.2021
508 Clear 17 1024 25 10000 4 60 10:46 09.04.2021
509 Clear 18 1023 24 10000 5 50 10:20 09.04.2021
510 Clear 19 1024 27 10000 4 30 09:30 09.04.2021
511 Clear 18 1024 24 10000 5 70 08:57 09.04.2021
512 Clear 18 1024 24 10000 5 60 08:37 09.04.2021
513 Clear 19 1024 24 10000 6 40 07:35 09.04.2021
514 Clear 18 1025 27 10000 4 50 06:34 09.04.2021
515 Clear 18 1025 27 10000 4 50 05:53 09.04.2021
516 Clear 16 1025 31 10000 4 50 03:50 09.04.2021
517 Clear 12 1024 71 10000 3 20 01:27 09.04.2021
518 Clear 10 1023 87 10000 3 20 00:36 09.04.2021
519 Clear 10 1023 87 10000 3 10 00:18 09.04.2021
520 Clear 10 1023 87 10000 3 10 23:18 08.04.2021
521 Clear 10 1022 81 10000 4 30 22:42 08.04.2021
522 Clear 10 1022 81 10000 4 30 22:21 08.04.2021
523 Clear 10 1022 81 10000 3 30 21:54 08.04.2021
524 Clear 10 1022 81 10000 3 30 21:36 08.04.2021
525 Clear 10 1022 81 10000 3 30 21:18 08.04.2021
526 Clear 10 1022 76 10000 3 20 20:45 08.04.2021
527 Clear 11 1022 71 10000 3 20 20:25 08.04.2021
528 Clear 11 1022 62 10000 4 20 19:42 08.04.2021
529 Clear 11 1022 62 10000 4 20 19:19 08.04.2021
530 Clear 12 1022 62 10000 3 40 18:45 08.04.2021
531 Clear 12 1022 58 10000 4 30 18:20 08.04.2021
532 Clear 12 1022 58 10000 3 20 17:48 08.04.2021
533 Clear 13 1022 54 10000 3 40 17:24 08.04.2021
534 Clear 13 1022 58 10000 4 50 16:46 08.04.2021
535 Clear 13 1022 50 10000 3 20 16:25 08.04.2021
536 Clear 13 1023 41 10000 4 40 15:47 08.04.2021
537 Clear 14 1022 44 10000 2 40 15:28 08.04.2021
538 Clear 14 1022 38 10000 3 50 14:44 08.04.2021
539 Clouds 14 1021 64 10000 2.42 32 14:23 08.04.2021
540 Rain 15 1022 36 10000 2 80 13:54 08.04.2021
541 Rain 15 1021 36 10000 3 40 13:36 08.04.2021
542 Clear 15 1021 36 10000 3 40 13:18 08.04.2021
543 Clear 16 1021 36 10000 4 50 12:38 08.04.2021
544 Clear 17 1020 32 10000 4 60 11:59 08.04.2021
545 Clear 17 1020 32 10000 4 50 11:37 08.04.2021
546 Clear 18 1020 34 10000 4 30 10:56 08.04.2021
547 Clear 19 1020 37 10000 5 50 10:27 08.04.2021
548 Clear 19 1020 37 10000 5 50 09:51 08.04.2021
549 Clear 19 1021 37 10000 5 20 09:33 08.04.2021
550 Clear 18 1021 30 10000 4 30 08:45 08.04.2021
551 Clear 18 1021 36 10000 4 20 08:45 08.04.2021
552 Clear 18 1021 30 10000 4 30 08:45 08.04.2021
553 Clear 18 1021 30 10000 4 30 08:24 08.04.2021
554 Clear 18 1021 32 10000 4 60 07:53 08.04.2021
555 Clear 18 1022 34 10000 4 50 06:48 08.04.2021
556 Rain 13 1023 76 10000 2 60 02:26 08.04.2021
557 Rain 12 1022 66 10000 3 50 00:34 08.04.2021
558 Rain 12 1020 83 10000 2.13 50 23:55 07.04.2021
559 Rain 12 1021 66 10000 3 60 23:37 07.04.2021
560 Rain 12 1021 66 10000 5 60 23:18 07.04.2021
561 Clouds 12 1020 76 10000 4 30 22:43 07.04.2021
562 Clouds 12 1020 76 10000 4 30 22:22 07.04.2021
563 Clouds 12 1020 76 10000 4 30 22:22 07.04.2021
564 Rain 12 1021 76 10000 4 40 21:41 07.04.2021
565 Rain 12 1021 82 10000 2 40 21:20 07.04.2021
566 Rain 12 1021 82 10000 4 50 20:41 07.04.2021
567 Rain 12 1021 82 10000 4 50 20:20 07.04.2021
568 Rain 11 1021 82 10000 3 40 19:42 07.04.2021
569 Rain 11 1021 82 10000 3 40 19:22 07.04.2021
570 Clouds 11 1021 87 10000 3 50 18:42 07.04.2021
571 Rain 11 1021 87 10000 3 50 18:19 07.04.2021
572 Rain 11 1021 87 10000 2 40 17:50 07.04.2021
573 Rain 11 1021 87 10000 2 40 17:32 07.04.2021
574 Rain 12 1020 90 10000 2.06 46 16:47 07.04.2021
575 Rain 12 1020 90 10000 2.06 46 16:47 07.04.2021
576 Rain 12 1022 76 10000 2 80 16:21 07.04.2021
577 Rain 12 1020 84 10000 1.79 77 15:56 07.04.2021
578 Rain 12 1021 86 10000 1.79 77 15:38 07.04.2021
579 Rain 12 1022 76 10000 3 50 14:48 07.04.2021
580 Rain 12 1022 82 10000 3 20 14:25 07.04.2021
581 Rain 12 1022 67 10000 3 20 13:45 07.04.2021
582 Rain 13 1021 67 10000 3 40 13:20 07.04.2021
583 Rain 13 1021 62 10000 3 60 12:48 07.04.2021
584 Rain 14 1020 62 10000 3 80 12:21 07.04.2021
585 Rain 14 1020 62 10000 3 70 11:45 07.04.2021
586 Rain 14 1020 58 10000 4 80 11:24 07.04.2021
587 Rain 14 1020 55 10000 4 100 10:50 07.04.2021
588 Rain 16 1020 36 10000 3 110 09:51 07.04.2021
589 Rain 17 1020 29 10000 4 100 09:30 07.04.2021
590 Rain 17 1020 29 10000 4 100 09:30 07.04.2021
591 Rain 17 1020 34 10000 4 90 08:59 07.04.2021
592 Rain 17 1020 32 10000 4 120 08:33 07.04.2021
593 Rain 18 1021 32 10000 4 110 07:56 07.04.2021
594 Rain 18 1021 32 10000 4 120 07:29 07.04.2021
595 Rain 18 1021 32 10000 4 110 06:52 07.04.2021
596 Rain 18 1021 32 10000 5 120 06:18 07.04.2021
597 Rain 17 1023 36 10000 3 90 03:32 07.04.2021
598 Clear 12 1022 54 10000 2 110 23:52 06.04.2021
599 Clear 12 1022 58 10000 2 140 23:23 06.04.2021
600 Clear 13 1022 58 10000 2 110 22:59 06.04.2021
601 Clear 13 1022 54 10000 2 100 22:22 06.04.2021
602 Clear 13 1022 62 10000 2 120 21:57 06.04.2021
603 Rain 13 1022 62 10000 2 90 21:38 06.04.2021
604 Rain 13 1022 62 10000 2 90 21:19 06.04.2021
605 Rain 13 1022 62 10000 3 120 20:45 06.04.2021
606 Rain 13 1022 58 10000 3 110 20:21 06.04.2021
607 Rain 13 1023 58 10000 2 120 19:47 06.04.2021
608 Rain 13 1023 58 10000 2 140 19:29 06.04.2021
609 Rain 13 1023 54 10000 2 140 18:45 06.04.2021
610 Rain 13 1023 47 10000 3 130 18:23 06.04.2021
611 Rain 13 1023 47 10000 3 110 17:45 06.04.2021
612 Rain 14 1023 44 10000 3 110 17:27 06.04.2021
613 Rain 14 1023 41 10000 3 120 16:49 06.04.2021
614 Rain 14 1024 41 10000 2 100 16:30 06.04.2021
615 Rain 14 1024 36 10000 4 110 15:28 06.04.2021
616 Rain 14 1023 38 10000 3 110 14:55 06.04.2021
617 Rain 15 1023 36 10000 3 110 14:37 06.04.2021
618 Rain 15 1023 36 10000 3 110 14:37 06.04.2021
619 Rain 15 1023 36 10000 3 110 14:18 06.04.2021
620 Rain 15 1022 36 10000 4 90 13:40 06.04.2021
621 Rain 15 1022 36 10000 4 90 13:21 06.04.2021
622 Clear 15 1021 39 10000 4 80 12:41 06.04.2021
623 Clear 15 1021 39 10000 4 80 12:20 06.04.2021
624 Clear 16 1021 34 10000 5 70 11:49 06.04.2021
625 Clear 17 1021 32 10000 5 60 11:21 06.04.2021
626 Clear 18 1021 34 10000 5 20 10:47 06.04.2021
627 Clear 19 1021 28 10000 4 30 10:25 06.04.2021
628 Clear 19 1021 24 10000 3 0 09:48 06.04.2021
629 Clear 19 1021 24 10000 3 0 09:48 06.04.2021
630 Clear 20 1021 22 10000 3 10 09:29 06.04.2021
631 Clear 20 1021 26 10000 3 30 08:40 06.04.2021
632 Clear 21 1021 26 10000 3 20 07:57 06.04.2021
633 Clear 19 1022 32 10000 4 20 06:55 06.04.2021
634 Clear 17 1023 36 10000 3 0 05:22 06.04.2021
635 Clear 15 1022 62 10000 1 0 01:57 06.04.2021
636 Clear 13 1022 62 10000 2 60 00:44 06.04.2021
637 Clear 13 1022 62 10000 2 40 00:21 06.04.2021
638 Clear 13 1021 67 10000 3 10 23:42 05.04.2021
639 Clear 13 1021 67 10000 3 10 23:19 05.04.2021
640 Clear 13 1021 71 10000 1.84 40 22:45 05.04.2021
641 Clear 13 1021 71 10000 1 0 22:24 05.04.2021
642 Rain 13 1020 67 10000 3 110 21:40 05.04.2021
643 Rain 13 1020 67 10000 3 110 21:20 05.04.2021
644 Rain 13 1020 58 10000 2 70 20:42 05.04.2021
645 Rain 13 1020 58 10000 2 70 20:23 05.04.2021
646 Rain 13 1021 58 10000 2 30 19:40 05.04.2021
647 Rain 13 1021 58 10000 2 30 19:19 05.04.2021
648 Rain 13 1021 58 10000 3 50 18:43 05.04.2021
649 Rain 13 1021 54 10000 2 80 18:25 05.04.2021
650 Rain 13 1022 54 10000 2 100 17:48 05.04.2021
651 Rain 13 1022 54 10000 1 0 17:25 05.04.2021
652 Rain 13 1022 54 10000 2 120 16:57 05.04.2021
653 Rain 13 1022 54 10000 3 110 16:38 05.04.2021
654 Rain 13 1022 54 10000 3 110 16:18 05.04.2021
655 Rain 13 1022 54 10000 4 120 15:40 05.04.2021
656 Rain 13 1022 54 10000 4 120 15:21 05.04.2021
657 Rain 14 1021 47 10000 5 120 14:36 05.04.2021
658 Rain 14 1021 47 10000 3 70 13:54 05.04.2021
659 Rain 14 1021 44 10000 4 80 13:29 05.04.2021
660 Rain 14 1021 41 10000 4 50 12:47 05.04.2021
661 Rain 14 1021 41 10000 4 50 12:47 05.04.2021
662 Rain 15 1020 33 10000 4 40 12:26 05.04.2021
663 Clear 15 1020 31 10000 4 50 11:52 05.04.2021
664 Clear 16 1021 29 10000 3 50 11:30 05.04.2021
665 Clear 17 1021 27 10000 3 60 10:56 05.04.2021
666 Clear 17 1021 27 10000 3 60 10:56 05.04.2021
667 Clear 16 1021 25 10000 4 80 10:35 05.04.2021
668 Clear 18 1021 24 10000 4 20 09:49 05.04.2021
669 Clear 19 1021 22 10000 5 40 09:26 05.04.2021
670 Clear 19 1021 22 10000 4 30 08:50 05.04.2021
671 Clear 17 1022 24 10000 3 90 08:28 05.04.2021
672 Clear 17 1022 27 10000 3 10 07:58 05.04.2021
673 Clear 17 1022 25 10000 3 80 07:33 05.04.2021
674 Clear 15 1025 44 10000 3 360 03:42 05.04.2021
675 Clear 11 1024 71 10000 2 360 00:56 05.04.2021
676 Clear 10 1024 66 10000 3 320 00:19 05.04.2021
677 Clear 9 1024 66 10000 3 350 23:32 04.04.2021
678 Clear 10 1009 58 10000 3.19 345 22:58 04.04.2021
679 Clear 10 1024 61 10000 3 330 22:34 04.04.2021
680 Clear 10 1024 61 10000 3 330 22:34 04.04.2021
681 Clear 10 1023 61 10000 3 330 21:57 04.04.2021
682 Clear 10 1009 56 10000 2.85 343 21:22 04.04.2021
683 Clear 10 1024 57 10000 4 340 20:43 04.04.2021
684 Clear 10 1024 57 10000 3 340 20:23 04.04.2021
685 Clear 10 1025 53 10000 4 330 19:40 04.04.2021
686 Clear 10 1025 53 10000 4 330 19:19 04.04.2021
687 Clear 10 1024 53 10000 4 330 18:51 04.04.2021
688 Clear 11 1010 50 10000 3.6 352 18:25 04.04.2021
689 Clear 11 1025 53 10000 4 300 17:58 04.04.2021
690 Clear 11 1025 53 10000 4 330 17:25 04.04.2021
691 Clear 11 1010 44 10000 3.93 351 16:56 04.04.2021
692 Clear 11 1010 44 10000 3.93 351 16:38 04.04.2021
693 Clear 11 1024 43 10000 6 360 15:54 04.04.2021
694 Clear 11 1025 43 10000 6 350 15:31 04.04.2021
695 Clear 11 1024 43 10000 8 360 14:40 04.04.2021
696 Clear 12 1024 43 10000 8 360 14:20 04.04.2021
697 Clear 12 1023 41 10000 8 10 13:27 04.04.2021
698 Clear 13 1023 44 10000 8 10 12:51 04.04.2021
699 Clear 13 1022 41 10000 8 360 12:28 04.04.2021
700 Clear 14 1022 38 10000 8 10 11:49 04.04.2021
701 Clear 15 1021 33 10000 8 360 11:30 04.04.2021
702 Clear 16 1021 29 10000 9 10 10:47 04.04.2021
703 Clear 16 1021 31 10000 9 10 10:23 04.04.2021
704 Clear 16 1021 29 10000 9 10 09:44 04.04.2021
705 Clear 17 1021 31 10000 8 360 09:21 04.04.2021
706 Clear 17 1021 31 10000 10 10 08:44 04.04.2021
707 Clear 16 1021 34 10000 8 360 08:24 04.04.2021
708 Clear 17 1022 39 10000 7 340 06:39 04.04.2021
709 Clear 16 1022 41 10000 7 340 05:44 04.04.2021
710 Clouds 12 1022 76 10000 6 340 02:20 04.04.2021
711 Clouds 12 1022 76 10000 7 350 00:47 04.04.2021
712 Clouds 11 1021 82 10000 7 350 00:18 04.04.2021
713 Clouds 11 1021 76 10000 7 350 23:39 03.04.2021
714 Clouds 11 1020 76 10000 6 340 22:56 03.04.2021
715 Clouds 11 1020 82 10000 7 340 22:25 03.04.2021
716 Clouds 11 1020 82 10000 6 340 21:59 03.04.2021
717 Clouds 11 1020 82 10000 7 340 21:39 03.04.2021
718 Clouds 11 1020 82 10000 7 340 21:20 03.04.2021
719 Clouds 11 1020 82 10000 6 340 20:38 03.04.2021
720 Clouds 11 1020 82 10000 6 340 20:18 03.04.2021
721 Clouds 11 1020 82 10000 7 340 19:43 03.04.2021
722 Clouds 11 1020 82 10000 8 350 19:18 03.04.2021
723 Clouds 11 1020 87 10000 7 350 18:44 03.04.2021
724 Clouds 11 1020 87 10000 7 340 17:58 03.04.2021
725 Clouds 12 1020 87 10000 8 350 17:28 03.04.2021
726 Clouds 12 1020 82 10000 7 350 16:59 03.04.2021
727 Clouds 12 1020 82 10000 6 340 16:32 03.04.2021
728 Clouds 12 1020 87 10000 7 350 15:57 03.04.2021
729 Clouds 12 1019 82 10000 8 340 15:39 03.04.2021
730 Clouds 12 1019 82 10000 8 340 15:18 03.04.2021
731 Rain 12 1018 82 10000 8 360 14:37 03.04.2021
732 Clouds 12 1018 82 10000 8 360 14:18 03.04.2021
733 Rain 13 1017 82 10000 6 340 13:40 03.04.2021
734 Clouds 13 1017 82 10000 6 340 13:20 03.04.2021
735 Rain 14 1016 82 10000 7 340 12:40 03.04.2021
736 Clouds 14 1016 82 10000 7 340 12:19 03.04.2021
737 Clouds 15 1016 77 10000 8 330 11:32 03.04.2021
738 Clouds 15 1016 77 10000 7 320 10:49 03.04.2021
739 Clouds 16 1015 77 10000 6 310 10:30 03.04.2021
740 Clouds 16 1015 77 10000 7 310 09:50 03.04.2021
741 Clouds 17 1014 77 10000 7 320 09:27 03.04.2021
742 Clouds 17 1014 77 10000 6 310 08:38 03.04.2021
743 Clouds 17 1014 77 10000 6 310 08:19 03.04.2021
744 Clouds 17 1014 77 10000 5 310 07:27 03.04.2021
745 Mist 17 1016 77 5000 6 300 04:27 03.04.2021
746 Mist 16 1015 82 5000 4 280 02:58 03.04.2021
747 Mist 16 1015 82 5000 4 290 02:34 03.04.2021
748 Mist 16 1015 82 5000 4 300 01:31 03.04.2021
749 Mist 16 1014 88 4500 3 320 00:19 03.04.2021
750 Mist 16 1013 88 4500 3 330 23:46 02.04.2021
751 Mist 16 1013 88 4500 4 330 23:19 02.04.2021
752 Mist 16 1013 88 4500 3 330 22:45 02.04.2021
753 Mist 16 1013 94 4500 4 340 22:26 02.04.2021
754 Mist 16 1012 94 5000 4 310 21:42 02.04.2021
755 Mist 16 1012 94 5000 4 310 21:20 02.04.2021
756 Mist 16 1012 94 5000 3 320 20:47 02.04.2021
757 Mist 17 1013 88 5000 4 330 20:25 02.04.2021
758 Mist 17 1013 88 5000 3 310 19:43 02.04.2021
759 Mist 17 1013 88 5000 3 310 19:24 02.04.2021
760 Mist 17 1013 88 5000 3 310 18:50 02.04.2021
761 Mist 17 1013 88 5000 3 320 18:31 02.04.2021
762 Mist 17 1013 88 5000 3 320 17:59 02.04.2021
763 Mist 17 1013 82 5000 2 320 17:34 02.04.2021
764 Mist 17 1013 82 5000 3 360 16:43 02.04.2021
765 Mist 18 1013 82 5000 3 350 15:50 02.04.2021
766 Mist 18 1012 82 5000 3 350 15:28 02.04.2021
767 Mist 18 1012 82 5000 3 320 14:41 02.04.2021
768 Mist 18 1012 82 5000 3 320 14:21 02.04.2021
769 Clouds 18 1012 82 6000 3 340 13:39 02.04.2021
770 Clouds 18 1012 82 6000 3 340 13:19 02.04.2021
771 Clouds 18 998 81 10000 1.94 336 12:38 02.04.2021
772 Mist 19 1012 77 5000 4 320 12:19 02.04.2021
773 Mist 19 1011 82 4500 4 340 11:48 02.04.2021
774 Mist 19 1011 77 4500 4 340 11:19 02.04.2021
775 Mist 19 1011 77 4500 5 340 10:43 02.04.2021
776 Mist 20 1011 77 4500 5 340 10:23 02.04.2021
777 Mist 20 1011 82 4500 4 360 09:46 02.04.2021
778 Mist 20 1011 77 4500 4 350 09:24 02.04.2021
779 Mist 20 1011 77 4500 5 340 08:46 02.04.2021
780 Mist 20 1011 77 4500 5 340 08:46 02.04.2021
781 Mist 20 1011 77 4500 4 350 08:26 02.04.2021
782 Mist 20 1011 73 4500 4 330 07:20 02.04.2021
783 Mist 18 1013 82 4000 3 290 06:34 02.04.2021
784 Mist 17 1013 94 5000 3 310 03:39 02.04.2021
785 Mist 15 1012 100 3500 3 360 01:37 02.04.2021
786 Mist 15 1011 94 2000 2 340 00:43 02.04.2021
787 Clouds 15 1011 94 6000 2 310 23:44 01.04.2021
788 Mist 15 1011 100 5000 3 330 23:26 01.04.2021
789 Rain 15 1010 100 2500 3 350 22:23 01.04.2021
790 Rain 15 1010 94 2000 3 340 21:59 01.04.2021
791 Mist 15 1010 94 3000 3 320 21:41 01.04.2021
792 Mist 15 1010 94 3000 3 320 21:22 01.04.2021
793 Mist 15 1010 94 4000 2 360 20:40 01.04.2021
794 Rain 15 1010 94 4000 2 360 20:21 01.04.2021
795 Mist 15 1010 94 4000 3 360 19:41 01.04.2021
796 Mist 15 1010 94 4000 3 360 19:18 01.04.2021
797 Clouds 15 1011 94 6000 3 320 18:43 01.04.2021
798 Clouds 15 1011 94 6000 3 320 18:18 01.04.2021
799 Mist 15 1011 94 5000 3 10 17:39 01.04.2021
800 Mist 15 1011 94 5000 3 10 17:21 01.04.2021
801 Mist 15 1011 94 2000 3 350 16:47 01.04.2021
802 Clouds 15 1010 100 7000 1 0 15:59 01.04.2021
803 Clouds 15 1010 100 7000 2 60 15:24 01.04.2021
804 Mist 15 1009 100 5000 3 30 14:57 01.04.2021
805 Mist 15 1009 100 3000 4 30 14:38 01.04.2021
806 Mist 15 1009 100 3000 4 30 14:19 01.04.2021
807 Mist 15 1009 100 3000 4 10 13:47 01.04.2021
808 Mist 15 1009 100 1400 4 10 13:27 01.04.2021
809 Mist 15 1009 94 3000 4 20 12:46 01.04.2021
810 Mist 16 1008 94 5000 4 20 12:28 01.04.2021
811 Clouds 16 1008 88 6000 3 360 11:44 01.04.2021
812 Clouds 16 1008 88 6000 2 10 11:19 01.04.2021
813 Clouds 16 1008 94 6000 3 360 10:47 01.04.2021
814 Clouds 16 1008 94 6000 3 360 10:47 01.04.2021
815 Clouds 16 1008 94 6000 3 20 10:27 01.04.2021
816 Clouds 17 1008 94 6000 4 360 09:32 01.04.2021
817 Rain 17 1008 94 6000 3 10 08:58 01.04.2021
818 Clouds 17 1008 94 6000 3 10 08:32 01.04.2021
819 Rain 16 1009 94 7000 2 20 07:22 01.04.2021
820 Clouds 16 1009 94 7000 1 0 06:57 01.04.2021
821 Clouds 16 1009 94 7000 2 80 06:20 01.04.2021
822 Rain 15 1009 94 5000 3 50 03:23 01.04.2021
823 Mist 15 1007 100 3000 5 20 00:23 01.04.2021
824 Rain 15 1007 100 4500 4 20 23:44 31.03.2021
825 Mist 15 1006 100 5000 2 60 22:56 31.03.2021
826 Rain 15 1007 100 5000 3 140 22:37 31.03.2021
827 Rain 15 1007 100 5000 3 140 22:18 31.03.2021
828 Rain 15 1007 100 7000 3 160 21:40 31.03.2021
829 Rain 15 1007 100 7000 3 160 21:19 31.03.2021
830 Rain 15 1007 100 7000 3 160 21:19 31.03.2021
831 Rain 15 1008 94 5000 2 30 20:41 31.03.2021
832 Rain 15 1008 94 5000 2 30 20:22 31.03.2021
833 Rain 15 1009 94 5000 3 100 19:42 31.03.2021
834 Rain 14 1009 94 5000 3 100 19:21 31.03.2021
835 Rain 14 1008 94 5000 4 50 18:56 31.03.2021
836 Clouds 14 1007 100 6000 5 60 18:35 31.03.2021
837 Rain 14 1007 100 10000 4 70 17:44 31.03.2021
838 Rain 14 1007 100 10000 4 70 17:21 31.03.2021
839 Rain 15 1007 100 7000 5 110 16:55 31.03.2021
840 Rain 14 1008 100 2000 6 100 16:35 31.03.2021
841 Rain 15 1008 100 2000 3 100 15:54 31.03.2021
842 Rain 15 1009 100 2000 3 100 15:22 31.03.2021
843 Rain 15 1008 100 3000 3 100 14:53 31.03.2021
844 Mist 15 1008 100 5000 3 100 14:26 31.03.2021
845 Clouds 15 1008 94 6000 5 110 13:57 31.03.2021
846 Clouds 15 1007 94 6000 4 100 13:24 31.03.2021
847 Clouds 14 1007 94 6000 5 100 12:41 31.03.2021
848 Clouds 14 1007 94 6000 5 100 12:19 31.03.2021
849 Clouds 15 1007 94 6000 4 100 11:23 31.03.2021
850 Clouds 15 1007 94 6000 5 90 10:51 31.03.2021
851 Clouds 15 1007 88 6000 5 100 10:28 31.03.2021
852 Clouds 15 1007 88 6000 5 90 09:58 31.03.2021
853 Clouds 15 1007 88 6000 4 90 09:33 31.03.2021
854 Clouds 15 1007 88 6000 4 90 08:48 31.03.2021
855 Clouds 15 1007 94 6000 5 100 08:30 31.03.2021
856 Clouds 15 1007 94 6000 5 100 08:30 31.03.2021
857 Clouds 16 1008 94 7000 4 90 07:41 31.03.2021
858 Clouds 15 1009 88 8000 4 110 05:52 31.03.2021
859 Clouds 14 1008 94 10000 5 110 02:42 31.03.2021
860 Rain 13 1009 88 8000 4 110 00:54 31.03.2021
861 Rain 13 1009 88 8000 3 110 00:26 31.03.2021
862 Rain 13 1009 88 10000 6 110 23:57 30.03.2021
863 Rain 13 1009 88 10000 4 110 23:25 30.03.2021
864 Rain 14 1010 77 10000 3 90 22:50 30.03.2021
865 Rain 14 1011 72 10000 1 0 22:31 30.03.2021
866 Rain 14 1011 72 10000 2 290 21:59 30.03.2021
867 Rain 14 1011 67 10000 3 50 21:31 30.03.2021
868 Rain 14 1011 67 10000 3 30 20:59 30.03.2021
869 Rain 14 1011 63 10000 2 80 20:38 30.03.2021
870 Clear 14 1011 63 10000 2 80 20:19 30.03.2021
871 Rain 14 1011 63 10000 4 100 19:41 30.03.2021
872 Rain 14 1010 58 10000 5 90 18:57 30.03.2021
873 Rain 14 1010 55 10000 5 100 18:27 30.03.2021
874 Clear 14 1010 55 10000 5 100 17:47 30.03.2021
875 Rain 14 1011 55 10000 4 110 17:29 30.03.2021
876 Rain 14 1011 58 10000 4 100 16:47 30.03.2021
877 Rain 14 1012 58 10000 4 100 16:27 30.03.2021
878 Rain 15 1012 55 10000 3 120 15:38 30.03.2021
879 Rain 14 1012 55 10000 3 120 15:19 30.03.2021
880 Rain 15 1012 55 10000 4 110 14:45 30.03.2021
881 Rain 15 1012 55 10000 4 130 14:20 30.03.2021
882 Clear 15 1012 51 10000 4 120 13:49 30.03.2021
883 Clear 15 1011 41 10000 4 80 13:24 30.03.2021
884 Clear 16 1011 34 10000 3 90 12:41 30.03.2021
885 Clear 16 1011 34 10000 3 90 12:41 30.03.2021
886 Clear 16 1011 34 10000 3 90 12:41 30.03.2021
887 Clear 16 1011 34 10000 3 90 12:21 30.03.2021
888 Clouds 16 1011 29 8000 5 110 11:43 30.03.2021
889 Clouds 16 1011 29 8000 5 110 11:19 30.03.2021
890 Rain 17 1011 32 6000 4 80 10:41 30.03.2021
891 Clouds 17 1011 32 6000 4 80 10:19 30.03.2021
892 Rain 18 1011 26 6000 5 60 09:41 30.03.2021
893 Rain 18 1011 26 6000 5 60 09:41 30.03.2021
894 Rain 18 1011 26 6000 5 60 09:21 30.03.2021
895 Clouds 18 1011 26 6000 6 60 08:42 30.03.2021
896 Clouds 19 1011 30 6000 6 80 07:56 30.03.2021
897 Clouds 19 1011 30 6000 6 60 07:31 30.03.2021
898 Clouds 18 1011 37 6000 6 60 06:29 30.03.2021
899 Clouds 18 1011 52 6000 5 80 05:25 30.03.2021
900 Clouds 15 1009 94 6000 4 50 01:44 30.03.2021
901 Mist 14 1007 94 5000 5 60 23:53 29.03.2021
902 Clouds 15 1007 94 6000 5 60 23:21 29.03.2021
903 Clouds 15 1006 94 6000 5 100 22:37 29.03.2021
904 Clouds 15 1006 94 6000 4 90 21:55 29.03.2021
905 Clouds 15 1006 94 6000 4 80 21:33 29.03.2021
906 Clouds 15 1006 94 6000 4 100 20:51 29.03.2021
907 Mist 15 1006 88 5000 5 110 20:29 29.03.2021
908 Mist 15 1007 88 5000 5 80 19:53 29.03.2021
909 Clouds 15 1007 94 7000 5 100 19:27 29.03.2021
910 Clouds 15 1007 94 7000 5 100 19:27 29.03.2021
911 Clouds 15 1007 94 10000 5 100 18:51 29.03.2021
912 Clouds 16 1007 88 10000 5 100 18:27 29.03.2021
913 Clouds 16 1007 88 10000 5 110 17:55 29.03.2021
914 Clouds 16 1007 88 10000 5 100 17:35 29.03.2021
915 Clouds 16 1007 88 10000 5 100 16:52 29.03.2021
916 Clouds 16 1007 88 10000 5 100 16:25 29.03.2021
917 Clouds 16 1007 88 10000 5 100 15:40 29.03.2021
918 Clouds 16 1007 88 10000 5 100 15:22 29.03.2021
919 Clouds 16 1006 82 10000 6 110 14:47 29.03.2021
920 Rain 17 1006 77 10000 5 110 13:56 29.03.2021
921 Rain 17 1006 72 10000 5 110 13:37 29.03.2021
922 Clear 17 1005 60 10000 5 100 12:59 29.03.2021
923 Clear 18 1005 60 10000 5 80 12:40 29.03.2021
924 Clear 18 1005 52 10000 6 110 11:45 29.03.2021
925 Clear 19 1005 49 10000 5 110 11:27 29.03.2021
926 Clear 19 1005 49 10000 5 110 11:27 29.03.2021
927 Clear 20 1004 46 10000 6 110 10:46 29.03.2021
928 Clear 23 1004 43 10000 7 110 10:19 29.03.2021
929 Clear 22 1005 36 10000 6 130 09:32 29.03.2021
930 Clear 22 1005 38 10000 7 120 08:35 29.03.2021
931 Clear 25 1006 44 10000 6 140 07:54 29.03.2021
932 Clear 25 1006 47 10000 7 140 07:19 29.03.2021
933 Clouds 23 1007 47 10000 6 150 06:23 29.03.2021
934 Mist 18 1010 77 5000 4 150 02:33 29.03.2021
935 Mist 15 1009 94 4000 2 150 00:30 29.03.2021
936 Clear 15 1009 94 6000 2 160 23:58 28.03.2021
937 Clear 15 1009 94 6000 2 160 23:25 28.03.2021
938 Clear 15 1009 88 6000 2 150 22:48 28.03.2021
939 Clear 15 1008 88 6000 2 150 22:28 28.03.2021
940 Clear 15 1008 82 6000 3 160 21:47 28.03.2021
941 Clear 15 1009 82 6000 2 150 21:25 28.03.2021
942 Clear 15 1009 82 6000 3 150 20:54 28.03.2021
943 Clear 15 1009 82 7000 3 150 20:35 28.03.2021
944 Clear 16 1009 77 8000 3 160 19:59 28.03.2021
945 Clear 16 1010 72 8000 3 160 19:41 28.03.2021
946 Clear 16 1010 72 8000 3 160 19:20 28.03.2021
947 Clear 17 1010 72 8000 2 150 18:41 28.03.2021
948 Clear 17 1010 72 8000 2 150 18:18 28.03.2021
949 Clear 17 1009 77 10000 2 190 17:37 28.03.2021
950 Clear 18 1009 77 10000 2 180 16:56 28.03.2021
951 Clear 18 1009 72 10000 2 180 16:28 28.03.2021
952 Clear 18 1009 72 10000 2 180 15:57 28.03.2021
953 Clear 19 1009 72 10000 3 190 15:24 28.03.2021
954 Clear 19 1009 68 10000 2 190 14:46 28.03.2021
955 Clear 20 1008 35 10000 2 210 14:18 28.03.2021
956 Clear 21 1008 30 10000 1 0 13:35 28.03.2021
957 Clear 21 1008 30 10000 2 0 12:56 28.03.2021
958 Clear 21 1008 33 10000 2 0 12:34 28.03.2021
959 Clear 23 1008 35 10000 3 0 11:52 28.03.2021
960 Clear 22 1007 38 10000 4 260 11:32 28.03.2021
961 Clear 23 1007 35 10000 3 0 10:48 28.03.2021
962 Clear 25 1007 38 8000 4 290 10:29 28.03.2021
963 Clear 24 1007 41 8000 5 240 09:51 28.03.2021
964 Clear 24 1007 46 8000 3 210 09:27 28.03.2021
965 Clear 24 1007 46 8000 3 250 08:48 28.03.2021
966 Clear 23 1008 46 7000 3 0 08:30 28.03.2021
967 Clear 24 1009 49 8000 3 0 07:39 28.03.2021
968 Clouds 21 1010 64 7000 3 260 05:39 28.03.2021
969 Clouds 17 1010 77 6000 2 280 03:26 28.03.2021
970 Mist 15 1010 88 5000 1 0 00:34 28.03.2021
971 Mist 15 1009 88 5000 1 0 23:50 27.03.2021
972 Mist 14 1009 94 5000 2 250 23:32 27.03.2021
973 Clouds 14 996 92 10000 0.45 329 22:40 27.03.2021
974 Clouds 14 996 92 10000 2.16 298 22:20 27.03.2021
975 Clouds 15 1008 94 7000 2 290 21:41 27.03.2021
976 Clouds 15 1008 94 7000 2 290 21:41 27.03.2021
977 Clouds 15 1008 94 7000 2 290 21:20 27.03.2021
978 Clouds 15 1009 94 7000 2 270 20:55 27.03.2021
979 Clouds 15 1009 94 7000 1 0 20:37 27.03.2021
980 Clouds 15 1009 88 7000 2 260 19:45 27.03.2021
981 Clouds 15 1009 94 7000 2 310 19:24 27.03.2021
982 Clouds 15 1009 88 7000 2 230 18:56 27.03.2021
983 Clear 15 1009 88 10000 2 230 18:37 27.03.2021
984 Clear 16 1009 88 10000 2 230 18:18 27.03.2021
985 Clear 16 1009 82 10000 1 0 17:28 27.03.2021
986 Clear 16 1009 82 10000 1 0 17:28 27.03.2021
987 Clear 16 1010 82 10000 4 300 16:53 27.03.2021
988 Clear 16 1009 82 10000 3 280 16:31 27.03.2021
989 Clear 16 1010 82 10000 3 280 15:58 27.03.2021
990 Clear 17 1010 82 10000 3 290 15:36 27.03.2021
991 Rain 17 1009 82 10000 3 280 14:54 27.03.2021
992 Clouds 17 1009 82 10000 3 280 14:22 27.03.2021
993 Rain 17 996 78 10000 0.89 227 13:27 27.03.2021
994 Rain 18 1009 82 10000 5 340 12:59 27.03.2021
995 Rain 18 1009 82 10000 5 310 12:33 27.03.2021
996 Clouds 18 1008 82 10000 4 0 11:47 27.03.2021
997 Rain 18 1008 82 10000 4 0 11:27 27.03.2021
998 Rain 19 1008 77 10000 5 280 10:48 27.03.2021
999 Rain 19 1007 77 10000 4 290 10:25 27.03.2021
1000 Clouds 20 1007 73 10000 6 290 09:29 27.03.2021
1001 Clouds 20 1007 73 10000 6 290 09:29 27.03.2021
1002 Clouds 20 1007 77 10000 4 290 08:49 27.03.2021
1003 Clouds 21 1007 77 10000 6 290 08:31 27.03.2021
1004 Clouds 21 1007 68 10000 6 270 07:36 27.03.2021
1005 Clear 20 1007 73 10000 4 250 06:52 27.03.2021
1006 Clear 20 1007 77 10000 3 240 06:33 27.03.2021
1007 Rain 19 1009 82 10000 3 200 04:40 27.03.2021
1008 Rain 17 1009 94 8000 5 170 00:55 27.03.2021
1009 Rain 17 1009 94 10000 5 170 00:30 27.03.2021
1010 Rain 17 1009 94 10000 5 170 23:54 26.03.2021
1011 Rain 17 1009 94 10000 4 170 23:21 26.03.2021
1012 Rain 17 1009 94 10000 3 170 22:35 26.03.2021
1013 Rain 17 1009 88 10000 5 170 21:37 26.03.2021
1014 Rain 17 1009 88 10000 5 170 21:18 26.03.2021
1015 Rain 17 1009 88 10000 6 160 20:38 26.03.2021
1016 Rain 17 1009 88 10000 6 160 20:19 26.03.2021
1017 Clouds 18 1010 88 10000 6 160 19:47 26.03.2021
1018 Clouds 18 1010 88 10000 6 160 19:28 26.03.2021
1019 Clouds 18 1011 88 10000 8 160 18:42 26.03.2021
1020 Clouds 18 1011 88 10000 8 160 18:20 26.03.2021
1021 Clouds 17 1012 94 10000 6 150 17:47 26.03.2021
1022 Clouds 17 1012 88 10000 7 150 16:56 26.03.2021
1023 Clouds 17 1013 88 10000 7 150 16:33 26.03.2021
1024 Rain 17 1013 88 10000 7 150 15:57 26.03.2021
1025 Rain 16 1013 88 10000 7 150 15:23 26.03.2021
1026 Clouds 17 1014 82 10000 8 150 14:31 26.03.2021
1027 Clouds 17 1014 82 10000 8 150 13:38 26.03.2021
1028 Clouds 17 1014 82 10000 9 150 12:54 26.03.2021
1029 Clouds 17 1014 82 10000 9 150 12:32 26.03.2021
1030 Clouds 17 1013 77 10000 8 150 11:35 26.03.2021
1031 Clouds 17 1013 77 10000 8 150 10:58 26.03.2021
1032 Clouds 17 1013 77 10000 9 150 10:39 26.03.2021
1033 Clouds 18 1013 72 10000 9 150 09:54 26.03.2021
1034 Clouds 19 1014 68 10000 10 150 09:35 26.03.2021
1035 Clouds 20 1014 68 10000 9 150 08:42 26.03.2021
1036 Clouds 20 1014 68 10000 9 150 08:22 26.03.2021
1037 Clouds 20 1015 64 10000 8 150 07:24 26.03.2021
1038 Clouds 20 1016 64 10000 8 140 06:58 26.03.2021
1039 Clouds 21 1016 64 10000 8 140 06:32 26.03.2021
1040 Clouds 20 1017 60 10000 7 160 05:30 26.03.2021
1041 Clear 16 1020 72 10000 6 180 01:59 26.03.2021
1042 Clear 13 1019 71 10000 5 150 00:31 26.03.2021
1043 Clear 12 1019 76 10000 3 140 23:44 25.03.2021
1044 Clear 11 1019 76 10000 3 150 22:57 25.03.2021
1045 Clear 11 1019 76 10000 3 140 22:30 25.03.2021
1046 Clear 11 1019 76 10000 3 140 21:53 25.03.2021
1047 Clear 12 1019 71 10000 3 140 21:33 25.03.2021
1048 Clear 12 1019 66 10000 3 150 20:45 25.03.2021
1049 Clear 12 1019 66 10000 4 150 20:25 25.03.2021
1050 Clear 12 1020 66 10000 4 160 19:45 25.03.2021
1051 Clear 12 1020 66 10000 4 160 19:27 25.03.2021
1052 Clear 12 1020 58 10000 4 140 18:47 25.03.2021
1053 Clear 12 1021 58 10000 3 140 18:27 25.03.2021
1054 Clear 13 1021 51 10000 3 120 17:51 25.03.2021
1055 Clear 13 1021 51 10000 3 130 17:33 25.03.2021
1056 Rain 13 1021 51 10000 3 130 16:51 25.03.2021
1057 Rain 13 1021 51 10000 3 130 16:51 25.03.2021
1058 Clear 13 1021 54 10000 2 140 16:30 25.03.2021
1059 Clear 14 1021 51 10000 4 110 15:45 25.03.2021
1060 Clear 14 1022 51 10000 4 130 15:21 25.03.2021
1061 Clear 14 1022 55 10000 3 150 14:46 25.03.2021
1062 Clear 15 1022 48 10000 4 130 13:52 25.03.2021
1063 Clear 15 1021 45 10000 5 140 13:24 25.03.2021
1064 Clear 15 1021 45 10000 5 140 13:24 25.03.2021
1065 Clear 16 1021 45 10000 4 130 12:44 25.03.2021
1066 Rain 16 1021 45 10000 4 130 12:20 25.03.2021
1067 Clear 17 1021 39 10000 5 120 11:52 25.03.2021
1068 Clear 18 1020 37 10000 6 120 11:30 25.03.2021
1069 Clear 18 1020 34 10000 5 120 10:54 25.03.2021
1070 Clear 20 1020 32 10000 4 130 10:26 25.03.2021
1071 Clear 20 1020 30 10000 5 130 09:57 25.03.2021
1072 Clear 21 1020 30 10000 4 100 09:38 25.03.2021
1073 Clear 21 1020 30 10000 5 110 08:57 25.03.2021
1074 Clear 22 1020 33 10000 3 80 08:28 25.03.2021
1075 Clear 22 1021 28 10000 2 0 07:19 25.03.2021
1076 Clear 22 1022 30 10000 3 120 06:26 25.03.2021
1077 Clear 22 1022 28 10000 4 130 05:49 25.03.2021
1078 Clear 21 1023 37 10000 3 40 03:55 25.03.2021
1079 Clear 13 1022 87 10000 0.91 332 00:34 25.03.2021
1080 Clear 12 1021 87 10000 0.83 320 23:53 24.03.2021
1081 Clear 11 1021 87 10000 0.76 349 23:29 24.03.2021
1082 Clear 11 1020 87 10000 1 200 22:49 24.03.2021
1083 Clear 11 1020 87 10000 1 200 22:28 24.03.2021
1084 Clear 11 1020 82 10000 1 240 21:44 24.03.2021
1085 Clear 11 1020 82 10000 1 210 21:24 24.03.2021
1086 Clear 11 1020 82 10000 0.8 309 20:45 24.03.2021
1087 Clear 11 1019 82 10000 0.51 221 20:20 24.03.2021
1088 Clear 12 1019 82 10000 0.51 221 19:48 24.03.2021
1089 Clear 12 1019 76 10000 1 0 19:28 24.03.2021
1090 Clear 12 1020 76 10000 1 0 18:49 24.03.2021
1091 Clear 12 1020 76 10000 1 170 18:23 24.03.2021
1092 Clear 12 1020 71 10000 1 0 17:51 24.03.2021
1093 Clear 13 1020 71 10000 1 0 17:31 24.03.2021
1094 Clear 12 1020 76 10000 2 190 16:52 24.03.2021
1095 Clear 13 1020 71 10000 2 190 16:29 24.03.2021
1096 Clear 13 1020 71 10000 2 190 15:50 24.03.2021
1097 Clear 13 1020 71 10000 3 190 15:30 24.03.2021
1098 Clear 13 1020 71 10000 3 200 14:47 24.03.2021
1099 Clear 14 1021 72 10000 2 210 14:26 24.03.2021
1100 Clear 14 1020 67 10000 3 190 13:54 24.03.2021
1101 Clear 15 1020 67 10000 3 200 13:27 24.03.2021
1102 Clear 15 1019 63 10000 3 160 12:42 24.03.2021
1103 Clear 15 1019 63 10000 3 160 12:23 24.03.2021
1104 Clear 16 1018 59 10000 4 150 11:44 24.03.2021
1105 Clouds 18 1018 45 10000 3 150 10:59 24.03.2021
1106 Clouds 18 1018 42 10000 2 50 10:40 24.03.2021
1107 Clouds 18 1018 42 10000 2 50 10:20 24.03.2021
1108 Clouds 18 1017 42 10000 2 100 09:51 24.03.2021
1109 Clouds 18 1017 45 10000 2 0 09:20 24.03.2021
1110 Clouds 18 1017 45 10000 2 30 08:50 24.03.2021
1111 Clouds 18 1017 45 10000 2 0 08:26 24.03.2021
1112 Clouds 18 1017 52 10000 2 210 07:37 24.03.2021
1113 Clouds 18 1018 52 10000 1 0 06:52 24.03.2021
1114 Clear 16 1019 63 10000 2 210 03:57 24.03.2021
1115 Rain 13 1019 76 10000 2 200 00:48 24.03.2021
1116 Rain 13 1018 76 10000 1 0 23:57 23.03.2021
1117 Rain 13 1018 71 10000 2 170 23:21 23.03.2021
1118 Rain 13 1017 71 10000 1 0 22:52 23.03.2021
1119 Clear 13 1017 67 10000 1 0 22:31 23.03.2021
1120 Rain 13 1017 67 10000 2 170 21:52 23.03.2021
1121 Rain 13 1017 71 10000 3 150 21:33 23.03.2021
1122 Rain 13 1017 67 10000 5 170 20:47 23.03.2021
1123 Rain 12 1017 66 10000 3 160 20:29 23.03.2021
1124 Rain 12 1017 66 10000 4 150 19:57 23.03.2021
1125 Rain 12 1017 66 10000 4 150 19:27 23.03.2021
1126 Rain 12 1018 66 10000 5 160 18:59 23.03.2021
1127 Clear 12 1018 66 10000 4 160 18:37 23.03.2021
1128 Rain 12 1018 66 10000 4 160 18:18 23.03.2021
1129 Rain 13 1018 62 10000 4 140 17:43 23.03.2021
1130 Rain 12 1018 62 10000 4 140 17:21 23.03.2021
1131 Rain 12 1019 62 10000 5 160 16:26 23.03.2021
1132 Rain 12 1019 62 10000 5 160 15:50 23.03.2021
1133 Rain 13 1019 62 10000 6 150 15:23 23.03.2021
1134 Rain 13 1019 58 10000 7 150 14:48 23.03.2021
1135 Clear 13 1019 58 10000 6 150 14:19 23.03.2021
1136 Rain 13 1019 58 10000 5 150 13:47 23.03.2021
1137 Rain 13 1019 54 10000 6 140 13:24 23.03.2021
1138 Clear 13 1019 54 10000 5 140 12:44 23.03.2021
1139 Clear 13 1019 47 10000 5 140 12:24 23.03.2021
1140 Clear 13 1019 47 10000 5 150 11:48 23.03.2021
1141 Clear 14 1019 41 10000 7 160 11:18 23.03.2021
1142 Clear 15 1019 27 10000 6 140 10:42 23.03.2021
1143 Clear 16 1019 27 10000 6 140 10:20 23.03.2021
1144 Clear 16 1019 25 10000 6 150 09:49 23.03.2021
1145 Clear 17 1019 27 10000 5 140 09:22 23.03.2021
1146 Clear 17 1020 27 10000 5 150 08:54 23.03.2021
1147 Clear 17 1020 25 10000 6 160 08:36 23.03.2021
1148 Clear 18 1020 25 10000 6 160 08:18 23.03.2021
1149 Clear 18 1021 27 10000 6 160 07:26 23.03.2021
1150 Clear 17 1021 31 10000 6 190 06:52 23.03.2021
1151 Clear 15 1026 44 10000 7 160 03:24 23.03.2021
1152 Clear 14 1026 44 10000 5 190 02:22 23.03.2021
1153 Clear 9 1026 87 10000 3 150 23:46 22.03.2021
1154 Clear 7 1025 81 8000 1 140 22:59 22.03.2021
1155 Clear 8 1025 81 8000 1 140 22:39 22.03.2021
1156 Clear 8 1025 81 8000 1 140 22:20 22.03.2021
1157 Clear 8 1025 81 10000 1 140 21:43 22.03.2021
1158 Clear 8 1025 81 10000 1 140 21:24 22.03.2021
1159 Clear 8 1026 76 10000 1 210 20:42 22.03.2021
1160 Clear 8 1026 76 10000 1 210 20:22 22.03.2021
1161 Clear 8 1026 81 10000 2 190 19:55 22.03.2021
1162 Clear 8 1026 76 10000 1 180 19:37 22.03.2021
1163 Clear 8 1026 76 10000 1 180 19:19 22.03.2021
1164 Clear 9 1026 76 10000 1 170 18:40 22.03.2021
1165 Clear 9 1026 76 10000 1 170 18:21 22.03.2021
1166 Clear 9 1026 71 10000 1 0 17:44 22.03.2021
1167 Rain 9 1027 66 10000 2 110 17:21 22.03.2021
1168 Clear 9 1027 66 10000 2 160 16:45 22.03.2021
1169 Clear 9 1027 57 10000 3 140 16:20 22.03.2021
1170 Clear 10 1027 50 10000 1 0 15:38 22.03.2021
1171 Clear 10 1027 50 10000 1 0 15:18 22.03.2021
1172 Rain 10 1027 43 10000 1 0 14:52 22.03.2021
1173 Clear 11 1027 46 10000 2 250 14:34 22.03.2021
1174 Clear 11 1027 40 10000 2 220 13:48 22.03.2021
1175 Clear 11 1027 40 10000 2 220 13:27 22.03.2021
1176 Rain 12 1027 28 10000 2 320 12:54 22.03.2021
1177 Rain 13 1027 28 10000 2 320 12:25 22.03.2021
1178 Clear 13 1026 30 10000 4 350 11:49 22.03.2021
1179 Clear 13 1026 30 10000 4 350 11:27 22.03.2021
1180 Clear 14 1026 26 10000 4 310 10:45 22.03.2021
1181 Clear 14 1026 26 10000 4 310 10:24 22.03.2021
1182 Clear 15 1026 26 10000 5 350 09:46 22.03.2021
1183 Clear 15 1026 26 10000 6 330 09:27 22.03.2021
1184 Clear 15 1027 26 10000 5 340 08:45 22.03.2021
1185 Clear 16 1027 26 10000 4 350 08:26 22.03.2021
1186 Clear 15 1027 25 10000 4 330 07:50 22.03.2021
1187 Clear 16 1027 25 10000 5 340 07:30 22.03.2021
1188 Clear 15 1028 26 10000 5 270 06:39 22.03.2021
1189 Clear 12 1030 32 10000 2 0 02:47 22.03.2021
1190 Clear 9 1029 53 10000 1 0 00:43 22.03.2021
1191 Clear 7 1029 70 10000 1 0 23:55 21.03.2021
1192 Clear 7 1029 75 10000 0.93 311 23:20 21.03.2021
1193 Clear 7 1028 65 10000 1 0 22:58 21.03.2021
1194 Clear 7 1028 70 10000 1 350 22:29 21.03.2021
1195 Clear 7 1028 65 10000 2 330 21:41 21.03.2021
1196 Clear 7 1028 65 10000 2 330 21:23 21.03.2021
1197 Clear 7 1028 61 10000 2 330 20:46 21.03.2021
1198 Clear 8 1028 61 10000 3 330 20:27 21.03.2021
1199 Clear 8 1028 65 10000 3 330 19:56 21.03.2021
1200 Clear 8 1028 61 10000 3 340 19:23 21.03.2021
1201 Clear 8 1028 61 10000 2 330 18:53 21.03.2021
1202 Clear 8 1028 61 10000 2 350 18:31 21.03.2021
1203 Clear 8 1028 61 10000 3 360 17:49 21.03.2021
1204 Clear 8 1028 57 10000 2 350 17:22 21.03.2021
1205 Clear 9 1028 57 10000 2 20 16:59 21.03.2021
1206 Clear 9 1028 57 10000 3 30 16:41 21.03.2021
1207 Clear 9 1028 57 10000 3 30 16:22 21.03.2021
1208 Clear 9 1028 49 10000 4 30 15:41 21.03.2021
1209 Clear 9 1028 49 10000 4 30 15:20 21.03.2021
1210 Clear 9 1028 53 10000 5 20 14:46 21.03.2021
1211 Clear 9 1027 53 10000 4 30 14:27 21.03.2021
1212 Clear 9 1027 53 10000 5 20 13:54 21.03.2021
1213 Clear 9 1027 53 10000 4 40 13:25 21.03.2021
1214 Clear 9 1026 50 10000 4 50 12:42 21.03.2021
1215 Clear 10 1026 50 10000 4 50 12:24 21.03.2021
1216 Clear 10 1025 46 10000 6 40 11:38 21.03.2021
1217 Clear 11 1025 46 10000 6 40 11:19 21.03.2021
1218 Clear 11 1025 46 10000 6 40 11:19 21.03.2021
1219 Clear 12 1024 47 10000 5 20 10:42 21.03.2021
1220 Clear 12 1024 47 10000 5 20 10:23 21.03.2021
1221 Clear 13 1023 47 10000 6 40 09:46 21.03.2021
1222 Clouds 14 1023 41 10000 6 330 09:27 21.03.2021
1223 Clear 14 1023 35 10000 8 330 08:40 21.03.2021
1224 Clear 14 1023 35 10000 8 330 08:21 21.03.2021
1225 Clear 14 1023 35 10000 8 330 08:21 21.03.2021
1226 Clouds 15 1024 47 7000 7 10 07:38 21.03.2021
1227 Clouds 14 1024 47 6000 6 350 06:56 21.03.2021
1228 Clouds 15 1024 51 6000 7 330 05:45 21.03.2021
1229 Haze 13 1024 62 5000 6 330 02:23 21.03.2021
1230 Rain 10 1023 76 5000 3 320 00:42 21.03.2021
1231 Mist 10 1023 76 5000 3 320 00:22 21.03.2021
1232 Rain 9 1023 76 5000 3 310 23:48 20.03.2021
1233 Mist 9 1022 76 5000 4 310 23:22 20.03.2021
1234 Mist 9 1022 76 5000 4 310 23:22 20.03.2021
1235 Clouds 9 1022 76 10000 3 320 22:55 20.03.2021
1236 Rain 9 1021 71 10000 3 320 22:22 20.03.2021
1237 Clouds 9 1021 71 10000 4 330 21:46 20.03.2021
1238 Clouds 9 1021 71 10000 5 340 21:24 20.03.2021
1239 Clouds 9 1020 71 10000 5 350 20:45 20.03.2021
1240 Clouds 9 1021 71 10000 5 350 20:23 20.03.2021
1241 Rain 9 1021 76 10000 4 350 19:50 20.03.2021
1242 Clear 9 1021 76 10000 4 330 19:27 20.03.2021
1243 Rain 9 1021 76 10000 4 330 18:50 20.03.2021
1244 Rain 9 1021 71 10000 3 330 18:27 20.03.2021
1245 Clear 10 1021 71 10000 5 340 17:55 20.03.2021
1246 Clouds 10 1020 66 10000 5 340 17:33 20.03.2021
1247 Clouds 10 1021 66 10000 4 340 16:56 20.03.2021
1248 Clouds 10 1020 66 10000 5 350 16:37 20.03.2021
1249 Clouds 10 1020 66 10000 5 350 16:18 20.03.2021
1250 Clouds 10 1020 66 10000 4 350 15:39 20.03.2021
1251 Clouds 10 1021 66 10000 6 350 14:49 20.03.2021
1252 Rain 10 1021 66 10000 6 350 14:49 20.03.2021
1253 Rain 10 1020 71 10000 6 350 14:28 20.03.2021
1254 Clouds 10 1019 76 10000 3 330 13:42 20.03.2021
1255 Clouds 10 1019 76 10000 3 330 13:18 20.03.2021
1256 Clouds 10 1018 76 10000 3 320 12:27 20.03.2021
1257 Clouds 10 1018 76 10000 3 320 12:27 20.03.2021
1258 Clouds 10 1018 76 10000 3 320 12:27 20.03.2021
1259 Rain 10 1018 76 10000 4 330 11:50 20.03.2021
1260 Clouds 10 1018 76 10000 5 340 11:29 20.03.2021
1261 Clouds 10 1017 76 10000 5 350 10:56 20.03.2021
1262 Clouds 10 1017 81 10000 6 360 10:37 20.03.2021
1263 Clouds 10 1017 81 10000 6 360 10:18 20.03.2021
1264 Clouds 10 1017 87 10000 6 340 09:29 20.03.2021
1265 Clouds 10 1016 87 10000 7 330 08:58 20.03.2021
1266 Clouds 10 1016 87 7000 6 340 08:37 20.03.2021
1267 Clouds 10 1016 87 6000 5 320 07:54 20.03.2021
1268 Mist 10 1015 93 4000 7 340 07:32 20.03.2021
1269 Clouds 10 1016 93 6000 7 320 06:55 20.03.2021
1270 Clouds 11 1016 87 10000 6 330 06:27 20.03.2021
1271 Clouds 11 1016 93 10000 5 320 04:23 20.03.2021
1272 Mist 11 1016 93 5000 6 330 03:42 20.03.2021
1273 Rain 11 1014 100 3000 6 320 00:35 20.03.2021
1274 Clouds 11 1014 94 6000 4 310 23:31 19.03.2021
1275 Clouds 12 1014 94 8000 4 310 22:50 19.03.2021
1276 Rain 12 1013 94 8000 4 300 22:29 19.03.2021
1277 Rain 11 1012 100 8000 3 320 21:58 19.03.2021
1278 Mist 12 1012 94 5000 4 300 21:22 19.03.2021
1279 Clouds 12 997 100 10000 2.98 318 20:59 19.03.2021
1280 Rain 12 997 100 10000 2.98 318 20:40 19.03.2021
1281 Rain 12 1012 94 5000 4 310 20:21 19.03.2021
1282 Mist 12 1013 100 5000 4 320 19:46 19.03.2021
1283 Rain 12 1013 100 2800 4 310 19:20 19.03.2021
1284 Rain 12 1013 100 1400 4 330 18:40 19.03.2021
1285 Clouds 12 998 97 10000 2.09 306 18:19 19.03.2021
1286 Rain 12 998 97 10000 2.09 306 17:52 19.03.2021
1287 Rain 12 998 96 10000 1.67 318 17:28 19.03.2021
1288 Mist 12 1013 100 1100 3 340 16:52 19.03.2021
1289 Mist 12 1013 100 1600 2 340 16:27 19.03.2021
1290 Mist 12 1014 100 1600 3 330 15:47 19.03.2021
1291 Mist 12 1014 100 4000 2 330 15:23 19.03.2021
1292 Clouds 13 1014 94 6000 2 340 14:46 19.03.2021
1293 Clouds 13 1014 94 8000 2 360 14:26 19.03.2021
1294 Clouds 12 1014 100 10000 3 10 13:40 19.03.2021
1295 Clouds 13 1014 94 10000 3 360 12:51 19.03.2021
1296 Clouds 13 1014 100 8000 3 360 12:33 19.03.2021
1297 Clouds 12 1013 94 8000 2 360 11:42 19.03.2021
1298 Clouds 12 1013 94 8000 3 20 10:54 19.03.2021
1299 Clouds 12 1013 94 10000 3 20 10:30 19.03.2021
1300 Clouds 12 1013 94 10000 3 50 09:49 19.03.2021
1301 Clouds 12 1013 94 10000 3 30 09:30 19.03.2021
1302 Clouds 12 1013 94 10000 3 30 08:55 19.03.2021
1303 Clouds 12 1013 94 10000 4 40 08:37 19.03.2021
1304 Clouds 12 1014 94 10000 4 40 07:58 19.03.2021
1305 Clouds 12 1014 94 10000 4 40 07:36 19.03.2021
1306 Rain 12 1014 100 10000 4 30 06:48 19.03.2021
1307 Clouds 13 1016 94 10000 3 70 02:45 19.03.2021
1308 Clouds 12 1016 94 10000 2 80 00:52 19.03.2021
1309 Rain 12 1017 94 6000 3 350 23:30 18.03.2021
1310 Rain 12 1017 94 6000 3 350 23:30 18.03.2021
1311 Rain 12 1016 88 10000 2 30 22:58 18.03.2021
1312 Rain 12 1015 88 10000 2 70 22:38 18.03.2021
1313 Rain 12 1015 88 10000 2 70 22:18 18.03.2021
1314 Rain 13 1016 88 10000 1 0 21:39 18.03.2021
1315 Rain 13 1015 88 10000 3 60 20:47 18.03.2021
1316 Rain 12 1015 88 10000 4 100 20:27 18.03.2021
1317 Rain 13 1016 88 10000 2 110 19:45 18.03.2021
1318 Rain 13 1016 88 10000 3 100 19:25 18.03.2021
1319 Rain 13 1016 82 10000 4 90 18:57 18.03.2021
1320 Rain 13 1016 82 10000 4 100 18:33 18.03.2021
1321 Rain 13 1017 82 10000 3 100 17:50 18.03.2021
1322 Rain 13 1017 82 10000 3 120 17:25 18.03.2021
1323 Clouds 13 1017 82 10000 2 90 16:47 18.03.2021
1324 Rain 13 1017 88 10000 2 70 16:29 18.03.2021
1325 Clouds 13 1018 88 10000 2 60 15:46 18.03.2021
1326 Clouds 13 1018 88 10000 3 60 15:24 18.03.2021
1327 Clouds 13 1018 88 10000 3 50 14:53 18.03.2021
1328 Clouds 13 1018 82 10000 4 60 14:32 18.03.2021
1329 Clouds 12 1018 82 10000 3 60 13:53 18.03.2021
1330 Clouds 13 1017 82 10000 3 40 13:26 18.03.2021
1331 Clouds 13 1017 88 10000 4 40 12:44 18.03.2021
1332 Clouds 13 1017 77 10000 4 40 12:25 18.03.2021
1333 Clouds 13 1017 77 10000 5 40 11:52 18.03.2021
1334 Clouds 13 1016 77 10000 4 50 11:32 18.03.2021
1335 Clouds 14 1016 72 10000 4 30 10:46 18.03.2021
1336 Clouds 14 1016 67 10000 3 50 10:27 18.03.2021
1337 Clouds 15 1015 67 10000 3 60 09:54 18.03.2021
1338 Clouds 15 1016 63 10000 2 90 09:29 18.03.2021
1339 Clouds 16 1016 59 10000 2 110 08:50 18.03.2021
1340 Clouds 15 1016 59 10000 2 0 08:30 18.03.2021
1341 Clouds 15 1016 55 10000 2 90 07:52 18.03.2021
1342 Clouds 16 1016 55 10000 2 50 07:25 18.03.2021
1343 Clouds 14 1017 55 10000 2 70 06:29 18.03.2021
1344 Clouds 14 1017 58 10000 2 80 05:54 18.03.2021
1345 Clouds 12 1019 71 10000 3 70 02:29 18.03.2021
1346 Clouds 11 1018 76 10000 2 60 23:59 17.03.2021
1347 Clouds 10 1018 81 10000 1 0 22:54 17.03.2021
1348 Clouds 10 1018 81 10000 2 80 22:26 17.03.2021
1349 Clouds 10 1018 81 10000 2 70 21:56 17.03.2021
1350 Clouds 10 1018 81 10000 2 60 21:34 17.03.2021
1351 Clouds 10 1018 81 10000 2 70 20:59 17.03.2021
1352 Clouds 10 1018 81 10000 2 50 20:40 17.03.2021
1353 Clouds 10 1018 81 10000 2 50 20:40 17.03.2021
1354 Clouds 10 1018 81 10000 2 50 20:40 17.03.2021
1355 Clouds 10 1018 81 10000 2 50 20:40 17.03.2021
1356 Clouds 10 1018 81 10000 2 50 20:22 17.03.2021
1357 Clouds 10 1019 81 10000 3 30 19:46 17.03.2021
1358 Clouds 10 1019 81 10000 2 40 19:21 17.03.2021
1359 Clouds 10 1019 81 10000 2 50 18:54 17.03.2021
1360 Clouds 10 1019 81 10000 2 60 18:36 17.03.2021
1361 Clouds 10 1019 81 10000 2 70 17:48 17.03.2021
1362 Clouds 10 1019 81 10000 2 60 17:25 17.03.2021
1363 Clouds 10 1019 81 10000 3 60 16:46 17.03.2021
1364 Clouds 10 1020 81 10000 3 30 16:24 17.03.2021
1365 Clouds 10 1020 87 10000 3 40 15:53 17.03.2021
1366 Clouds 10 1020 76 10000 3 50 15:35 17.03.2021
1367 Clouds 10 1020 71 10000 3 60 14:45 17.03.2021
1368 Clouds 10 1020 71 10000 3 60 14:26 17.03.2021
1369 Clouds 10 1020 76 10000 3 50 13:55 17.03.2021
1370 Rain 10 1020 81 10000 3 40 13:27 17.03.2021
1371 Rain 10 1019 87 10000 3 30 12:51 17.03.2021
1372 Rain 11 1019 76 10000 2 40 12:31 17.03.2021
1373 Rain 11 1019 66 10000 2 40 11:50 17.03.2021
1374 Rain 10 1019 62 10000 1 0 11:23 17.03.2021
1375 Rain 11 1019 62 10000 2 60 10:54 17.03.2021
1376 Clear 11 1018 62 10000 3 50 10:25 17.03.2021
1377 Clear 11 1018 71 10000 2 40 09:48 17.03.2021
1378 Clear 11 1018 71 10000 2 40 09:48 17.03.2021
1379 Clear 11 1018 62 10000 2 80 09:25 17.03.2021
1380 Clouds 11 1018 62 10000 2 70 08:56 17.03.2021
1381 Rain 11 1018 71 10000 3 60 08:36 17.03.2021
1382 Rain 10 1018 71 10000 4 110 07:48 17.03.2021
1383 Rain 11 1018 66 10000 3 80 07:30 17.03.2021
1384 Rain 12 1019 58 10000 1 0 06:39 17.03.2021
1385 Rain 11 1020 66 10000 3 60 04:20 17.03.2021
1386 Rain 11 1020 71 10000 3 70 02:49 17.03.2021
1387 Clouds 10 1019 81 10000 4 40 00:40 17.03.2021
1388 Clear 10 1019 81 10000 4 40 23:29 16.03.2021
1389 Clouds 9 1019 81 10000 4 40 22:48 16.03.2021
1390 Clouds 9 1019 81 10000 4 20 22:29 16.03.2021
1391 Rain 10 1019 81 10000 4 30 21:47 16.03.2021
1392 Rain 9 1019 81 10000 3 30 21:29 16.03.2021
1393 Rain 9 1019 81 10000 4 30 20:58 16.03.2021
1394 Rain 10 1019 76 10000 4 50 20:20 16.03.2021
1395 Rain 10 1019 71 10000 4 50 19:58 16.03.2021
1396 Clear 10 1019 71 10000 4 30 19:39 16.03.2021
1397 Clear 10 1019 71 10000 4 30 19:19 16.03.2021
1398 Clear 10 1019 71 10000 5 40 18:40 16.03.2021
1399 Clear 10 1019 71 10000 5 40 18:21 16.03.2021
1400 Clear 10 1019 71 10000 4 50 17:46 16.03.2021
1401 Clear 10 1019 71 10000 4 50 17:26 16.03.2021
1402 Clear 10 1020 71 10000 4 40 16:51 16.03.2021
1403 Clear 10 1020 71 10000 4 30 16:28 16.03.2021
1404 Clear 10 1020 71 10000 3 30 15:47 16.03.2021
1405 Clear 10 1020 71 10000 4 40 15:21 16.03.2021
1406 Clear 10 1020 62 10000 5 50 14:58 16.03.2021
1407 Clear 11 1020 62 10000 4 50 14:40 16.03.2021
1408 Clear 11 1020 62 10000 4 50 14:20 16.03.2021
1409 Clear 10 1020 66 10000 5 40 13:47 16.03.2021
1410 Clear 11 1020 62 10000 6 50 13:25 16.03.2021
1411 Clear 11 1019 62 10000 5 50 12:50 16.03.2021
1412 Clear 11 1019 62 10000 7 40 12:31 16.03.2021
1413 Clear 12 1019 58 10000 6 40 11:41 16.03.2021
1414 Clear 11 1019 58 10000 6 40 11:21 16.03.2021
1415 Clear 13 1018 58 10000 5 60 10:27 16.03.2021
1416 Rain 13 1018 62 10000 6 50 09:49 16.03.2021
1417 Clouds 13 1018 71 10000 5 60 09:30 16.03.2021
1418 Clouds 13 1018 76 7000 7 40 08:59 16.03.2021
1419 Clouds 13 1018 82 7000 6 40 08:40 16.03.2021
1420 Clouds 13 1018 82 7000 6 40 08:20 16.03.2021
1421 Clouds 13 1018 88 6000 6 40 07:36 16.03.2021
1422 Mist 12 1018 94 5000 5 30 06:39 16.03.2021
1423 Mist 12 1018 94 5000 6 40 05:52 16.03.2021
1424 Mist 12 1018 94 5000 6 40 05:34 16.03.2021
1425 Mist 12 1018 94 3000 6 40 02:45 16.03.2021
1426 Mist 12 1018 94 3000 6 40 02:23 16.03.2021
1427 Mist 13 1015 100 3000 7 10 23:57 15.03.2021
1428 Mist 14 1015 94 3000 6 10 23:28 15.03.2021
1429 Rain 14 1015 94 3000 6 10 23:28 15.03.2021
1430 Mist 14 1015 100 3000 6 360 22:51 15.03.2021
1431 Mist 14 1014 100 3000 6 10 22:33 15.03.2021
1432 Rain 15 1014 100 3000 5 10 21:55 15.03.2021
1433 Rain 15 1013 94 3000 5 10 21:34 15.03.2021
1434 Rain 16 1013 100 3000 6 10 20:58 15.03.2021
1435 Rain 16 1013 94 3000 2 10 20:39 15.03.2021
1436 Rain 16 1013 94 3000 2 10 20:21 15.03.2021
1437 Rain 17 1013 94 3000 2 350 19:49 15.03.2021
1438 Rain 17 1013 94 3000 2 350 19:49 15.03.2021
1439 Rain 17 1013 94 5000 3 360 19:31 15.03.2021
1440 Rain 17 1013 94 5000 3 10 18:50 15.03.2021
1441 Rain 17 1013 94 6000 2 30 18:26 15.03.2021
1442 Rain 17 1013 94 6000 1 0 17:56 15.03.2021
1443 Rain 17 1013 94 7000 1 0 17:32 15.03.2021
1444 Rain 17 1013 100 7000 1 50 16:50 15.03.2021
1445 Rain 17 1013 100 7000 3 10 16:32 15.03.2021
1446 Rain 18 1013 88 7000 1 0 15:45 15.03.2021
1447 Rain 18 1013 88 7000 1 0 15:26 15.03.2021
1448 Rain 17 1013 94 7000 3 20 14:44 15.03.2021
1449 Rain 18 1013 94 7000 4 360 14:23 15.03.2021
1450 Rain 19 1013 73 10000 3 20 13:47 15.03.2021
1451 Rain 20 1013 73 10000 3 20 13:25 15.03.2021
1452 Clear 21 1012 56 10000 2 80 12:49 15.03.2021
1453 Clear 21 1012 56 10000 2 140 12:20 15.03.2021
1454 Clear 21 1011 56 10000 2 100 11:52 15.03.2021
1455 Clear 21 1011 56 10000 4 140 11:33 15.03.2021
1456 Clear 22 1010 53 10000 4 130 10:55 15.03.2021
1457 Clear 22 1010 56 10000 2 130 10:31 15.03.2021
1458 Clear 23 1010 56 10000 2 190 09:53 15.03.2021
1459 Clear 23 1010 53 10000 1 0 09:34 15.03.2021
1460 Clear 24 1010 53 10000 2 220 08:54 15.03.2021
1461 Clear 25 1010 50 10000 3 210 08:32 15.03.2021
1462 Clear 24 1010 50 10000 4 0 07:53 15.03.2021
1463 Clear 24 1010 46 10000 4 180 07:32 15.03.2021
1464 Clear 24 1011 50 10000 5 170 06:40 15.03.2021
1465 Clear 23 1012 56 10000 5 180 05:32 15.03.2021
1466 Clear 15 1015 72 10000 5 160 01:31 15.03.2021
1467 Clouds 12 1014 82 8000 3 150 23:56 14.03.2021
1468 Clouds 12 1014 82 8000 3 170 23:20 14.03.2021
1469 Clear 12 1014 87 10000 4 170 22:46 14.03.2021
1470 Clear 12 1014 87 10000 4 150 22:19 14.03.2021
1471 Clear 12 1014 82 10000 4 150 21:45 14.03.2021
1472 Clouds 12 1014 82 10000 5 160 21:18 14.03.2021
1473 Clear 12 1014 82 10000 5 150 20:43 14.03.2021
1474 Clear 12 1014 82 10000 5 150 20:24 14.03.2021
1475 Clear 12 1015 82 10000 5 150 19:43 14.03.2021
1476 Clear 12 1015 82 10000 6 150 19:23 14.03.2021
1477 Clear 12 1016 82 10000 6 150 18:47 14.03.2021
1478 Clear 12 1016 82 10000 5 150 18:22 14.03.2021
1479 Clear 12 1016 82 10000 5 140 17:39 14.03.2021
1480 Clear 12 1016 82 10000 5 140 17:20 14.03.2021
1481 Clear 12 1017 82 10000 6 150 16:46 14.03.2021
1482 Clear 12 1017 82 10000 5 140 16:26 14.03.2021
1483 Clear 12 1018 76 10000 5 140 15:52 14.03.2021
1484 Clear 12 1018 82 10000 5 130 15:30 14.03.2021
1485 Clear 12 1018 76 10000 5 130 14:41 14.03.2021
1486 Clear 12 1018 76 10000 5 130 14:20 14.03.2021
1487 Clear 12 1018 76 10000 5 130 13:49 14.03.2021
1488 Rain 12 1017 67 10000 5 130 13:28 14.03.2021
1489 Clear 13 1017 67 10000 5 130 12:45 14.03.2021
1490 Rain 13 1017 62 10000 5 130 12:27 14.03.2021
1491 Rain 13 1017 62 10000 5 130 12:27 14.03.2021
1492 Clear 14 1018 58 10000 4 140 11:44 14.03.2021
1493 Clear 14 1017 55 10000 5 140 11:26 14.03.2021
1494 Clear 15 1017 55 10000 6 170 10:39 14.03.2021
1495 Clear 16 1017 55 10000 6 170 10:20 14.03.2021
1496 Clear 17 1017 59 10000 6 160 09:59 14.03.2021
1497 Clear 16 1017 52 10000 5 140 09:41 14.03.2021
1498 Clear 17 1017 52 10000 5 140 09:21 14.03.2021
1499 Clear 17 1018 52 10000 5 130 08:40 14.03.2021
1500 Clear 17 1018 52 10000 4 130 07:59 14.03.2021
1501 Clear 17 1019 48 10000 4 120 07:34 14.03.2021
1502 Clear 16 1021 51 10000 4 140 05:42 14.03.2021
1503 Mist 12 1022 82 3500 4 130 01:34 14.03.2021
1504 Mist 10 1022 87 2500 2 120 00:49 14.03.2021
1505 Mist 9 1022 93 2000 2 100 00:18 14.03.2021
1506 Mist 9 1021 93 2000 3 150 23:42 13.03.2021
1507 Mist 9 1021 93 2000 3 150 23:19 13.03.2021
1508 Mist 9 1021 93 2500 1 120 22:47 13.03.2021
1509 Mist 9 1021 93 2500 1 130 22:24 13.03.2021
1510 Mist 9 1020 93 2500 1 120 21:36 13.03.2021
1511 Mist 9 1020 93 2500 1 120 21:18 13.03.2021
1512 Mist 9 1020 93 2500 1 120 21:18 13.03.2021
1513 Mist 9 1021 93 2500 1 0 20:46 13.03.2021
1514 Mist 9 1021 93 2500 1 0 20:25 13.03.2021
1515 Mist 9 1021 93 2500 1 150 19:44 13.03.2021
1516 Mist 9 1022 93 2500 1 150 19:24 13.03.2021
1517 Mist 9 1022 87 2500 2 150 18:43 13.03.2021
1518 Mist 9 1022 87 2500 2 150 18:20 13.03.2021
1519 Mist 9 1023 87 3000 2 140 17:51 13.03.2021
1520 Mist 10 1022 81 3000 2 140 17:32 13.03.2021
1521 Mist 10 1023 81 3000 2 100 16:55 13.03.2021
1522 Mist 10 1023 81 3000 2 160 16:37 13.03.2021
1523 Mist 10 1023 81 4000 2 140 15:56 13.03.2021
1524 Mist 10 1022 81 4000 2 140 15:19 13.03.2021
1525 Clouds 10 1022 76 6000 3 60 14:41 13.03.2021
1526 Clouds 10 1022 76 6000 3 60 14:21 13.03.2021
1527 Clouds 11 1022 76 6000 3 90 13:30 13.03.2021
1528 Clouds 11 1022 66 6000 3 100 12:53 13.03.2021
1529 Clouds 11 1022 71 6000 4 120 12:35 13.03.2021
1530 Rain 12 1022 62 8000 3 80 11:57 13.03.2021
1531 Rain 12 1022 58 8000 4 80 11:38 13.03.2021
1532 Clouds 12 1022 58 8000 4 80 11:19 13.03.2021
1533 Clouds 13 1021 58 8000 3 90 10:31 13.03.2021
1534 Clouds 14 1021 55 8000 4 100 09:59 13.03.2021
1535 Clouds 14 1021 55 8000 3 90 09:32 13.03.2021
1536 Clouds 15 1021 51 8000 4 100 08:54 13.03.2021
1537 Clouds 15 1021 51 8000 4 100 08:54 13.03.2021
1538 Clouds 16 1021 55 8000 3 70 08:21 13.03.2021
1539 Clouds 16 1022 51 8000 3 40 07:57 13.03.2021
1540 Clouds 16 1022 51 8000 2 0 07:30 13.03.2021
1541 Clouds 14 1024 51 8000 3 0 05:29 13.03.2021
1542 Clouds 13 1025 62 6000 1 0 02:20 13.03.2021
1543 Mist 9 1025 93 5000 1 10 00:33 13.03.2021
1544 Clouds 8 1025 93 7000 2 10 23:38 12.03.2021
1545 Clear 7 1025 93 10000 1 0 23:20 12.03.2021
1546 Clouds 8 1010 82 10000 1.14 1 22:32 12.03.2021
1547 Clear 8 1025 87 10000 2 350 21:56 12.03.2021
1548 Clear 8 1025 87 10000 2 350 21:56 12.03.2021
1549 Clouds 8 1024 93 8000 2 350 21:37 12.03.2021
1550 Clouds 8 1024 93 8000 2 350 21:37 12.03.2021
1551 Clouds 8 1024 93 8000 2 350 21:37 12.03.2021
1552 Clouds 8 1009 81 10000 0.97 24 21:18 12.03.2021
1553 Clouds 8 1024 93 8000 2 360 20:47 12.03.2021
1554 Clouds 8 1025 87 8000 2 350 20:22 12.03.2021
1555 Clouds 8 1025 93 8000 1 350 19:44 12.03.2021
1556 Clouds 8 1025 93 8000 1 40 19:25 12.03.2021
1557 Clear 8 1025 93 8000 1 350 18:47 12.03.2021
1558 Clear 9 1025 81 8000 2 20 18:25 12.03.2021
1559 Clear 9 1025 87 10000 2 360 17:43 12.03.2021
1560 Clear 9 1025 87 10000 2 360 17:24 12.03.2021
1561 Clear 9 1025 76 10000 1 10 16:44 12.03.2021
1562 Clear 9 1026 81 10000 1 10 16:23 12.03.2021
1563 Clear 9 1025 76 10000 2 20 15:38 12.03.2021
1564 Clear 10 1025 71 10000 2 60 14:52 12.03.2021
1565 Clear 10 1025 76 10000 2 50 14:22 12.03.2021
1566 Clear 10 1025 76 10000 2 50 14:22 12.03.2021
1567 Clear 10 1025 81 10000 2 20 13:55 12.03.2021
1568 Clear 10 1025 81 10000 2 20 13:37 12.03.2021
1569 Clouds 11 1025 76 10000 3 20 13:18 12.03.2021
1570 Clouds 11 1025 76 10000 3 20 12:43 12.03.2021
1571 Clouds 12 1025 71 10000 4 10 12:25 12.03.2021
1572 Clouds 12 1025 71 10000 4 10 11:53 12.03.2021
1573 Clouds 12 1024 76 10000 4 360 11:24 12.03.2021
1574 Clouds 13 1024 67 10000 4 350 10:55 12.03.2021
1575 Clouds 13 1024 71 10000 4 350 10:27 12.03.2021
1576 Clouds 13 1024 76 10000 4 350 09:57 12.03.2021
1577 Clouds 14 1024 71 10000 4 350 09:26 12.03.2021
1578 Clouds 13 1024 76 10000 4 340 08:46 12.03.2021
1579 Clouds 13 1024 76 6000 5 330 07:59 12.03.2021
1580 Clouds 13 1024 76 6000 5 330 07:38 12.03.2021
1581 Mist 12 1024 82 5000 7 340 06:54 12.03.2021
1582 Clouds 12 1025 76 6000 6 340 06:28 12.03.2021
1583 Clouds 12 1025 76 6000 6 340 06:28 12.03.2021
1584 Clouds 11 1025 82 6000 5 310 02:49 12.03.2021
1585 Clouds 11 1024 82 6000 4 310 00:47 12.03.2021
1586 Clouds 11 1023 82 6000 4 320 23:30 11.03.2021
1587 Clouds 11 1022 82 6000 5 300 22:50 11.03.2021
1588 Clouds 11 1022 87 6000 4 300 22:30 11.03.2021
1589 Clouds 11 1022 87 6000 5 300 21:54 11.03.2021
1590 Clouds 11 1022 87 6000 5 310 21:32 11.03.2021
1591 Clouds 11 1021 87 6000 6 320 20:55 11.03.2021
1592 Clouds 11 1021 87 6000 4 310 20:37 11.03.2021
1593 Clouds 11 1021 87 6000 4 310 20:19 11.03.2021
1594 Clouds 11 1022 87 6000 4 290 19:41 11.03.2021
1595 Clouds 11 1021 87 6000 5 300 19:22 11.03.2021
1596 Clouds 12 1021 87 6000 5 300 18:46 11.03.2021
1597 Clouds 12 1021 87 6000 5 300 18:28 11.03.2021
1598 Clouds 12 1021 87 8000 3 290 17:43 11.03.2021
1599 Clouds 12 1021 87 8000 4 290 16:47 11.03.2021
1600 Clouds 12 1021 87 6000 4 300 16:27 11.03.2021
1601 Clouds 12 1021 87 6000 4 300 15:48 11.03.2021
1602 Clouds 12 1021 87 8000 4 280 15:21 11.03.2021
1603 Clouds 12 1021 87 6000 4 290 15:21 11.03.2021
1604 Clouds 12 1021 87 6000 4 290 15:21 11.03.2021
1605 Clouds 12 1021 87 8000 4 280 14:46 11.03.2021
1606 Clouds 12 1021 87 8000 4 300 14:19 11.03.2021
1607 Clouds 12 1020 87 6000 4 290 13:46 11.03.2021
1608 Clouds 12 1020 87 6000 4 290 13:24 11.03.2021
1609 Clouds 12 1020 87 6000 5 280 12:57 11.03.2021
1610 Clouds 12 1020 94 6000 4 0 12:36 11.03.2021
1611 Clouds 12 1020 94 6000 4 260 12:18 11.03.2021
1612 Mist 12 1020 94 5000 3 250 11:42 11.03.2021
1613 Mist 12 1020 94 5000 3 250 11:20 11.03.2021
1614 Clouds 12 1005 94 10000 2.55 231 10:28 11.03.2021
1615 Clouds 12 1004 94 10000 2.55 231 09:54 11.03.2021
1616 Rain 12 1004 94 10000 2.55 231 09:34 11.03.2021
1617 Rain 12 1004 95 9908 0.45 25 08:59 11.03.2021
1618 Rain 12 1005 95 9908 0.45 299 08:41 11.03.2021
1619 Rain 12 1004 95 10000 3.19 189 07:59 11.03.2021
1620 Rain 12 1005 95 7454 3.32 177 07:21 11.03.2021
1621 Rain 12 1005 95 10000 0.45 302 06:48 11.03.2021
1622 Rain 12 1020 94 3000 5 150 06:23 11.03.2021
1623 Mist 11 1023 93 5000 5 130 02:48 11.03.2021
1624 Rain 11 1023 93 4500 4 120 00:45 11.03.2021
1625 -273 0 0 0 0 0 23:25 10.03.2021
1626 Rain 10 1023 93 5000 4 130 23:25 10.03.2021
1627 Rain 10 1023 93 6000 4 130 22:43 10.03.2021
1628 Rain 10 1023 93 6000 4 130 22:23 10.03.2021
1629 Rain 10 1023 93 6000 4 130 21:44 10.03.2021
1630 Rain 10 1023 87 7000 5 130 21:23 10.03.2021
1631 Rain 10 1024 87 7000 4 150 20:46 10.03.2021
1632 Rain 10 1024 87 7000 4 150 20:27 10.03.2021
1633 Rain 10 1024 87 10000 4 140 19:48 10.03.2021
1634 Rain 10 1024 87 10000 4 110 19:27 10.03.2021
1635 Rain 10 1025 87 10000 5 110 18:46 10.03.2021
1636 Clear 10 1025 87 10000 3 110 18:24 10.03.2021
1637 Clear 10 1025 87 10000 3 110 18:24 10.03.2021
1638 Clear 10 1025 87 10000 4 100 17:55 10.03.2021
1639 Clear 10 1026 87 10000 3 110 17:37 10.03.2021
1640 Clear 10 1026 87 10000 3 110 17:19 10.03.2021
1641 Clear 10 1027 81 10000 3 110 16:42 10.03.2021
1642 Clear 10 1027 81 10000 3 110 16:22 10.03.2021
1643 Rain 10 1027 81 10000 4 140 15:45 10.03.2021
1644 Rain 10 1027 71 10000 4 130 15:23 10.03.2021
1645 Rain 10 1027 71 10000 5 110 14:48 10.03.2021
1646 Rain 11 1027 66 10000 3 110 14:20 10.03.2021
1647 Rain 11 1027 66 10000 3 110 14:20 10.03.2021
1648 Rain 11 1027 66 10000 4 120 13:51 10.03.2021
1649 Rain 11 1027 62 10000 3 110 13:27 10.03.2021
1650 Clear 11 1027 58 10000 4 110 12:45 10.03.2021
1651 Rain 11 1026 54 10000 4 130 12:19 10.03.2021
1652 Clear 12 1026 50 10000 5 110 11:32 10.03.2021
1653 Clear 13 1025 47 10000 5 100 10:59 10.03.2021
1654 Clear 13 1025 41 10000 5 120 10:41 10.03.2021
1655 Clear 14 1025 41 10000 5 120 10:23 10.03.2021
1656 Clear 15 1026 38 10000 4 110 09:45 10.03.2021
1657 Clear 16 1025 39 10000 5 100 09:24 10.03.2021
1658 Clear 16 1025 39 10000 5 100 09:24 10.03.2021
1659 Clear 16 1025 39 10000 5 100 09:24 10.03.2021
1660 Clear 16 1026 36 10000 5 110 08:57 10.03.2021
1661 Clear 16 1026 36 10000 4 90 08:39 10.03.2021
1662 Clear 16 1026 36 10000 4 90 08:20 10.03.2021
1663 Clear 16 1026 34 10000 3 110 07:31 10.03.2021
1664 Clear 16 1027 34 10000 4 70 06:56 10.03.2021
1665 Clear 16 1027 34 10000 3 140 06:32 10.03.2021
1666 Clear 13 1030 62 10000 3 110 02:41 10.03.2021
1667 Clear 8 1029 93 7000 2 20 23:52 09.03.2021
1668 Clear 8 1028 93 7000 2 30 23:20 09.03.2021
1669 Clear 8 1028 93 10000 2 10 22:39 09.03.2021
1670 Clear 8 1028 93 10000 2 10 22:21 09.03.2021
1671 Clear 9 1028 93 10000 2 360 21:46 09.03.2021
1672 Clear 9 1028 93 10000 2 360 21:25 09.03.2021
1673 Clouds 9 1027 93 10000 2 350 20:58 09.03.2021
1674 Clouds 10 1027 87 10000 2 360 20:40 09.03.2021
1675 Clouds 10 1027 87 10000 2 360 20:20 09.03.2021
1676 Clouds 10 1027 93 10000 1 350 19:46 09.03.2021
1677 Clouds 10 1028 81 10000 1 360 19:26 09.03.2021
1678 Clouds 10 1028 81 10000 2 20 18:48 09.03.2021
1679 Clouds 10 1028 81 10000 2 20 18:25 09.03.2021
1680 Clouds 10 1028 81 10000 3 10 17:51 09.03.2021
1681 Clouds 10 1028 81 10000 2 360 17:30 09.03.2021
1682 Clouds 10 1029 81 10000 2 360 16:47 09.03.2021
1683 Clouds 10 1029 81 10000 2 10 16:26 09.03.2021
1684 Clouds 10 1029 81 10000 2 360 15:59 09.03.2021
1685 Clouds 11 1029 71 10000 2 40 15:36 09.03.2021
1686 Clouds 11 1029 71 10000 2 30 15:18 09.03.2021
1687 Clouds 11 1029 76 10000 2 20 14:28 09.03.2021
1688 Clouds 11 1029 76 10000 2 20 14:28 09.03.2021
1689 Clouds 11 1028 71 10000 2 70 13:47 09.03.2021
1690 Clouds 11 1028 76 10000 1 0 13:22 09.03.2021
1691 Clouds 10 1028 81 10000 2 10 12:59 09.03.2021
1692 Clouds 10 1027 81 10000 2 10 12:38 09.03.2021
1693 Clouds 10 1027 81 10000 2 20 11:59 09.03.2021
1694 Clouds 10 1027 81 10000 2 20 11:39 09.03.2021
1695 Clouds 10 1027 81 10000 2 20 11:20 09.03.2021
1696 Clouds 11 1027 81 10000 3 20 10:47 09.03.2021
1697 Clouds 11 1026 76 10000 2 10 10:23 09.03.2021
1698 Clouds 11 1026 76 10000 2 40 09:58 09.03.2021
1699 Clouds 11 1026 81 10000 2 40 09:39 09.03.2021
1700 Clouds 11 1026 81 10000 2 40 09:21 09.03.2021
1701 Clouds 11 1026 81 7000 2 30 08:35 09.03.2021
1702 Clouds 11 1026 81 7000 2 30 08:35 09.03.2021
1703 Clouds 11 1026 81 7000 2 60 07:50 09.03.2021
1704 Mist 11 1026 87 5000 1 0 07:31 09.03.2021
1705 Mist 10 1026 93 5000 3 80 06:59 09.03.2021
1706 Mist 10 1026 93 5000 3 80 06:59 09.03.2021
1707 Clouds 10 1026 87 10000 3 80 05:54 09.03.2021
1708 Clouds 10 1026 81 10000 3 50 02:27 09.03.2021
1709 Clear 9 1025 87 10000 2 70 00:18 09.03.2021
1710 Clouds 9 1025 87 10000 2 70 23:39 08.03.2021
1711 Clouds 9 1025 87 10000 2 70 23:20 08.03.2021
1712 Clouds 9 1025 87 10000 3 80 22:41 08.03.2021
1713 Clouds 9 1025 87 10000 3 80 22:23 08.03.2021
1714 Clouds 9 1024 87 10000 2 70 21:50 08.03.2021
1715 Clouds 9 1024 87 10000 2 70 21:50 08.03.2021
1716 Clouds 9 1024 87 8000 2 70 21:30 08.03.2021
1717 Clouds 9 1024 87 8000 2 50 20:44 08.03.2021
1718 Clear 9 1024 87 10000 2 50 20:23 08.03.2021
1719 Clear 9 1024 87 10000 2 50 19:53 08.03.2021
1720 Clear 9 1024 87 10000 3 50 19:27 08.03.2021
1721 Clear 9 1024 87 10000 2 60 18:38 08.03.2021
1722 Clear 9 1024 87 10000 2 60 18:19 08.03.2021
1723 Clear 9 1024 87 10000 2 60 18:19 08.03.2021
1724 Clear 9 1025 87 10000 2 80 17:44 08.03.2021
1725 Clear 9 1025 87 10000 2 80 17:23 08.03.2021
1726 Rain 9 1025 87 10000 1 0 16:43 08.03.2021
1727 Clouds 9 1025 87 10000 1 0 16:24 08.03.2021
1728 Rain 9 1026 81 10000 2 80 15:45 08.03.2021
1729 Rain 9 1026 81 10000 2 80 15:23 08.03.2021
1730 Rain 9 1026 81 10000 4 120 14:22 08.03.2021
1731 Rain 9 1026 81 10000 4 130 13:58 08.03.2021
1732 Rain 9 1026 87 10000 4 120 13:24 08.03.2021
1733 Rain 9 1026 87 10000 5 130 12:58 08.03.2021
1734 Rain 10 1026 81 10000 4 120 12:35 08.03.2021
1735 Rain 10 1026 76 10000 4 120 11:55 08.03.2021
1736 Rain 10 1026 71 10000 4 130 11:34 08.03.2021
1737 Rain 11 1026 66 10000 3 110 10:57 08.03.2021
1738 Rain 11 1025 66 10000 3 80 10:39 08.03.2021
1739 Rain 11 1025 66 10000 3 80 10:18 08.03.2021
1740 Rain 12 1025 66 10000 2 50 09:29 08.03.2021
1741 Clouds 12 1024 66 10000 3 60 08:52 08.03.2021
1742 Clouds 13 1025 66 10000 3 60 08:25 08.03.2021
1743 Clouds 13 1025 66 10000 2 60 07:22 08.03.2021
1744 Clouds 13 1027 71 10000 3 60 05:46 08.03.2021
1745 Clouds 11 1028 82 8000 4 60 02:57 08.03.2021
1746 Clouds 10 1027 87 8000 1 0 00:43 08.03.2021
1747 Clouds 10 1027 87 8000 2 70 23:53 07.03.2021
1748 Clouds 9 1027 87 8000 3 50 23:22 07.03.2021
1749 Clouds 9 1027 93 8000 2 40 22:49 07.03.2021
1750 Clouds 9 1027 93 8000 2 40 22:28 07.03.2021
1751 Clouds 9 1026 93 8000 3 40 21:53 07.03.2021
1752 Clouds 10 1026 93 7000 3 20 21:33 07.03.2021
1753 Clouds 10 1027 100 7000 3 20 20:59 07.03.2021
1754 Clouds 10 1027 100 6000 3 10 20:40 07.03.2021
1755 Clouds 10 1027 100 6000 3 20 20:19 07.03.2021
1756 Clouds 10 1027 100 6000 3 20 20:19 07.03.2021
1757 Mist 10 1027 100 5000 3 10 19:41 07.03.2021
1758 Mist 10 1027 100 5000 3 20 19:22 07.03.2021
1759 Mist 10 1027 100 5000 3 20 18:54 07.03.2021
1760 Mist 10 1028 100 5000 3 30 18:21 07.03.2021
1761 Mist 10 1028 100 4500 3 30 17:59 07.03.2021
1762 Mist 10 1028 100 4400 3 20 17:39 07.03.2021
1763 Mist 10 1028 100 4400 3 20 17:19 07.03.2021
1764 Mist 9 1028 100 3600 3 10 16:43 07.03.2021
1765 Mist 9 1028 100 3600 3 10 16:21 07.03.2021
1766 Mist 9 1028 100 3000 3 360 15:50 07.03.2021
1767 Mist 9 1028 100 3300 4 10 15:31 07.03.2021
1768 Mist 9 1028 93 4500 4 20 14:51 07.03.2021
1769 Mist 10 1028 100 5000 4 30 14:29 07.03.2021
1770 Clouds 10 1028 93 6000 3 30 13:48 07.03.2021
1771 Clouds 9 1028 100 6000 3 20 13:26 07.03.2021
1772 Clouds 9 1028 93 6000 4 10 12:48 07.03.2021
1773 Clouds 9 1028 93 6000 4 10 12:30 07.03.2021
1774 Clouds 9 1027 93 6000 4 10 11:54 07.03.2021
1775 Clouds 9 1027 93 6000 5 10 11:23 07.03.2021
1776 Clouds 9 1027 93 6000 5 10 10:51 07.03.2021
1777 Clouds 9 1026 93 7000 4 10 10:33 07.03.2021
1778 Clouds 9 1026 93 7000 4 360 09:52 07.03.2021
1779 Clouds 9 1026 93 7000 4 360 09:27 07.03.2021
1780 Clouds 9 1026 93 7000 5 10 08:55 07.03.2021
1781 Clouds 9 1026 93 7000 5 10 08:37 07.03.2021
1782 Clouds 9 1026 93 7000 5 10 08:19 07.03.2021
1783 Rain 9 1028 93 10000 5 10 02:44 07.03.2021
1784 Clouds 9 1028 93 10000 6 10 02:24 07.03.2021
1785 Rain 8 1027 93 10000 6 10 00:24 07.03.2021
1786 Rain 8 1027 100 10000 6 10 23:39 06.03.2021
1787 Rain 8 1027 100 10000 6 10 22:57 06.03.2021
1788 Rain 8 1026 100 8000 6 10 22:38 06.03.2021
1789 Rain 8 1026 100 8000 6 10 22:19 06.03.2021
1790 Rain 8 1026 93 10000 5 10 21:25 06.03.2021
1791 Rain 8 1026 93 10000 6 360 20:59 06.03.2021
1792 Rain 8 1027 93 10000 5 20 20:40 06.03.2021
1793 Clouds 8 1027 93 10000 5 10 19:51 06.03.2021
1794 Rain 8 1027 93 10000 6 360 19:23 06.03.2021
1795 Rain 8 1027 93 10000 5 10 18:57 06.03.2021
1796 Rain 8 1027 93 10000 5 350 18:38 06.03.2021
1797 Rain 8 1027 93 10000 5 350 18:19 06.03.2021
1798 Rain 8 1027 87 10000 5 360 17:47 06.03.2021
1799 Rain 8 1028 87 10000 5 350 17:26 06.03.2021
1800 Rain 8 1028 87 10000 6 10 16:52 06.03.2021
1801 Rain 8 1028 87 10000 6 10 16:30 06.03.2021
1802 Clouds 8 1028 87 10000 6 20 15:55 06.03.2021
1803 Clouds 8 1028 87 10000 6 10 15:34 06.03.2021
1804 Rain 8 1028 87 10000 5 10 14:54 06.03.2021
1805 Rain 8 1028 87 10000 6 10 14:31 06.03.2021
1806 Rain 8 1027 87 10000 5 20 13:46 06.03.2021
1807 Rain 8 1027 87 10000 5 20 13:24 06.03.2021
1808 Rain 8 1027 87 10000 7 10 12:48 06.03.2021
1809 Rain 9 1027 81 10000 7 20 12:20 06.03.2021
1810 Rain 9 1027 81 10000 6 10 11:58 06.03.2021
1811 Rain 9 1026 81 10000 7 20 11:23 06.03.2021
1812 Rain 9 1026 81 10000 7 30 10:54 06.03.2021
1813 Rain 9 1026 81 10000 6 30 10:35 06.03.2021
1814 Rain 9 1025 81 10000 7 20 09:51 06.03.2021
1815 Rain 10 1025 76 10000 7 30 09:21 06.03.2021
1816 Clouds 9 1025 76 10000 7 30 08:53 06.03.2021
1817 Rain 9 1024 76 10000 7 20 08:25 06.03.2021
1818 Clouds 10 1025 81 10000 7 30 07:42 06.03.2021
1819 Clouds 10 1025 81 10000 7 30 07:21 06.03.2021
1820 Rain 11 1025 82 10000 5 50 05:40 06.03.2021
1821 Clouds 10 1026 87 10000 6 40 02:52 06.03.2021
1822 Rain 10 1024 87 10000 5 60 01:28 06.03.2021
1823 Rain 10 1024 87 10000 4 50 00:45 06.03.2021
1824 Rain 10 1023 87 10000 3 70 23:39 05.03.2021
1825 Rain 10 1023 87 10000 3 70 23:39 05.03.2021
1826 Rain 10 1022 87 10000 5 70 23:18 05.03.2021
1827 Rain 10 1022 87 10000 6 60 22:43 05.03.2021
1828 Rain 10 1022 87 10000 6 60 22:20 05.03.2021
1829 Rain 10 1022 82 10000 3 80 21:42 05.03.2021
1830 Clouds 10 1021 82 10000 3 60 21:23 05.03.2021
1831 Rain 10 1021 82 10000 4 70 20:43 05.03.2021
1832 Rain 10 1021 82 10000 4 70 20:23 05.03.2021
1833 Rain 10 1021 87 10000 3 80 19:44 05.03.2021
1834 Clouds 10 1021 87 10000 3 80 19:22 05.03.2021
1835 Clouds 10 1021 93 10000 4 100 18:44 05.03.2021
1836 Clouds 10 1021 87 10000 3 100 18:25 05.03.2021
1837 Rain 10 1021 87 10000 4 80 17:49 05.03.2021
1838 Rain 11 1021 87 10000 3 90 17:31 05.03.2021
1839 Rain 11 1021 87 10000 2 70 16:42 05.03.2021
1840 Rain 11 1021 87 10000 2 70 16:23 05.03.2021
1841 Rain 11 1021 87 10000 2 90 15:54 05.03.2021
1842 Clear 11 1022 87 10000 2 60 15:27 05.03.2021
1843 Rain 11 1020 87 10000 2 160 14:46 05.03.2021
1844 Rain 11 1020 87 10000 2 160 14:24 05.03.2021
1845 Clouds 11 1020 82 10000 3 110 13:43 05.03.2021
1846 Clouds 11 1020 82 10000 3 110 13:21 05.03.2021
1847 Rain 11 1020 82 10000 3 90 12:43 05.03.2021
1848 Rain 11 1019 82 10000 4 150 11:39 05.03.2021
1849 Rain 11 1019 82 10000 4 150 11:19 05.03.2021
1850 Clouds 11 1020 76 10000 4 170 10:45 05.03.2021
1851 Clear 12 1019 76 10000 3 150 10:26 05.03.2021
1852 Clear 12 1019 76 10000 3 150 09:58 05.03.2021
1853 Rain 12 1019 71 10000 4 130 09:38 05.03.2021
1854 Rain 12 1019 71 10000 4 130 09:20 05.03.2021
1855 Rain 12 1019 71 10000 3 130 08:39 05.03.2021
1856 Rain 12 1019 71 10000 3 130 08:20 05.03.2021
1857 Rain 12 1019 76 10000 4 140 07:33 05.03.2021
1858 Rain 13 1020 71 10000 3 150 06:34 05.03.2021
1859 Rain 14 1021 71 10000 5 130 05:41 05.03.2021
1860 Mist 8 1022 100 2000 2 140 00:59 05.03.2021
1861 Mist 8 1022 100 2600 2 150 23:53 04.03.2021
1862 Clouds 7 1020 93 6000 3 70 23:24 04.03.2021
1863 Clouds 7 1021 93 8000 1 100 22:29 04.03.2021
1864 Clouds 7 1021 93 8000 1 100 21:53 04.03.2021
1865 Clear 7 1021 93 8000 1 20 21:31 04.03.2021
1866 Clear 7 1021 93 8000 3 50 20:57 04.03.2021
1867 Clear 7 1022 93 10000 2 90 20:38 04.03.2021
1868 Clear 7 1022 93 10000 1 0 20:18 04.03.2021
1869 Clear 8 1022 93 10000 1 170 19:43 04.03.2021
1870 Clear 8 1022 93 10000 1 170 19:23 04.03.2021
1871 Clear 8 1022 87 10000 2 210 18:45 04.03.2021
1872 Clear 8 1022 87 10000 2 210 18:26 04.03.2021
1873 Clear 8 1022 87 10000 1 210 17:47 04.03.2021
1874 Clear 9 1022 87 10000 2 150 17:28 04.03.2021
1875 Clear 9 1021 87 10000 2 150 16:48 04.03.2021
1876 Clear 9 1021 81 10000 1 0 16:29 04.03.2021
1877 Clear 9 1021 81 10000 1 0 15:50 04.03.2021
1878 Clear 10 1021 81 10000 1 0 15:32 04.03.2021
1879 Clear 10 1021 76 10000 2 40 14:50 04.03.2021
1880 Clear 10 1021 76 10000 2 40 14:26 04.03.2021
1881 Clear 11 1021 66 10000 1 0 13:50 04.03.2021
1882 Clear 11 1021 66 10000 1 0 13:32 04.03.2021
1883 Clear 12 1020 66 10000 2 30 12:53 04.03.2021
1884 Clear 12 1020 71 10000 2 20 12:35 04.03.2021
1885 Clear 12 1020 62 10000 2 30 11:47 04.03.2021
1886 Clear 13 1020 58 10000 3 340 11:25 04.03.2021
1887 Clear 14 1020 62 10000 4 350 10:52 04.03.2021
1888 Clear 14 1020 62 10000 4 350 10:31 04.03.2021
1889 Clouds 15 1019 58 10000 4 350 09:42 04.03.2021
1890 Clouds 15 1019 62 10000 5 350 09:21 04.03.2021
1891 Clouds 15 1019 58 10000 5 360 08:35 04.03.2021
1892 Clouds 15 1019 62 10000 4 330 07:53 04.03.2021
1893 Clouds 14 1019 71 10000 4 350 07:29 04.03.2021
1894 Clouds 12 1020 76 10000 4 350 06:24 04.03.2021
1895 Clouds 12 1021 76 10000 4 330 05:27 04.03.2021
1896 Clouds 10 1021 93 7000 2 0 01:41 04.03.2021
1897 Rain 10 1021 100 3600 2 290 22:44 03.03.2021
1898 Mist 10 1021 100 3600 2 290 22:26 03.03.2021
1899 Rain 10 1020 93 4500 1 250 21:44 03.03.2021
1900 Rain 10 1020 93 4500 1 250 21:24 03.03.2021
1901 Mist 10 1020 93 4500 1 0 20:59 03.03.2021
1902 Rain 10 1021 93 5000 1 0 20:41 03.03.2021
1903 Rain 10 1021 100 7000 1 0 19:59 03.03.2021
1904 Rain 10 1022 93 7000 1 130 19:40 03.03.2021
1905 Rain 10 1022 93 7000 1 130 19:21 03.03.2021
1906 Rain 10 1022 93 10000 1 150 18:46 03.03.2021
1907 Rain 10 1022 93 10000 2 140 18:21 03.03.2021
1908 Rain 10 1023 93 10000 2 150 17:43 03.03.2021
1909 Rain 9 1023 93 10000 2 150 17:18 03.03.2021
1910 Rain 10 1023 93 10000 2 150 17:18 03.03.2021
1911 Rain 10 1023 87 10000 2 160 16:41 03.03.2021
1912 Rain 10 1023 87 10000 2 160 16:22 03.03.2021
1913 Rain 10 1023 81 10000 4 150 15:33 03.03.2021
1914 Rain 10 1024 76 10000 5 130 14:56 03.03.2021
1915 Rain 10 1024 76 10000 5 130 14:29 03.03.2021
1916 Rain 10 1024 76 10000 5 130 13:52 03.03.2021
1917 Rain 10 1024 71 10000 5 130 13:31 03.03.2021
1918 Clear 10 1024 66 10000 4 130 12:44 03.03.2021
1919 Rain 10 1024 66 10000 4 130 12:26 03.03.2021
1920 Clear 10 1024 62 10000 5 130 11:48 03.03.2021
1921 Clear 10 1024 62 10000 5 130 11:28 03.03.2021
1922 Clear 10 1024 62 10000 5 130 10:50 03.03.2021
1923 Clear 10 1024 62 10000 5 130 10:30 03.03.2021
1924 Clear 10 1024 62 10000 5 160 09:48 03.03.2021
1925 Clear 10 1024 66 10000 4 160 09:26 03.03.2021
1926 Clouds 11 1010 56 10000 4.6 142 08:41 03.03.2021
1927 Clear 11 1024 58 10000 5 160 08:21 03.03.2021
1928 Clouds 11 1025 58 10000 4 170 07:41 03.03.2021
1929 Clouds 12 1025 54 10000 5 160 06:51 03.03.2021
1930 Clouds 11 1026 54 10000 5 160 05:46 03.03.2021
1931 Clouds 12 1027 54 10000 5 160 04:57 03.03.2021
1932 Clouds 11 1027 54 10000 5 110 04:25 03.03.2021
1933 Clear 9 1029 71 10000 4 110 01:46 03.03.2021
1934 Clear 6 1029 81 10000 1 330 23:55 02.03.2021
1935 Clear 6 1029 87 10000 2 360 23:21 02.03.2021
1936 Clear 6 1029 81 10000 2 350 22:41 02.03.2021
1937 Clear 6 1029 81 10000 2 350 22:18 02.03.2021
1938 Clear 6 1029 81 10000 2 350 21:39 02.03.2021
1939 Clear 6 1029 81 10000 2 350 21:19 02.03.2021
1940 Clear 5 1029 81 10000 2 350 20:45 02.03.2021
1941 Clear 6 1029 81 10000 2 360 20:22 02.03.2021
1942 Clear 5 1030 81 10000 2 350 19:50 02.03.2021
1943 Clear 5 1030 81 10000 3 360 19:32 02.03.2021
1944 Clear 6 1030 75 10000 3 20 18:58 02.03.2021
1945 Clear 5 1030 75 10000 3 30 18:39 02.03.2021
1946 Clear 5 1030 75 10000 3 30 18:19 02.03.2021
1947 Clear 6 1030 70 10000 3 40 17:40 02.03.2021
1948 Clear 6 1030 70 10000 3 50 17:20 02.03.2021
1949 Clear 6 1030 70 10000 3 50 16:48 02.03.2021
1950 Clear 6 1030 70 10000 4 40 15:59 02.03.2021
1951 Clear 6 1030 65 10000 3 40 15:29 02.03.2021
1952 Clear 7 1030 61 10000 2 50 14:56 02.03.2021
1953 Clear 7 1030 53 10000 4 50 14:21 02.03.2021
1954 Clear 7 1030 53 10000 4 50 13:48 02.03.2021
1955 Clear 8 1030 53 10000 3 60 13:28 02.03.2021
1956 Clear 8 1030 49 10000 3 50 12:50 02.03.2021
1957 Clear 8 1030 46 10000 4 50 12:26 02.03.2021
1958 Clear 8 1030 46 10000 3 50 11:52 02.03.2021
1959 Clear 8 1030 43 10000 4 40 11:25 02.03.2021
1960 Clear 9 1030 40 10000 4 50 10:54 02.03.2021
1961 Clear 10 1029 40 10000 5 40 10:30 02.03.2021
1962 Clear 10 1029 50 10000 5 10 09:44 02.03.2021
1963 Clear 11 1029 50 10000 4 360 09:24 02.03.2021
1964 Clear 10 1029 50 10000 4 360 08:54 02.03.2021
1965 Clear 10 1029 50 10000 4 40 08:33 02.03.2021
1966 Clear 10 1029 50 10000 5 20 07:46 02.03.2021
1967 Clear 10 1029 57 10000 5 360 06:37 02.03.2021
1968 Clouds 9 1030 66 10000 5 360 05:50 02.03.2021
1969 Clouds 9 1030 66 10000 5 360 05:32 02.03.2021
1970 Clouds 7 1030 61 10000 4 20 04:24 02.03.2021
1971 Clouds 5 1030 81 10000 6 10 01:42 02.03.2021
1972 Clouds 4 1030 81 10000 6 10 01:42 02.03.2021
1973 Clouds 4 1030 81 10000 6 10 01:19 02.03.2021
1974 Clouds 4 1028 81 10000 6 360 23:29 01.03.2021
1975 Clouds 4 1027 87 10000 6 350 22:43 01.03.2021
1976 Clouds 4 1027 87 10000 6 350 22:25 01.03.2021
1977 Clouds 5 1026 87 10000 6 340 21:53 01.03.2021
1978 Clouds 5 1026 81 10000 6 340 21:24 01.03.2021
1979 Clouds 5 1026 87 10000 8 340 21:00 01.03.2021
1980 Clouds 5 1026 87 10000 7 350 20:41 01.03.2021
1981 Clouds 5 1026 87 10000 7 350 20:19 01.03.2021
1982 Clouds 5 1026 87 10000 6 350 19:43 01.03.2021
1983 Clouds 5 1026 87 10000 6 350 19:20 01.03.2021
1984 Clouds 5 1026 87 10000 7 340 18:42 01.03.2021
1985 Clouds 5 1026 87 10000 7 340 18:22 01.03.2021
1986 Rain 5 1025 87 10000 6 340 17:46 01.03.2021
1987 Rain 5 1025 87 10000 6 340 17:21 01.03.2021
1988 Rain 5 1025 93 10000 7 330 16:46 01.03.2021
1989 Rain 6 1025 87 10000 7 340 16:26 01.03.2021
1990 Rain 5 1025 93 10000 6 340 15:47 01.03.2021
1991 Rain 5 1025 93 10000 6 340 15:22 01.03.2021
1992 Rain 5 1025 93 10000 7 350 14:57 01.03.2021
1993 Rain 6 1024 87 10000 9 340 14:38 01.03.2021
1994 Rain 6 1023 87 10000 7 350 13:47 01.03.2021
1995 Rain 7 1023 87 10000 7 350 13:28 01.03.2021
1996 Rain 7 1022 87 10000 9 350 12:59 01.03.2021
1997 Rain 7 1022 93 10000 7 350 12:40 01.03.2021
1998 Rain 7 1021 93 10000 8 360 12:20 01.03.2021
1999 Rain 7 1020 93 8000 9 360 11:45 01.03.2021
2000 Rain 8 1020 87 6000 10 360 10:57 01.03.2021
2001 Rain 8 1019 87 7000 10 360 10:36 01.03.2021
2002 Rain 8 1019 87 7000 10 360 10:18 01.03.2021
2003 Rain 9 1018 93 8000 11 360 09:44 01.03.2021
2004 Mist 9 1017 93 4000 10 10 09:23 01.03.2021
2005 Rain 11 1016 94 3200 5 320 08:52 01.03.2021
2006 Mist 12 1016 94 4500 6 320 08:21 01.03.2021
2007 Rain 13 1016 94 4500 5 320 06:54 01.03.2021
2008 Rain 13 1016 94 4500 5 310 05:39 01.03.2021
2009 Mist 13 1016 100 3500 2 290 01:48 01.03.2021
2010 Rain 13 1015 100 5000 1 0 23:40 28.02.2021
2011 Mist 13 1015 100 5000 2 210 22:52 28.02.2021
2012 Rain 13 1015 100 5000 2 220 22:25 28.02.2021
2013 Mist 13 1014 100 5000 2 180 21:54 28.02.2021
2014 Mist 13 1014 100 5000 2 180 21:32 28.02.2021
2015 Mist 13 1014 100 5000 3 180 20:58 28.02.2021
2016 Mist 13 1015 94 5000 3 150 20:37 28.02.2021
2017 Mist 13 1015 94 5000 3 150 20:37 28.02.2021
2018 Rain 13 1016 100 5000 2 210 19:56 28.02.2021
2019 Rain 13 1016 100 4000 2 220 19:37 28.02.2021
2020 Rain 13 1016 100 4000 2 220 19:19 28.02.2021
2021 Mist 13 1016 100 3000 1 210 18:38 28.02.2021
2022 Mist 13 1016 100 3000 1 210 18:20 28.02.2021
2023 Mist 13 1016 100 2800 2 180 17:46 28.02.2021
2024 Mist 13 1016 94 2800 2 170 17:27 28.02.2021
2025 Mist 13 1017 94 2500 2 190 16:51 28.02.2021
2026 Mist 13 1017 94 4000 3 160 16:30 28.02.2021
2027 Mist 13 1017 94 4500 3 140 15:53 28.02.2021
2028 Mist 13 1017 94 4800 3 120 15:31 28.02.2021
2029 Clouds 13 1017 88 6000 3 110 14:59 28.02.2021
2030 Clouds 13 1017 88 6000 3 130 14:40 28.02.2021
2031 Clouds 13 1017 88 6000 3 130 14:20 28.02.2021
2032 Clouds 13 1016 88 7000 2 120 13:42 28.02.2021
2033 Rain 13 1016 88 10000 2 130 13:19 28.02.2021
2034 Clouds 13 1016 88 10000 2 130 12:55 28.02.2021
2035 Clouds 13 1016 88 10000 3 150 12:36 28.02.2021
2036 Clouds 13 1016 88 10000 3 150 12:18 28.02.2021
2037 Clouds 14 1016 88 10000 2 160 11:42 28.02.2021
2038 Clouds 14 1016 88 10000 2 160 11:22 28.02.2021
2039 Clouds 14 1017 88 10000 1 0 10:49 28.02.2021
2040 Clouds 14 1017 88 10000 1 0 10:26 28.02.2021
2041 Clouds 14 1017 88 10000 2 260 09:42 28.02.2021
2042 Clouds 14 1017 88 10000 2 260 09:42 28.02.2021
2043 Clouds 14 1017 88 10000 1 0 09:24 28.02.2021
2044 Clouds 14 1017 88 10000 1 0 08:47 28.02.2021
2045 Clouds 14 1017 88 10000 1 0 08:29 28.02.2021
2046 Clouds 13 1017 88 10000 1 0 07:50 28.02.2021
2047 Clouds 14 1018 88 10000 1 0 07:30 28.02.2021
2048 Clouds 13 1019 94 10000 3 100 06:27 28.02.2021
2049 Clouds 13 1020 88 10000 2 80 05:24 28.02.2021
2050 Clouds 12 1021 94 10000 3 70 03:24 28.02.2021
2051 Clouds 11 1022 100 6000 2 40 01:36 28.02.2021
2052 Clouds 11 1022 100 7000 1 0 00:43 28.02.2021
2053 Clouds 11 1022 100 7000 1 0 00:23 28.02.2021
2054 Clouds 11 1021 100 7000 2 20 23:44 27.02.2021
2055 Mist 11 1021 93 5000 2 30 23:19 27.02.2021
2056 Mist 11 1021 93 5000 2 20 22:43 27.02.2021
2057 Mist 11 1021 93 5000 2 20 22:18 27.02.2021
2058 Mist 11 1021 93 5000 1 360 21:38 27.02.2021
2059 Mist 11 1021 93 5000 1 360 21:38 27.02.2021
2060 Mist 11 1021 93 5000 1 360 21:38 27.02.2021
2061 Mist 11 1021 93 5000 1 360 21:20 27.02.2021
2062 Clouds 11 1021 93 10000 1 50 20:46 27.02.2021
2063 Clouds 11 1022 93 10000 1 0 20:26 27.02.2021
2064 Rain 11 1022 93 10000 2 60 19:45 27.02.2021
2065 Clouds 11 1022 93 10000 2 60 19:25 27.02.2021
2066 Clouds 11 1022 93 8000 2 90 18:43 27.02.2021
2067 Clouds 11 1022 93 8000 2 90 18:21 27.02.2021
2068 Rain 11 1022 93 10000 3 90 17:45 27.02.2021
2069 Clouds 11 1022 93 10000 3 90 17:21 27.02.2021
2070 Clouds 11 1022 93 10000 3 100 16:59 27.02.2021
2071 Clouds 11 1022 93 10000 3 90 16:41 27.02.2021
2072 Clouds 11 1022 93 10000 3 90 16:23 27.02.2021
2073 Clouds 11 1022 93 10000 4 100 15:39 27.02.2021
2074 Clouds 11 1022 93 10000 4 90 14:52 27.02.2021
2075 Clouds 11 1022 93 10000 4 90 14:32 27.02.2021
2076 Clouds 11 1022 93 7000 4 70 13:56 27.02.2021
2077 Clouds 11 1022 93 7000 3 70 13:33 27.02.2021
2078 Clouds 10 1022 93 7000 3 70 12:57 27.02.2021
2079 Clouds 10 1021 93 6000 3 60 12:30 27.02.2021
2080 Clouds 10 1021 93 6000 2 70 11:58 27.02.2021
2081 Mist 11 1021 93 5000 2 80 11:40 27.02.2021
2082 Clouds 11 1021 87 7000 4 80 11:21 27.02.2021
2083 Clouds 11 1021 82 10000 4 70 10:44 27.02.2021
2084 Clouds 11 1021 82 10000 4 70 10:22 27.02.2021
2085 Clouds 12 1021 82 10000 4 70 09:46 27.02.2021
2086 Clouds 12 1021 82 10000 5 70 09:25 27.02.2021
2087 Clouds 12 1021 82 10000 5 50 08:40 27.02.2021
2088 Clouds 12 1021 82 10000 5 50 08:21 27.02.2021
2089 Rain 12 1021 87 10000 4 80 07:37 27.02.2021
2090 Clouds 11 1022 87 10000 4 50 04:26 27.02.2021
2091 Rain 10 1021 76 10000 6 40 00:41 27.02.2021
2092 Rain 10 1021 76 10000 5 40 23:54 26.02.2021
2093 Rain 10 1021 76 10000 5 40 23:26 26.02.2021
2094 Clouds 10 1020 76 10000 5 40 22:44 26.02.2021
2095 Rain 10 1020 76 10000 5 40 22:23 26.02.2021
2096 Rain 10 1020 76 10000 5 40 21:42 26.02.2021
2097 Rain 10 1020 76 10000 5 50 21:19 26.02.2021
2098 Rain 10 1020 76 10000 4 40 20:44 26.02.2021
2099 Rain 10 1020 76 10000 4 40 20:44 26.02.2021
2100 Clouds 10 1020 76 10000 4 40 20:21 26.02.2021
2101 Clear 10 1020 76 10000 5 50 19:42 26.02.2021
2102 Clear 10 1020 76 10000 5 50 19:22 26.02.2021
2103 Clouds 10 1020 81 10000 6 50 18:42 26.02.2021
2104 Clouds 10 1020 81 10000 6 50 18:21 26.02.2021
2105 Clouds 10 1021 81 10000 5 50 17:39 26.02.2021
2106 Clouds 10 1021 81 10000 5 50 17:21 26.02.2021
2107 Clouds 10 1020 87 10000 5 40 16:50 26.02.2021
2108 Clouds 10 1020 87 10000 5 40 16:31 26.02.2021
2109 Clouds 10 1021 87 10000 5 40 15:56 26.02.2021
2110 Rain 10 1021 87 10000 5 40 15:36 26.02.2021
2111 Rain 10 1021 87 10000 6 40 15:18 26.02.2021
2112 Clouds 10 1021 87 10000 5 30 14:42 26.02.2021
2113 Clouds 10 1021 87 10000 5 30 14:42 26.02.2021
2114 Clouds 10 1021 87 10000 5 30 14:24 26.02.2021
2115 Rain 10 1020 87 10000 6 30 13:39 26.02.2021
2116 Rain 10 1020 87 10000 6 30 13:20 26.02.2021
2117 Clouds 10 1020 87 7000 7 30 12:34 26.02.2021
2118 Clouds 9 1020 87 7000 6 20 11:50 26.02.2021
2119 Rain 9 1019 87 7000 6 30 11:32 26.02.2021
2120 Rain 10 1019 87 7000 5 30 10:46 26.02.2021
2121 Rain 9 1018 93 7000 5 30 09:51 26.02.2021
2122 Rain 9 1018 93 7000 6 30 09:30 26.02.2021
2123 Rain 9 1018 93 7000 6 30 08:54 26.02.2021
2124 Rain 9 1018 93 7000 7 30 08:25 26.02.2021
2125 Mist 9 1018 93 5000 6 20 07:49 26.02.2021
2126 Rain 9 1018 93 6000 6 20 06:36 26.02.2021
2127 Rain 9 1018 93 6000 7 20 05:27 26.02.2021
2128 Mist 9 1018 93 4000 7 30 03:46 26.02.2021
2129 Clouds 9 1017 93 8000 7 30 01:37 26.02.2021
2130 Rain 9 1016 93 7000 7 30 23:49 25.02.2021
2131 Rain 9 1016 93 7000 6 20 23:28 25.02.2021
2132 Clouds 9 1016 93 6000 4 30 22:49 25.02.2021
2133 Clouds 9 1015 93 8000 7 30 21:59 25.02.2021
2134 Clouds 9 1015 93 10000 7 30 21:36 25.02.2021
2135 Clouds 9 1015 93 10000 7 30 21:18 25.02.2021
2136 Clouds 9 1015 93 10000 8 30 20:40 25.02.2021
2137 Rain 9 1015 93 10000 8 30 20:21 25.02.2021
2138 Clouds 9 1015 93 10000 8 30 19:51 25.02.2021
2139 Rain 9 1015 93 10000 7 30 19:21 25.02.2021
2140 Rain 9 1015 93 10000 7 30 18:56 25.02.2021
2141 Rain 9 1015 100 10000 7 30 18:19 25.02.2021
2142 Rain 10 1015 93 10000 7 30 17:42 25.02.2021
2143 Rain 10 1015 93 10000 7 30 17:23 25.02.2021
2144 Rain 10 1015 100 10000 7 30 16:38 25.02.2021
2145 Rain 10 1015 100 10000 7 30 16:20 25.02.2021
2146 Rain 10 1014 100 7000 6 30 15:29 25.02.2021
2147 Rain 11 1014 100 7000 7 360 14:41 25.02.2021
2148 Rain 12 1013 94 7000 6 350 14:21 25.02.2021
2149 Rain 12 1013 94 7000 6 350 13:49 25.02.2021
2150 Rain 13 1013 94 8000 5 340 13:24 25.02.2021
2151 Rain 13 1013 94 8000 5 340 12:46 25.02.2021
2152 Rain 13 1013 94 10000 5 330 12:21 25.02.2021
2153 Rain 13 999 95 10000 3.38 309 11:43 25.02.2021
2154 Rain 13 999 95 10000 3.45 304 10:58 25.02.2021
2155 Rain 13 1012 94 7000 3 300 10:37 25.02.2021
2156 Rain 13 1012 88 8000 4 310 09:53 25.02.2021
2157 Rain 14 1012 94 8000 4 290 09:34 25.02.2021
2158 Rain 15 1012 94 7000 5 300 08:46 25.02.2021
2159 Rain 15 1012 94 5000 5 290 08:21 25.02.2021
2160 Rain 16 1012 88 7000 2 270 07:42 25.02.2021
2161 Rain 17 1012 82 10000 2 0 07:18 25.02.2021
2162 Rain 17 1013 77 10000 3 200 05:29 25.02.2021
2163 Clouds 15 1013 82 10000 7 150 01:52 25.02.2021
2164 Clouds 14 1014 82 10000 6 140 00:48 25.02.2021
2165 Clouds 13 1014 88 10000 6 140 00:20 25.02.2021
2166 Rain 13 1014 88 10000 6 130 23:40 24.02.2021
2167 Rain 13 1014 88 10000 6 130 22:56 24.02.2021
2168 Clouds 13 1015 88 10000 5 130 22:30 24.02.2021
2169 Clouds 12 1015 82 10000 5 130 21:50 24.02.2021
2170 Clouds 12 1015 82 10000 5 130 21:31 24.02.2021
2171 Clouds 12 1015 87 10000 6 130 20:50 24.02.2021
2172 Clouds 12 1016 87 10000 5 120 20:28 24.02.2021
2173 Clouds 12 1017 87 10000 5 120 19:43 24.02.2021
2174 Rain 12 1017 87 10000 5 120 19:21 24.02.2021
2175 Clouds 11 1017 87 10000 4 130 18:53 24.02.2021
2176 Clouds 11 1017 82 10000 4 120 18:30 24.02.2021
2177 Clouds 11 1017 87 10000 4 120 17:40 24.02.2021
2178 Clouds 11 1017 87 10000 4 120 17:22 24.02.2021
2179 Clouds 11 1018 82 10000 4 120 16:48 24.02.2021
2180 Clouds 11 1018 82 10000 6 110 16:21 24.02.2021
2181 Clouds 11 1019 82 10000 6 110 15:50 24.02.2021
2182 Clouds 11 1019 82 10000 6 110 15:31 24.02.2021
2183 Clouds 11 1019 82 10000 6 110 14:47 24.02.2021
2184 Clouds 11 1019 82 10000 6 100 14:27 24.02.2021
2185 Clouds 11 1019 76 10000 6 100 13:42 24.02.2021
2186 Clouds 12 1019 76 10000 6 100 13:23 24.02.2021
2187 Clouds 12 1019 76 10000 5 100 12:57 24.02.2021
2188 Clouds 12 1019 76 10000 5 100 12:35 24.02.2021
2189 Clouds 12 1018 71 10000 6 120 11:53 24.02.2021
2190 Clouds 12 1018 71 10000 6 100 11:30 24.02.2021
2191 Clouds 12 1018 71 10000 6 120 10:40 24.02.2021
2192 Clouds 13 1018 71 10000 6 120 10:20 24.02.2021
2193 Clouds 14 1018 58 10000 6 110 09:24 24.02.2021
2194 Clear 15 1018 51 10000 6 130 08:45 24.02.2021
2195 Clear 14 1018 51 10000 6 130 08:24 24.02.2021
2196 Clear 14 1018 51 10000 6 130 08:24 24.02.2021
2197 Clear 14 1019 51 10000 6 140 07:21 24.02.2021
2198 Clear 14 1020 51 10000 4 120 06:56 24.02.2021
2199 Clouds 13 1022 54 10000 5 130 04:40 24.02.2021
2200 Clear 9 1023 76 10000 5 110 00:44 24.02.2021
2201 Clouds 8 1022 81 10000 4 80 23:32 23.02.2021
2202 Clouds 8 1022 81 10000 4 90 22:42 23.02.2021
2203 Clouds 8 1022 81 10000 4 90 22:20 23.02.2021
2204 Clouds 8 1022 81 10000 4 90 21:46 23.02.2021
2205 Clouds 8 1022 76 10000 3 80 21:24 23.02.2021
2206 Clear 8 1022 76 10000 2 80 20:49 23.02.2021
2207 Clear 8 1022 76 10000 3 80 20:30 23.02.2021
2208 Clear 8 1022 76 10000 3 80 20:30 23.02.2021
2209 Clouds 8 1023 76 10000 3 80 19:49 23.02.2021
2210 Clouds 8 1023 76 10000 3 80 19:29 23.02.2021
2211 Clouds 8 1023 76 10000 2 90 18:59 23.02.2021
2212 Clear 8 1023 71 10000 4 80 18:40 23.02.2021
2213 Clear 8 1023 71 10000 4 80 18:20 23.02.2021
2214 Clear 8 1024 71 10000 3 90 17:39 23.02.2021
2215 Clouds 8 1024 71 10000 3 80 16:58 23.02.2021
2216 Clouds 8 1024 71 10000 3 80 16:39 23.02.2021
2217 Clouds 8 1024 71 10000 4 70 16:20 23.02.2021
2218 Clouds 8 1024 71 10000 4 80 15:41 23.02.2021
2219 Clouds 8 1024 71 10000 4 80 15:21 23.02.2021
2220 Clouds 8 1024 66 10000 6 70 14:45 23.02.2021
2221 Clouds 8 1025 66 10000 5 80 14:26 23.02.2021
2222 Clouds 8 1025 66 10000 5 80 13:47 23.02.2021
2223 Clouds 8 1025 66 10000 5 80 13:47 23.02.2021
2224 Clouds 8 1024 66 10000 5 70 13:26 23.02.2021
2225 Clouds 8 1024 66 10000 6 70 12:52 23.02.2021
2226 Clear 8 1024 61 10000 5 60 12:22 23.02.2021
2227 Clear 9 1024 57 10000 5 80 11:50 23.02.2021
2228 Clear 9 1024 57 10000 5 80 11:22 23.02.2021
2229 Clear 9 1023 57 10000 5 70 10:51 23.02.2021
2230 Clear 10 1023 54 10000 5 80 10:32 23.02.2021
2231 Clear 11 1023 50 10000 5 80 09:45 23.02.2021
2232 Clear 11 1023 50 10000 5 80 09:25 23.02.2021
2233 Clear 11 1023 50 10000 5 70 08:50 23.02.2021
2234 Clear 12 1023 50 10000 5 50 08:24 23.02.2021
2235 Clear 11 1023 50 10000 5 50 07:53 23.02.2021
2236 Clear 12 1025 44 10000 5 40 05:32 23.02.2021
2237 Clear 13 1026 44 10000 5 80 04:46 23.02.2021
2238 Clouds 11 1027 62 10000 5 60 02:34 23.02.2021
2239 Clouds 8 1026 76 10000 4 60 00:20 23.02.2021
2240 Clouds 8 1025 76 10000 4 70 23:47 22.02.2021
2241 Clear 8 1025 76 10000 5 40 23:20 22.02.2021
2242 Clear 8 1025 76 10000 6 40 22:40 22.02.2021
2243 Clear 8 1025 76 10000 5 50 22:20 22.02.2021
2244 Clear 8 1024 71 10000 7 40 21:40 22.02.2021
2245 Clear 8 1024 71 10000 7 40 21:22 22.02.2021
2246 Clear 8 1025 71 10000 6 40 20:50 22.02.2021
2247 Clear 8 1025 71 10000 6 40 20:27 22.02.2021
2248 Clear 8 1025 71 10000 7 40 19:51 22.02.2021
2249 Clear 8 1025 71 10000 5 40 19:30 22.02.2021
2250 Clear 8 1025 71 10000 5 40 18:49 22.02.2021
2251 Clear 9 1025 66 10000 6 40 18:30 22.02.2021
2252 Clear 9 1026 66 10000 5 30 17:54 22.02.2021
2253 Clear 9 1026 66 10000 4 30 17:22 22.02.2021
2254 Clear 9 1026 66 10000 4 30 17:22 22.02.2021
2255 Clear 9 1026 66 10000 4 30 17:22 22.02.2021
2256 Clear 9 1026 66 10000 4 30 17:22 22.02.2021
2257 Clear 9 1026 66 10000 5 50 16:53 22.02.2021
2258 Clear 9 1025 62 10000 5 50 16:31 22.02.2021
2259 Clear 10 1025 66 10000 6 50 15:39 22.02.2021
2260 Clear 10 1024 66 10000 5 50 15:21 22.02.2021
2261 Clear 10 1024 66 10000 8 40 14:42 22.02.2021
2262 Clear 10 1023 66 10000 9 30 14:21 22.02.2021
2263 Clear 10 1023 71 10000 10 30 13:41 22.02.2021
2264 Clear 11 1023 71 10000 8 30 12:55 22.02.2021
2265 Clouds 11 1021 62 7000 10 30 12:23 22.02.2021
2266 Clouds 11 1021 62 7000 10 30 11:56 22.02.2021
2267 Clouds 12 1021 58 7000 9 30 11:32 22.02.2021
2268 Clouds 13 1020 58 7000 8 40 10:59 22.02.2021
2269 Clouds 13 1019 54 7000 9 30 10:40 22.02.2021
2270 Clouds 14 1018 51 7000 10 40 10:20 22.02.2021
2271 Clouds 15 1018 55 7000 10 30 09:38 22.02.2021
2272 Clouds 16 1018 55 7000 10 30 09:19 22.02.2021
2273 Clear 18 1017 55 10000 11 30 08:49 22.02.2021
2274 Clear 20 1015 43 10000 10 30 08:21 22.02.2021
2275 Clear 24 1015 33 10000 6 10 07:46 22.02.2021
2276 Clear 25 1014 29 10000 5 360 07:22 22.02.2021
2277 Clear 26 1014 29 10000 4 330 06:26 22.02.2021
2278 Clear 23 1016 35 10000 3 0 04:25 22.02.2021
2279 Clear 21 1016 40 10000 2 220 03:22 22.02.2021
2280 Clear 15 1014 67 10000 1 170 00:54 22.02.2021
2281 Clear 13 1014 76 10000 1 180 00:28 22.02.2021
2282 Clear 13 1014 87 10000 1 170 23:52 21.02.2021
2283 Clear 13 1013 76 10000 1.95 226 22:59 21.02.2021
2284 Clear 13 1013 76 10000 1 180 22:27 21.02.2021
2285 Clear 13 1013 71 10000 1 0 21:51 21.02.2021
2286 Clear 13 1013 66 10000 1 190 21:32 21.02.2021
2287 Clear 13 1013 66 10000 1 160 20:55 21.02.2021
2288 Clear 13 1013 67 10000 2 170 20:22 21.02.2021
2289 Clear 14 1013 62 10000 2 160 19:59 21.02.2021
2290 Clear 14 1013 58 10000 2 180 19:39 21.02.2021
2291 Clear 14 1013 58 10000 2 180 19:21 21.02.2021
2292 Clear 14 1013 58 10000 1 160 18:28 21.02.2021
2293 Clear 14 1013 62 10000 2 160 17:52 21.02.2021
2294 Clear 14 1013 58 10000 2 180 17:24 21.02.2021
2295 Clear 16 1013 51 10000 1 170 16:52 21.02.2021
2296 Clear 16 1013 51 10000 1 170 16:31 21.02.2021
2297 Clear 16 1013 47 10000 2 170 15:36 21.02.2021
2298 Clear 17 1013 44 10000 2 160 15:18 21.02.2021
2299 Clear 17 1013 44 10000 2 170 14:39 21.02.2021
2300 Clear 17 1013 44 10000 2 170 14:18 21.02.2021
2301 Clear 18 1012 42 10000 2 160 13:30 21.02.2021
2302 Clear 18 1012 42 10000 3 170 12:56 21.02.2021
2303 Clear 19 1012 34 10000 3 180 12:27 21.02.2021
2304 Clear 20 1012 32 10000 3 200 11:43 21.02.2021
2305 Clear 20 1011 30 10000 4 180 10:52 21.02.2021
2306 Clear 23 1011 25 10000 4 190 10:22 21.02.2021
2307 Clear 23 1011 20 10000 5 230 09:52 21.02.2021
2308 Clear 24 1011 19 10000 4 220 09:26 21.02.2021
2309 Clear 24 1011 18 10000 4 210 08:43 21.02.2021
2310 Clear 25 1012 20 10000 4 210 08:19 21.02.2021
2311 Clear 25 1012 18 10000 4 210 07:30 21.02.2021
2312 Clear 25 1012 19 10000 3 210 06:46 21.02.2021
2313 Clear 19 1015 39 10000 3 210 02:45 21.02.2021
2314 Clear 17 1015 42 10000 3 220 02:24 21.02.2021
2315 Clear 12 1015 62 10000 2 160 00:36 21.02.2021
2316 Clear 12 1015 66 10000 2 150 00:18 21.02.2021
2317 Clear 12 1015 62 10000 2 160 22:59 20.02.2021
2318 Clear 12 1015 62 10000 2 160 22:38 20.02.2021
2319 Clear 12 1014 58 10000 2 160 21:59 20.02.2021
2320 Clear 12 1015 58 10000 2 160 21:41 20.02.2021
2321 Clear 13 1015 62 10000 1 180 21:18 20.02.2021
2322 Clear 12 1015 58 10000 2 170 20:42 20.02.2021
2323 Clear 13 1015 54 10000 3 180 20:20 20.02.2021
2324 Clear 13 1015 54 10000 3 180 19:48 20.02.2021
2325 Clear 13 1015 62 10000 3 190 18:58 20.02.2021
2326 Clear 14 1015 58 10000 2 190 18:37 20.02.2021
2327 Clear 14 1015 58 10000 2 190 18:18 20.02.2021
2328 Clear 14 1016 54 10000 1 170 17:36 20.02.2021
2329 Clear 14 1016 50 10000 1 170 16:50 20.02.2021
2330 Clear 14 1015 50 10000 2 160 16:27 20.02.2021
2331 Clear 15 1015 51 10000 4 180 15:44 20.02.2021
2332 Clear 15 1016 47 10000 6 180 14:53 20.02.2021
2333 Clear 15 1016 47 10000 4 190 14:29 20.02.2021
2334 Clear 16 1015 38 10000 4 180 13:59 20.02.2021
2335 Clear 17 1015 34 10000 5 180 13:40 20.02.2021
2336 Clear 17 1015 34 10000 5 180 13:21 20.02.2021
2337 Clear 18 1015 29 10000 4 180 12:46 20.02.2021
2338 Clear 18 1015 32 10000 4 190 11:56 20.02.2021
2339 Clear 19 1014 30 10000 3 180 11:36 20.02.2021
2340 Clear 21 1014 26 10000 4 200 10:53 20.02.2021
2341 Clear 22 1014 21 10000 4 210 10:27 20.02.2021
2342 Clear 23 1014 20 10000 5 230 09:47 20.02.2021
2343 Clear 23 1014 20 10000 5 230 08:56 20.02.2021
2344 Clear 24 1014 22 10000 4 240 08:25 20.02.2021
2345 Clear 23 1015 21 10000 6 250 07:19 20.02.2021
2346 Clear 15 1019 41 10000 6 230 02:32 20.02.2021
2347 Clear 14 1019 47 10000 3 210 01:58 20.02.2021
2348 Clear 13 1018 54 10000 2 190 01:18 20.02.2021
2349 Clear 13 1018 54 10000 2 190 01:18 20.02.2021
2350 Clear 11 1018 66 10000 2 170 00:37 20.02.2021
2351 Clear 10 1018 76 10000 2 190 23:30 19.02.2021
2352 Clear 10 1017 71 10000 1 170 22:47 19.02.2021
2353 Clear 10 1017 71 10000 1 170 22:20 19.02.2021
2354 Clear 10 1017 81 10000 2 160 21:44 19.02.2021
2355 Clear 10 1017 81 10000 2 160 21:23 19.02.2021
2356 Clear 10 1017 76 10000 1 170 20:42 19.02.2021
2357 Clear 10 1017 76 10000 1 170 20:24 19.02.2021
2358 Clear 10 1017 76 10000 1 160 19:47 19.02.2021
2359 Clear 10 1018 76 10000 2 180 19:20 19.02.2021
2360 Clear 10 1018 76 10000 2 190 18:50 19.02.2021
2361 Clear 10 1018 76 10000 2 180 18:26 19.02.2021
2362 Clear 10 1018 71 10000 3 160 17:39 19.02.2021
2363 Clear 11 1019 71 10000 4 190 16:43 19.02.2021
2364 Clear 11 1019 71 10000 4 190 16:22 19.02.2021
2365 Clear 11 1019 71 10000 4 190 15:55 19.02.2021
2366 Clear 11 1019 62 10000 4 180 15:30 19.02.2021
2367 Clear 11 1019 57 10000 2 190 14:49 19.02.2021
2368 Clear 11 1019 54 10000 4 190 14:29 19.02.2021
2369 Clear 11 1019 57 10000 4 190 13:56 19.02.2021
2370 Clear 12 1019 50 10000 5 180 13:36 19.02.2021
2371 Clear 11 1019 50 10000 5 190 12:53 19.02.2021
2372 Clear 12 1019 47 10000 6 180 12:27 19.02.2021
2373 Clear 13 1019 44 10000 5 180 11:57 19.02.2021
2374 Clear 14 1019 44 10000 5 180 11:32 19.02.2021
2375 Clear 15 1019 38 10000 4 190 10:55 19.02.2021
2376 Clear 16 1018 22 10000 5 230 10:32 19.02.2021
2377 Clear 17 1019 24 10000 5 230 09:52 19.02.2021
2378 Clear 17 1019 24 10000 5 230 09:52 19.02.2021
2379 Clear 17 1019 24 10000 6 230 09:27 19.02.2021
2380 Clear 17 1019 24 10000 6 230 09:27 19.02.2021
2381 Clear 17 1019 24 10000 5 260 08:55 19.02.2021
2382 Clear 18 1019 24 10000 6 230 08:28 19.02.2021
2383 Clear 18 1019 25 10000 6 230 07:54 19.02.2021
2384 Clear 18 1020 25 10000 5 260 07:35 19.02.2021
2385 Clear 18 1020 27 10000 5 230 06:55 19.02.2021
2386 Clear 17 1021 29 10000 5 210 06:27 19.02.2021
2387 Clear 15 1024 35 10000 4 190 04:41 19.02.2021
2388 Clear 8 1025 53 10000 4 180 01:48 19.02.2021
2389 Clear 5 1025 70 10000 2 170 00:38 19.02.2021
2390 Clear 4 1025 69 10000 1 180 23:56 18.02.2021
2391 Clear 4 1025 60 10000 1 190 23:35 18.02.2021
2392 Clear 4 1025 60 10000 1 150 22:51 18.02.2021
2393 Clear 4 1025 60 10000 1 160 22:30 18.02.2021
2394 Clear 4 1025 64 10000 1 150 21:55 18.02.2021
2395 Clear 4 1025 64 10000 1 150 21:27 18.02.2021
2396 Clear 4 1026 56 10000 1 210 20:45 18.02.2021
2397 Clear 4 1026 56 10000 1 210 20:24 18.02.2021
2398 Clear 4 1026 56 10000 1 210 20:24 18.02.2021
2399 Clear 4 1027 60 10000 2 190 19:56 18.02.2021
2400 Clear 4 1027 60 10000 1 190 19:37 18.02.2021
2401 Clear 4 1027 60 10000 1 190 19:18 18.02.2021
2402 Clear 5 1027 48 10000 1 0 18:42 18.02.2021
2403 Clear 4 1027 48 10000 1 0 18:24 18.02.2021
2404 Clear 5 1028 45 10000 1 110 17:42 18.02.2021
2405 Clear 5 1028 45 10000 1 110 17:23 18.02.2021
2406 Clear 5 1028 52 10000 1 0 16:41 18.02.2021
2407 Clear 5 1029 52 10000 2 230 16:22 18.02.2021
2408 Clear 5 1029 42 10000 1 0 15:39 18.02.2021
2409 Clear 5 1029 42 10000 1 0 15:21 18.02.2021
2410 Clear 6 1029 31 10000 1 0 14:49 18.02.2021
2411 Clear 6 1029 31 10000 1 0 14:29 18.02.2021
2412 Clear 6 1029 31 10000 1 30 13:46 18.02.2021
2413 Clear 6 1029 33 10000 2 10 13:20 18.02.2021
2414 Clear 7 1029 31 10000 2 20 12:53 18.02.2021
2415 Clear 7 1029 29 10000 3 340 12:23 18.02.2021
2416 Clear 7 1029 26 10000 3 350 11:46 18.02.2021
2417 Clear 8 1029 25 10000 4 340 11:27 18.02.2021
2418 Clear 8 1029 25 10000 5 330 10:48 18.02.2021
2419 Clear 9 1029 21 10000 6 330 10:29 18.02.2021
2420 Clear 9 1029 20 10000 5 330 09:50 18.02.2021
2421 Clear 9 1029 20 10000 5 330 09:50 18.02.2021
2422 Clear 9 1029 22 10000 4 320 09:24 18.02.2021
2423 Clear 9 1029 17 10000 4 340 08:48 18.02.2021
2424 Clear 9 1029 20 10000 8 350 08:25 18.02.2021
2425 Clear 9 1029 18 10000 7 340 07:35 18.02.2021
2426 Clear 8 1030 17 10000 7 340 06:54 18.02.2021
2427 Clear 6 1032 42 10000 6 340 03:31 18.02.2021
2428 Clear 2 1031 69 10000 3 320 23:56 17.02.2021
2429 Clear 2 1031 69 10000 3 320 23:30 17.02.2021
2430 Clear 2 1030 69 10000 2 320 22:53 17.02.2021
2431 Clear 2 1030 69 10000 3 320 22:27 17.02.2021
2432 Clear 2 1030 69 10000 3 330 21:56 17.02.2021
2433 Clear 2 1030 69 10000 3 330 21:22 17.02.2021
2434 Clear 2 1030 69 10000 3 330 20:49 17.02.2021
2435 Clear 2 1030 69 10000 3 330 20:31 17.02.2021
2436 Clear 2 1030 69 10000 3 330 19:50 17.02.2021
2437 Clear 2 1030 64 10000 3 330 19:32 17.02.2021
2438 Clear 2 1030 64 10000 3 330 18:46 17.02.2021
2439 Clear 2 1030 64 10000 3 330 18:26 17.02.2021
2440 Clear 2 1030 69 10000 2 360 17:42 17.02.2021
2441 Clear 2 1030 69 10000 2 360 17:20 17.02.2021
2442 Clear 3 1030 64 10000 3 350 16:46 17.02.2021
2443 Clear 3 1030 69 10000 4 360 16:27 17.02.2021
2444 Clear 3 1030 64 10000 3 20 15:45 17.02.2021
2445 Clear 3 1030 60 10000 3 20 15:26 17.02.2021
2446 Clear 3 1030 60 10000 4 30 14:49 17.02.2021
2447 Clear 3 1030 60 10000 4 30 14:29 17.02.2021
2448 Clear 4 1030 56 10000 4 30 13:48 17.02.2021
2449 Clear 4 1030 56 10000 4 40 13:30 17.02.2021
2450 Clear 5 1029 52 10000 5 30 12:49 17.02.2021
2451 Clear 5 1028 36 10000 4 350 12:24 17.02.2021
2452 Clear 5 1028 39 10000 5 330 11:45 17.02.2021
2453 Clear 6 1028 39 10000 5 330 11:25 17.02.2021
2454 Clear 6 1028 33 10000 5 340 10:49 17.02.2021
2455 Clear 7 1028 33 10000 5 340 10:31 17.02.2021
2456 Clear 8 1028 34 10000 5 330 09:55 17.02.2021
2457 Clear 8 1028 34 10000 5 340 09:30 17.02.2021
2458 Clear 8 1028 33 10000 4 340 08:45 17.02.2021
2459 Clear 8 1028 33 10000 4 340 08:23 17.02.2021
2460 Clear 8 1028 36 10000 5 340 07:34 17.02.2021
2461 Clear 8 1028 39 10000 6 350 06:36 17.02.2021
2462 Clear 6 1029 45 10000 6 10 03:47 17.02.2021
2463 Clear 5 1029 48 10000 6 350 02:30 17.02.2021
2464 Clear 5 1029 52 10000 7 360 01:33 17.02.2021
2465 Clear 4 1028 52 10000 6 360 00:25 17.02.2021
2466 Clear 4 1027 56 10000 5 10 23:38 16.02.2021
2467 Clear 4 1027 52 10000 6 10 22:46 16.02.2021
2468 Clear 4 1027 52 10000 7 10 22:26 16.02.2021
2469 Clear 4 1026 52 10000 6 10 21:58 16.02.2021
2470 Clear 5 1026 52 10000 6 20 21:39 16.02.2021
2471 Clear 5 1026 52 10000 5 30 21:21 16.02.2021
2472 Clear 5 1026 52 10000 5 30 20:46 16.02.2021
2473 Clear 5 1026 52 10000 7 40 20:24 16.02.2021
2474 Clouds 5 1026 60 10000 6 30 19:47 16.02.2021
2475 Clear 6 1025 61 10000 4 50 19:28 16.02.2021
2476 Clear 6 1025 61 10000 4 50 19:28 16.02.2021
2477 Clouds 6 1025 61 10000 7 40 18:47 16.02.2021
2478 Clouds 6 1025 65 10000 7 40 18:23 16.02.2021
2479 Clouds 7 1025 65 8000 5 30 17:53 16.02.2021
2480 Clouds 7 1024 70 10000 5 30 17:27 16.02.2021
2481 Clouds 7 1024 70 10000 6 30 16:53 16.02.2021
2482 Clouds 7 1024 70 10000 6 30 16:53 16.02.2021
2483 Clouds 7 1024 70 10000 6 30 16:30 16.02.2021
2484 Clouds 7 1024 70 10000 6 30 15:57 16.02.2021
2485 Clouds 8 1024 76 10000 7 30 15:36 16.02.2021
2486 Clouds 8 1024 76 10000 7 30 15:18 16.02.2021
2487 Clear 8 1022 61 10000 7 50 14:39 16.02.2021
2488 Clear 9 1022 57 10000 6 40 14:21 16.02.2021
2489 Clear 10 1022 57 10000 6 40 13:44 16.02.2021
2490 Clear 10 1021 53 10000 2 360 12:59 16.02.2021
2491 Clear 10 1020 50 10000 3 30 12:40 16.02.2021
2492 Clear 11 1020 50 10000 4 30 12:19 16.02.2021
2493 Clear 11 1019 47 10000 3 350 11:40 16.02.2021
2494 Clear 11 1019 47 10000 3 350 11:20 16.02.2021
2495 Clear 12 1019 47 10000 3 350 10:46 16.02.2021
2496 Clear 11 1019 47 10000 4 340 10:27 16.02.2021
2497 Clear 13 1018 47 10000 4 330 09:53 16.02.2021
2498 Clear 13 1018 50 10000 3 300 09:26 16.02.2021
2499 Clear 13 1018 47 10000 3 320 08:51 16.02.2021
2500 Clear 12 1018 54 10000 2 0 08:28 16.02.2021
2501 Clear 14 1018 54 10000 2 280 07:45 16.02.2021
2502 Clouds 13 1019 54 10000 3 250 06:55 16.02.2021
2503 Clouds 7 1021 65 10000 4 160 02:42 16.02.2021
2504 Clear 5 1021 65 10000 3 120 23:55 15.02.2021
2505 Clear 5 1020 65 10000 3 130 23:29 15.02.2021
2506 Clear 5 1020 65 10000 2 150 22:50 15.02.2021
2507 Rain 5 1021 65 10000 3 160 22:28 15.02.2021
2508 Clear 5 1021 60 10000 3 160 21:47 15.02.2021
2509 Clear 5 1020 60 10000 2 80 21:24 15.02.2021
2510 Clear 5 1021 60 10000 3 170 20:55 15.02.2021
2511 Clear 5 1021 70 10000 3 180 20:37 15.02.2021
2512 Rain 5 1021 60 10000 2 90 19:51 15.02.2021
2513 Clear 5 1021 60 10000 2 70 19:29 15.02.2021
2514 Clear 5 1022 60 10000 2 80 18:57 15.02.2021
2515 Clouds 5 1022 56 10000 2 60 18:29 15.02.2021
2516 Rain 5 1022 60 10000 2 70 17:58 15.02.2021
2517 Rain 5 1022 60 10000 3 60 17:40 15.02.2021
2518 Rain 5 1022 60 10000 3 50 17:21 15.02.2021
2519 Rain 5 1022 65 10000 3 50 16:42 15.02.2021
2520 Rain 5 1022 65 10000 3 50 16:21 15.02.2021
2521 Rain 5 1023 65 10000 3 50 15:42 15.02.2021
2522 Clear 5 1023 65 10000 3 50 15:19 15.02.2021
2523 Clear 5 1022 65 10000 3 30 14:44 15.02.2021
2524 Clear 5 1023 65 10000 4 20 14:20 15.02.2021
2525 Rain 6 1022 65 10000 5 50 13:49 15.02.2021
2526 Clear 6 1022 65 10000 5 40 13:20 15.02.2021
2527 Clear 6 1022 61 10000 5 30 12:47 15.02.2021
2528 Clear 7 1022 61 10000 5 30 12:25 15.02.2021
2529 Clear 7 1022 61 10000 4 40 11:51 15.02.2021
2530 Clear 7 1022 65 10000 5 40 11:25 15.02.2021
2531 Clear 7 1021 65 10000 5 10 10:50 15.02.2021
2532 Clear 8 1021 61 10000 5 30 10:28 15.02.2021
2533 Clouds 8 1021 66 10000 6 20 09:57 15.02.2021
2534 Clouds 8 1021 66 10000 6 10 09:39 15.02.2021
2535 Clouds 9 1021 66 10000 6 10 09:21 15.02.2021
2536 Clouds 9 1021 66 10000 6 10 08:20 15.02.2021
2537 Clouds 9 1021 76 8000 6 20 06:59 15.02.2021
2538 Clouds 9 1021 81 7000 7 360 06:40 15.02.2021
2539 Clouds 11 1020 76 6000 5 10 02:34 15.02.2021
2540 Clouds 12 1019 76 10000 4 340 01:27 15.02.2021
2541 Clouds 12 1018 82 10000 5 340 23:58 14.02.2021
2542 Clouds 12 1017 87 7000 5 350 23:23 14.02.2021
2543 Clouds 11 1016 87 7000 4 340 22:40 14.02.2021
2544 Clouds 11 1016 87 7000 4 340 22:40 14.02.2021
2545 Clouds 11 1016 87 7000 4 340 22:21 14.02.2021
2546 Clouds 11 1016 87 7000 5 360 21:48 14.02.2021
2547 Clouds 12 1016 87 7000 4 350 21:29 14.02.2021
2548 Clouds 12 1016 87 7000 5 340 20:52 14.02.2021
2549 Clouds 12 1016 87 7000 4 330 20:27 14.02.2021
2550 Clouds 12 1016 87 10000 4 330 19:48 14.02.2021
2551 Clouds 12 1016 82 10000 4 320 18:56 14.02.2021
2552 Clear 13 1016 82 10000 5 320 18:37 14.02.2021
2553 Clear 13 1016 82 10000 5 320 17:57 14.02.2021
2554 Clear 13 1015 82 10000 5 320 17:36 14.02.2021
2555 Clear 14 1015 77 10000 4 320 16:55 14.02.2021
2556 Clear 14 1015 77 10000 5 330 16:29 14.02.2021
2557 Clear 15 1015 72 10000 5 320 15:49 14.02.2021
2558 Clear 15 1014 72 10000 3 280 15:31 14.02.2021
2559 Clear 15 1014 72 10000 2 280 14:48 14.02.2021
2560 Clear 15 1014 72 10000 2 280 14:27 14.02.2021
2561 Clear 15 1014 67 10000 2 320 13:49 14.02.2021
2562 Clear 15 1013 67 10000 2 320 13:27 14.02.2021
2563 Clear 16 1013 63 10000 5 320 12:38 14.02.2021
2564 Clear 16 1013 63 10000 5 320 12:19 14.02.2021
2565 Clear 17 1012 59 10000 4 270 11:49 14.02.2021
2566 Clear 18 1012 59 10000 4 270 11:21 14.02.2021
2567 Rain 19 1012 59 10000 4 280 10:35 14.02.2021
2568 Clear 19 1012 59 10000 3 280 09:55 14.02.2021
2569 Clear 20 1012 59 10000 4 290 09:37 14.02.2021
2570 Clear 20 1012 59 10000 4 290 09:19 14.02.2021
2571 Clouds 20 1012 56 10000 6 300 08:25 14.02.2021
2572 Clouds 20 1012 56 10000 6 270 07:48 14.02.2021
2573 Clear 19 1013 68 10000 3 230 06:37 14.02.2021
2574 Clouds 17 1015 77 8000 3 220 04:35 14.02.2021
2575 Clouds 15 1016 82 7000 3 180 02:50 14.02.2021
2576 Clouds 12 1016 87 6000 1 0 01:29 14.02.2021
2577 Clouds 11 1016 93 6000 2 150 00:42 14.02.2021
2578 Clouds 11 1016 93 6000 2 170 23:57 13.02.2021
2579 Clear 11 1016 93 7000 2 140 23:25 13.02.2021
2580 Clear 11 1016 93 7000 2 130 22:57 13.02.2021
2581 Clear 11 1016 93 7000 1 170 22:22 13.02.2021
2582 Clear 11 1016 93 10000 2 200 21:49 13.02.2021
2583 Clear 11 1016 93 10000 2 200 21:26 13.02.2021
2584 Clear 11 1017 87 10000 3 160 20:44 13.02.2021
2585 Clear 12 1017 82 10000 2 130 20:26 13.02.2021
2586 Clear 12 1018 82 10000 2 130 19:48 13.02.2021
2587 Clear 12 1018 82 10000 2 130 19:23 13.02.2021
2588 Clear 12 1019 82 10000 2 120 18:49 13.02.2021
2589 Clear 12 1019 82 10000 2 140 18:25 13.02.2021
2590 Clear 12 1020 76 10000 2 120 17:44 13.02.2021
2591 Clear 12 1020 76 10000 3 130 17:24 13.02.2021
2592 Clear 12 1020 76 10000 3 130 16:50 13.02.2021
2593 Clear 12 1020 71 10000 3 130 16:31 13.02.2021
2594 Clear 12 1020 71 10000 3 110 15:43 13.02.2021
2595 Clear 12 1020 71 10000 3 110 15:24 13.02.2021
2596 Clouds 12 1021 67 10000 2 120 14:34 13.02.2021
2597 Clouds 13 1021 67 10000 3 110 13:49 13.02.2021
2598 Clouds 13 1021 67 10000 2 140 13:26 13.02.2021
2599 Clouds 13 1020 62 10000 3 120 12:52 13.02.2021
2600 Clouds 13 1020 62 10000 3 110 12:20 13.02.2021
2601 Clouds 13 1020 62 10000 3 100 11:46 13.02.2021
2602 Clouds 14 1020 62 10000 3 100 11:20 13.02.2021
2603 Clouds 14 1020 63 10000 4 110 10:47 13.02.2021
2604 Clouds 14 1020 63 10000 4 110 10:27 13.02.2021
2605 Clouds 15 1020 59 10000 3 110 09:59 13.02.2021
2606 Clouds 15 1021 59 10000 3 110 09:41 13.02.2021
2607 Clouds 16 1021 59 10000 3 110 09:20 13.02.2021
2608 Clouds 16 1021 51 10000 2 120 08:40 13.02.2021
2609 Clouds 17 1021 55 10000 3 120 07:53 13.02.2021
2610 Clouds 17 1021 51 10000 4 120 06:41 13.02.2021
2611 Clouds 16 1022 55 10000 3 100 05:27 13.02.2021
2612 Clouds 15 1024 63 10000 4 90 03:59 13.02.2021
2613 Clear 13 1024 71 10000 1 0 01:54 13.02.2021
2614 Clear 11 1023 87 10000 1 0 00:51 13.02.2021
2615 Clear 10 1023 93 10000 1 40 23:54 12.02.2021
2616 Clear 10 1023 93 10000 2 20 23:28 12.02.2021
2617 Clear 10 1023 93 10000 2 10 22:45 12.02.2021
2618 Clouds 10 1023 93 10000 2 360 22:26 12.02.2021
2619 Clouds 10 1023 93 10000 2 360 21:50 12.02.2021
2620 Clouds 10 1023 87 10000 2 10 21:29 12.02.2021
2621 Clouds 10 1023 87 10000 2 360 20:49 12.02.2021
2622 Clouds 11 1024 82 10000 2 30 20:30 12.02.2021
2623 Clouds 11 1023 82 10000 2 30 19:57 12.02.2021
2624 Clouds 11 1024 82 10000 2 20 19:37 12.02.2021
2625 Clouds 11 1024 82 10000 2 20 18:57 12.02.2021
2626 Clouds 11 1024 76 10000 2 20 18:30 12.02.2021
2627 Clouds 11 1024 71 10000 3 70 17:44 12.02.2021
2628 Clouds 11 1024 71 10000 3 70 17:21 12.02.2021
2629 Clouds 11 1024 66 10000 2 50 16:27 12.02.2021
2630 Clouds 11 1024 66 10000 2 60 15:46 12.02.2021
2631 Clouds 11 1024 66 10000 2 60 15:21 12.02.2021
2632 Clouds 11 1024 66 10000 2 60 15:21 12.02.2021
2633 Clouds 11 1024 66 10000 2 70 14:42 12.02.2021
2634 Clouds 11 1023 66 10000 3 70 13:59 12.02.2021
2635 Clouds 11 1023 66 10000 2 100 13:40 12.02.2021
2636 Clouds 12 1023 66 10000 2 80 12:56 12.02.2021
2637 Clear 12 1023 71 10000 2 90 12:36 12.02.2021
2638 Clear 12 1023 71 10000 2 70 11:49 12.02.2021
2639 Clear 12 1022 71 10000 3 100 11:26 12.02.2021
2640 Clouds 12 1022 67 10000 4 110 10:52 12.02.2021
2641 Clouds 12 1022 71 10000 3 100 10:34 12.02.2021
2642 Clouds 13 1022 71 10000 4 110 09:44 12.02.2021
2643 Clouds 13 1022 67 10000 3 100 09:24 12.02.2021
2644 Clouds 13 1022 71 10000 4 90 08:48 12.02.2021
2645 Clouds 14 1022 76 10000 3 50 08:27 12.02.2021
2646 Clouds 13 1022 82 8000 3 80 07:53 12.02.2021
2647 Clouds 13 1023 87 8000 2 80 07:28 12.02.2021
2648 Clouds 12 1023 87 8000 3 110 06:54 12.02.2021
2649 Clouds 12 1023 82 10000 3 110 05:39 12.02.2021
2650 Clouds 12 1023 76 10000 6 110 03:48 12.02.2021
2651 Clouds 11 1023 82 10000 1 0 00:35 12.02.2021
2652 Rain 10 1022 76 10000 2 80 23:38 11.02.2021
2653 Rain 10 1022 76 10000 2 80 23:20 11.02.2021
2654 Clear 10 1021 81 10000 1 0 22:44 11.02.2021
2655 Clear 10 1021 81 10000 2 90 22:23 11.02.2021
2656 Clear 10 1021 93 10000 1 0 21:43 11.02.2021
2657 Clear 10 1021 93 10000 1 0 21:25 11.02.2021
2658 Clear 10 1021 93 10000 1 0 20:57 11.02.2021
2659 Clear 10 1021 93 10000 1 0 20:39 11.02.2021
2660 Clear 10 1021 93 10000 1 0 20:19 11.02.2021
2661 Clear 10 1021 87 10000 1 140 19:46 11.02.2021
2662 Clear 10 1021 87 10000 1 140 19:26 11.02.2021
2663 Clear 10 1021 87 10000 1 140 19:26 11.02.2021
2664 Clear 10 1021 93 10000 1 0 18:42 11.02.2021
2665 Clear 10 1022 93 10000 1 0 18:20 11.02.2021
2666 Clear 10 1022 93 10000 1 0 17:47 11.02.2021
2667 Clear 9 1022 93 10000 1 0 17:21 11.02.2021
2668 Clear 9 1022 93 10000 2 70 16:45 11.02.2021
2669 Clear 9 1022 93 10000 2 70 16:26 11.02.2021
2670 Rain 9 1022 93 10000 2 60 15:45 11.02.2021
2671 Clouds 9 1023 93 10000 2 70 15:26 11.02.2021
2672 Rain 9 1023 93 10000 3 60 14:55 11.02.2021
2673 Rain 9 1023 93 10000 3 40 14:31 11.02.2021
2674 Rain 9 1023 87 10000 3 30 13:43 11.02.2021
2675 Rain 9 1023 87 10000 3 30 13:20 11.02.2021
2676 Rain 9 1023 93 10000 3 20 12:56 11.02.2021
2677 Rain 9 1023 93 10000 4 30 12:33 11.02.2021
2678 Rain 9 1023 87 10000 5 30 11:48 11.02.2021
2679 Rain 9 1023 93 10000 4 20 11:27 11.02.2021
2680 Rain 9 1023 93 10000 4 20 10:46 11.02.2021
2681 Rain 9 1023 93 10000 3 50 10:46 11.02.2021
2682 Rain 9 1023 93 10000 3 50 10:27 11.02.2021
2683 Rain 9 1023 93 10000 3 50 10:27 11.02.2021
2684 Rain 9 1023 93 10000 3 80 09:59 11.02.2021
2685 Rain 9 1022 93 10000 3 60 09:36 11.02.2021
2686 Rain 9 1022 93 10000 3 60 09:18 11.02.2021
2687 Rain 10 1022 87 10000 2 90 08:43 11.02.2021
2688 Rain 10 1022 93 10000 1 0 07:43 11.02.2021
2689 Rain 10 1023 93 10000 1 0 06:43 11.02.2021
2690 Rain 10 1023 93 10000 2 40 05:54 11.02.2021
2691 Rain 10 1023 87 10000 3 80 02:49 11.02.2021
2692 Rain 10 1023 87 10000 3 70 02:21 11.02.2021
2693 Rain 10 1022 81 10000 2 70 00:23 11.02.2021
2694 Rain 10 1022 81 10000 2 90 23:47 10.02.2021
2695 Rain 10 1022 81 10000 2 90 23:18 10.02.2021
2696 Rain 10 1022 81 10000 3 90 22:42 10.02.2021
2697 Rain 10 1022 81 10000 3 90 22:19 10.02.2021
2698 Rain 10 1022 81 10000 3 100 21:39 10.02.2021
2699 Rain 10 1022 81 10000 3 100 21:20 10.02.2021
2700 Rain 10 1022 81 10000 2 110 20:47 10.02.2021
2701 Rain 10 1023 81 10000 4 110 20:24 10.02.2021
2702 Rain 10 1023 81 10000 4 110 19:48 10.02.2021
2703 Rain 10 1023 81 10000 2 100 19:27 10.02.2021
2704 Rain 10 1023 81 10000 2 100 18:47 10.02.2021
2705 Rain 10 1023 81 10000 3 110 18:26 10.02.2021
2706 Rain 10 1024 81 10000 4 120 17:57 10.02.2021
2707 Rain 10 1024 81 10000 5 120 17:26 10.02.2021
2708 Clear 10 1024 81 10000 4 100 16:57 10.02.2021
2709 Rain 10 1024 81 10000 4 110 16:37 10.02.2021
2710 Clear 10 1024 81 10000 3 120 16:19 10.02.2021
2711 Rain 10 1024 81 10000 3 100 15:24 10.02.2021
2712 Rain 10 1024 71 10000 2 70 14:52 10.02.2021
2713 Rain 10 1024 71 10000 2 70 14:34 10.02.2021
2714 Rain 10 1024 66 10000 2 110 13:53 10.02.2021
2715 Rain 10 1024 66 10000 3 110 13:30 10.02.2021
2716 Rain 10 1023 66 10000 2 110 12:53 10.02.2021
2717 Rain 10 1023 66 10000 2 110 12:30 10.02.2021
2718 Rain 10 1023 66 10000 3 120 11:57 10.02.2021
2719 Clear 10 1023 66 10000 3 130 11:38 10.02.2021
2720 Clear 11 1023 66 10000 3 140 11:19 10.02.2021
2721 Rain 11 1023 66 10000 3 140 10:23 10.02.2021
2722 Rain 11 1023 66 10000 3 160 09:53 10.02.2021
2723 Clear 11 1022 62 10000 3 160 09:30 10.02.2021
2724 Clear 12 1022 62 10000 4 160 08:52 10.02.2021
2725 Clear 12 1023 66 10000 4 160 08:32 10.02.2021
2726 Rain 12 1023 62 10000 4 180 07:31 10.02.2021
2727 Clear 13 1024 62 10000 4 150 06:21 10.02.2021
2728 Rain 9 1025 76 10000 3 130 01:21 10.02.2021
2729 Clear 7 1024 76 10000 4 130 23:45 09.02.2021
2730 Clear 7 1024 76 10000 4 130 23:27 09.02.2021
2731 Clear 7 1024 81 10000 3 150 22:42 09.02.2021
2732 Clear 7 1024 81 10000 3 150 22:23 09.02.2021
2733 Clear 7 1024 76 10000 3 140 21:47 09.02.2021
2734 Clear 7 1024 76 10000 3 140 21:20 09.02.2021
2735 Clear 7 1025 76 10000 3 140 20:43 09.02.2021
2736 Clear 7 1025 76 10000 3 140 20:24 09.02.2021
2737 Clear 7 1025 76 10000 3 140 19:42 09.02.2021
2738 Clear 7 1025 76 10000 3 140 19:22 09.02.2021
2739 Clear 7 1025 76 10000 4 130 18:43 09.02.2021
2740 Clear 7 1025 76 10000 4 130 18:25 09.02.2021
2741 Clear 7 1025 76 10000 4 140 17:47 09.02.2021
2742 Clear 7 1026 76 10000 4 130 17:26 09.02.2021
2743 Clear 7 1026 76 10000 4 130 16:52 09.02.2021
2744 Clear 7 1027 70 10000 4 130 16:19 09.02.2021
2745 Clear 7 1027 70 10000 4 130 15:51 09.02.2021
2746 Clear 7 1027 70 10000 3 130 15:29 09.02.2021
2747 Clear 7 1027 70 10000 4 130 14:59 09.02.2021
2748 Clear 7 1027 70 10000 4 130 14:30 09.02.2021
2749 Clear 7 1028 70 10000 4 140 13:59 09.02.2021
2750 Clear 7 1028 66 10000 5 140 13:39 09.02.2021
2751 Clear 7 1028 66 10000 5 140 13:19 09.02.2021
2752 Clear 8 1027 61 10000 6 130 12:41 09.02.2021
2753 Clear 8 1027 61 10000 6 130 12:22 09.02.2021
2754 Clear 8 1026 66 10000 6 140 11:44 09.02.2021
2755 Clear 8 1026 66 10000 6 140 11:21 09.02.2021
2756 Clear 9 1026 61 10000 6 150 10:55 09.02.2021
2757 Clear 9 1026 57 10000 6 150 10:20 09.02.2021
2758 Clear 10 1026 50 10000 5 150 09:46 09.02.2021
2759 Clear 11 1026 43 10000 4 130 09:26 09.02.2021
2760 Clear 11 1026 40 10000 4 120 08:53 09.02.2021
2761 Clear 11 1026 43 10000 3 120 08:28 09.02.2021
2762 Clear 11 1027 43 10000 3 160 07:36 09.02.2021
2763 Clouds 9 1030 49 10000 4 120 04:59 09.02.2021
2764 Clear 9 1031 57 10000 4 120 03:42 09.02.2021
2765 Clear 6 1031 70 10000 2 60 01:20 09.02.2021
2766 Clear 5 1030 70 10000 2 50 23:58 08.02.2021
2767 Clouds 5 1030 81 10000 3 10 23:22 08.02.2021
2768 Clouds 5 1030 81 10000 3 10 22:46 08.02.2021
2769 Clouds 5 1030 81 10000 4 10 22:26 08.02.2021
2770 Clouds 4 1030 81 10000 3 10 21:58 08.02.2021
2771 Clouds 4 1031 81 10000 3 10 21:38 08.02.2021
2772 Clouds 4 1031 81 10000 3 10 21:18 08.02.2021
2773 Clear 4 1031 75 10000 3 360 20:42 08.02.2021
2774 Clear 4 1031 75 10000 3 360 20:22 08.02.2021
2775 Clear 4 1031 75 10000 3 10 19:48 08.02.2021
2776 Clear 4 1031 75 10000 3 10 19:26 08.02.2021
2777 Clear 5 1031 70 10000 3 30 18:49 08.02.2021
2778 Clear 5 1031 70 10000 3 20 18:24 08.02.2021
2779 Clear 5 1031 70 10000 3 30 17:47 08.02.2021
2780 Clear 5 1032 70 10000 3 40 17:26 08.02.2021
2781 Clear 5 1032 65 10000 3 40 16:47 08.02.2021
2782 Clear 5 1033 65 10000 3 30 16:23 08.02.2021
2783 Clear 5 1033 65 10000 4 40 15:49 08.02.2021
2784 Clear 5 1033 60 10000 4 50 15:21 08.02.2021
2785 Clear 5 1033 60 10000 4 50 14:59 08.02.2021
2786 Clear 5 1033 60 10000 3 40 14:41 08.02.2021
2787 Clear 5 1033 60 10000 5 30 14:22 08.02.2021
2788 Clear 5 1032 60 10000 6 20 13:42 08.02.2021
2789 Clear 5 1032 60 10000 5 30 13:23 08.02.2021
2790 Clear 6 1032 56 10000 5 50 12:38 08.02.2021
2791 Clear 6 1032 56 10000 6 40 11:58 08.02.2021
2792 Clear 6 1032 56 10000 6 40 11:32 08.02.2021
2793 Clear 7 1031 53 10000 5 50 10:46 08.02.2021
2794 Rain 7 1031 53 10000 5 50 10:25 08.02.2021
2795 Clear 8 1031 49 10000 6 40 09:55 08.02.2021
2796 Clear 8 1031 49 10000 6 20 09:36 08.02.2021
2797 Clear 9 1031 49 10000 6 30 08:52 08.02.2021
2798 Clear 9 1031 46 10000 6 20 08:24 08.02.2021
2799 Clear 9 1031 49 10000 6 40 07:38 08.02.2021
2800 Clear 8 1031 49 10000 6 10 06:31 08.02.2021
2801 Clear 9 1032 53 10000 4 40 04:53 08.02.2021
2802 Clouds 7 1031 61 10000 7 40 01:51 08.02.2021
2803 Rain 7 1029 70 10000 7 50 00:23 08.02.2021
2804 Rain 8 1029 70 10000 7 40 23:52 07.02.2021
2805 Rain 8 1029 71 10000 6 40 23:27 07.02.2021
2806 Rain 8 1029 71 10000 7 30 22:55 07.02.2021
2807 Rain 8 1029 71 10000 7 30 22:55 07.02.2021
2808 Rain 8 1028 71 10000 7 30 22:37 07.02.2021
2809 Rain 8 1028 71 10000 7 30 22:19 07.02.2021
2810 Rain 8 1028 71 10000 7 30 21:47 07.02.2021
2811 Rain 8 1027 76 10000 7 30 21:21 07.02.2021
2812 Rain 8 1027 76 10000 8 40 20:48 07.02.2021
2813 Rain 8 1027 76 10000 8 40 20:27 07.02.2021
2814 Rain 9 1026 76 10000 8 40 19:43 07.02.2021
2815 Rain 9 1026 76 10000 8 40 19:25 07.02.2021
2816 Rain 9 1027 76 10000 6 40 18:44 07.02.2021
2817 Rain 9 1026 76 10000 7 50 18:26 07.02.2021
2818 Clouds 10 1026 76 8000 8 40 17:44 07.02.2021
2819 Rain 10 1026 81 6000 7 30 17:22 07.02.2021
2820 Rain 10 1025 82 5000 6 30 16:57 07.02.2021
2821 Rain 11 1025 82 5000 6 40 16:36 07.02.2021
2822 Mist 11 1025 82 5000 6 40 16:18 07.02.2021
2823 Mist 11 1026 76 5000 7 30 15:41 07.02.2021
2824 Rain 11 1026 76 5000 7 30 15:21 07.02.2021
2825 Clouds 12 1024 58 8000 7 20 14:42 07.02.2021
2826 Clouds 13 1024 58 8000 7 20 14:24 07.02.2021
2827 Clear 14 1023 44 10000 2 90 13:40 07.02.2021
2828 Clear 14 1023 44 10000 2 90 13:22 07.02.2021
2829 Clear 14 1022 38 10000 1 0 12:39 07.02.2021
2830 Clear 15 1022 38 10000 1 0 12:20 07.02.2021
2831 Clear 15 1021 36 10000 1 30 11:41 07.02.2021
2832 Clear 16 1021 36 10000 1 30 11:23 07.02.2021
2833 Clear 17 1020 29 10000 3 30 10:29 07.02.2021
2834 Clear 18 1020 30 10000 4 50 09:55 07.02.2021
2835 Clear 19 1020 30 10000 5 30 09:37 07.02.2021
2836 Clear 19 1020 30 10000 5 30 09:18 07.02.2021
2837 Clear 20 1020 26 10000 1 0 07:56 07.02.2021
2838 Clear 19 1020 26 10000 1 0 06:25 07.02.2021
2839 Clear 18 1022 42 8000 1 0 04:34 07.02.2021
2840 Mist 12 1022 82 4000 2 170 02:26 07.02.2021
2841 Mist 9 1021 93 3000 0.57 211 00:37 07.02.2021
2842 Mist 8 1021 93 3000 1 150 23:51 06.02.2021
2843 Mist 9 1020 93 3500 1 140 22:54 06.02.2021
2844 Mist 9 1020 100 3500 1 330 21:57 06.02.2021
2845 Mist 9 1020 93 3500 1 60 21:36 06.02.2021
2846 Mist 9 1020 93 3500 1 60 21:18 06.02.2021
2847 Mist 9 1020 100 5000 1 160 20:43 06.02.2021
2848 Clear 9 1020 93 7000 1 180 20:21 06.02.2021
2849 Clear 9 1020 93 7000 1 180 19:45 06.02.2021
2850 Clear 9 1020 93 8000 1.39 230 19:22 06.02.2021
2851 Clear 10 1020 87 8000 1 150 18:43 06.02.2021
2852 Clear 9 1020 87 8000 1 150 18:24 06.02.2021
2853 Clear 10 1020 93 10000 1 160 17:41 06.02.2021
2854 Clear 10 1020 93 10000 1 160 17:21 06.02.2021
2855 Clear 11 1020 87 10000 1 170 16:50 06.02.2021
2856 Clear 10 1020 87 10000 1 0 16:30 06.02.2021
2857 Clear 11 1020 81 10000 1.04 235 15:52 06.02.2021
2858 Clear 11 1020 76 10000 1 180 15:33 06.02.2021
2859 Clear 12 1020 71 10000 1 180 14:57 06.02.2021
2860 Clear 12 1020 71 10000 2 160 14:37 06.02.2021
2861 Clear 12 1020 71 10000 2 160 14:18 06.02.2021
2862 Clear 12 1019 66 10000 1 180 13:43 06.02.2021
2863 Clear 13 1019 62 10000 2 220 12:36 06.02.2021
2864 Clear 14 1019 58 10000 2 240 12:18 06.02.2021
2865 Clear 14 1019 55 10000 3 230 11:40 06.02.2021
2866 Clear 14 1019 55 10000 3 230 11:20 06.02.2021
2867 Clear 15 1018 51 10000 2 260 10:52 06.02.2021
2868 Clear 16 1018 51 10000 3 270 10:25 06.02.2021
2869 Clear 17 1018 48 10000 2 260 09:38 06.02.2021
2870 Clear 17 1018 48 10000 2 260 09:38 06.02.2021
2871 Clear 16 1018 48 10000 2 260 09:19 06.02.2021
2872 Clear 17 1018 48 10000 3 260 08:58 06.02.2021
2873 Clear 18 1018 48 10000 3 290 08:29 06.02.2021
2874 Clear 17 1019 58 8000 3 280 06:51 06.02.2021
2875 Clear 15 1020 62 8000 3 230 05:41 06.02.2021
2876 Mist 10 1021 87 5000 3 240 02:44 06.02.2021
2877 Mist 9 1021 87 4000 3 290 00:56 06.02.2021
2878 Mist 9 1020 87 3500 3 280 00:37 06.02.2021
2879 Mist 9 1020 87 3500 3 280 00:18 06.02.2021
2880 Clouds 9 1020 87 6000 4 300 23:30 05.02.2021
2881 Mist 9 1020 87 4000 3 300 22:50 05.02.2021
2882 Mist 9 1020 87 4000 3 310 22:25 05.02.2021
2883 Mist 9 1020 87 4000 2 320 21:56 05.02.2021
2884 Mist 9 1020 87 4000 3 310 21:36 05.02.2021
2885 Mist 9 1020 87 4000 3 310 20:56 05.02.2021
2886 Mist 9 1020 87 4000 3 300 20:19 05.02.2021
2887 Mist 9 1020 87 4000 4 300 19:39 05.02.2021
2888 Mist 9 1020 93 4000 4 300 19:18 05.02.2021
2889 Mist 9 1020 93 4000 3 280 18:38 05.02.2021
2890 Mist 9 1020 93 4000 3 280 18:19 05.02.2021
2891 Mist 9 1020 93 3500 1 0 17:35 05.02.2021
2892 Mist 9 1019 93 4000 2 270 16:58 05.02.2021
2893 Mist 9 1020 93 4000 2 250 16:39 05.02.2021
2894 Mist 9 1020 93 4000 2 250 16:20 05.02.2021
2895 Clouds 9 1019 93 7000 2 230 15:40 05.02.2021
2896 Clouds 9 1019 93 7000 2 230 15:20 05.02.2021
2897 Clouds 9 1019 93 7000 2 260 14:38 05.02.2021
2898 Clouds 9 1019 93 7000 0.87 216 14:18 05.02.2021
2899 Clouds 9 1020 93 6000 1 0 13:42 05.02.2021
2900 Clouds 9 1020 93 6000 1 0 13:20 05.02.2021
2901 Mist 9 1020 93 5000 3 340 12:41 05.02.2021
2902 Mist 9 1020 93 5000 3 340 12:41 05.02.2021
2903 Rain 9 1019 100 5000 3 330 11:59 05.02.2021
2904 Mist 10 1019 87 5000 3 320 11:38 05.02.2021
2905 Mist 10 1019 87 5000 3 320 11:19 05.02.2021
2906 Rain 10 1019 93 4000 3 330 10:46 05.02.2021
2907 Rain 10 1019 93 4000 2 0 10:24 05.02.2021
2908 Mist 10 1018 87 5000 1.13 6 09:42 05.02.2021
2909 Rain 10 1018 87 5000 1.09 356 09:23 05.02.2021
2910 Rain 10 1018 87 7000 1 0 08:40 05.02.2021
2911 Clouds 10 1019 87 10000 3 160 07:41 05.02.2021
2912 Clouds 10 1019 87 10000 3 160 07:21 05.02.2021
2913 Clouds 10 1019 87 10000 3 170 06:28 05.02.2021
2914 Clouds 10 1020 81 10000 2 170 05:32 05.02.2021
2915 Clouds 8 1022 76 10000 4 120 02:25 05.02.2021
2916 Clear 8 1022 87 10000 3 100 00:58 05.02.2021
2917 Clear 7 1023 87 10000 3 90 00:36 05.02.2021
2918 Rain 7 1023 87 10000 3 80 00:18 05.02.2021
2919 Rain 7 1023 87 10000 4 130 23:41 04.02.2021
2920 Rain 7 1023 87 10000 4 130 23:22 04.02.2021
2921 Rain 7 1023 87 10000 4 130 22:54 04.02.2021
2922 Rain 7 1023 93 10000 3 130 22:30 04.02.2021
2923 Rain 7 1024 87 10000 2 120 21:43 04.02.2021
2924 Rain 7 1024 87 10000 2 120 21:43 04.02.2021
2925 Rain 7 1024 87 10000 2 120 21:23 04.02.2021
2926 Rain 7 1024 87 10000 2 120 20:56 04.02.2021
2927 Rain 8 1024 81 10000 2 110 20:34 04.02.2021
2928 Rain 8 1025 81 10000 2 140 19:51 04.02.2021
2929 Rain 8 1025 76 10000 2 150 19:23 04.02.2021
2930 Rain 8 1025 76 10000 3 140 18:40 04.02.2021
2931 Rain 8 1025 76 10000 3 140 18:21 04.02.2021
2932 Rain 8 1025 71 10000 4 130 17:45 04.02.2021
2933 Rain 7 1025 71 10000 4 130 17:21 04.02.2021
2934 Rain 8 1025 71 10000 4 130 16:48 04.02.2021
2935 Clear 8 1026 66 10000 5 130 16:19 04.02.2021
2936 Clear 7 1026 66 10000 4 140 15:41 04.02.2021
2937 Clear 8 1026 66 10000 4 140 15:21 04.02.2021
2938 Clear 7 1026 70 10000 4 110 14:55 04.02.2021
2939 Clear 8 1027 66 10000 4 120 14:37 04.02.2021
2940 Clear 8 1027 66 10000 4 100 14:18 04.02.2021
2941 Clear 8 1027 61 10000 4 120 13:41 04.02.2021
2942 Clear 8 1027 57 10000 4 110 12:57 04.02.2021
2943 Clear 8 1027 53 10000 5 110 12:21 04.02.2021
2944 Clear 8 1027 57 10000 4 110 11:42 04.02.2021
2945 Clear 8 1027 57 10000 4 110 11:24 04.02.2021
2946 Clear 9 1027 46 10000 3 60 10:43 04.02.2021
2947 Clear 10 1026 43 10000 4 50 09:56 04.02.2021
2948 Clear 11 1026 38 10000 4 40 09:37 04.02.2021
2949 Clear 11 1026 33 10000 3 70 09:18 04.02.2021
2950 Clear 12 1027 33 10000 3 40 08:37 04.02.2021
2951 Clear 11 1027 33 10000 2 0 08:18 04.02.2021
2952 Clear 12 1028 35 10000 3 350 07:38 04.02.2021
2953 Clear 12 1028 38 10000 3 20 06:54 04.02.2021
2954 Clear 11 1029 40 10000 2 0 06:35 04.02.2021
2955 Clear 10 1031 43 10000 4 60 03:52 04.02.2021
2956 Clear 9 1031 53 10000 6 30 02:24 04.02.2021
2957 Clear 7 1030 70 6000 6 40 00:33 04.02.2021
2958 Clear 7 1029 76 8000 5 40 23:39 03.02.2021
2959 Clear 7 1028 70 8000 6 30 22:42 03.02.2021
2960 Clear 7 1027 70 8000 5 10 22:21 03.02.2021
2961 Clear 8 1027 70 8000 5 10 21:55 03.02.2021
2962 Clear 8 1027 76 8000 5 10 21:25 03.02.2021
2963 Clear 8 1027 76 10000 6 10 20:58 03.02.2021
2964 Clear 9 1026 81 10000 8 10 20:37 03.02.2021
2965 Clear 9 1026 93 10000 4 360 19:57 03.02.2021
2966 Clear 9 1011 74 10000 2.88 340 19:36 03.02.2021
2967 Clear 9 1011 73 10000 2.01 323 19:18 03.02.2021
2968 Clear 9 1025 87 10000 2 10 18:39 03.02.2021
2969 Clear 9 1025 87 10000 2 10 18:19 03.02.2021
2970 Clear 9 1025 93 10000 1 20 18:19 03.02.2021
2971 Clear 9 1025 93 10000 1 20 17:48 03.02.2021
2972 Clear 9 1025 87 10000 1 0 17:48 03.02.2021
2973 Clear 9 1025 87 10000 1 0 17:27 03.02.2021
2974 Clear 9 1025 87 10000 1.49 286 16:48 03.02.2021
2975 Clear 9 1025 81 10000 1 0 16:26 03.02.2021
2976 Clear 10 1024 81 10000 1 190 15:41 03.02.2021
2977 Clear 10 1024 76 10000 2 160 15:22 03.02.2021
2978 Clear 10 1024 76 10000 2 160 14:47 03.02.2021
2979 Clear 10 1024 76 10000 2 160 14:25 03.02.2021
2980 Clear 10 1023 76 10000 2 160 13:50 03.02.2021
2981 Clear 10 1023 71 10000 2 160 13:21 03.02.2021
2982 Clear 10 1023 76 10000 3 150 12:46 03.02.2021
2983 Clear 11 1023 66 10000 4 150 12:22 03.02.2021
2984 Clear 11 1023 66 10000 3 150 11:43 03.02.2021
2985 Clear 12 1022 62 10000 4 170 11:24 03.02.2021
2986 Clear 12 1022 62 10000 4 170 10:45 03.02.2021
2987 Clear 13 1022 58 10000 5 180 10:21 03.02.2021
2988 Clear 14 1022 58 10000 5 180 09:45 03.02.2021
2989 Clear 14 1022 54 10000 5 180 09:27 03.02.2021
2990 Clear 15 1022 54 10000 6 190 08:49 03.02.2021
2991 Clear 15 1022 54 10000 6 180 07:59 03.02.2021
2992 Clear 14 1022 54 10000 7 160 07:26 03.02.2021
2993 Clear 13 1023 54 10000 6 160 06:38 03.02.2021
2994 Clear 13 1025 58 10000 7 180 04:50 03.02.2021
2995 Clear 12 1026 58 10000 7 170 04:27 03.02.2021
2996 Clear 10 1027 71 10000 6 150 02:42 03.02.2021
2997 Clear 8 1028 76 10000 5 140 01:58 03.02.2021
2998 Clear 6 1027 75 10000 4 140 00:25 03.02.2021
2999 Clear 6 1027 81 10000 4 140 23:44 02.02.2021
3000 Clear 5 1027 81 10000 4 140 23:26 02.02.2021
3001 Clear 5 1027 81 10000 4 140 23:26 02.02.2021
3002 Clear 5 1027 81 10000 3 130 22:51 02.02.2021
3003 Clear 5 1027 75 10000 4 130 22:21 02.02.2021
3004 Clear 5 1027 75 10000 3 130 21:47 02.02.2021
3005 Clear 5 1028 75 10000 3 140 21:27 02.02.2021
3006 Clear 5 1027 75 10000 4 130 20:50 02.02.2021
3007 Clear 5 1027 70 10000 4 130 20:23 02.02.2021
3008 Clear 5 1028 70 10000 3 130 19:58 02.02.2021
3009 Clear 5 1028 70 10000 4 130 19:39 02.02.2021
3010 Clear 5 1028 70 10000 4 130 19:21 02.02.2021
3011 Clear 6 1028 70 10000 4 130 18:41 02.02.2021
3012 Clear 6 1028 70 10000 4 130 18:23 02.02.2021
3013 Clear 6 1028 70 10000 5 130 17:40 02.02.2021
3014 Clear 6 1028 70 10000 5 130 17:21 02.02.2021
3015 Clear 6 1028 70 10000 5 130 16:50 02.02.2021
3016 Clear 6 1028 70 10000 4 120 16:31 02.02.2021
3017 Clear 6 1029 65 10000 3 110 15:57 02.02.2021
3018 Clear 6 1029 65 10000 3 110 15:57 02.02.2021
3019 Clear 6 1029 65 10000 3 110 15:32 02.02.2021
3020 Clouds 6 1029 65 10000 4 120 14:55 02.02.2021
3021 Clouds 6 1029 65 10000 5 140 14:34 02.02.2021
3022 Clouds 6 1029 65 10000 4 120 13:59 02.02.2021
3023 Clouds 6 1029 65 10000 4 140 13:41 02.02.2021
3024 Clouds 6 1029 65 10000 4 140 13:22 02.02.2021
3025 Clear 6 1029 61 10000 4 110 12:50 02.02.2021
3026 Clouds 7 1028 57 10000 4 120 11:56 02.02.2021
3027 Clouds 7 1028 61 10000 4 110 11:36 02.02.2021
3028 Clouds 7 1028 61 10000 4 110 11:18 02.02.2021
3029 Clouds 8 1028 53 10000 3 110 10:42 02.02.2021
3030 Clouds 9 1028 53 10000 3 110 10:22 02.02.2021
3031 Clouds 10 1028 50 10000 2 20 09:39 02.02.2021
3032 Clouds 10 1028 50 10000 2 20 09:20 02.02.2021
3033 Clouds 11 1028 47 10000 2 80 08:34 02.02.2021
3034 Clouds 11 1028 50 10000 3 20 07:42 02.02.2021
3035 Clouds 10 1028 47 10000 2 0 06:46 02.02.2021
3036 Clouds 10 1028 50 10000 2 40 06:27 02.02.2021
3037 Clouds 10 1028 53 10000 2 0 05:47 02.02.2021
3038 Clouds 9 1030 70 10000 4 30 02:46 02.02.2021
3039 Clouds 8 1030 70 10000 4 30 02:23 02.02.2021
3040 Clouds 6 1029 75 8000 4 50 00:37 02.02.2021
3041 Clouds 6 1028 81 8000 6 50 23:37 01.02.2021
3042 Clouds 7 1028 76 8000 7 40 22:51 01.02.2021
3043 Clouds 7 1027 76 7000 7 50 22:33 01.02.2021
3044 Clouds 7 1027 81 7000 6 40 21:53 01.02.2021
3045 Clouds 7 1027 87 7000 4 30 21:35 01.02.2021
3046 Clouds 7 1026 87 7000 4 30 20:57 01.02.2021
3047 Clouds 7 1026 87 7000 4 10 20:38 01.02.2021
3048 Clouds 7 1026 87 7000 4 10 20:19 01.02.2021
3049 Clouds 7 1026 87 7000 3 10 19:39 01.02.2021
3050 Clouds 7 1026 87 7000 3 10 19:20 01.02.2021
3051 Clouds 8 1025 87 7000 5 10 18:49 01.02.2021
3052 Clouds 8 1025 87 7000 6 10 18:27 01.02.2021
3053 Clouds 9 1025 93 7000 4 330 17:47 01.02.2021
3054 Clouds 9 1025 93 7000 2 350 17:24 01.02.2021
3055 Clouds 9 1024 93 7000 2 300 16:55 01.02.2021
3056 Clouds 9 1024 93 7000 2 320 16:29 01.02.2021
3057 Clouds 9 1024 93 7000 2 290 15:44 01.02.2021
3058 Clouds 9 1023 93 7000 2 280 15:19 01.02.2021
3059 Clouds 9 1023 93 7000 2 270 14:52 01.02.2021
3060 Clouds 9 1023 93 7000 2 290 14:33 01.02.2021
3061 Clear 10 1022 93 10000 2 230 13:49 01.02.2021
3062 Clear 9 1022 93 10000 2 260 13:27 01.02.2021
3063 Clear 10 1021 93 10000 2 230 12:45 01.02.2021
3064 Rain 9 1021 93 10000 2 240 12:25 01.02.2021
3065 Rain 9 1021 93 10000 1 0 11:51 01.02.2021
3066 Clouds 9 1006 86 10000 1.58 302 11:22 01.02.2021
3067 Clouds 9 1020 93 7000 2 330 10:53 01.02.2021
3068 Rain 9 1020 93 5000 3 340 10:27 01.02.2021
3069 Rain 9 1020 93 5000 5 340 09:56 01.02.2021
3070 Rain 10 1020 93 3000 6 340 09:36 01.02.2021
3071 Mist 10 1019 93 2500 4 310 08:56 01.02.2021
3072 Rain 11 1019 87 3000 4 320 08:27 01.02.2021
3073 Rain 11 1018 87 5000 3 310 07:32 01.02.2021
3074 Rain 11 1020 93 5000 2 220 05:20 01.02.2021
3075 Mist 10 1021 93 5000 1 0 02:40 01.02.2021
3076 Rain 9 1021 87 4500 3 320 00:25 01.02.2021
3077 Rain 10 1021 87 7000 3 320 23:21 31.01.2021
3078 Rain 11 1020 66 10000 2 320 22:38 31.01.2021
3079 Rain 11 1020 66 10000 2 320 22:19 31.01.2021
3080 Clear 11 1019 81 10000 2 340 21:47 31.01.2021
3081 Clear 11 1020 76 10000 1 10 21:19 31.01.2021
3082 Clear 11 1020 76 10000 1 10 20:43 31.01.2021
3083 Clear 11 1019 71 10000 2 70 20:21 31.01.2021
3084 Rain 12 1021 76 10000 2 30 19:39 31.01.2021
3085 Rain 12 1021 76 10000 2 30 19:21 31.01.2021
3086 Clear 12 1021 76 10000 1 0 18:55 31.01.2021
3087 Clear 12 1021 76 10000 2 360 18:37 31.01.2021
3088 Rain 12 1021 76 10000 2 360 18:18 31.01.2021
3089 Rain 12 1022 71 10000 4 330 17:39 31.01.2021
3090 Rain 12 1021 71 10000 3 360 17:20 31.01.2021
3091 Rain 13 1021 82 10000 2 20 16:42 31.01.2021
3092 Rain 13 1021 82 10000 2 20 16:20 31.01.2021
3093 Clear 13 1021 76 10000 2 360 15:49 31.01.2021
3094 Clouds 13 1021 76 10000 1 360 15:25 31.01.2021
3095 Clouds 13 1021 82 10000 1 0 14:36 31.01.2021
3096 Clouds 13 1021 82 10000 1 0 14:18 31.01.2021
3097 Clear 13 1021 82 10000 1 0 13:41 31.01.2021
3098 Rain 13 1021 82 10000 1 0 13:18 31.01.2021
3099 Rain 13 1021 71 10000 1 0 12:45 31.01.2021
3100 Rain 14 1022 71 10000 1 0 12:20 31.01.2021
3101 Rain 14 1021 67 10000 1 0 11:39 31.01.2021
3102 Rain 14 1021 67 10000 1 0 11:20 31.01.2021
3103 Rain 14 1022 67 10000 1 0 10:45 31.01.2021
3104 Rain 14 1021 67 10000 1 0 10:26 31.01.2021
3105 Clear 14 1021 63 10000 1 0 09:41 31.01.2021
3106 Clear 15 1021 63 10000 2 190 08:52 31.01.2021
3107 Clear 15 1021 58 10000 2 200 08:30 31.01.2021
3108 Clear 15 1022 63 10000 3 200 06:45 31.01.2021
3109 Clear 13 1024 67 10000 3 150 03:46 31.01.2021
3110 Clear 11 1024 76 10000 3 150 00:28 31.01.2021
3111 Clear 11 1024 76 10000 4 160 23:43 30.01.2021
3112 Clear 11 1024 76 10000 3 150 23:22 30.01.2021
3113 Clear 11 1024 71 10000 4 160 22:37 30.01.2021
3114 Clear 10 1024 76 10000 3 140 21:45 30.01.2021
3115 Clear 10 1024 76 10000 3 140 21:24 30.01.2021
3116 Clear 10 1024 76 10000 3 140 21:24 30.01.2021
3117 Clear 10 1024 76 10000 3 160 20:55 30.01.2021
3118 Clear 10 1024 76 10000 3 150 20:35 30.01.2021
3119 Clear 10 1024 76 10000 4 150 19:58 30.01.2021
3120 Clear 10 1024 71 10000 4 150 19:39 30.01.2021
3121 Clear 10 1024 71 10000 4 150 19:19 30.01.2021
3122 Rain 10 1025 71 10000 3 150 18:40 30.01.2021
3123 Clear 10 1025 71 10000 3 150 18:19 30.01.2021
3124 Clear 10 1025 71 10000 4 150 17:45 30.01.2021
3125 Clear 10 1025 71 10000 4 150 17:18 30.01.2021
3126 Clear 10 1025 71 10000 3 150 16:40 30.01.2021
3127 Clear 10 1025 71 10000 3 150 16:21 30.01.2021
3128 Clear 10 1026 66 10000 3 160 15:47 30.01.2021
3129 Clear 10 1025 66 10000 3 160 15:23 30.01.2021
3130 Clear 10 1025 66 10000 4 150 14:52 30.01.2021
3131 Clear 10 1025 62 10000 4 140 14:27 30.01.2021
3132 Clear 10 1026 57 10000 3 150 13:48 30.01.2021
3133 Clear 10 1025 53 10000 3 140 13:20 30.01.2021
3134 Rain 10 1025 43 10000 3 150 12:43 30.01.2021
3135 Clear 10 1025 43 10000 3 150 12:22 30.01.2021
3136 Rain 11 1025 37 10000 3 150 11:41 30.01.2021
3137 Clear 11 1025 35 10000 4 150 10:55 30.01.2021
3138 Clear 13 1025 30 10000 4 150 09:58 30.01.2021
3139 Clear 14 1025 26 10000 5 150 09:39 30.01.2021
3140 Clear 14 1025 26 10000 5 150 09:21 30.01.2021
3141 Clear 14 1025 28 10000 4 140 08:41 30.01.2021
3142 Clear 15 1025 31 10000 3 160 07:30 30.01.2021
3143 Clear 14 1026 33 10000 3 150 06:21 30.01.2021
3144 Clear 10 1028 53 10000 5 180 03:36 30.01.2021
3145 Clear 8 1028 70 10000 3 190 02:26 30.01.2021
3146 Clear 7 1027 65 10000 3 160 01:59 30.01.2021
3147 Clear 5 1027 81 10000 3 150 00:49 30.01.2021
3148 Clear 4 1027 81 10000 3 160 00:21 30.01.2021
3149 Clear 4 1027 81 10000 3 150 23:49 29.01.2021
3150 Clear 4 1027 81 10000 3 150 23:27 29.01.2021
3151 Clear 4 1027 75 10000 3 150 22:45 29.01.2021
3152 Clear 4 1027 81 10000 2 150 22:22 29.01.2021
3153 Clear 4 1026 75 10000 3 150 21:43 29.01.2021
3154 Clear 4 1027 75 10000 3 150 21:25 29.01.2021
3155 Clear 4 1027 75 10000 2 150 20:42 29.01.2021
3156 Clear 4 1027 75 10000 2 150 20:42 29.01.2021
3157 Clear 4 1027 75 10000 3 160 20:21 29.01.2021
3158 Clear 4 1027 75 10000 3 150 19:39 29.01.2021
3159 Clear 4 1027 75 10000 3 150 19:20 29.01.2021
3160 Clear 4 1027 75 10000 3 150 18:44 29.01.2021
3161 Clear 4 1027 65 10000 4 150 17:45 29.01.2021
3162 Clear 4 1027 65 10000 4 150 17:22 29.01.2021
3163 Clear 4 1027 60 10000 4 150 16:47 29.01.2021
3164 Clear 4 1027 60 10000 4 150 16:24 29.01.2021
3165 Clear 4 1027 60 10000 4 150 15:52 29.01.2021
3166 Clear 4 1027 60 10000 4 150 15:34 29.01.2021
3167 Clear 4 1028 56 10000 3 150 14:57 29.01.2021
3168 Clear 4 1028 52 10000 4 150 14:21 29.01.2021
3169 Clear 4 1028 52 10000 4 150 13:45 29.01.2021
3170 Clear 4 1028 52 10000 4 150 13:26 29.01.2021
3171 Clear 5 1028 45 10000 5 180 12:30 29.01.2021
3172 Clear 5 1028 52 10000 4 190 11:51 29.01.2021
3173 Clear 5 1028 48 10000 4 190 11:20 29.01.2021
3174 Clear 6 1028 45 10000 5 190 10:53 29.01.2021
3175 Clear 6 1028 45 10000 6 180 10:35 29.01.2021
3176 Clear 8 1027 39 10000 5 180 09:50 29.01.2021
3177 Clear 8 1027 39 10000 5 180 09:28 29.01.2021
3178 Clear 9 1028 29 10000 3 180 08:47 29.01.2021
3179 Clear 10 1028 25 10000 3 210 08:25 29.01.2021
3180 Clear 9 1028 25 10000 3 160 07:42 29.01.2021
3181 Clear 9 1028 25 10000 3 160 07:22 29.01.2021
3182 Clear 8 1029 27 10000 2 130 06:29 29.01.2021
3183 Clear 6 1031 36 10000 3 150 03:52 29.01.2021
3184 Clear 2 1031 60 10000 1 0 00:46 29.01.2021
3185 Clear 2 1031 60 10000 1 0 00:22 29.01.2021
3186 Clear 1 1031 60 10000 1 0 23:45 28.01.2021
3187 Clear 1 1031 64 10000 1 0 23:26 28.01.2021
3188 Clear 1 1031 60 10000 1 0 22:50 28.01.2021
3189 Clear 2 1031 60 10000 2 40 22:29 28.01.2021
3190 Clear 2 1031 60 10000 3 30 21:59 28.01.2021
3191 Clear 2 1031 64 10000 3 30 21:40 28.01.2021
3192 Clear 2 1031 64 10000 3 30 21:20 28.01.2021
3193 Clear 2 1031 69 10000 4 10 20:40 28.01.2021
3194 Clear 2 1031 69 10000 4 10 20:19 28.01.2021
3195 Clear 2 1031 69 10000 4 10 19:47 28.01.2021
3196 Clear 3 1031 64 10000 4 360 19:24 28.01.2021
3197 Clear 3 1031 64 10000 4 10 18:48 28.01.2021
3198 Clear 3 1031 64 10000 5 10 18:28 28.01.2021
3199 Clear 3 1031 64 10000 4 10 17:47 28.01.2021
3200 Clear 3 1031 64 10000 4 10 17:29 28.01.2021
3201 Clear 3 1031 64 10000 4 360 16:46 28.01.2021
3202 Clear 3 1031 64 10000 4 360 16:25 28.01.2021
3203 Clear 3 1031 60 10000 3 10 15:56 28.01.2021
3204 Clear 3 1031 56 10000 3 30 15:23 28.01.2021
3205 Clear 4 1030 60 10000 5 30 14:43 28.01.2021
3206 Clear 4 1030 60 10000 5 30 14:23 28.01.2021
3207 Clear 4 1030 60 10000 5 30 14:23 28.01.2021
3208 Clear 4 1030 56 10000 5 30 13:49 28.01.2021
3209 Clear 4 1030 56 10000 5 20 13:21 28.01.2021
3210 Clear 4 1029 60 10000 5 30 12:46 28.01.2021
3211 Clear 5 1029 56 10000 6 10 12:21 28.01.2021
3212 Clouds 5 1029 56 7000 7 10 11:44 28.01.2021
3213 Clouds 6 1029 56 7000 7 10 11:21 28.01.2021
3214 Clouds 6 1028 56 6000 6 10 10:55 28.01.2021
3215 Clouds 6 1028 57 6000 7 20 10:35 28.01.2021
3216 Haze 7 1027 57 5000 6 10 09:59 28.01.2021
3217 Haze 8 1027 49 5000 9 350 09:31 28.01.2021
3218 Clouds 9 1026 43 6000 9 330 08:57 28.01.2021
3219 Clouds 10 1026 37 6000 10 340 08:39 28.01.2021
3220 Haze 9 1026 53 4000 8 320 07:46 28.01.2021
3221 Haze 10 1026 57 4000 8 340 06:51 28.01.2021
3222 Clouds 11 1025 58 6000 6 310 06:31 28.01.2021
3223 Clouds 9 1026 71 6000 6 310 04:30 28.01.2021
3224 Mist 8 1024 81 4000 4 280 01:40 28.01.2021
3225 Mist 7 1023 93 5000 3 300 23:54 27.01.2021
3226 Mist 7 1023 87 5000 3 290 23:24 27.01.2021
3227 Mist 7 1023 87 5000 3 290 23:24 27.01.2021
3228 Mist 7 1022 87 5000 4 280 22:43 27.01.2021
3229 Mist 7 1022 87 5000 4 280 22:24 27.01.2021
3230 Clouds 7 1008 89 10000 1.34 339 21:44 27.01.2021
3231 Clouds 7 1008 88 10000 1.34 352 21:24 27.01.2021
3232 Clouds 7 1022 76 6000 3 270 20:55 27.01.2021
3233 Clouds 8 1023 81 6000 3 270 20:30 27.01.2021
3234 Clouds 8 1023 81 6000 4 290 19:56 27.01.2021
3235 Clouds 8 1023 76 6000 3 280 19:36 27.01.2021
3236 Clouds 8 1023 76 6000 3 280 19:18 27.01.2021
3237 Clear 8 1023 71 10000 3 280 18:40 27.01.2021
3238 Clear 8 1023 71 10000 3 280 18:21 27.01.2021
3239 Clear 8 1023 66 10000 2 250 17:39 27.01.2021
3240 Clear 8 1023 66 10000 1 210 17:18 27.01.2021
3241 Rain 8 1023 61 10000 1 0 16:43 27.01.2021
3242 Clear 8 1023 61 10000 1 0 16:24 27.01.2021
3243 Rain 8 1023 61 10000 1 0 15:49 27.01.2021
3244 Rain 9 1023 57 10000 2 70 15:29 27.01.2021
3245 Rain 9 1023 57 10000 2 80 14:38 27.01.2021
3246 Rain 9 1023 57 10000 2 80 14:18 27.01.2021
3247 Rain 9 1023 57 10000 3 110 13:35 27.01.2021
3248 Rain 9 1023 61 8000 3 120 12:42 27.01.2021
3249 Rain 9 1023 61 8000 3 120 12:42 27.01.2021
3250 Rain 9 1023 61 8000 3 120 12:24 27.01.2021
3251 Rain 9 1022 61 8000 3 80 11:50 27.01.2021
3252 Rain 9 1022 57 8000 3 70 11:26 27.01.2021
3253 Rain 9 1021 53 8000 4 80 10:48 27.01.2021
3254 Rain 9 1022 53 8000 3 60 10:26 27.01.2021
3255 Rain 10 1021 53 8000 3 60 09:56 27.01.2021
3256 Clouds 10 1022 53 8000 2 70 09:29 27.01.2021
3257 Clouds 10 1022 53 8000 2 70 09:29 27.01.2021
3258 Clouds 11 1022 54 8000 4 10 08:47 27.01.2021
3259 Clouds 11 1022 54 8000 3 40 07:57 27.01.2021
3260 Clouds 11 1022 57 8000 2 20 07:37 27.01.2021
3261 Clouds 10 1024 54 8000 1 0 06:38 27.01.2021
3262 Clouds 10 1023 57 8000 2 80 05:55 27.01.2021
3263 Clouds 10 1023 62 8000 5 130 05:34 27.01.2021
3264 Mist 9 1026 81 5000 3 360 02:46 27.01.2021
3265 Mist 8 1026 81 5000 3 360 02:20 27.01.2021
3266 Clouds 7 1026 87 6000 3 350 00:58 27.01.2021
3267 Clouds 6 1025 87 10000 4 20 00:18 27.01.2021
3268 Clouds 6 1025 87 10000 4 10 23:32 26.01.2021
3269 Clouds 6 1024 87 10000 3 10 22:58 26.01.2021
3270 Clouds 6 1024 81 10000 4 40 22:37 26.01.2021
3271 Clouds 6 1024 87 10000 3 50 22:18 26.01.2021
3272 Clouds 6 1024 87 10000 3 50 21:46 26.01.2021
3273 Clouds 7 1025 87 10000 4 10 21:21 26.01.2021
3274 Clouds 7 1026 87 7000 5 360 20:43 26.01.2021
3275 Clouds 7 1026 87 7000 5 360 20:23 26.01.2021
3276 Clouds 7 1026 87 7000 5 10 19:50 26.01.2021
3277 Clouds 7 1026 87 7000 5 360 19:29 26.01.2021
3278 Clouds 7 1026 93 7000 4 360 18:57 26.01.2021
3279 Clouds 7 1026 93 7000 3 10 18:39 26.01.2021
3280 Clouds 7 1026 93 7000 4 20 18:19 26.01.2021
3281 Clouds 8 1026 93 7000 4 20 17:46 26.01.2021
3282 Clouds 8 1025 93 7000 5 360 17:22 26.01.2021
3283 Clouds 8 1025 87 7000 4 360 16:42 26.01.2021
3284 Clouds 8 1025 87 7000 4 360 16:42 26.01.2021
3285 Clouds 8 1025 87 7000 4 360 16:20 26.01.2021
3286 Clouds 8 1025 93 7000 4 360 15:49 26.01.2021
3287 Clouds 8 1024 93 7000 4 10 15:27 26.01.2021
3288 Clouds 8 1025 93 7000 4 10 14:49 26.01.2021
3289 Clouds 8 1024 93 7000 3 10 14:29 26.01.2021
3290 Rain 8 1024 100 6000 4 20 13:39 26.01.2021
3291 Clouds 8 1024 100 6000 4 20 13:21 26.01.2021
3292 Rain 8 1024 93 2700 5 330 12:44 26.01.2021
3293 Rain 8 1024 93 2700 5 330 12:25 26.01.2021
3294 Rain 8 1023 93 2700 4 330 11:57 26.01.2021
3295 Rain 8 1023 93 2700 4 330 11:57 26.01.2021
3296 Rain 8 1023 93 2700 3 330 11:38 26.01.2021
3297 Mist 8 1023 93 1500 5 320 10:45 26.01.2021
3298 Mist 8 1023 93 1500 5 320 10:27 26.01.2021
3299 Mist 8 1022 93 1500 3 320 09:42 26.01.2021
3300 Mist 8 1022 93 1500 3 320 09:23 26.01.2021
3301 Mist 8 1022 93 3000 4 300 08:52 26.01.2021
3302 Mist 8 1022 87 4000 4 310 08:24 26.01.2021
3303 Mist 8 1021 93 4000 4 310 07:39 26.01.2021
3304 Mist 8 1022 93 3000 5 300 05:59 26.01.2021
3305 Mist 8 1022 93 2800 4 300 05:41 26.01.2021
3306 Mist 8 1023 93 3500 5 290 04:23 26.01.2021
3307 Clouds 9 1022 93 7000 5 290 02:21 26.01.2021
3308 Clouds 9 1007 97 10000 0.45 2 00:54 26.01.2021
3309 Clouds 10 1020 93 6000 4 300 23:36 25.01.2021
3310 Rain 10 1020 93 6000 5 300 22:57 25.01.2021
3311 Rain 10 1019 100 6000 4 320 22:36 25.01.2021
3312 Mist 10 1019 100 5000 3 330 21:50 25.01.2021
3313 Rain 10 1019 100 5000 4 330 21:26 25.01.2021
3314 Rain 10 1019 100 4000 2 340 20:51 25.01.2021
3315 Rain 10 1019 100 5000 3 330 20:33 25.01.2021
3316 Mist 11 1019 93 5000 2 350 19:51 25.01.2021
3317 Rain 11 1019 93 5000 2 360 19:31 25.01.2021
3318 Rain 11 1019 93 5000 2 360 19:31 25.01.2021
3319 Rain 11 1019 93 8000 2 350 18:49 25.01.2021
3320 Rain 11 1019 93 8000 2 350 18:28 25.01.2021
3321 Rain 11 1019 93 10000 1 40 17:58 25.01.2021
3322 Rain 11 1019 93 10000 1 70 17:39 25.01.2021
3323 Rain 11 1019 93 10000 1 70 17:20 25.01.2021
3324 Rain 11 1019 87 10000 1 0 16:41 25.01.2021
3325 Rain 11 1019 87 10000 1 0 16:21 25.01.2021
3326 Rain 11 1019 93 10000 1 0 15:48 25.01.2021
3327 Rain 11 1019 82 10000 1 100 15:29 25.01.2021
3328 Clouds 11 1020 87 10000 1 0 14:46 25.01.2021
3329 Clear 11 1020 87 10000 1 0 14:19 25.01.2021
3330 Clear 11 1020 87 10000 2 130 13:49 25.01.2021
3331 Clouds 11 1020 82 10000 3 120 13:28 25.01.2021
3332 Rain 11 1020 82 10000 3 120 12:46 25.01.2021
3333 Clear 12 1020 76 10000 3 110 12:20 25.01.2021
3334 Clouds 12 1020 76 10000 2 130 11:47 25.01.2021
3335 Clouds 12 1020 76 10000 2 100 11:47 25.01.2021
3336 Rain 13 1020 71 10000 3 120 11:18 25.01.2021
3337 Rain 13 1020 71 10000 3 130 10:40 25.01.2021
3338 Rain 13 1020 71 10000 3 130 10:18 25.01.2021
3339 Rain 13 1020 62 10000 4 130 09:43 25.01.2021
3340 Rain 14 1020 58 10000 4 120 09:25 25.01.2021
3341 Rain 15 1020 58 10000 5 150 08:28 25.01.2021
3342 Clear 15 1020 55 10000 5 120 07:32 25.01.2021
3343 Clear 15 1020 55 10000 4 130 06:55 25.01.2021
3344 Rain 13 1023 67 10000 4 100 03:46 25.01.2021
3345 Clear 11 1023 76 10000 3 130 01:32 25.01.2021
3346 Clear 10 1023 76 10000 4 100 23:44 24.01.2021
3347 Clear 10 1023 76 10000 4 100 23:19 24.01.2021
3348 Rain 10 1023 76 10000 3 90 22:42 24.01.2021
3349 Clear 10 1023 76 10000 3 90 22:20 24.01.2021
3350 Clear 10 1023 76 10000 4 80 21:48 24.01.2021
3351 Clear 10 1023 76 10000 3 80 21:24 24.01.2021
3352 Clear 9 1023 87 10000 5 90 20:45 24.01.2021
3353 Clear 9 1024 87 10000 5 90 20:21 24.01.2021
3354 Rain 9 1024 87 10000 4 80 19:52 24.01.2021
3355 Clear 9 1024 87 8000 3 70 19:27 24.01.2021
3356 Clear 9 1024 93 8000 2 40 18:58 24.01.2021
3357 Clouds 9 1024 87 8000 2 60 18:39 24.01.2021
3358 Clouds 9 1024 87 8000 2 60 18:39 24.01.2021
3359 Clouds 9 1024 87 8000 2 60 18:20 24.01.2021
3360 Clouds 9 1024 87 8000 2 50 17:50 24.01.2021
3361 Clouds 10 1024 87 8000 3 30 17:28 24.01.2021
3362 Clouds 9 1024 87 8000 3 30 16:57 24.01.2021
3363 Clouds 10 1024 87 8000 3 10 16:37 24.01.2021
3364 Clouds 10 1024 87 8000 3 10 16:18 24.01.2021
3365 Clouds 10 1024 87 7000 2 70 15:42 24.01.2021
3366 Clouds 10 1024 87 7000 2 70 15:18 24.01.2021
3367 Clouds 10 1024 87 7000 3 40 14:38 24.01.2021
3368 Clouds 10 1024 87 7000 3 360 13:46 24.01.2021
3369 Clouds 10 1025 81 7000 2 350 13:26 24.01.2021
3370 Clouds 10 1024 81 7000 2 340 12:47 24.01.2021
3371 Clouds 10 1024 87 7000 1 0 12:20 24.01.2021
3372 Clouds 10 1024 81 7000 1 350 11:50 24.01.2021
3373 Clouds 10 1024 81 6000 1 0 11:24 24.01.2021
3374 Clouds 10 1024 81 6000 1 0 10:45 24.01.2021
3375 Clouds 10 1023 81 6000 1 0 10:18 24.01.2021
3376 Clouds 10 1023 81 6000 1 0 09:22 24.01.2021
3377 Clouds 10 1023 81 6000 2 40 08:57 24.01.2021
3378 Mist 10 1023 81 5000 2 40 08:22 24.01.2021
3379 Mist 7 1025 81 4000 5 360 02:41 24.01.2021
3380 Mist 6 1025 75 4000 5 10 01:49 24.01.2021
3381 Mist 6 1024 81 5000 4 360 00:25 24.01.2021
3382 Clouds 6 1025 81 7000 5 350 23:49 23.01.2021
3383 Clouds 6 1024 81 7000 5 350 23:26 23.01.2021
3384 Clouds 6 1024 81 7000 4 340 22:51 23.01.2021
3385 Clouds 6 1024 81 7000 4 330 22:33 23.01.2021
3386 Clouds 6 1024 81 7000 5 330 21:51 23.01.2021
3387 Mist 6 1024 87 5000 4 360 21:22 23.01.2021
3388 Mist 6 1023 87 5000 5 10 20:47 23.01.2021
3389 Mist 6 1023 81 5000 5 10 20:24 23.01.2021
3390 Mist 6 1023 81 4000 5 360 19:47 23.01.2021
3391 Mist 6 1023 81 4000 5 360 19:47 23.01.2021
3392 Mist 6 1023 81 4000 5 350 19:23 23.01.2021
3393 Mist 6 1024 87 4000 3 350 18:49 23.01.2021
3394 Mist 6 1024 87 4000 3 350 18:26 23.01.2021
3395 Mist 6 1024 87 3000 5 360 17:48 23.01.2021
3396 Mist 6 1024 87 3000 5 360 17:27 23.01.2021
3397 Rain 6 1024 93 3000 5 10 16:49 23.01.2021
3398 Mist 7 1024 93 3000 5 10 16:28 23.01.2021
3399 Mist 7 1023 87 4000 5 330 15:41 23.01.2021
3400 Mist 7 1023 87 4000 5 330 15:22 23.01.2021
3401 Mist 7 1023 87 4000 4 330 14:33 23.01.2021
3402 Mist 7 1022 87 4000 5 340 13:54 23.01.2021
3403 Mist 7 1022 87 4000 5 10 13:35 23.01.2021
3404 Mist 7 1021 87 4000 5 10 12:57 23.01.2021
3405 Mist 7 1021 87 4000 5 10 12:57 23.01.2021
3406 Mist 7 1021 87 4000 5 10 12:57 23.01.2021
3407 Mist 8 1021 81 4000 5 350 12:28 23.01.2021
3408 Mist 8 1021 81 4000 4 350 11:47 23.01.2021
3409 Mist 8 1021 81 4000 5 350 11:27 23.01.2021
3410 Mist 8 1020 81 4000 5 340 10:50 23.01.2021
3411 Mist 8 1019 81 4000 6 360 10:21 23.01.2021
3412 Mist 8 1019 87 4000 5 360 09:47 23.01.2021
3413 Mist 8 1019 87 5000 5 340 08:54 23.01.2021
3414 Mist 8 1018 87 5000 6 350 08:31 23.01.2021
3415 Mist 8 1018 87 5000 6 350 07:25 23.01.2021
3416 Mist 8 1020 93 2000 4 340 03:36 23.01.2021
3417 Mist 8 1018 93 5000 4 360 00:42 23.01.2021
3418 Mist 8 1017 93 4000 4 360 23:39 22.01.2021
3419 Rain 8 1017 93 5000 4 10 22:53 22.01.2021
3420 Rain 8 1017 93 7000 4 10 22:32 22.01.2021
3421 Clouds 8 1017 93 7000 4 10 21:46 22.01.2021
3422 Clouds 8 1017 93 7000 4 10 21:46 22.01.2021
3423 Clouds 8 1017 93 7000 4 10 21:46 22.01.2021
3424 Clouds 8 1017 93 7000 3 360 21:26 22.01.2021
3425 Clouds 8 1017 93 7000 4 10 20:56 22.01.2021
3426 Clouds 8 1017 93 7000 5 10 20:37 22.01.2021
3427 Clouds 8 1017 93 7000 5 20 19:54 22.01.2021
3428 Clouds 8 1018 93 10000 4 20 19:21 22.01.2021
3429 Rain 8 1018 93 10000 4 20 18:55 22.01.2021
3430 Rain 8 1018 93 10000 5 30 18:28 22.01.2021
3431 Clouds 8 1018 93 10000 4 20 17:58 22.01.2021
3432 Clouds 9 1018 87 10000 5 30 17:39 22.01.2021
3433 Clouds 9 1018 93 10000 5 30 16:59 22.01.2021
3434 Clouds 9 1018 93 10000 4 40 16:36 22.01.2021
3435 Clouds 9 1018 93 8000 4 40 15:55 22.01.2021
3436 Rain 9 1018 93 7000 4 40 15:26 22.01.2021
3437 Rain 9 1019 93 10000 4 60 14:43 22.01.2021
3438 Rain 9 1019 93 10000 5 30 14:25 22.01.2021
3439 Rain 9 1018 93 10000 6 30 13:46 22.01.2021
3440 Rain 9 1018 93 10000 5 30 13:26 22.01.2021
3441 Rain 9 1018 93 10000 5 30 12:40 22.01.2021
3442 Rain 9 1018 100 7000 4 20 12:18 22.01.2021
3443 Rain 9 1018 93 7000 4 30 11:39 22.01.2021
3444 Rain 10 1018 93 7000 5 40 10:48 22.01.2021
3445 Rain 10 1017 93 7000 6 30 10:25 22.01.2021
3446 Rain 10 1017 93 7000 4 30 09:45 22.01.2021
3447 Rain 10 1017 93 5000 3 50 08:58 22.01.2021
3448 Rain 10 1017 93 6000 4 50 08:32 22.01.2021
3449 Clouds 10 1017 93 7000 5 40 07:50 22.01.2021
3450 Rain 11 1019 93 5000 3 20 05:26 22.01.2021
3451 Clouds 11 1019 93 6000 6 30 01:54 22.01.2021
3452 Rain 11 1019 100 3500 3 10 00:30 22.01.2021
3453 Rain 11 1019 100 4000 4 360 23:49 21.01.2021
3454 Rain 12 1018 100 4000 3 360 23:20 21.01.2021
3455 Mist 12 1018 94 2700 3 350 22:48 21.01.2021
3456 Rain 12 1018 94 2700 3 350 21:59 21.01.2021
3457 Rain 12 1018 94 2700 3 10 21:39 21.01.2021
3458 Rain 12 1018 94 2700 3 10 21:18 21.01.2021
3459 Rain 12 1018 94 2700 3 360 20:44 21.01.2021
3460 Rain 13 1018 88 3500 3 10 20:21 21.01.2021
3461 Rain 13 1018 94 3500 4 10 19:49 21.01.2021
3462 Mist 13 1018 94 3500 4 10 19:25 21.01.2021
3463 Mist 13 1019 94 3500 4 20 18:43 21.01.2021
3464 Mist 13 1018 94 4000 4 20 18:22 21.01.2021
3465 Mist 13 1019 94 4000 3 20 17:57 21.01.2021
3466 Mist 13 1019 94 4000 3 20 17:57 21.01.2021
3467 Mist 14 1019 88 4000 4 20 17:21 21.01.2021
3468 Mist 14 1019 88 4000 4 360 16:58 21.01.2021
3469 Mist 14 1019 88 5000 5 350 16:38 21.01.2021
3470 Mist 14 1019 88 5000 5 350 16:20 21.01.2021
3471 Clouds 14 1019 82 6000 3 360 15:47 21.01.2021
3472 Clouds 14 1019 88 6000 3 360 15:24 21.01.2021
3473 Clouds 15 1019 88 10000 3 10 14:45 21.01.2021
3474 Clouds 15 1019 77 10000 3 360 14:23 21.01.2021
3475 Clouds 15 1019 77 10000 4 10 13:43 21.01.2021
3476 Clouds 15 1019 77 10000 4 10 13:23 21.01.2021
3477 Clouds 16 1019 72 10000 3 20 12:43 21.01.2021
3478 Clouds 16 1019 67 10000 5 10 12:24 21.01.2021
3479 Clouds 16 1019 67 10000 4 10 11:51 21.01.2021
3480 Clouds 16 1019 63 10000 4 360 11:30 21.01.2021
3481 Clouds 16 1018 67 8000 5 360 10:52 21.01.2021
3482 Clouds 17 1018 77 8000 1 0 10:33 21.01.2021
3483 Clouds 18 1018 77 8000 1 0 09:45 21.01.2021
3484 Clouds 18 1018 77 8000 2 150 09:25 21.01.2021
3485 Clouds 19 1017 72 7000 2 160 08:48 21.01.2021
3486 Clouds 19 1017 72 7000 3 150 08:25 21.01.2021
3487 Clouds 18 1017 72 7000 3 150 07:28 21.01.2021
3488 Clouds 18 1018 72 7000 2 190 06:58 21.01.2021
3489 Clouds 18 1019 77 7000 3 180 05:22 21.01.2021
3490 Clouds 15 1021 94 6000 2 190 02:58 21.01.2021
3491 Clouds 12 1020 94 7000 3 150 00:57 21.01.2021
3492 Clouds 12 1020 100 8000 3 160 23:56 20.01.2021
3493 Clouds 12 1020 100 10000 2 150 23:33 20.01.2021
3494 Clouds 12 1020 93 10000 2 150 22:59 20.01.2021
3495 Clouds 12 1020 100 10000 1 0 22:41 20.01.2021
3496 Clouds 12 1020 100 10000 1 0 22:21 20.01.2021
3497 Rain 12 1020 93 10000 3 140 21:41 20.01.2021
3498 Clouds 11 1020 93 10000 3 140 21:21 20.01.2021
3499 Clear 11 1020 93 10000 2 150 20:49 20.01.2021
3500 Clear 11 1020 93 10000 3 140 20:19 20.01.2021
3501 Clear 11 1020 93 10000 3 150 19:43 20.01.2021
3502 Clear 11 1021 93 10000 4 150 19:43 20.01.2021
3503 Clear 11 1021 93 10000 4 150 19:24 20.01.2021
3504 Clear 12 1021 93 10000 3 140 18:42 20.01.2021
3505 Clouds 12 1021 93 10000 4 150 17:58 20.01.2021
3506 Clouds 12 1022 87 10000 4 150 17:39 20.01.2021
3507 Clouds 12 1022 93 10000 4 150 16:59 20.01.2021
3508 Clouds 12 1022 93 10000 3 150 16:41 20.01.2021
3509 Clear 12 1022 93 10000 4 150 15:52 20.01.2021
3510 Clear 11 1022 93 10000 4 150 15:34 20.01.2021
3511 Clear 11 1022 93 10000 4 140 14:51 20.01.2021
3512 Clouds 12 1022 87 10000 4 140 14:24 20.01.2021
3513 Clear 12 1023 87 10000 4 140 13:48 20.01.2021
3514 Clear 12 1022 87 10000 5 150 13:26 20.01.2021
3515 Clear 12 1022 82 10000 5 140 12:42 20.01.2021
3516 Clouds 12 1022 82 10000 4 130 11:58 20.01.2021
3517 Clouds 13 1022 82 10000 4 140 11:38 20.01.2021
3518 Clouds 13 1022 77 10000 4 150 10:56 20.01.2021
3519 Clouds 13 1022 77 10000 5 150 10:34 20.01.2021
3520 Clouds 13 1022 72 10000 6 150 09:54 20.01.2021
3521 Clouds 14 1022 77 10000 7 160 09:27 20.01.2021
3522 Clouds 14 1022 67 10000 6 150 08:57 20.01.2021
3523 Clouds 14 1022 67 10000 5 150 08:31 20.01.2021
3524 Clouds 14 1022 72 10000 6 160 07:59 20.01.2021
3525 Clouds 14 1022 72 10000 6 170 07:37 20.01.2021
3526 Clouds 14 1023 63 10000 5 150 06:39 20.01.2021
3527 Clear 12 1026 71 10000 6 140 03:28 20.01.2021
3528 Clear 8 1025 81 10000 5 130 01:19 20.01.2021
3529 Clear 7 1025 81 10000 5 130 00:46 20.01.2021
3530 Clear 7 1025 81 10000 5 130 23:49 19.01.2021
3531 Clear 7 1025 87 10000 4 130 23:26 19.01.2021
3532 Clear 6 1025 87 10000 4 130 23:26 19.01.2021
3533 Clear 6 1025 87 10000 4 130 22:57 19.01.2021
3534 Clear 6 1025 87 10000 4 130 22:36 19.01.2021
3535 Clear 6 1025 87 10000 4 130 22:18 19.01.2021
3536 Clear 6 1025 81 10000 4 130 21:42 19.01.2021
3537 Clear 6 1025 81 10000 4 130 21:23 19.01.2021
3538 Clear 6 1026 81 10000 5 130 20:43 19.01.2021
3539 Clear 7 1026 81 10000 6 130 20:23 19.01.2021
3540 Clear 7 1026 81 10000 6 130 19:48 19.01.2021
3541 Clear 7 1026 76 10000 4 130 19:27 19.01.2021
3542 Clear 7 1026 81 10000 4 120 18:46 19.01.2021
3543 Clear 7 1026 76 10000 5 130 18:26 19.01.2021
3544 Clear 7 1026 76 10000 5 130 17:45 19.01.2021
3545 Clear 7 1027 76 10000 6 130 17:25 19.01.2021
3546 Clear 7 1027 76 10000 6 120 16:48 19.01.2021
3547 Clear 7 1027 76 10000 6 120 16:26 19.01.2021
3548 Clear 7 1027 76 10000 5 120 15:57 19.01.2021
3549 Clear 7 1027 76 10000 5 120 15:37 19.01.2021
3550 Clear 7 1027 76 10000 5 110 14:57 19.01.2021
3551 Clear 7 1028 76 10000 5 120 14:37 19.01.2021
3552 Clear 7 1028 76 10000 5 120 14:18 19.01.2021
3553 Clear 8 1028 71 10000 6 110 13:39 19.01.2021
3554 Clear 7 1028 66 10000 6 110 13:20 19.01.2021
3555 Clear 8 1028 66 10000 7 110 12:38 19.01.2021
3556 Clear 8 1028 66 10000 7 110 12:19 19.01.2021
3557 Clear 8 1028 66 10000 6 110 11:43 19.01.2021
3558 Clear 8 1028 66 10000 6 110 11:22 19.01.2021
3559 Clear 8 1028 61 10000 6 110 10:50 19.01.2021
3560 Clouds 9 1028 61 10000 6 100 10:30 19.01.2021
3561 Clouds 9 1028 57 10000 6 120 09:52 19.01.2021
3562 Clouds 10 1027 57 10000 6 110 09:21 19.01.2021
3563 Clouds 10 1027 53 10000 7 110 08:48 19.01.2021
3564 Clear 12 1027 47 10000 6 120 07:58 19.01.2021
3565 Clear 12 1027 43 10000 7 150 07:22 19.01.2021
3566 Clear 10 1029 50 10000 7 120 04:50 19.01.2021
3567 Clear 8 1029 61 8000 4 110 02:24 19.01.2021
3568 Clear 5 1029 75 10000 2 100 00:45 19.01.2021
3569 Clear 4 1028 75 10000 3 100 23:57 18.01.2021
3570 Clear 4 1028 75 10000 3 100 23:28 18.01.2021
3571 Clear 4 1028 81 10000 3 100 22:44 18.01.2021
3572 Clear 4 1028 81 10000 3 100 22:23 18.01.2021
3573 Clear 4 1027 87 10000 2 140 21:48 18.01.2021
3574 Clear 4 1027 80 10000 1 100 21:23 18.01.2021
3575 Clear 4 1027 80 10000 1 80 20:57 18.01.2021
3576 Clear 5 1027 75 10000 2 110 20:34 18.01.2021
3577 Clear 4 1027 70 10000 2 100 19:54 18.01.2021
3578 Clear 5 1028 60 10000 2 100 19:35 18.01.2021
3579 Clear 4 1028 60 10000 2 100 18:51 18.01.2021
3580 Clear 5 1028 60 10000 1 0 18:32 18.01.2021
3581 Clear 5 1028 60 10000 1 0 17:50 18.01.2021
3582 Clear 5 1028 60 10000 1 20 17:31 18.01.2021
3583 Clear 6 1028 48 10000 1 0 16:51 18.01.2021
3584 Clear 6 1028 45 10000 1 0 16:32 18.01.2021
3585 Clear 6 1028 45 10000 2.05 86 15:56 18.01.2021
3586 Clear 6 1028 39 10000 2 90 15:37 18.01.2021
3587 Clear 6 1027 45 10000 2 60 15:18 18.01.2021
3588 Clear 7 1027 42 10000 1 120 14:41 18.01.2021
3589 Clear 7 1027 42 10000 1 120 14:22 18.01.2021
3590 Clear 7 1027 45 10000 2 360 13:44 18.01.2021
3591 Clear 7 1027 42 10000 1 0 13:20 18.01.2021
3592 Clear 7 1026 31 10000 1 0 12:46 18.01.2021
3593 Clear 8 1026 31 10000 1 0 12:19 18.01.2021
3594 Clear 8 1026 29 10000 2 250 11:46 18.01.2021
3595 Clear 9 1026 31 10000 3 230 11:25 18.01.2021
3596 Clear 9 1025 27 10000 3 240 10:47 18.01.2021
3597 Clear 10 1025 27 10000 3 240 10:26 18.01.2021
3598 Clear 11 1025 25 10000 3 290 09:39 18.01.2021
3599 Clear 11 1025 25 10000 3 290 09:18 18.01.2021
3600 Clear 11 1024 25 10000 3 290 08:26 18.01.2021
3601 Clear 11 1025 25 10000 3 270 07:54 18.01.2021
3602 Clear 11 1025 27 10000 4 280 06:35 18.01.2021
3603 Clear 9 1027 31 10000 5 240 04:43 18.01.2021
3604 Clear 8 1027 31 10000 5 240 04:24 18.01.2021
3605 Clear 8 1027 39 10000 4 250 03:47 18.01.2021
3606 Clear 7 1028 42 10000 3 230 03:26 18.01.2021
3607 Clear 7 1028 48 10000 3 230 02:54 18.01.2021
3608 Clear 5 1028 56 10000 3 230 02:19 18.01.2021
3609 Clear 2 1027 80 10000 2 200 00:41 18.01.2021
3610 Clear 1 1027 80 10000 1 200 23:51 17.01.2021
3611 Clear 1 1027 74 10000 1 200 23:25 17.01.2021
3612 Clear 1 1027 74 10000 2.15 221 22:50 17.01.2021
3613 Clear 2 1027 69 10000 1 200 22:23 17.01.2021
3614 Clear 2 1027 69 10000 2 190 21:43 17.01.2021
3615 Clear 2 1027 69 10000 2 190 21:24 17.01.2021
3616 Clear 1 1027 64 10000 2 220 20:51 17.01.2021
3617 Clear 2 1028 60 10000 2 220 20:32 17.01.2021
3618 Clear 2 1028 60 10000 1 210 19:53 17.01.2021
3619 Clear 1 1028 64 10000 2 200 19:34 17.01.2021
3620 Clear 2 1028 60 10000 2 200 18:53 17.01.2021
3621 Clear 2 1028 60 10000 2 190 18:29 17.01.2021
3622 Clear 2 1028 55 10000 1 180 17:50 17.01.2021
3623 Clear 2 1029 55 10000 2 180 17:29 17.01.2021
3624 Clear 2 1029 60 10000 2 190 16:45 17.01.2021
3625 Clear 2 1029 55 10000 3 190 16:25 17.01.2021
3626 Clear 2 1029 55 10000 2 200 15:53 17.01.2021
3627 Clear 2 1029 55 10000 3 200 15:27 17.01.2021
3628 Clear 2 1030 55 10000 2 200 14:59 17.01.2021
3629 Clear 3 1030 51 10000 2 200 14:39 17.01.2021
3630 Clear 3 1030 51 10000 2 200 14:21 17.01.2021
3631 Clear 3 1030 51 10000 2 200 13:41 17.01.2021
3632 Clear 3 1030 51 10000 2 200 13:23 17.01.2021
3633 Clear 3 1031 45 10000 2 240 12:44 17.01.2021
3634 Clear 4 1031 45 10000 2 240 12:24 17.01.2021
3635 Clear 4 1031 38 10000 3 230 11:26 17.01.2021
3636 Clear 5 1031 30 10000 2 270 10:52 17.01.2021
3637 Clear 5 1031 30 10000 5 280 10:28 17.01.2021
3638 Clear 5 1031 33 10000 3 250 09:57 17.01.2021
3639 Clear 7 1031 28 10000 3 300 08:59 17.01.2021
3640 Clear 6 1031 28 10000 4 320 08:40 17.01.2021
3641 Clear 5 1035 38 10000 5 360 04:32 17.01.2021
3642 Clear 3 1036 56 10000 5 360 02:51 17.01.2021
3643 Rain 2 1036 69 10000 4 330 00:57 17.01.2021
3644 Clouds 1 1021 62 10000 4.42 346 00:21 17.01.2021
3645 Snow 1 1021 63 10000 4.42 346 23:52 16.01.2021
3646 Snow 1 1021 63 10000 4.26 350 23:22 16.01.2021
3647 Clear 1 1036 69 10000 5 340 22:53 16.01.2021
3648 Clear 1 1035 69 10000 5 340 22:19 16.01.2021
3649 Clear 1 1035 69 10000 6 350 21:45 16.01.2021
3650 Clear 2 1035 69 10000 5 350 21:22 16.01.2021
3651 Clear 2 1035 69 10000 5 350 20:47 16.01.2021
3652 Clear 2 1035 69 10000 5 350 20:23 16.01.2021
3653 Clear 2 1035 69 10000 6 360 19:48 16.01.2021
3654 Clear 2 1035 64 10000 6 350 19:29 16.01.2021
3655 Clear 2 1035 64 10000 6 360 18:45 16.01.2021
3656 Clear 2 1035 64 10000 6 360 18:26 16.01.2021
3657 Clear 2 1035 64 10000 6 360 17:50 16.01.2021
3658 Clear 2 1035 64 10000 6 360 17:30 16.01.2021
3659 Clear 2 1035 69 10000 6 10 16:50 16.01.2021
3660 Clear 2 1035 64 10000 7 360 16:31 16.01.2021
3661 Clear 2 1019 58 10000 4.81 7 15:54 16.01.2021
3662 Clear 2 1034 64 10000 6 10 15:33 16.01.2021
3663 Clouds 3 1033 64 10000 6 10 14:30 16.01.2021
3664 Clouds 3 1033 64 10000 6 10 14:30 16.01.2021
3665 Clouds 3 1033 64 10000 6 10 14:30 16.01.2021
3666 Clouds 3 1033 64 10000 6 10 13:50 16.01.2021
3667 Clouds 3 1033 64 10000 7 10 13:29 16.01.2021
3668 Clouds 3 1033 60 10000 6 10 12:46 16.01.2021
3669 Clouds 3 1032 65 10000 7 10 12:21 16.01.2021
3670 Clouds 3 1032 60 10000 8 10 11:49 16.01.2021
3671 Clouds 3 1031 65 10000 8 10 11:25 16.01.2021
3672 Clouds 4 1031 60 10000 7 10 10:47 16.01.2021
3673 Clouds 4 1031 56 10000 6 30 10:24 16.01.2021
3674 Clouds 5 1030 52 10000 8 10 09:39 16.01.2021
3675 Clouds 5 1030 52 10000 8 10 09:19 16.01.2021
3676 Clouds 6 1029 52 10000 7 10 07:50 16.01.2021
3677 Clouds 8 1029 45 10000 7 10 06:44 16.01.2021
3678 Clouds 7 1030 52 10000 7 10 04:40 16.01.2021
3679 Clouds 6 1030 60 10000 8 10 02:56 16.01.2021
3680 Clouds 4 1029 65 10000 8 10 00:51 16.01.2021
3681 Clouds 4 1029 65 10000 6 20 00:29 16.01.2021
3682 Clouds 4 1029 65 10000 7 10 23:58 15.01.2021
3683 Clouds 4 1028 70 10000 7 10 23:22 15.01.2021
3684 Clouds 5 1027 65 10000 9 10 22:25 15.01.2021
3685 Clouds 5 1027 65 10000 10 20 21:46 15.01.2021
3686 Clouds 5 1026 70 10000 9 360 21:21 15.01.2021
3687 Clouds 5 1026 75 10000 7 10 20:41 15.01.2021
3688 Clouds 5 1026 75 10000 7 10 20:22 15.01.2021
3689 Clouds 6 1024 70 10000 6 40 19:41 15.01.2021
3690 Clouds 6 1024 70 10000 6 40 19:22 15.01.2021
3691 Clouds 6 1025 70 8000 6 10 18:44 15.01.2021
3692 Clouds 6 1026 75 8000 8 20 18:19 15.01.2021
3693 Clouds 6 1026 75 7000 7 360 17:52 15.01.2021
3694 Clouds 7 1025 75 7000 7 10 17:26 15.01.2021
3695 Clouds 7 1025 76 6000 7 10 16:54 15.01.2021
3696 Clouds 7 1024 76 6000 7 10 16:25 15.01.2021
3697 Mist 7 1023 81 5000 8 10 15:43 15.01.2021
3698 Mist 7 1024 81 5000 8 10 15:23 15.01.2021
3699 Mist 8 1023 81 5000 9 20 14:51 15.01.2021
3700 Mist 8 1022 81 5000 10 10 14:28 15.01.2021
3701 Mist 8 1022 76 5000 11 20 13:44 15.01.2021
3702 Haze 8 1021 71 5000 9 360 13:24 15.01.2021
3703 Clear 9 1020 57 6000 8 10 12:59 15.01.2021
3704 Clear 10 1020 53 6000 8 10 12:36 15.01.2021
3705 Clear 10 1020 53 6000 8 10 12:18 15.01.2021
3706 Clear 10 1019 50 6000 9 10 11:41 15.01.2021
3707 Clear 11 1018 43 6000 9 10 10:58 15.01.2021
3708 Clear 13 1017 41 6000 10 10 10:39 15.01.2021
3709 Clear 13 1017 41 6000 10 10 10:19 15.01.2021
3710 Clear 13 1017 41 6000 10 10 10:19 15.01.2021
3711 Clear 16 1016 25 10000 5 330 09:46 15.01.2021
3712 Clear 17 1016 22 10000 6 330 09:27 15.01.2021
3713 Clear 21 1015 16 10000 4 330 08:27 15.01.2021
3714 Clear 21 1015 16 10000 2 330 07:41 15.01.2021
3715 Clear 21 1015 16 10000 2 330 07:21 15.01.2021
3716 Clear 18 1016 27 10000 5 300 05:36 15.01.2021
3717 Clear 12 1017 62 10000 3 210 02:19 15.01.2021
3718 Clear 8 1016 81 10000 2 180 00:20 15.01.2021
3719 Clear 9 1016 93 10000 1 170 23:29 14.01.2021
3720 Clear 9 1016 93 10000 1 160 22:50 14.01.2021
3721 Clear 10 1016 87 10000 2 170 22:27 14.01.2021
3722 Clear 10 1015 87 10000 3 160 21:56 14.01.2021
3723 Clear 10 1016 81 10000 3 160 21:37 14.01.2021
3724 Clear 10 1016 81 10000 3 160 21:19 14.01.2021
3725 Clear 11 1017 76 10000 3 160 20:42 14.01.2021
3726 Clear 11 1017 81 10000 3 160 19:54 14.01.2021
3727 Clear 11 1017 81 10000 3 160 19:35 14.01.2021
3728 Clear 10 1017 81 10000 4 150 18:56 14.01.2021
3729 Clear 11 1017 81 10000 4 150 18:34 14.01.2021
3730 Clear 11 1017 76 10000 2 150 17:54 14.01.2021
3731 Clear 11 1017 76 10000 4 160 17:28 14.01.2021
3732 Clear 11 1016 76 10000 5 150 16:54 14.01.2021
3733 Clear 11 1016 76 10000 6 160 16:27 14.01.2021
3734 Clear 11 1016 76 10000 6 160 16:27 14.01.2021
3735 Clear 11 1017 76 10000 5 150 15:52 14.01.2021
3736 Clear 11 1017 71 10000 4 150 15:27 14.01.2021
3737 Clear 11 1017 66 10000 4 150 14:41 14.01.2021
3738 Clear 11 1017 66 10000 4 150 14:21 14.01.2021
3739 Clear 11 1016 62 10000 4 150 13:54 14.01.2021
3740 Clear 11 1017 50 10000 5 160 13:23 14.01.2021
3741 Clear 11 1017 43 10000 2 150 12:56 14.01.2021
3742 Clear 11 1017 37 10000 2 150 12:21 14.01.2021
3743 Clear 12 1017 32 10000 3 160 11:53 14.01.2021
3744 Clear 13 1017 30 10000 3 160 11:25 14.01.2021
3745 Clear 13 1017 28 10000 4 150 10:57 14.01.2021
3746 Clear 13 1017 24 10000 4 150 10:38 14.01.2021
3747 Clear 14 1017 24 10000 4 150 10:18 14.01.2021
3748 Clear 16 1016 20 10000 5 160 09:41 14.01.2021
3749 Clear 17 1016 20 10000 5 160 09:19 14.01.2021
3750 Clear 18 1016 16 10000 5 180 08:28 14.01.2021
3751 Clear 19 1016 15 10000 5 150 07:51 14.01.2021
3752 Clear 18 1016 19 10000 4 160 07:28 14.01.2021
3753 Clear 18 1017 20 10000 4 170 06:24 14.01.2021
3754 Clear 11 1020 37 10000 2 190 02:51 14.01.2021
3755 Clear 6 1020 80 10000 1.36 200 23:56 13.01.2021
3756 Clear 6 1020 75 10000 1 180 23:24 13.01.2021
3757 Clear 4 1020 87 10000 1 160 22:40 13.01.2021
3758 Clear 4 1020 87 10000 1 160 22:18 13.01.2021
3759 Clear 4 1019 75 10000 1 0 21:42 13.01.2021
3760 Clear 4 1019 75 10000 1 0 21:19 13.01.2021
3761 Clear 4 1019 75 10000 1 210 20:43 13.01.2021
3762 Clear 5 1019 75 10000 1 210 20:20 13.01.2021
3763 Clear 5 1020 70 10000 1 180 19:43 13.01.2021
3764 Clear 6 1020 70 10000 1 180 19:22 13.01.2021
3765 Clear 5 1020 60 10000 1 200 18:42 13.01.2021
3766 Clear 6 1020 60 10000 1 200 18:18 13.01.2021
3767 Clear 6 1020 52 10000 1 0 17:40 13.01.2021
3768 Clear 8 1020 52 10000 1 0 17:18 13.01.2021
3769 Clear 8 1019 49 10000 2 180 16:36 13.01.2021
3770 Clear 8 1019 49 10000 2 180 16:18 13.01.2021
3771 Clear 8 1019 45 10000 2 170 15:40 13.01.2021
3772 Clear 8 1019 42 10000 1 0 14:56 13.01.2021
3773 Clear 9 1019 45 10000 2 180 14:21 13.01.2021
3774 Clear 9 1019 42 10000 2 190 13:37 13.01.2021
3775 Clear 10 1018 37 10000 2 180 13:18 13.01.2021
3776 Clear 9 1019 42 10000 2 190 13:18 13.01.2021
3777 Clear 10 1018 37 10000 2 180 12:43 13.01.2021
3778 Clear 11 1018 37 10000 3 180 12:22 13.01.2021
3779 Clear 11 1018 37 10000 3 190 11:47 13.01.2021
3780 Clear 12 1017 34 10000 3 180 11:26 13.01.2021
3781 Clear 12 1017 26 10000 3 190 10:46 13.01.2021
3782 Clear 13 1017 24 10000 3 210 10:25 13.01.2021
3783 Clear 15 1016 18 10000 4 220 09:40 13.01.2021
3784 Clear 15 1016 18 10000 3 220 08:57 13.01.2021
3785 Clear 15 1016 17 10000 3 230 08:33 13.01.2021
3786 Clear 15 1016 17 10000 3 260 07:56 13.01.2021
3787 Clear 15 1016 18 10000 3 230 07:27 13.01.2021
3788 Clear 12 1018 22 10000 4 240 04:22 13.01.2021
3789 Clear 11 1019 24 10000 5 220 03:54 13.01.2021
3790 Clear 11 1019 25 10000 5 220 03:33 13.01.2021
3791 Clear 9 1019 27 10000 5 210 02:53 13.01.2021
3792 Clear 4 1019 51 10000 2 190 00:38 13.01.2021
3793 Clear 4 1019 60 10000 2 190 23:33 12.01.2021
3794 Clear 4 1019 64 10000 3 190 22:47 12.01.2021
3795 Clear 4 1019 64 10000 3 190 22:25 12.01.2021
3796 Clear 3 1019 64 10000 3 180 21:54 12.01.2021
3797 Clear 4 1019 55 10000 3 170 21:35 12.01.2021
3798 Clear 4 1019 55 10000 3 170 21:35 12.01.2021
3799 Clear 4 1019 55 10000 3 170 20:57 12.01.2021
3800 Clear 4 1019 55 10000 3 170 20:38 12.01.2021
3801 Clear 4 1019 55 10000 3 170 20:20 12.01.2021
3802 Clear 4 1019 55 10000 3 180 19:39 12.01.2021
3803 Clear 4 1019 51 10000 3 180 18:53 12.01.2021
3804 Clear 4 1019 51 10000 3 180 18:25 12.01.2021
3805 Clear 4 1019 51 10000 3 190 17:56 12.01.2021
3806 Clear 4 1019 51 10000 3 200 17:32 12.01.2021
3807 Clear 4 1019 51 10000 3 180 16:44 12.01.2021
3808 Clear 5 1020 44 10000 3 180 16:26 12.01.2021
3809 Clear 5 1020 41 10000 3 180 15:48 12.01.2021
3810 Clear 5 1020 41 10000 3 190 15:27 12.01.2021
3811 Clear 6 1020 38 10000 3 210 14:49 12.01.2021
3812 Clear 6 1020 36 10000 3 200 14:26 12.01.2021
3813 Clear 6 1020 38 10000 3 200 13:55 12.01.2021
3814 Clear 6 1020 38 10000 4 190 13:36 12.01.2021
3815 Clear 6 1020 38 10000 3 180 12:33 12.01.2021
3816 Clear 6 1020 33 10000 4 190 11:45 12.01.2021
3817 Clear 7 1020 28 10000 3 190 11:26 12.01.2021
3818 Clear 7 1020 23 10000 2 210 10:43 12.01.2021
3819 Clear 8 1020 19 10000 3 220 10:19 12.01.2021
3820 Clear 9 1020 18 10000 3 240 09:52 12.01.2021
3821 Clear 10 1020 18 10000 4 250 09:22 12.01.2021
3822 Clear 10 1020 17 10000 5 250 08:26 12.01.2021
3823 Clear 10 1021 17 10000 5 260 07:41 12.01.2021
3824 Clear 10 1021 17 10000 5 260 07:21 12.01.2021
3825 Clear 8 1022 18 10000 6 280 05:38 12.01.2021
3826 Clear 7 1025 28 10000 4 250 03:33 12.01.2021
3827 Clear 4 1025 41 10000 3 250 02:21 12.01.2021
3828 Clear 2 1025 51 10000 3 250 01:36 12.01.2021
3829 Clear 0 1025 69 10000 2 230 00:30 12.01.2021
3830 Clear -1 1025 69 10000 2 220 23:39 11.01.2021
3831 Clear -1 1025 69 10000 2 220 23:18 11.01.2021
3832 Clear 0 1025 69 10000 2 230 22:45 11.01.2021
3833 Clear 0 1025 64 10000 2 230 22:27 11.01.2021
3834 Clear 0 1026 69 10000 2 220 21:44 11.01.2021
3835 Clear 0 1026 69 10000 2 220 21:25 11.01.2021
3836 Clear 0 1026 69 10000 2 220 21:25 11.01.2021
3837 Clear 0 1026 59 10000 2 230 20:49 11.01.2021
3838 Clear 0 1027 64 10000 2 220 20:30 11.01.2021
3839 Clear 1 1027 51 10000 2 240 19:58 11.01.2021
3840 Clear 1 1027 40 10000 3 270 19:35 11.01.2021
3841 Clear 1 1028 40 10000 3 290 18:49 11.01.2021
3842 Clear 1 1028 40 10000 3 290 18:28 11.01.2021
3843 Clear 2 1028 38 10000 3 290 17:57 11.01.2021
3844 Clear 2 1028 40 10000 3 280 17:39 11.01.2021
3845 Clear 2 1028 40 10000 3 280 17:20 11.01.2021
3846 Clear 2 1028 38 10000 4 290 16:43 11.01.2021
3847 Clear 2 1028 38 10000 4 290 16:24 11.01.2021
3848 Clear 3 1029 35 10000 4 300 15:50 11.01.2021
3849 Clear 3 1029 35 10000 4 290 15:31 11.01.2021
3850 Clear 3 1028 35 10000 5 300 14:40 11.01.2021
3851 Clear 3 1028 35 10000 5 300 14:19 11.01.2021
3852 Clear 4 1028 35 10000 5 290 13:43 11.01.2021
3853 Clear 4 1028 33 10000 3 280 13:19 11.01.2021
3854 Clear 4 1028 33 10000 2 250 12:36 11.01.2021
3855 Clear 4 1028 30 10000 2 230 11:58 11.01.2021
3856 Clear 4 1028 30 10000 3 260 11:36 11.01.2021
3857 Clear 5 1028 26 10000 4 280 10:53 11.01.2021
3858 Clear 5 1027 28 10000 4 280 10:27 11.01.2021
3859 Clear 5 1027 26 10000 6 280 09:45 11.01.2021
3860 Clear 6 1027 24 10000 5 270 09:23 11.01.2021
3861 Clear 6 1027 22 10000 5 280 08:46 11.01.2021
3862 Clear 7 1027 23 10000 6 290 08:19 11.01.2021
3863 Clear 7 1027 24 10000 4 290 07:30 11.01.2021
3864 Clear 6 1027 24 10000 4 290 06:59 11.01.2021
3865 Clear 6 1028 21 10000 5 290 06:26 11.01.2021
3866 Clear 2 1031 48 10000 1 0 01:53 11.01.2021
3867 Clear 1 1031 51 10000 3 290 00:38 11.01.2021
3868 Clear 1 1032 51 10000 4 300 23:43 10.01.2021
3869 Clouds 0 1016 39 10000 0.45 358 22:49 10.01.2021
3870 Clear 0 1031 64 10000 2 260 22:27 10.01.2021
3871 Clouds 1 1016 34 10000 1.99 277 21:46 10.01.2021
3872 Clear 1 1030 55 10000 1 190 21:22 10.01.2021
3873 Clear 1 1030 59 10000 1 350 20:57 10.01.2021
3874 Clear 1 1031 59 10000 2 350 20:33 10.01.2021
3875 Clear 1 1031 51 10000 2 10 20:00 10.01.2021
3876 Clear 1 1032 51 10000 3 350 19:38 10.01.2021
3877 Clear 2 1032 51 10000 3 350 19:20 10.01.2021
3878 Clear 2 1032 51 10000 2 20 18:42 10.01.2021
3879 Clear 2 1032 51 10000 2 20 18:19 10.01.2021
3880 Clear 2 1033 51 10000 2 360 17:22 10.01.2021
3881 Clear 2 1032 51 10000 2 360 16:43 10.01.2021
3882 Clear 2 1032 51 10000 2 360 16:25 10.01.2021
3883 Clear 2 1032 47 10000 3 360 15:26 10.01.2021
3884 Clear 2 1031 41 10000 3 10 14:52 10.01.2021
3885 Clear 2 1032 35 10000 3 350 14:34 10.01.2021
3886 Clear 2 1031 38 10000 3 350 13:55 10.01.2021
3887 Clear 2 1031 35 10000 2 330 13:37 10.01.2021
3888 Clear 2 1031 35 10000 2 330 13:19 10.01.2021
3889 Clear 2 1031 38 10000 2 350 12:50 10.01.2021
3890 Clear 2 1030 35 10000 2 10 12:32 10.01.2021
3891 Clear 3 1030 35 10000 3 10 11:44 10.01.2021
3892 Clear 3 1030 32 10000 4 360 11:19 10.01.2021
3893 Clear 3 1030 28 10000 5 360 10:42 10.01.2021
3894 Clear 3 1030 28 10000 5 360 10:21 10.01.2021
3895 Clear 4 1029 19 10000 5 340 09:28 10.01.2021
3896 Clear 6 1029 22 10000 4 330 08:22 10.01.2021
3897 Clear 5 1029 19 10000 4 330 07:33 10.01.2021
3898 Clear 5 1029 21 10000 6 350 06:20 10.01.2021
3899 Clear 5 1031 22 10000 4 320 05:38 10.01.2021
3900 Clear 4 1032 28 10000 2 330 03:55 10.01.2021
3901 Clear 1 1032 64 10000 1 0 01:29 10.01.2021
3902 Clear -2 1031 74 10000 1 190 23:55 09.01.2021
3903 Clear -2 1031 74 10000 1 210 23:36 09.01.2021
3904 Clear -2 1031 74 10000 1 210 22:49 09.01.2021
3905 Clear -2 1031 74 10000 1 0 22:19 09.01.2021
3906 Clear -2 1031 68 10000 1 190 21:57 09.01.2021
3907 Clear -2 1031 63 10000 1.15 303 21:39 09.01.2021
3908 Clear -1 1031 63 10000 1.42 283 21:19 09.01.2021
3909 Clear -2 1031 63 10000 1 180 20:44 09.01.2021
3910 Clear -1 1032 59 10000 1 0 19:45 09.01.2021
3911 Clear -1 1032 59 10000 1 0 19:45 09.01.2021
3912 Clear -1 1032 59 10000 1 0 19:23 09.01.2021
3913 Clear -1 1032 59 10000 1 0 18:56 09.01.2021
3914 Clear -1 1031 54 10000 1 0 18:34 09.01.2021
3915 Clear -1 1031 59 10000 1 0 17:50 09.01.2021
3916 Clear -1 1031 43 10000 2 280 17:31 09.01.2021
3917 Clear 0 1031 47 10000 2 250 16:36 09.01.2021
3918 Clear 0 1030 47 10000 2 260 15:53 09.01.2021
3919 Clear 0 1030 47 10000 3 240 15:33 09.01.2021
3920 Clear 0 1030 37 10000 2 10 14:42 09.01.2021
3921 Clear 1 1030 37 10000 2 10 14:21 09.01.2021
3922 Clear 0 1030 29 10000 1 340 13:50 09.01.2021
3923 Clear 0 1030 29 10000 1 0 13:31 09.01.2021
3924 Clear 1 1030 32 10000 2 350 12:55 09.01.2021
3925 Clear 1 1030 27 10000 2 330 12:26 09.01.2021
3926 Clear 1 1030 23 10000 3 300 11:56 09.01.2021
3927 Clear 2 1030 25 10000 2 260 11:35 09.01.2021
3928 Clear 2 1030 23 10000 3 280 10:55 09.01.2021
3929 Clear 2 1030 20 10000 3 310 10:36 09.01.2021
3930 Clear 3 1029 20 10000 4 290 09:54 09.01.2021
3931 Clear 3 1029 20 10000 5 330 09:29 09.01.2021
3932 Clear 4 1028 17 10000 5 350 08:47 09.01.2021
3933 Clear 4 1029 17 10000 5 320 07:38 09.01.2021
3934 Clear 4 1029 17 10000 5 320 07:38 09.01.2021
3935 Clear 4 1030 17 10000 5 340 06:40 09.01.2021
3936 Clear 2 1032 18 10000 6 320 04:53 09.01.2021
3937 Clear 1 1032 23 10000 5 320 03:25 09.01.2021
3938 Clear 0 1032 37 10000 4 310 02:32 09.01.2021
3939 Clear -1 1032 40 10000 3 310 01:54 09.01.2021
3940 Clear -3 1032 50 10000 3 300 00:37 09.01.2021
3941 Clear -4 1032 50 10000 3 280 23:59 08.01.2021
3942 Clear -4 1032 50 10000 3 290 23:19 08.01.2021
3943 Clear -4 1031 50 10000 3 280 22:19 08.01.2021
3944 Clear -4 1031 50 10000 3 290 21:44 08.01.2021
3945 Clear -4 1031 58 10000 2 250 20:49 08.01.2021
3946 Clear -4 1031 50 10000 2 250 20:25 08.01.2021
3947 Clear -4 1032 50 10000 2 250 19:55 08.01.2021
3948 Clear -4 1032 50 10000 2 250 19:22 08.01.2021
3949 Clear -4 1032 50 10000 2 260 18:36 08.01.2021
3950 Clear -4 1032 50 10000 2 260 18:18 08.01.2021
3951 Clear -3 1032 43 10000 4 310 17:44 08.01.2021
3952 Clear -3 1032 43 10000 4 310 17:20 08.01.2021
3953 Clear -3 1032 43 10000 4 320 16:33 08.01.2021
3954 Clear -3 1032 43 10000 3 270 15:43 08.01.2021
3955 Clear -3 1032 39 10000 3 280 14:51 08.01.2021
3956 Clear -3 1032 37 10000 3 280 14:32 08.01.2021
3957 Clear -3 1031 37 10000 3 290 13:39 08.01.2021
3958 Clear -2 1031 37 10000 3 290 13:18 08.01.2021
3959 Clear -2 1031 37 10000 3 290 13:18 08.01.2021
3960 Clear -2 1032 34 10000 4 290 12:42 08.01.2021
3961 Clear -2 1032 34 10000 4 290 12:19 08.01.2021
3962 Clear -2 1031 31 10000 5 290 11:42 08.01.2021
3963 Clear -2 1031 31 10000 5 290 11:22 08.01.2021
3964 Clear -2 1031 29 10000 5 310 10:46 08.01.2021
3965 Clear -2 1031 29 10000 6 300 10:24 08.01.2021
3966 Clear -1 1031 24 10000 6 310 09:43 08.01.2021
3967 Clear 0 1031 24 10000 6 300 09:21 08.01.2021
3968 Clear 0 1031 24 10000 8 300 07:56 08.01.2021
3969 Clear -1 1031 24 10000 7 300 07:25 08.01.2021
3970 Clear -2 1034 28 10000 6 300 04:20 08.01.2021
3971 Clear -7 1035 42 10000 5 310 23:45 07.01.2021
3972 Clear -7 1035 38 10000 6 320 23:27 07.01.2021
3973 Clear -7 1035 38 10000 6 320 22:38 07.01.2021
3974 Clear -7 1035 38 10000 7 320 21:53 07.01.2021
3975 Clear -7 1035 35 10000 7 310 21:34 07.01.2021
3976 Clear -7 1035 38 10000 6 320 20:57 07.01.2021
3977 Clear -7 1035 38 10000 7 320 20:38 07.01.2021
3978 Clear -7 1035 38 10000 7 320 20:18 07.01.2021
3979 Clear -7 1035 38 10000 7 330 19:38 07.01.2021
3980 Clear -7 1036 38 10000 7 320 18:50 07.01.2021
3981 Clear -7 1036 38 10000 7 320 18:22 07.01.2021
3982 Clear -7 1036 35 10000 7 320 17:36 07.01.2021
3983 Clear -7 1036 35 10000 7 320 17:18 07.01.2021
3984 Clear -7 1036 35 10000 7 330 16:45 07.01.2021
3985 Clear -7 1036 35 10000 8 330 16:20 07.01.2021
3986 Clear -6 1036 35 10000 7 320 15:31 07.01.2021
3987 Clear -7 1036 35 10000 7 320 14:42 07.01.2021
3988 Clear -7 1036 35 10000 7 320 14:22 07.01.2021
3989 Clear -6 1036 33 10000 8 330 13:31 07.01.2021
3990 Clouds -6 1020 21 10000 1.34 314 12:57 07.01.2021
3991 Clear -6 1035 37 10000 7 330 12:29 07.01.2021
3992 Clear -6 1035 37 10000 7 340 11:48 07.01.2021
3993 Clear -6 1034 34 10000 7 320 11:29 07.01.2021
3994 Clear -5 1034 29 10000 6 320 10:39 07.01.2021
3995 Clear -5 1034 29 10000 7 330 10:19 07.01.2021
3996 Clear -5 1034 27 10000 8 330 09:42 07.01.2021
3997 Clear -4 1034 24 10000 9 320 08:53 07.01.2021
3998 Clear -4 1034 25 10000 8 320 08:24 07.01.2021
3999 Clear -3 1034 25 10000 9 320 07:43 07.01.2021
4000 Clear -3 1034 29 10000 9 350 06:51 07.01.2021
4001 Clear -3 1037 35 10000 7 340 03:18 07.01.2021
4002 Clouds -4 1034 41 10000 9 360 00:25 07.01.2021
4003 Clouds -3 1034 53 10000 9 360 23:35 06.01.2021
4004 Clouds -2 1033 58 10000 10 360 22:36 06.01.2021
4005 Snow -1 1033 58 10000 9 10 21:42 06.01.2021
4006 Clouds -1 1033 63 10000 10 10 21:22 06.01.2021
4007 Snow -1 1033 63 10000 10 10 20:47 06.01.2021
4008 Snow 0 1032 84 10000 9 360 20:22 06.01.2021
4009 Clear 0 1032 64 10000 10 10 19:48 06.01.2021
4010 Clear 1 1032 64 10000 10 10 19:28 06.01.2021
4011 Clear 1 1031 64 10000 10 20 18:46 06.01.2021
4012 Clear 2 1031 51 10000 7 350 18:28 06.01.2021
4013 Rain 2 1031 47 10000 7 340 17:46 06.01.2021
4014 Rain 2 1031 44 10000 8 350 17:27 06.01.2021
4015 Rain 3 1031 44 10000 8 350 16:57 06.01.2021
4016 Rain 3 1030 59 10000 8 350 16:21 06.01.2021
4017 Rain 3 1030 59 10000 8 350 15:59 06.01.2021
4018 Clouds 3 1030 60 10000 6 360 15:35 06.01.2021
4019 Rain 4 1029 55 10000 6 330 14:58 06.01.2021
4020 Rain 4 1029 55 10000 6 330 14:30 06.01.2021
4021 Clear 4 1029 55 10000 4 320 13:51 06.01.2021
4022 Rain 4 1029 55 10000 5 330 13:25 06.01.2021
4023 Clear 4 1028 55 10000 4 340 12:54 06.01.2021
4024 Clear 4 1028 55 10000 4 340 12:30 06.01.2021
4025 Clear 4 1028 51 10000 4 340 11:44 06.01.2021
4026 Clear 5 1027 55 10000 4 330 11:21 06.01.2021
4027 Clear 5 1027 51 10000 3 330 10:35 06.01.2021
4028 Clear 5 1026 48 10000 4 350 09:52 06.01.2021
4029 Clear 5 1026 52 10000 4 10 09:22 06.01.2021
4030 Rain 6 1026 52 10000 4 360 08:42 06.01.2021
4031 Rain 5 1026 56 10000 4 360 08:18 06.01.2021
4032 Clear 6 1026 52 10000 4 350 07:41 06.01.2021
4033 Clear 6 1027 56 10000 2 20 05:53 06.01.2021
4034 Clear 6 1029 56 10000 3 20 04:43 06.01.2021
4035 Clear 5 1030 55 10000 5 30 02:47 06.01.2021
4036 Clear 4 1030 55 10000 4 40 02:26 06.01.2021
4037 Clear 4 1031 64 10000 5 10 01:35 06.01.2021
4038 Rain 4 1029 69 10000 4 10 23:39 05.01.2021
4039 Rain 4 1029 64 10000 3 30 22:51 05.01.2021
4040 Rain 4 1029 64 10000 4 50 22:32 05.01.2021
4041 Clear 3 1029 64 10000 4 50 21:58 05.01.2021
4042 Clear 4 1030 60 10000 5 10 21:18 05.01.2021
4043 Clear 4 1030 60 10000 4 20 20:29 05.01.2021
4044 Rain 4 1031 64 10000 6 10 19:45 05.01.2021
4045 Rain 4 1031 64 10000 6 10 19:23 05.01.2021
4046 Rain 4 1031 64 10000 6 10 18:46 05.01.2021
4047 Rain 4 1031 69 10000 7 10 18:26 05.01.2021
4048 Rain 5 1031 69 10000 7 10 17:52 05.01.2021
4049 Rain 5 1031 69 10000 7 10 17:31 05.01.2021
4050 Clear 5 1032 69 10000 7 360 16:53 05.01.2021
4051 Clear 5 1032 65 10000 6 10 16:23 05.01.2021
4052 Clear 5 1032 65 10000 6 10 15:52 05.01.2021
4053 Clear 5 1032 65 10000 6 10 15:29 05.01.2021
4054 Clouds 6 1032 65 10000 6 360 14:47 05.01.2021
4055 Clouds 6 1032 64 10000 5 30 13:55 05.01.2021
4056 Clouds 6 1032 64 10000 5 30 13:35 05.01.2021
4057 Clouds 6 1031 60 10000 5 50 12:51 05.01.2021
4058 Clouds 6 1031 60 10000 6 30 12:29 05.01.2021
4059 Clouds 6 1031 63 10000 5 40 11:49 05.01.2021
4060 Clouds 6 1030 63 10000 6 40 11:24 05.01.2021
4061 Clouds 6 1030 63 10000 6 40 11:24 05.01.2021
4062 Clouds 6 1030 63 10000 7 20 10:44 05.01.2021
4063 Clouds 6 1030 62 10000 7 30 09:58 05.01.2021
4064 Clouds 6 1029 62 10000 8 30 09:38 05.01.2021
4065 Clouds 7 1029 65 10000 7 30 08:42 05.01.2021
4066 Clouds 7 1028 65 10000 6 30 08:18 05.01.2021
4067 Clouds 8 1029 70 8000 8 20 05:29 05.01.2021
4068 Clouds 8 1030 81 10000 8 30 02:37 05.01.2021
4069 Clouds 8 1028 70 10000 5 30 00:22 05.01.2021
4070 Clouds 8 1028 70 10000 5 30 23:39 04.01.2021
4071 Clouds 8 1027 70 10000 5 40 23:20 04.01.2021
4072 Clouds 8 1027 70 10000 5 30 22:44 04.01.2021
4073 Clouds 8 1028 70 10000 5 30 21:57 04.01.2021
4074 Clouds 8 1027 75 10000 5 40 21:38 04.01.2021
4075 Clouds 8 1027 81 10000 5 40 20:56 04.01.2021
4076 Clouds 8 1027 81 10000 5 40 20:34 04.01.2021
4077 Clouds 8 1027 81 10000 5 50 19:55 04.01.2021
4078 Clouds 8 1027 81 10000 5 50 19:31 04.01.2021
4079 Clouds 8 1028 81 10000 5 50 18:58 04.01.2021
4080 Clouds 8 1028 87 10000 4 40 18:31 04.01.2021
4081 Clouds 9 1028 87 10000 5 40 17:46 04.01.2021
4082 Clouds 9 1028 81 10000 4 30 17:27 04.01.2021
4083 Clouds 9 1028 87 10000 3 40 16:48 04.01.2021
4084 Clouds 9 1028 87 10000 3 20 16:28 04.01.2021
4085 Clouds 9 1028 87 10000 3 20 15:52 04.01.2021
4086 Clouds 9 1028 87 10000 4 10 15:34 04.01.2021
4087 Clouds 9 1028 87 10000 4 10 14:50 04.01.2021
4088 Clouds 9 1028 81 10000 2 30 13:51 04.01.2021
4089 Clouds 9 1027 81 10000 3 60 13:26 04.01.2021
4090 Clouds 9 1027 81 7000 4 50 12:49 04.01.2021
4091 Clouds 9 1027 87 7000 4 50 11:59 04.01.2021
4092 Clouds 8 1027 87 7000 4 50 11:29 04.01.2021
4093 Rain 9 1027 87 7000 2 60 10:54 04.01.2021
4094 Rain 9 1027 81 8000 2 50 10:29 04.01.2021
4095 Clouds 9 1027 81 8000 2 50 09:58 04.01.2021
4096 Clouds 10 1026 76 8000 3 60 09:22 04.01.2021
4097 Clouds 10 1026 76 8000 4 90 08:47 04.01.2021
4098 Rain 10 1025 76 8000 4 80 08:18 04.01.2021
4099 Clouds 11 1025 62 10000 4 110 07:42 04.01.2021
4100 Clouds 13 1026 58 10000 3 90 05:33 04.01.2021
4101 Clear 13 1027 54 10000 5 140 04:30 04.01.2021
4102 Clear 8 1029 81 10000 2 120 00:47 04.01.2021
4103 Clear 8 1029 70 10000 2 110 23:49 03.01.2021
4104 Clear 8 1028 70 10000 2 70 23:24 03.01.2021
4105 Clear 8 1028 70 10000 2 70 22:56 03.01.2021
4106 Clear 8 1028 75 10000 2 90 22:32 03.01.2021
4107 Clear 8 1028 75 10000 2 60 21:55 03.01.2021
4108 Clear 8 1028 75 10000 3 70 21:29 03.01.2021
4109 Clear 8 1029 75 10000 3 50 20:49 03.01.2021
4110 Clear 8 1029 75 10000 3 50 20:31 03.01.2021
4111 Clear 8 1028 75 10000 4 70 19:56 03.01.2021
4112 Clear 8 1029 75 10000 3 100 19:35 03.01.2021
4113 Clear 8 1030 75 10000 2 80 18:57 03.01.2021
4114 Clear 8 1030 75 10000 2 50 18:38 03.01.2021
4115 Clear 8 1031 75 10000 3 40 18:18 03.01.2021
4116 Clear 8 1031 70 10000 2 40 17:41 03.01.2021
4117 Clear 8 1031 66 10000 2 70 17:22 03.01.2021
4118 Clear 8 1030 70 10000 3 80 16:42 03.01.2021
4119 Clear 8 1030 70 10000 3 70 16:19 03.01.2021
4120 Clear 8 1030 70 10000 3 70 15:46 03.01.2021
4121 Clear 8 1030 66 10000 3 80 15:26 03.01.2021
4122 Clouds 8 1030 66 10000 3 80 14:50 03.01.2021
4123 Clouds 8 1030 66 10000 3 80 14:27 03.01.2021
4124 Clouds 8 1031 66 10000 4 60 13:40 03.01.2021
4125 Clouds 8 1030 70 10000 3 60 13:21 03.01.2021
4126 Clear 8 1030 65 10000 3 70 12:24 03.01.2021
4127 Clouds 8 1029 61 10000 4 80 11:40 03.01.2021
4128 Clouds 8 1029 61 10000 5 90 11:22 03.01.2021
4129 Clouds 8 1029 61 10000 5 90 10:34 03.01.2021
4130 Clouds 9 1029 61 10000 6 90 09:55 03.01.2021
4131 Clouds 9 1029 53 10000 5 110 09:33 03.01.2021
4132 Clouds 10 1029 50 10000 5 100 08:34 03.01.2021
4133 Clouds 11 1028 50 10000 5 100 07:24 03.01.2021
4134 Clouds 9 1030 66 10000 5 60 05:23 03.01.2021
4135 Clouds 7 1032 65 10000 3 60 02:26 03.01.2021
4136 Clouds 5 1031 80 6000 3 60 00:54 03.01.2021
4137 Mist 3 1031 74 4000 3 10 23:53 02.01.2021
4138 Mist 2 1031 73 4000 1 0 23:20 02.01.2021
4139 Mist 2 1031 73 4000 2 350 22:48 02.01.2021
4140 Mist 3 1031 71 4000 2 350 22:29 02.01.2021
4141 Mist 1 1031 71 4000 3 10 21:49 02.01.2021
4142 Mist 1 1031 71 4000 3 10 21:29 02.01.2021
4143 Clear 1 1032 71 6000 3 350 20:45 02.01.2021
4144 Clear 0 1031 71 7000 2 360 20:25 02.01.2021
4145 Clear 0 1032 71 7000 3 360 19:47 02.01.2021
4146 Clouds 0 1032 70 7000 2 10 19:20 02.01.2021
4147 Clouds 1 1032 86 8000 1 180 18:47 02.01.2021
4148 Clouds 1 1032 80 8000 1 0 18:29 02.01.2021
4149 Clear 2 1032 80 10000 2 320 17:46 02.01.2021
4150 Clear 2 1031 80 10000 1 10 17:28 02.01.2021
4151 Clear 2 1031 80 10000 1 10 16:44 02.01.2021
4152 Clear 2 1031 67 10000 1.63 75 16:21 02.01.2021
4153 Clear 3 1031 67 10000 2 40 15:44 02.01.2021
4154 Clear 3 1031 74 10000 3 30 15:25 02.01.2021
4155 Clear 3 1031 80 10000 3 30 14:39 02.01.2021
4156 Clear 4 1031 69 10000 3 40 14:21 02.01.2021
4157 Clear 4 1031 64 10000 2 60 13:40 02.01.2021
4158 Clear 4 1030 60 10000 3 90 12:54 02.01.2021
4159 Clear 5 1030 60 10000 3 90 12:32 02.01.2021
4160 Clear 5 1030 52 10000 2 80 11:57 02.01.2021
4161 Clear 5 1029 45 10000 2 70 11:22 02.01.2021
4162 Clear 6 1029 45 10000 2 70 10:56 02.01.2021
4163 Clear 6 1030 45 10000 3 60 10:31 02.01.2021
4164 Clear 6 1029 36 10000 5 60 09:54 02.01.2021
4165 Clear 7 1029 36 10000 5 60 09:28 02.01.2021
4166 Clear 7 1029 33 10000 5 30 08:51 02.01.2021
4167 Clear 7 1029 33 10000 5 30 08:28 02.01.2021
4168 Clear 7 1029 33 10000 4 360 07:49 02.01.2021
4169 Clear 7 1029 36 10000 3 0 07:22 02.01.2021
4170 Clear 7 1029 36 10000 3 350 06:46 02.01.2021
4171 Clear 6 1030 38 10000 3 360 05:45 02.01.2021
4172 Clear -1 1030 74 10000 1.4 322 00:59 02.01.2021
4173 Clear 0 1030 79 10000 1 170 00:37 02.01.2021
4174 Clear -2 1030 79 10000 1 170 23:56 01.01.2021
4175 Clear -1 1030 73 10000 1.55 327 23:21 01.01.2021
4176 Clear -2 1029 86 10000 1.55 327 22:47 01.01.2021
4177 Clear -1 1029 74 10000 1 220 22:25 01.01.2021
4178 Clear -2 1029 79 10000 1 220 21:44 01.01.2021
4179 Clear -2 1029 79 10000 1 200 21:22 01.01.2021
4180 Clear -2 1030 68 10000 1 200 20:53 01.01.2021
4181 Clear -1 1030 74 10000 2 220 20:22 01.01.2021
4182 Clear -1 1030 74 10000 1 220 19:43 01.01.2021
4183 Clear -1 1030 68 10000 1 200 19:24 01.01.2021
4184 Clear -1 1030 63 10000 1 190 18:59 01.01.2021
4185 Clear -1 1030 63 10000 1 190 18:40 01.01.2021
4186 Clear -1 1030 63 10000 1 190 18:19 01.01.2021
4187 Clear -1 1030 58 10000 1 0 17:42 01.01.2021
4188 Clear -1 1030 58 10000 1 0 17:18 01.01.2021
4189 Clear 0 1030 68 10000 1 0 16:40 01.01.2021
4190 Clear 0 1029 67 10000 1 0 15:56 01.01.2021
4191 Clear 0 1029 67 10000 1 0 15:37 01.01.2021
4192 Clear 0 1029 40 10000 1 0 14:42 01.01.2021
4193 Clear 0 1029 34 10000 1 0 14:19 01.01.2021
4194 Clear 0 1029 40 10000 1 0 13:37 01.01.2021
4195 Clear 1 1028 34 10000 1 0 12:48 01.01.2021
4196 Clear 2 1028 32 10000 1 0 12:25 01.01.2021
4197 Clear 2 1028 29 10000 1 0 11:39 01.01.2021
4198 Clear 2 1028 29 10000 2 280 11:18 01.01.2021
4199 Clear 3 1029 27 10000 2 280 10:50 01.01.2021
4200 Clear 4 1028 25 10000 3 280 09:51 01.01.2021
4201 Clear 4 1028 23 10000 2 260 09:23 01.01.2021
4202 Clear 5 1028 27 10000 2 240 08:30 01.01.2021
4203 Clear 3 1031 40 10000 3 240 05:50 01.01.2021
4204 Clear 2 1032 43 10000 3 290 04:47 01.01.2021
4205 Clear 0 1033 63 10000 1 0 01:39 01.01.2021
4206 Clear -3 1033 73 10000 2 240 00:32 01.01.2021
4207 Clear -3 1032 68 10000 2 280 23:38 31.12.2020
4208 Clear -3 1032 68 10000 1 0 23:20 31.12.2020
4209 Clear -3 1032 63 10000 2 300 22:41 31.12.2020
4210 Clear -3 1032 68 10000 2 270 22:21 31.12.2020
4211 Clear -2 1033 68 10000 2 270 21:50 31.12.2020
4212 Clear -3 1033 68 10000 2 270 21:31 31.12.2020
4213 Clear -3 1033 63 10000 2 230 20:57 31.12.2020
4214 Clear -2 1033 58 10000 3 300 20:24 31.12.2020
4215 Clear -2 1034 58 10000 3 320 19:49 31.12.2020
4216 Clear -2 1034 58 10000 3 320 19:31 31.12.2020
4217 Clear -2 1034 58 10000 3 300 18:50 31.12.2020
4218 Clear -2 1033 63 10000 2 230 18:25 31.12.2020
4219 Clear -2 1034 63 10000 2 240 17:46 31.12.2020
4220 Clear -2 1034 58 10000 2 250 17:25 31.12.2020
4221 Clear -2 1034 54 10000 2 240 16:45 31.12.2020
4222 Clear -2 1034 54 10000 2 260 16:27 31.12.2020
4223 Clear -2 1034 54 10000 2 260 15:57 31.12.2020
4224 Clear -2 1034 50 10000 2 240 15:38 31.12.2020
4225 Clear -1 1034 42 10000 2 240 15:18 31.12.2020
4226 Clear -1 1033 42 10000 2 260 14:39 31.12.2020
4227 Clear -1 1034 39 10000 3 310 14:21 31.12.2020
4228 Clear -1 1034 39 10000 2 290 13:42 31.12.2020
4229 Clear -1 1034 39 10000 3 320 13:24 31.12.2020
4230 Clear -1 1034 39 10000 3 300 12:55 31.12.2020
4231 Clear -1 1034 39 10000 3 300 12:55 31.12.2020
4232 Clear -1 1034 39 10000 3 300 12:36 31.12.2020
4233 Clear -1 1034 77 10000 4 300 11:53 31.12.2020
4234 Clear -1 1034 77 10000 4 300 11:32 31.12.2020
4235 Clear 0 1034 77 10000 5 320 10:50 31.12.2020
4236 Clear 0 1034 77 10000 5 320 10:30 31.12.2020
4237 Clear 0 1034 26 10000 5 320 09:58 31.12.2020
4238 Clear 1 1034 29 10000 5 300 09:38 31.12.2020
4239 Clear 1 1034 29 10000 5 300 09:18 31.12.2020
4240 Clear 1 1033 29 10000 5 330 08:45 31.12.2020
4241 Clear 1 1033 26 10000 7 320 08:27 31.12.2020
4242 Clear 1 1033 29 10000 7 330 07:33 31.12.2020
4243 Clear 0 1034 69 10000 7 330 06:29 31.12.2020
4244 Clear -1 1035 36 10000 7 330 05:29 31.12.2020
4245 Clear -3 1037 38 10000 7 330 02:57 31.12.2020
4246 Clear -4 1037 45 10000 6 310 02:25 31.12.2020
4247 Clear -4 1037 49 10000 6 310 01:46 31.12.2020
4248 Clear -5 1037 53 10000 5 310 01:27 31.12.2020
4249 Clear -5 1037 53 10000 5 310 01:27 31.12.2020
4250 Clear -5 1037 53 10000 6 310 00:48 31.12.2020
4251 Clear -6 1037 48 10000 6 320 23:52 30.12.2020
4252 Clear -6 1036 48 10000 6 310 23:20 30.12.2020
4253 Clear -6 1036 53 10000 5 320 22:49 30.12.2020
4254 Clear -6 1036 53 10000 5 320 22:30 30.12.2020
4255 Clear -6 1036 53 10000 6 320 21:46 30.12.2020
4256 Clear -6 1037 53 10000 6 320 21:24 30.12.2020
4257 Clear -6 1037 53 10000 6 320 20:51 30.12.2020
4258 Clear -6 1037 53 10000 5 320 20:22 30.12.2020
4259 Clear -6 1037 48 10000 6 320 19:41 30.12.2020
4260 Clear -6 1037 48 10000 8 320 19:23 30.12.2020
4261 Clear -6 1037 53 10000 6 320 18:47 30.12.2020
4262 Clear -6 1037 53 10000 6 320 18:29 30.12.2020
4263 Clear -6 1037 53 10000 6 320 17:52 30.12.2020
4264 Clear -6 1037 53 10000 7 330 17:33 30.12.2020
4265 Clear -5 1037 49 10000 8 330 16:58 30.12.2020
4266 Clear -5 1037 49 10000 7 330 16:33 30.12.2020
4267 Clear -5 1037 45 10000 10 330 15:48 30.12.2020
4268 Clear -5 1037 49 10000 7 330 15:25 30.12.2020
4269 Clear -5 1037 45 10000 9 330 14:44 30.12.2020
4270 Clear -5 1037 49 10000 8 320 14:24 30.12.2020
4271 Clear -4 1037 41 10000 8 330 13:42 30.12.2020
4272 Clear -4 1036 35 10000 10 320 12:43 30.12.2020
4273 Clear -4 1036 41 10000 9 330 12:21 30.12.2020
4274 Clear -4 1036 41 10000 8 330 11:36 30.12.2020
4275 Clear -3 1036 38 10000 10 330 11:18 30.12.2020
4276 Clear -3 1036 38 10000 10 320 10:49 30.12.2020
4277 Clear -3 1036 38 10000 10 320 10:27 30.12.2020
4278 Clear -3 1035 38 10000 11 340 09:50 30.12.2020
4279 Clear -3 1035 33 10000 11 330 09:28 30.12.2020
4280 Clear -2 1035 33 10000 11 340 08:28 30.12.2020
4281 Clear -2 1035 33 10000 11 340 07:29 30.12.2020
4282 Clear -2 1035 33 10000 11 320 06:52 30.12.2020
4283 Clear -2 1035 33 10000 11 320 06:30 30.12.2020
4284 Clear -2 1036 28 10000 11 330 05:43 30.12.2020
4285 Clear -3 1036 30 10000 12 330 05:24 30.12.2020
4286 Clear -2 1037 32 10000 10 320 03:28 30.12.2020
4287 Clear -3 1037 38 10000 10 320 02:40 30.12.2020
4288 Clear -3 1037 45 10000 9 320 01:56 30.12.2020
4289 Clear -3 1036 45 10000 9 320 01:32 30.12.2020
4290 Clear -4 1036 49 10000 9 320 00:48 30.12.2020
4291 Clear -4 1036 49 10000 9 320 00:29 30.12.2020
4292 Clear -4 1035 45 10000 10 320 23:54 29.12.2020
4293 Clear -4 1035 45 10000 10 320 23:35 29.12.2020
4294 Clear -3 1035 58 10000 8 330 22:56 29.12.2020
4295 Clear -3 1035 58 10000 8 330 22:37 29.12.2020
4296 Clear -3 1034 63 10000 9 320 22:19 29.12.2020
4297 Clouds -2 1034 68 10000 8 320 21:44 29.12.2020
4298 Clouds -2 1034 74 10000 8 340 21:24 29.12.2020
4299 Clouds -2 1034 74 10000 11 330 20:45 29.12.2020
4300 Clouds -1 1034 74 10000 11 320 20:25 29.12.2020
4301 Snow -1 1033 86 10000 9 330 19:46 29.12.2020
4302 Clouds -1 1033 86 10000 9 320 19:23 29.12.2020
4303 Clouds 0 1033 88 10000 9 330 18:54 29.12.2020
4304 Clouds 0 1033 87 10000 9 330 18:29 29.12.2020
4305 Snow 0 1033 87 10000 8 330 17:48 29.12.2020
4306 Snow 0 1032 90 10000 8 330 17:23 29.12.2020
4307 Snow 1 1032 90 6000 9 330 16:56 29.12.2020
4308 Snow 1 1032 90 8000 7 330 16:27 29.12.2020
4309 Snow 1 1032 90 8000 9 340 15:51 29.12.2020
4310 Snow 1 1032 90 8000 9 340 15:33 29.12.2020
4311 Rain 2 1031 93 10000 10 350 14:45 29.12.2020
4312 Snow 2 1030 93 10000 8 340 14:27 29.12.2020
4313 Snow 2 1029 93 7000 10 340 13:55 29.12.2020
4314 Rain 3 1028 86 10000 14 350 13:25 29.12.2020
4315 Rain 3 1027 93 10000 10 350 12:45 29.12.2020
4316 Rain 3 1027 93 10000 11 340 12:26 29.12.2020
4317 Rain 4 1025 86 10000 13 350 11:58 29.12.2020
4318 Rain 4 1025 86 10000 13 350 11:32 29.12.2020
4319 Rain 5 1023 87 10000 13 360 10:40 29.12.2020
4320 Rain 6 1021 93 8000 13 360 10:19 29.12.2020
4321 Rain 7 1020 93 6000 13 360 09:39 29.12.2020
4322 Rain 7 1019 93 6000 14 360 09:18 29.12.2020
4323 Rain 8 1019 100 4500 14 360 08:45 29.12.2020
4324 Rain 13 1016 93 7000 5 320 07:35 29.12.2020
4325 Rain 14 1017 87 6000 5 320 06:58 29.12.2020
4326 Rain 15 1017 77 10000 6 300 05:33 29.12.2020
4327 Clear 13 1017 93 10000 2 40 01:46 29.12.2020
4328 Clear 13 1018 93 10000 1.88 83 00:24 29.12.2020
4329 Clear 13 1018 93 10000 1.88 83 00:24 29.12.2020
4330 Clear 13 1018 93 10000 1.88 83 00:24 29.12.2020
4331 Clear 13 1017 87 10000 1 160 23:37 28.12.2020
4332 Clear 13 1017 87 10000 2 130 22:41 28.12.2020
4333 Clear 13 1017 93 10000 1 0 21:47 28.12.2020
4334 Clear 13 1017 93 10000 1 0 21:29 28.12.2020
4335 Clear 13 1018 87 10000 1.75 95 20:47 28.12.2020
4336 Clear 13 1018 87 10000 1 20 20:29 28.12.2020
4337 Clear 13 1018 87 10000 1 20 19:59 28.12.2020
4338 Clouds 13 1018 81 10000 1 60 19:40 28.12.2020
4339 Clouds 13 1018 81 10000 1 0 19:20 28.12.2020
4340 Clouds 13 1018 82 10000 1 80 18:44 28.12.2020
4341 Clouds 13 1018 76 10000 1 0 18:23 28.12.2020
4342 Clouds 13 1018 76 10000 1 0 17:39 28.12.2020
4343 Clouds 13 1018 76 10000 3 120 17:18 28.12.2020
4344 Clouds 13 1018 76 10000 4 130 16:32 28.12.2020
4345 Clouds 13 1019 67 10000 5 130 15:58 28.12.2020
4346 Clouds 13 1019 71 10000 5 150 15:36 28.12.2020
4347 Clouds 13 1019 76 10000 5 130 14:35 28.12.2020
4348 Clouds 13 1019 82 10000 5 100 13:49 28.12.2020
4349 Clouds 13 1019 76 10000 4 100 13:22 28.12.2020
4350 Clouds 13 1019 76 10000 4 100 12:29 28.12.2020
4351 Clouds 13 1020 76 10000 4 110 11:58 28.12.2020
4352 Clouds 14 1020 76 10000 3 120 11:39 28.12.2020
4353 Clouds 14 1020 72 10000 4 120 11:18 28.12.2020
4354 Clouds 14 1020 67 10000 3 120 10:29 28.12.2020
4355 Clouds 14 1019 67 10000 3 130 09:59 28.12.2020
4356 Clouds 14 1019 67 10000 3 120 09:38 28.12.2020
4357 Clouds 15 1019 59 10000 3 130 09:18 28.12.2020
4358 Clouds 16 1021 59 8000 5 140 06:54 28.12.2020
4359 Haze 15 1022 62 3000 4 120 05:25 28.12.2020
4360 Mist 12 1024 71 2000 3 120 03:51 28.12.2020
4361 Mist 10 1022 93 1200 2 70 01:56 28.12.2020
4362 Mist 7 1023 100 1200 1 0 23:58 27.12.2020
4363 Mist 6 1023 100 1200 2 220 23:35 27.12.2020
4364 Fog 6 1022 100 900 0.8 49 22:40 27.12.2020
4365 Fog 6 1022 100 900 1 20 21:55 27.12.2020
4366 Fog 7 1022 93 900 1 0 21:22 27.12.2020
4367 Fog 7 1022 93 900 0.84 48 20:32 27.12.2020
4368 Mist 7 1022 93 2500 1 10 19:24 27.12.2020
4369 Mist 8 1022 93 2500 1 20 18:51 27.12.2020
4370 Mist 8 1022 93 3000 1 0 18:21 27.12.2020
4371 Mist 8 1022 93 3000 1 0 17:58 27.12.2020
4372 Mist 8 1022 87 3000 1 0 17:37 27.12.2020
4373 Mist 8 1022 87 3000 1.45 329 17:18 27.12.2020
4374 Mist 9 1022 93 3000 1.57 325 16:25 27.12.2020
4375 Mist 9 1022 87 3500 1 0 15:34 27.12.2020
4376 Mist 10 1022 76 4000 2 350 14:54 27.12.2020
4377 Mist 10 1022 76 4000 2 350 14:36 27.12.2020
4378 Mist 10 1022 76 4500 2 300 13:37 27.12.2020
4379 Mist 10 1021 76 4500 2 270 12:56 27.12.2020
4380 Mist 11 1021 76 5000 2 310 12:26 27.12.2020
4381 Mist 11 1021 71 5000 2 300 11:42 27.12.2020
4382 Haze 11 1020 71 5000 2 320 11:20 27.12.2020
4383 Haze 11 1020 71 5000 3 350 10:45 27.12.2020
4384 Clouds 12 1019 71 6000 3 360 10:19 27.12.2020
4385 Clouds 12 1019 71 6000 3 320 09:37 27.12.2020
4386 Clouds 13 1018 71 6000 4 310 08:28 27.12.2020
4387 Clouds 14 1018 76 6000 4 340 07:29 27.12.2020
4388 Clouds 14 1019 71 6000 3 350 05:59 27.12.2020
4389 Clouds 14 1019 71 6000 4 350 05:38 27.12.2020
4390 Mist 12 1020 93 5000 4 360 03:25 27.12.2020
4391 Mist 12 1019 93 5000 3 20 02:25 27.12.2020
4392 Mist 10 1018 100 5000 2 360 00:56 27.12.2020
4393 Rain 10 1018 100 5000 1.03 304 23:44 26.12.2020
4394 Rain 10 1017 100 5000 1 10 23:24 26.12.2020
4395 Clouds 9 1018 100 7000 1 360 22:46 26.12.2020
4396 Rain 10 1018 93 7000 1 340 22:19 26.12.2020
4397 Clouds 10 1018 93 7000 1 340 21:53 26.12.2020
4398 Clouds 10 1018 93 7000 1 340 21:53 26.12.2020
4399 Clear 10 1018 100 10000 2 10 21:26 26.12.2020
4400 Clouds 10 1018 93 10000 0.96 211 20:45 26.12.2020
4401 Clouds 10 1018 93 10000 1.45 172 20:24 26.12.2020
4402 Clouds 10 1018 93 10000 1 140 19:32 26.12.2020
4403 Clouds 11 1019 93 10000 1 0 18:59 26.12.2020
4404 Clouds 11 1019 93 10000 1 170 18:34 26.12.2020
4405 Clouds 11 1019 93 10000 2 160 17:47 26.12.2020
4406 Clouds 11 1020 87 10000 3 160 17:28 26.12.2020
4407 Clouds 11 1020 87 10000 3 160 16:38 26.12.2020
4408 Clear 11 1020 87 10000 3 150 15:59 26.12.2020
4409 Clear 11 1020 87 10000 4 150 15:20 26.12.2020
4410 Clear 11 1020 87 10000 4 140 14:38 26.12.2020
4411 Clear 11 1020 87 10000 4 140 14:19 26.12.2020
4412 Clear 11 1021 81 10000 4 140 13:37 26.12.2020
4413 Clouds 11 1021 81 10000 3 140 12:57 26.12.2020
4414 Clouds 11 1021 81 10000 3 140 12:39 26.12.2020
4415 Rain 12 1020 71 10000 4 150 11:59 26.12.2020
4416 Rain 12 1020 71 10000 4 140 11:41 26.12.2020
4417 Rain 12 1020 66 10000 4 130 11:20 26.12.2020
4418 Clear 12 1020 66 10000 4 130 10:45 26.12.2020
4419 Clear 12 1020 66 10000 4 140 10:24 26.12.2020
4420 Clear 12 1020 62 10000 5 140 09:47 26.12.2020
4421 Clear 12 1020 62 10000 4 140 08:55 26.12.2020
4422 Clear 12 1020 62 10000 6 150 08:19 26.12.2020
4423 Clear 13 1020 58 10000 6 150 07:21 26.12.2020
4424 Clear 12 1023 62 10000 6 140 04:39 26.12.2020
4425 Clear 11 1024 62 10000 6 130 02:34 26.12.2020
4426 Clear 9 1024 70 10000 5 130 00:34 26.12.2020
4427 Rain 9 1024 66 10000 4 120 23:49 25.12.2020
4428 Clear 8 1024 66 10000 4 120 23:28 25.12.2020
4429 Rain 8 1024 66 10000 4 110 22:51 25.12.2020
4430 Rain 8 1024 66 10000 4 110 22:26 25.12.2020
4431 Rain 8 1024 61 10000 4 110 21:41 25.12.2020
4432 Rain 8 1025 65 10000 3 110 21:23 25.12.2020
4433 Clear 8 1025 65 10000 3 120 20:39 25.12.2020
4434 Clear 7 1025 70 10000 2 100 19:54 25.12.2020
4435 Clear 7 1025 70 10000 2 100 19:36 25.12.2020
4436 Clear 6 1025 70 10000 2 140 18:41 25.12.2020
4437 Clear 6 1025 75 10000 2 190 17:58 25.12.2020
4438 Clear 6 1025 57 10000 1 120 17:35 25.12.2020
4439 Clear 6 1026 65 10000 3 120 16:49 25.12.2020
4440 Clear 6 1026 56 10000 3 110 16:21 25.12.2020
4441 Clear 6 1026 56 10000 3 110 15:46 25.12.2020
4442 Clear 6 1026 55 10000 2 120 15:22 25.12.2020
4443 Clear 6 1026 55 10000 3 130 14:31 25.12.2020
4444 Clear 6 1026 56 10000 3 110 13:47 25.12.2020
4445 Clear 8 1026 56 10000 3 110 13:26 25.12.2020
4446 Clear 8 1025 52 10000 4 100 12:49 25.12.2020
4447 Clear 8 1025 49 10000 5 110 12:27 25.12.2020
4448 Clear 8 1025 42 10000 4 120 11:46 25.12.2020
4449 Clear 8 1025 39 10000 5 120 11:22 25.12.2020
4450 Clear 8 1024 37 10000 4 110 10:35 25.12.2020
4451 Clear 10 1024 34 10000 3 120 09:49 25.12.2020
4452 Clear 11 1025 27 10000 2 120 08:51 25.12.2020
4453 Clear 11 1025 27 10000 2 120 08:29 25.12.2020
4454 Clear 11 1025 27 10000 2 40 06:49 25.12.2020
4455 Clear 11 1027 29 10000 3 20 05:24 25.12.2020
4456 Clear 8 1028 70 10000 3 30 02:19 25.12.2020
4457 Clear 4 1027 93 10000 1.59 34 00:19 25.12.2020
4458 Clear 4 1027 86 10000 1 350 23:29 24.12.2020
4459 Clear 5 1026 86 10000 1 10 22:53 24.12.2020
4460 Clear 5 1026 86 10000 1 20 22:24 24.12.2020
4461 Clear 5 1027 86 10000 2 10 21:43 24.12.2020
4462 Clear 5 1027 80 10000 1 350 20:53 24.12.2020
4463 Clear 5 1027 80 10000 2 350 19:34 24.12.2020
4464 Clear 6 1026 80 10000 2 360 18:21 24.12.2020
4465 Clear 6 1026 75 10000 2 350 17:38 24.12.2020
4466 Clear 6 1026 70 10000 1 10 16:59 24.12.2020
4467 Clear 6 1025 70 10000 1 0 16:24 24.12.2020
4468 Clear 7 1025 70 10000 1 40 15:43 24.12.2020
4469 Clear 7 1025 70 10000 3 30 15:21 24.12.2020
4470 Clear 7 1025 70 10000 3 30 14:55 24.12.2020
4471 Clear 8 1025 65 10000 3 40 14:24 24.12.2020
4472 Clear 8 1024 54 10000 3 40 13:49 24.12.2020
4473 Clear 8 1024 54 10000 3 40 13:30 24.12.2020
4474 Clear 9 1024 57 10000 4 40 12:45 24.12.2020
4475 Clear 9 1023 57 10000 4 40 12:21 24.12.2020
4476 Clear 9 1023 57 10000 5 40 11:47 24.12.2020
4477 Clear 9 1023 57 10000 4 30 11:23 24.12.2020
4478 Clear 10 1022 53 10000 4 30 10:56 24.12.2020
4479 Clear 10 1022 53 10000 4 30 10:38 24.12.2020
4480 Clear 10 1022 46 10000 5 20 09:53 24.12.2020
4481 Clear 11 1022 46 10000 5 20 09:30 24.12.2020
4482 Clear 12 1021 43 6000 6 20 08:43 24.12.2020
4483 Clouds 12 1021 43 6000 6 10 07:43 24.12.2020
4484 Clouds 12 1021 47 6000 7 10 07:20 24.12.2020
4485 Haze 12 1022 62 5000 7 10 05:49 24.12.2020
4486 Mist 9 1022 75 2600 3 320 02:26 24.12.2020
4487 Mist 8 1021 81 2600 3 330 01:43 24.12.2020
4488 Mist 8 1021 81 2600 2 320 01:18 24.12.2020
4489 Mist 7 1021 75 3500 3 340 00:21 24.12.2020
4490 Mist 7 1021 75 4000 3 320 23:49 23.12.2020
4491 Mist 7 1021 75 4000 3 320 23:30 23.12.2020
4492 Haze 8 1021 70 5000 3 300 22:57 23.12.2020
4493 Haze 8 1021 70 5000 3 300 22:31 23.12.2020
4494 Clouds 8 1021 70 6000 4 320 21:56 23.12.2020
4495 Clouds 8 1021 70 6000 3 320 21:28 23.12.2020
4496 Clouds 8 1021 66 6000 4 330 20:54 23.12.2020
4497 Clouds 9 1021 66 6000 4 330 20:36 23.12.2020
4498 Clouds 9 1021 66 6000 4 330 20:18 23.12.2020
4499 Clouds 9 1020 66 7000 2 310 19:39 23.12.2020
4500 Clouds 9 1020 66 8000 3 310 19:20 23.12.2020
4501 Clear 9 1020 66 10000 3 320 18:48 23.12.2020
4502 Clear 9 1020 66 10000 3 310 18:24 23.12.2020
4503 Clear 9 1020 66 10000 3 310 17:39 23.12.2020
4504 Clouds 9 1020 61 10000 3 280 17:20 23.12.2020
4505 Rain 10 1020 61 10000 3 290 16:47 23.12.2020
4506 Rain 10 1020 62 10000 2 270 16:29 23.12.2020
4507 Rain 11 1020 62 10000 2 270 15:56 23.12.2020
4508 Rain 11 1020 62 10000 3 340 15:30 23.12.2020
4509 Clear 11 1020 62 10000 3 340 14:59 23.12.2020
4510 Clear 11 1020 71 10000 4 350 14:39 23.12.2020
4511 Clouds 11 1020 71 10000 4 350 14:20 23.12.2020
4512 Rain 11 1020 66 10000 2 320 13:44 23.12.2020
4513 Rain 11 1020 66 10000 2 320 13:44 23.12.2020
4514 Clear 11 1020 66 10000 3 310 13:19 23.12.2020
4515 Clear 11 1020 66 10000 4 300 12:52 23.12.2020
4516 Clear 12 1020 71 10000 2 0 12:28 23.12.2020
4517 Clear 12 1019 71 10000 1 0 11:49 23.12.2020
4518 Clear 12 1019 66 10000 2 220 11:20 23.12.2020
4519 Clear 12 1019 71 10000 2 200 10:50 23.12.2020
4520 Clear 12 1019 71 10000 2 200 10:31 23.12.2020
4521 Clear 12 1019 66 10000 3 200 09:36 23.12.2020
4522 Clear 13 1019 66 10000 4 190 08:50 23.12.2020
4523 Clear 13 1020 66 10000 4 180 08:21 23.12.2020
4524 Clear 13 1020 71 10000 4 180 07:27 23.12.2020
4525 Clouds 13 1021 66 10000 4 190 06:41 23.12.2020
4526 Clouds 12 1022 71 10000 4 180 05:39 23.12.2020
4527 Clear 12 1022 71 10000 4 160 04:58 23.12.2020
4528 Clear 8 1023 87 10000 2 140 00:48 23.12.2020
4529 Clear 8 1023 87 10000 3 130 00:21 23.12.2020
4530 Clear 8 1023 87 10000 3 130 00:21 23.12.2020
4531 Clear 8 1023 87 10000 3 130 00:21 23.12.2020
4532 Clear 7 1023 87 10000 2 150 23:35 22.12.2020
4533 Clear 7 1023 93 10000 1 170 22:58 22.12.2020
4534 Clear 7 1023 93 10000 1 130 22:40 22.12.2020
4535 Clear 7 1023 87 10000 2 210 22:20 22.12.2020
4536 Clear 7 1023 81 10000 3 130 21:44 22.12.2020
4537 Clear 7 1023 81 10000 3 130 21:20 22.12.2020
4538 Clear 7 1023 81 10000 3 130 21:20 22.12.2020
4539 Clear 8 1023 81 10000 2 120 20:49 22.12.2020
4540 Clear 8 1024 81 10000 3 140 20:22 22.12.2020
4541 Clear 7 1024 87 10000 2 150 19:46 22.12.2020
4542 Clear 7 1024 87 10000 2 160 19:25 22.12.2020
4543 Clear 8 1024 81 10000 3 140 18:55 22.12.2020
4544 Clear 8 1024 81 10000 3 140 18:30 22.12.2020
4545 Clear 7 1025 81 10000 5 130 17:59 22.12.2020
4546 Clear 7 1025 81 10000 5 130 17:36 22.12.2020
4547 Clear 8 1025 75 10000 4 140 17:18 22.12.2020
4548 Clear 8 1026 75 10000 4 130 16:42 22.12.2020
4549 Clear 8 1026 75 10000 4 130 16:19 22.12.2020
4550 Clear 8 1026 70 10000 3 140 15:43 22.12.2020
4551 Clear 8 1026 70 10000 3 140 15:24 22.12.2020
4552 Clear 7 1026 65 10000 2 120 14:46 22.12.2020
4553 Clear 7 1027 58 10000 3 130 14:27 22.12.2020
4554 Clear 7 1027 58 10000 3 130 13:53 22.12.2020
4555 Clear 8 1027 55 10000 2 140 13:20 22.12.2020
4556 Clear 8 1026 55 10000 3 120 12:59 22.12.2020
4557 Clear 8 1026 54 10000 3 120 12:40 22.12.2020
4558 Clear 8 1026 53 10000 3 110 12:19 22.12.2020
4559 Clear 9 1026 46 10000 4 100 11:43 22.12.2020
4560 Clear 9 1026 40 10000 1 0 11:23 22.12.2020
4561 Clear 10 1026 40 10000 1 0 10:56 22.12.2020
4562 Clear 10 1025 40 10000 1 0 10:28 22.12.2020
4563 Clear 10 1025 40 10000 1 0 09:59 22.12.2020
4564 Clear 11 1025 34 10000 1 0 09:31 22.12.2020
4565 Clear 12 1025 32 10000 1 0 08:59 22.12.2020
4566 Clear 12 1025 32 10000 1 0 08:40 22.12.2020
4567 Clear 13 1025 34 10000 2 0 08:19 22.12.2020
4568 Clear 12 1026 32 10000 2 0 07:27 22.12.2020
4569 Clear 12 1026 32 10000 2 0 06:34 22.12.2020
4570 Clear 12 1027 37 10000 2 310 05:33 22.12.2020
4571 Clear 8 1029 61 10000 1 0 02:31 22.12.2020
4572 Clear 3 1027 86 8000 1 110 00:26 22.12.2020
4573 Clear 3 1028 86 10000 1.18 94 23:50 21.12.2020
4574 Clear 3 1027 66 10000 1.25 90 23:22 21.12.2020
4575 Clear 3 1027 86 10000 1 120 22:37 21.12.2020
4576 Clear 1 1028 86 10000 1 30 22:19 21.12.2020
4577 Clear 3 1028 86 10000 0.69 114 21:47 21.12.2020
4578 Clear 1 1028 86 10000 0.77 124 21:28 21.12.2020
4579 Clear 1 1028 80 10000 0.77 124 20:45 21.12.2020
4580 Clear 3 1028 80 10000 0.85 119 20:21 21.12.2020
4581 Clear 4 1029 74 10000 0.85 119 19:47 21.12.2020
4582 Clear 4 1029 74 10000 0.8 125 19:22 21.12.2020
4583 Clear 4 1029 74 10000 0.8 125 18:59 21.12.2020
4584 Clear 4 1029 74 10000 1 170 18:41 21.12.2020
4585 Clear 3 1030 74 10000 1 170 18:23 21.12.2020
4586 Clear 3 1030 69 10000 1 180 17:42 21.12.2020
4587 Clear 3 1030 69 10000 1 180 17:23 21.12.2020
4588 Clear 5 1030 65 10000 1 0 16:45 21.12.2020
4589 Clear 5 1029 60 10000 2 120 16:21 21.12.2020
4590 Clear 5 1030 56 10000 2 110 15:43 21.12.2020
4591 Clear 5 1030 48 10000 2 160 14:58 21.12.2020
4592 Clear 5 1030 44 10000 2 160 14:23 21.12.2020
4593 Clear 7 1030 41 10000 2 160 13:55 21.12.2020
4594 Clear 7 1030 41 10000 2 160 13:37 21.12.2020
4595 Clear 7 1030 33 10000 1 0 13:18 21.12.2020
4596 Clear 7 1030 38 10000 1 0 12:42 21.12.2020
4597 Clear 7 1030 36 10000 2 70 12:19 21.12.2020
4598 Clear 7 1030 38 10000 3 10 11:43 21.12.2020
4599 Clear 8 1030 31 10000 2 330 11:22 21.12.2020
4600 Clear 8 1030 31 10000 2 330 10:57 21.12.2020
4601 Clear 8 1030 26 10000 2 330 10:39 21.12.2020
4602 Clear 8 1029 26 10000 2 290 09:55 21.12.2020
4603 Clear 9 1029 27 10000 2 320 09:37 21.12.2020
4604 Clear 10 1029 27 10000 2 350 09:19 21.12.2020
4605 Clear 11 1029 25 10000 1 0 08:25 21.12.2020
4606 Clear 10 1030 23 10000 2 360 06:48 21.12.2020
4607 Clear 10 1030 23 10000 2 360 06:48 21.12.2020
4608 Clear 9 1032 26 10000 1 0 04:59 21.12.2020
4609 Clear 9 1033 36 10000 1 0 04:27 21.12.2020
4610 Clear 3 1032 67 10000 1 10 00:36 21.12.2020
4611 Clear 2 1032 86 10000 1.94 17 23:39 20.12.2020
4612 Clear 2 1033 80 10000 1 0 23:20 20.12.2020
4613 Clear 2 1033 69 10000 1 0 22:43 20.12.2020
4614 Clear 3 1033 80 10000 1 360 22:23 20.12.2020
4615 Clear 3 1033 69 10000 2 350 21:42 20.12.2020
4616 Clear 3 1033 80 10000 2 350 21:22 20.12.2020
4617 Clear 2 1033 68 10000 1 350 20:57 20.12.2020
4618 Clear 1 1033 68 10000 1 350 20:37 20.12.2020
4619 Clear 3 1033 80 10000 1 10 20:18 20.12.2020
4620 Clear 3 1034 80 10000 1 0 19:41 20.12.2020
4621 Clear 2 1033 80 10000 1.33 344 19:20 20.12.2020
4622 Clear 2 1034 69 10000 1 350 18:45 20.12.2020
4623 Clear 3 1034 69 10000 1 350 18:27 20.12.2020
4624 Clear 3 1034 69 10000 2 350 17:47 20.12.2020
4625 Clear 3 1034 69 10000 1 360 17:28 20.12.2020
4626 Clear 4 1034 64 10000 1 0 16:47 20.12.2020
4627 Clear 3 1034 64 10000 1 50 16:28 20.12.2020
4628 Clear 4 1034 69 10000 2 10 15:51 20.12.2020
4629 Clear 4 1034 64 10000 3 30 15:27 20.12.2020
4630 Clear 6 1034 65 10000 2 60 14:56 20.12.2020
4631 Clear 6 1034 65 10000 2 60 14:35 20.12.2020
4632 Clear 6 1034 56 10000 3 360 13:49 20.12.2020
4633 Clear 6 1034 56 10000 3 360 13:30 20.12.2020
4634 Clear 6 1034 52 10000 3 360 12:59 20.12.2020
4635 Clear 6 1034 52 10000 3 360 12:39 20.12.2020
4636 Clear 6 1034 52 10000 3 10 12:21 20.12.2020
4637 Clear 7 1034 48 10000 4 360 11:45 20.12.2020
4638 Clear 7 1034 48 10000 3 10 11:26 20.12.2020
4639 Clear 8 1033 45 10000 3 10 10:48 20.12.2020
4640 Clear 8 1033 42 10000 4 30 10:21 20.12.2020
4641 Clear 8 1033 39 10000 5 20 09:46 20.12.2020
4642 Clear 8 1033 39 10000 5 20 09:27 20.12.2020
4643 Clear 9 1033 39 10000 5 360 08:59 20.12.2020
4644 Clear 9 1033 42 10000 4 20 08:39 20.12.2020
4645 Clouds 10 1033 39 10000 4 360 07:28 20.12.2020
4646 Clouds 10 1034 45 10000 4 340 05:52 20.12.2020
4647 Clear 6 1035 65 10000 4 360 02:23 20.12.2020
4648 Clear 4 1035 69 10000 3 350 00:39 20.12.2020
4649 Clear 3 1034 69 10000 3 340 23:22 19.12.2020
4650 Clear 3 1034 69 10000 3 340 22:57 19.12.2020
4651 Clear 3 1034 74 10000 3 350 22:38 19.12.2020
4652 Clear 3 1035 69 10000 3 340 22:19 19.12.2020
4653 Clear 3 1035 69 10000 3 350 21:42 19.12.2020
4654 Clear 4 1035 69 10000 3 350 21:24 19.12.2020
4655 Clear 4 1035 64 10000 4 340 20:45 19.12.2020
4656 Clear 4 1035 64 10000 3 340 20:21 19.12.2020
4657 Clear 4 1035 64 10000 3 340 20:21 19.12.2020
4658 Clear 4 1035 64 10000 4 350 19:53 19.12.2020
4659 Clear 4 1035 64 10000 4 350 19:34 19.12.2020
4660 Clear 4 1035 64 10000 3 330 18:42 19.12.2020
4661 Clear 5 1035 64 10000 4 330 18:24 19.12.2020
4662 Clear 5 1035 64 10000 4 330 17:48 19.12.2020
4663 Clear 6 1035 64 10000 3 340 17:25 19.12.2020
4664 Clear 6 1035 64 10000 4 350 16:55 19.12.2020
4665 Clear 6 1035 64 10000 4 350 16:36 19.12.2020
4666 Clear 5 1035 64 10000 4 360 16:18 19.12.2020
4667 Clear 5 1035 60 10000 3 360 15:47 19.12.2020
4668 Clear 4 1035 64 10000 3 360 14:44 19.12.2020
4669 Clear 4 1035 60 10000 3 360 14:23 19.12.2020
4670 Clear 6 1035 52 10000 4 40 13:42 19.12.2020
4671 Clear 6 1034 56 10000 4 40 13:21 19.12.2020
4672 Clear 6 1035 56 10000 6 40 12:46 19.12.2020
4673 Clear 6 1035 56 10000 6 40 12:28 19.12.2020
4674 Clear 6 1034 60 10000 5 10 11:58 19.12.2020
4675 Clear 6 1034 60 10000 5 10 11:40 19.12.2020
4676 Clouds 6 1033 56 10000 7 20 10:47 19.12.2020
4677 Rain 7 1033 52 10000 6 20 10:27 19.12.2020
4678 Clear 7 1033 45 10000 6 20 09:58 19.12.2020
4679 Clear 7 1033 45 10000 6 20 09:38 19.12.2020
4680 Clear 8 1033 49 10000 7 20 08:37 19.12.2020
4681 Clouds 9 1033 49 10000 6 10 07:53 19.12.2020
4682 Clouds 9 1033 49 10000 7 10 07:18 19.12.2020
4683 Clouds 9 1034 52 10000 8 360 06:39 19.12.2020
4684 Clouds 9 1035 56 10000 7 10 05:19 19.12.2020
4685 Clouds 8 1035 61 10000 9 20 03:20 19.12.2020
4686 Clouds 6 1034 75 10000 5 360 00:41 19.12.2020
4687 Clouds 6 1034 75 8000 4 350 00:18 19.12.2020
4688 Clouds 6 1034 74 8000 4 340 23:48 18.12.2020
4689 Clouds 7 1034 71 8000 4 340 23:23 18.12.2020
4690 Clouds 7 1034 60 8000 4 330 22:46 18.12.2020
4691 Clouds 7 1033 65 7000 4 330 22:24 18.12.2020
4692 Clouds 7 1033 65 7000 4 340 21:50 18.12.2020
4693 Clouds 7 1033 65 7000 3 340 21:31 18.12.2020
4694 Rain 7 1034 65 7000 4 330 20:42 18.12.2020
4695 Rain 7 1034 60 10000 4 320 20:21 18.12.2020
4696 Rain 7 1034 60 10000 3 320 19:45 18.12.2020
4697 Rain 6 1034 56 10000 3 320 19:21 18.12.2020
4698 Clouds 6 1034 52 10000 2 320 18:42 18.12.2020
4699 Rain 6 1034 52 10000 3 320 18:24 18.12.2020
4700 Rain 6 1033 52 10000 4 330 17:24 18.12.2020
4701 Rain 7 1033 48 10000 3 320 16:55 18.12.2020
4702 Rain 7 1033 48 10000 3 320 16:37 18.12.2020
4703 Rain 7 1033 48 10000 4 330 16:18 18.12.2020
4704 Rain 7 1033 48 10000 4 330 15:41 18.12.2020
4705 Rain 7 1033 52 10000 4 330 15:23 18.12.2020
4706 Rain 7 1033 48 10000 5 340 14:55 18.12.2020
4707 Rain 7 1033 48 10000 5 350 14:22 18.12.2020
4708 Rain 7 1032 52 10000 6 360 13:50 18.12.2020
4709 Rain 7 1032 52 10000 6 360 13:30 18.12.2020
4710 Rain 7 1032 56 10000 5 10 12:49 18.12.2020
4711 Rain 7 1032 60 10000 6 360 12:21 18.12.2020
4712 Rain 7 1031 56 10000 5 360 11:23 18.12.2020
4713 Rain 7 1031 56 10000 5 360 10:40 18.12.2020
4714 Rain 7 1030 52 10000 5 360 10:20 18.12.2020
4715 Rain 7 1030 55 10000 6 20 09:39 18.12.2020
4716 Rain 7 1030 54 10000 6 360 09:21 18.12.2020
4717 Rain 7 1030 54 10000 6 360 08:54 18.12.2020
4718 Rain 7 1030 65 10000 5 10 08:30 18.12.2020
4719 Rain 8 1029 53 10000 6 10 07:39 18.12.2020
4720 Clear 8 1029 52 10000 5 360 07:18 18.12.2020
4721 Clear 8 1029 61 10000 4 360 06:51 18.12.2020
4722 Clear 9 1030 70 10000 3 10 05:42 18.12.2020
4723 Clouds 8 1031 75 8000 2 10 04:51 18.12.2020
4724 Clouds 8 1031 75 8000 2 10 04:51 18.12.2020
4725 Rain 6 1031 86 8000 4 360 01:59 18.12.2020
4726 Rain 6 1031 86 8000 4 360 01:40 18.12.2020
4727 Rain 5 1030 80 10000 5 20 23:59 17.12.2020
4728 Rain 5 1030 80 10000 5 20 23:37 17.12.2020
4729 Rain 6 1030 86 10000 2 10 23:18 17.12.2020
4730 Rain 6 1030 93 10000 2 20 22:45 17.12.2020
4731 Rain 6 1030 81 10000 2 10 22:26 17.12.2020
4732 Rain 6 1030 81 10000 3 350 21:43 17.12.2020
4733 Rain 6 1030 81 10000 3 350 21:43 17.12.2020
4734 Clouds 6 1030 81 10000 3 340 21:19 17.12.2020
4735 Rain 6 1030 81 10000 3 340 20:41 17.12.2020
4736 Rain 6 1030 75 10000 2 10 20:19 17.12.2020
4737 Rain 7 1030 75 10000 3 350 19:48 17.12.2020
4738 Rain 7 1030 70 10000 3 360 19:24 17.12.2020
4739 Rain 7 1030 70 10000 3 360 19:24 17.12.2020
4740 Rain 7 1030 70 10000 3 350 18:42 17.12.2020
4741 Rain 7 1030 70 10000 3 350 18:42 17.12.2020
4742 Rain 7 1030 70 10000 3 360 18:24 17.12.2020
4743 Clear 7 1030 70 10000 3 360 17:54 17.12.2020
4744 Rain 7 1030 70 10000 3 360 17:33 17.12.2020
4745 Rain 7 1030 58 10000 3 10 16:47 17.12.2020
4746 Rain 7 1030 58 10000 3 10 16:47 17.12.2020
4747 Rain 7 1030 58 10000 3 10 16:28 17.12.2020
4748 Rain 7 1030 58 10000 3 10 15:57 17.12.2020
4749 Rain 7 1029 56 10000 2 30 15:39 17.12.2020
4750 Clear 7 1029 56 10000 2 30 14:57 17.12.2020
4751 Clear 7 1030 56 10000 2 60 14:37 17.12.2020
4752 Rain 7 1029 56 10000 2 30 14:37 17.12.2020
4753 Clear 7 1030 56 10000 2 60 13:59 17.12.2020
4754 Clear 7 1030 56 10000 3 70 13:39 17.12.2020
4755 Clear 7 1030 56 10000 3 60 12:56 17.12.2020
4756 Clear 6 1030 56 10000 3 60 12:33 17.12.2020
4757 Clear 7 1030 52 10000 3 60 11:47 17.12.2020
4758 Clear 7 1030 49 10000 3 60 11:26 17.12.2020
4759 Clear 7 1030 49 10000 4 30 10:57 17.12.2020
4760 Clear 7 1030 49 10000 4 30 10:30 17.12.2020
4761 Clear 8 1029 49 10000 3 20 09:35 17.12.2020
4762 Clouds 9 1029 45 10000 3 30 08:37 17.12.2020
4763 Clear 9 1030 45 10000 3 30 07:40 17.12.2020
4764 Clear 9 1030 45 10000 3 0 07:18 17.12.2020
4765 Clear 9 1030 42 10000 3 50 06:44 17.12.2020
4766 Clear 8 1031 45 10000 3 50 06:26 17.12.2020
4767 Clear 5 1033 64 10000 5 360 01:40 17.12.2020
4768 Clear 4 1033 59 10000 5 10 23:58 16.12.2020
4769 Clear 4 1033 59 10000 4 360 23:23 16.12.2020
4770 Clear 4 1033 64 10000 4 360 22:58 16.12.2020
4771 Clear 4 1033 64 10000 4 360 22:36 16.12.2020
4772 Clear 3 1034 59 10000 3 340 21:54 16.12.2020
4773 Clear 4 1034 59 10000 3 340 21:36 16.12.2020
4774 Clear 4 1034 55 10000 3 330 20:59 16.12.2020
4775 Clear 4 1034 59 10000 3 320 20:41 16.12.2020
4776 Clear 4 1034 59 10000 4 330 20:19 16.12.2020
4777 Clear 4 1034 59 10000 4 330 19:20 16.12.2020
4778 Clear 3 1034 59 10000 4 330 18:56 16.12.2020
4779 Clear 3 1034 59 10000 4 330 18:31 16.12.2020
4780 Clear 4 1034 59 10000 4 350 17:51 16.12.2020
4781 Clear 4 1034 64 10000 3 360 17:29 16.12.2020
4782 Clear 4 1034 64 10000 3 360 16:40 16.12.2020
4783 Clear 4 1034 59 10000 4 350 16:22 16.12.2020
4784 Clear 4 1034 59 10000 4 10 15:51 16.12.2020
4785 Clear 4 1034 59 10000 4 360 15:28 16.12.2020
4786 Clear 4 1034 59 10000 4 10 14:48 16.12.2020
4787 Clear 4 1034 55 10000 4 20 14:29 16.12.2020
4788 Clear 4 1034 59 10000 4 10 13:50 16.12.2020
4789 Clear 4 1034 59 10000 4 10 13:31 16.12.2020
4790 Clear 4 1034 51 10000 4 20 12:56 16.12.2020
4791 Clear 4 1034 51 10000 4 20 12:36 16.12.2020
4792 Clear 5 1034 44 10000 5 360 11:41 16.12.2020
4793 Clear 5 1034 41 10000 5 360 11:22 16.12.2020
4794 Clear 5 1033 41 10000 5 360 10:49 16.12.2020
4795 Clear 6 1033 41 10000 5 360 10:26 16.12.2020
4796 Clear 6 1033 35 10000 6 30 09:43 16.12.2020
4797 Clear 7 1033 33 10000 4 20 08:42 16.12.2020
4798 Clear 7 1033 30 10000 4 10 07:57 16.12.2020
4799 Clear 8 1033 36 10000 4 360 07:38 16.12.2020
4800 Clear 7 1034 39 10000 4 20 06:52 16.12.2020
4801 Clear 4 1035 40 10000 5 340 02:26 16.12.2020
4802 Clear 2 1035 50 10000 4 340 00:26 16.12.2020
4803 Clear 2 1035 50 10000 3 340 23:44 15.12.2020
4804 Clear 2 1034 50 10000 5 350 22:47 15.12.2020
4805 Clear 2 1034 50 10000 5 340 22:25 15.12.2020
4806 Clear 2 1034 50 10000 5 340 21:57 15.12.2020
4807 Clear 3 1034 50 10000 4 340 21:37 15.12.2020
4808 Clear 3 1034 47 10000 4 340 21:19 15.12.2020
4809 Clear 3 1034 47 10000 5 350 20:42 15.12.2020
4810 Clear 3 1034 51 10000 5 340 20:23 15.12.2020
4811 Clear 3 1035 47 10000 5 350 19:42 15.12.2020
4812 Clear 4 1035 51 10000 5 340 19:23 15.12.2020
4813 Clear 4 1035 51 10000 4 340 18:39 15.12.2020
4814 Clear 4 1034 51 10000 4 350 18:21 15.12.2020
4815 Clear 4 1034 51 10000 4 350 17:43 15.12.2020
4816 Clear 4 1034 51 10000 4 350 17:43 15.12.2020
4817 Clear 4 1034 51 10000 5 360 17:22 15.12.2020
4818 Clear 4 1034 51 10000 5 360 16:38 15.12.2020
4819 Clear 4 1034 55 10000 6 10 16:19 15.12.2020
4820 Clear 4 1033 55 10000 5 360 15:37 15.12.2020
4821 Clear 4 1033 55 10000 5 10 14:59 15.12.2020
4822 Clear 4 1033 55 10000 5 10 14:41 15.12.2020
4823 Rain 4 1033 51 10000 5 10 14:19 15.12.2020
4824 Clear 4 1033 55 10000 6 10 13:47 15.12.2020
4825 Rain 4 1033 55 10000 5 40 13:22 15.12.2020
4826 Clear 4 1033 51 10000 5 360 12:44 15.12.2020
4827 Clear 4 1033 51 10000 4 360 12:19 15.12.2020
4828 Clear 4 1032 51 10000 4 10 11:50 15.12.2020
4829 Clouds 5 1032 51 10000 4 360 11:21 15.12.2020
4830 Clouds 5 1032 51 10000 5 10 10:45 15.12.2020
4831 Clouds 5 1032 48 10000 5 10 10:19 15.12.2020
4832 Clouds 5 1032 44 10000 5 10 09:41 15.12.2020
4833 Clouds 6 1032 45 10000 4 360 09:22 15.12.2020
4834 Clouds 6 1032 45 10000 4 360 08:39 15.12.2020
4835 Clouds 6 1032 45 10000 5 350 08:20 15.12.2020
4836 Clouds 6 1032 48 10000 5 350 07:41 15.12.2020
4837 Clouds 7 1032 45 10000 4 350 06:51 15.12.2020
4838 Clear 6 1034 45 10000 4 350 05:27 15.12.2020
4839 Clear 2 1034 76 10000 3 340 00:38 15.12.2020
4840 Clear 2 1034 76 10000 4 330 23:48 14.12.2020
4841 Clear 2 1034 75 10000 4 340 23:19 14.12.2020
4842 Clear 2 1034 55 10000 5 340 22:39 14.12.2020
4843 Clear 2 1033 59 10000 4 340 21:56 14.12.2020
4844 Clear 2 1033 59 10000 4 340 21:36 14.12.2020
4845 Clear 3 1033 55 10000 5 340 20:56 14.12.2020
4846 Clear 3 1033 55 10000 5 340 20:38 14.12.2020
4847 Clear 3 1034 55 10000 6 340 20:18 14.12.2020
4848 Clear 3 1034 55 10000 5 340 19:32 14.12.2020
4849 Clear 3 1034 55 10000 5 340 18:57 14.12.2020
4850 Clear 3 1034 55 10000 5 340 18:38 14.12.2020
4851 Clear 3 1034 55 10000 5 330 17:58 14.12.2020
4852 Clear 3 1034 55 10000 5 330 17:33 14.12.2020
4853 Clear 3 1034 55 10000 5 340 16:53 14.12.2020
4854 Clear 3 1034 51 10000 6 340 16:30 14.12.2020
4855 Clear 3 1034 55 10000 5 340 15:53 14.12.2020
4856 Clear 3 1033 55 10000 6 340 15:30 14.12.2020
4857 Rain 3 1033 55 10000 6 350 14:46 14.12.2020
4858 Clear 3 1033 55 10000 6 340 14:27 14.12.2020
4859 Clear 4 1033 55 10000 5 340 13:47 14.12.2020
4860 Clear 4 1033 51 10000 5 340 13:27 14.12.2020
4861 Clear 4 1032 47 10000 5 340 12:54 14.12.2020
4862 Clear 4 1033 44 10000 6 330 12:30 14.12.2020
4863 Clear 4 1032 44 10000 7 350 11:37 14.12.2020
4864 Clear 4 1031 44 10000 6 330 10:48 14.12.2020
4865 Clear 4 1031 48 10000 7 340 10:27 14.12.2020
4866 Clouds 5 1031 44 10000 7 340 09:45 14.12.2020
4867 Clouds 6 1030 48 10000 8 340 08:50 14.12.2020
4868 Clouds 6 1030 48 10000 8 340 08:30 14.12.2020
4869 Clouds 7 1030 45 10000 7 330 07:52 14.12.2020
4870 Clouds 7 1030 52 10000 7 10 06:55 14.12.2020
4871 Clouds 7 1031 56 10000 7 350 05:51 14.12.2020
4872 Clear 5 1033 69 10000 7 350 03:29 14.12.2020
4873 Clouds 3 1032 74 10000 7 350 00:57 14.12.2020
4874 Clouds 3 1032 80 10000 6 350 00:34 14.12.2020
4875 Clouds 3 1031 80 10000 8 350 23:58 13.12.2020
4876 Clouds 3 1031 80 10000 8 350 23:40 13.12.2020
4877 Clouds 3 1030 71 10000 7 340 22:51 13.12.2020
4878 Clouds 3 1030 86 10000 8 360 22:21 13.12.2020
4879 Clouds 3 1030 86 10000 7 360 21:50 13.12.2020
4880 Clouds 3 1030 86 10000 7 360 21:29 13.12.2020
4881 Clouds 3 1030 86 10000 7 350 20:42 13.12.2020
4882 Clouds 3 1030 86 10000 7 360 20:23 13.12.2020
4883 Rain 3 1030 93 10000 7 360 19:43 13.12.2020
4884 Rain 3 1031 93 10000 7 350 19:22 13.12.2020
4885 Rain 3 1031 93 10000 7 350 19:22 13.12.2020
4886 Rain 4 1030 93 10000 6 350 18:44 13.12.2020
4887 Rain 4 1030 93 10000 7 360 18:21 13.12.2020
4888 Rain 4 1030 86 10000 9 350 17:47 13.12.2020
4889 Rain 4 1030 93 7000 8 350 17:21 13.12.2020
4890 Rain 5 1029 86 7000 9 360 16:59 13.12.2020
4891 Rain 5 1029 86 7000 9 360 16:39 13.12.2020
4892 Rain 5 1028 81 7000 10 350 16:19 13.12.2020
4893 Rain 7 1028 65 10000 10 340 15:42 13.12.2020
4894 Rain 7 1027 64 10000 8 340 15:23 13.12.2020
4895 Rain 7 1027 64 10000 8 330 14:44 13.12.2020
4896 Rain 8 1026 61 10000 9 350 14:25 13.12.2020
4897 Rain 8 1025 61 10000 9 360 13:44 13.12.2020
4898 Clouds 8 1025 61 10000 9 360 13:25 13.12.2020
4899 Clouds 8 1024 61 10000 8 10 12:51 13.12.2020
4900 Clouds 8 1024 61 10000 8 20 12:23 13.12.2020
4901 Clouds 8 1024 65 10000 8 10 11:43 13.12.2020
4902 Haze 9 1023 61 4000 10 10 10:56 13.12.2020
4903 Haze 9 1023 61 4000 10 10 10:38 13.12.2020
4904 Haze 9 1023 66 4000 9 360 09:57 13.12.2020
4905 Haze 10 1022 66 4000 11 360 09:27 13.12.2020
4906 Haze 12 1021 43 5000 8 10 08:35 13.12.2020
4907 Haze 14 1020 35 5000 7 340 07:47 13.12.2020
4908 Haze 12 1021 54 3000 5 340 04:48 13.12.2020
4909 Mist 11 1022 76 2000 2 290 02:41 13.12.2020
4910 Mist 10 1021 75 2800 2 290 01:58 13.12.2020
4911 Mist 7 1020 93 3300 2 210 00:50 13.12.2020
4912 Mist 6 1020 86 3600 1 0 23:56 12.12.2020
4913 Mist 6 1020 93 3600 2 220 23:31 12.12.2020
4914 Mist 6 1019 86 3600 1 200 22:53 12.12.2020
4915 Mist 7 1019 86 4000 0.24 333 22:19 12.12.2020
4916 Mist 7 1019 80 4000 2 350 21:34 12.12.2020
4917 Mist 7 1019 86 4000 1 350 20:56 12.12.2020
4918 Mist 7 1019 86 4000 2 10 20:30 12.12.2020
4919 Mist 7 1019 86 4000 1 350 19:58 12.12.2020
4920 Mist 7 1019 80 4000 2 350 19:39 12.12.2020
4921 Mist 7 1019 80 5000 1 0 19:21 12.12.2020
4922 Mist 7 1020 75 5000 1 30 18:44 12.12.2020
4923 Mist 7 1020 75 5000 1 0 18:26 12.12.2020
4924 Mist 7 1020 75 5000 1 0 17:47 12.12.2020
4925 Mist 7 1019 75 5000 2 360 16:56 12.12.2020
4926 Haze 8 1019 70 5000 1 0 16:20 12.12.2020
4927 Haze 8 1020 70 5000 1 0 15:45 12.12.2020
4928 Haze 8 1020 65 5000 0.85 179 15:27 12.12.2020
4929 Haze 8 1020 65 5000 2 250 14:45 12.12.2020
4930 Haze 9 1020 65 5000 2 260 13:55 12.12.2020
4931 Haze 9 1020 61 5000 3 240 13:36 12.12.2020
4932 Clear 9 1019 53 6000 2 240 12:53 12.12.2020
4933 Clear 10 1019 43 6000 1 0 11:46 12.12.2020
4934 Clear 10 1019 43 6000 1 50 10:53 12.12.2020
4935 Haze 11 1019 45 5000 1 0 09:32 12.12.2020
4936 Haze 12 1019 43 5000 2 350 08:53 12.12.2020
4937 Mist 10 1023 70 2500 3 320 02:56 12.12.2020
4938 Mist 7 1022 87 3000 3 330 23:54 11.12.2020
4939 Mist 7 1022 87 3000 3 340 22:28 11.12.2020
4940 Mist 7 1022 87 3000 3 320 20:40 11.12.2020
4941 Mist 8 1022 87 4000 4 340 17:58 11.12.2020
4942 Clouds 10 1022 76 6000 4 330 14:53 11.12.2020
4943 Mist 10 1022 76 5000 4 340 13:58 11.12.2020
4944 Mist 10 1021 76 5000 5 350 13:23 11.12.2020
4945 Mist 10 1021 76 5000 4 350 12:18 11.12.2020
4946 Mist 10 1021 76 5000 4 350 12:18 11.12.2020
4947 Mist 10 1021 81 5000 4 340 11:50 11.12.2020
4948 Mist 10 1020 76 4000 3 350 10:45 11.12.2020
4949 Mist 11 1020 76 4000 3 320 08:46 11.12.2020
4950 Mist 11 1021 81 5000 3 330 05:40 11.12.2020
4951 Mist 11 1022 87 5000 3 10 04:51 11.12.2020
4952 Mist 10 1022 87 4000 4 10 01:33 11.12.2020
4953 Mist 10 1021 81 5000 2 10 00:20 11.12.2020
4954 Mist 10 1021 81 5000 3 340 22:27 10.12.2020
4955 Mist 10 1021 87 5000 3 360 21:35 10.12.2020
4956 Mist 10 1022 87 5000 3 330 20:39 10.12.2020
4957 Mist 10 1022 87 5000 3 340 19:37 10.12.2020
4958 Mist 10 1022 87 5000 2 330 18:53 10.12.2020
4959 Mist 10 1023 87 5000 2 310 17:50 10.12.2020
4960 Mist 11 1023 81 5000 3 320 16:25 10.12.2020
4961 Mist 11 1023 81 4000 3 350 15:25 10.12.2020
4962 Mist 11 1023 81 4000 4 10 14:48 10.12.2020
4963 Mist 11 1022 81 4000 4 360 14:25 10.12.2020
4964 Mist 11 1023 81 4000 3 10 12:38 10.12.2020
4965 Mist 11 1022 81 4000 3 10 11:32 10.12.2020
4966 Mist 12 1021 76 3000 4 350 08:47 10.12.2020
4967 Haze 12 1021 76 5000 4 340 07:37 10.12.2020
4968 Clouds 12 1022 76 6000 5 330 06:40 10.12.2020
4969 Clouds 13 1023 76 7000 2 330 02:51 10.12.2020
4970 Clouds 13 1023 76 8000 4 330 01:56 10.12.2020
4971 Clouds 12 1023 71 10000 3 340 23:49 09.12.2020
4972 Clear 12 1022 76 10000 2 330 20:41 09.12.2020
4973 Clear 12 1022 76 10000 1 300 20:20 09.12.2020
4974 Clear 12 1022 76 10000 1 180 18:58 09.12.2020
4975 Clear 12 1022 76 10000 1 180 18:58 09.12.2020
4976 Clear 12 1023 71 10000 2 150 17:36 09.12.2020
4977 Clear 12 1023 66 10000 2 130 16:40 09.12.2020
4978 Clear 12 1023 71 10000 3 140 16:20 09.12.2020
4979 Clear 12 1023 66 10000 2 110 14:53 09.12.2020
4980 Clear 12 1023 66 10000 3 120 14:27 09.12.2020
4981 Clear 12 1023 66 10000 4 130 13:46 09.12.2020
4982 Clear 12 1023 62 10000 4 130 13:18 09.12.2020
4983 Clear 13 1023 62 10000 3 120 12:36 09.12.2020
4984 Clear 13 1023 62 10000 3 100 11:37 09.12.2020
4985 Clouds 13 1022 58 10000 4 130 09:52 09.12.2020
4986 Clouds 14 1022 51 10000 4 140 08:42 09.12.2020
4987 Clouds 15 1022 51 10000 3 150 06:56 09.12.2020
4988 Clouds 15 1024 51 10000 2 130 05:33 09.12.2020
4989 Clear 12 1026 66 10000 2 100 02:43 09.12.2020
4990 Clear 9 1026 81 10000 2 360 00:42 09.12.2020
4991 Clear 7 1026 86 10000 2 360 23:35 08.12.2020
4992 Clear 7 1026 81 10000 2 360 22:26 08.12.2020
4993 Clear 7 1026 81 10000 2 360 22:26 08.12.2020
4994 Clear 7 1027 81 10000 2 360 20:47 08.12.2020
4995 Clear 8 1027 81 10000 3 10 19:31 08.12.2020
4996 Clear 8 1027 75 10000 3 360 18:36 08.12.2020
4997 Clear 8 1028 75 10000 2 20 17:18 08.12.2020
4998 Clear 8 1029 65 10000 3 30 15:22 08.12.2020
4999 Clear 9 1029 61 10000 4 40 13:49 08.12.2020
5000 Clouds 9 1029 61 10000 4 50 12:41 08.12.2020
5001 Clouds 10 1029 57 10000 5 50 11:53 08.12.2020
5002 Clouds 10 1029 57 10000 5 60 10:57 08.12.2020
5003 Clouds 10 1028 57 10000 4 50 10:39 08.12.2020
5004 Clouds 10 1027 57 10000 5 30 09:38 08.12.2020
5005 Clear 11 1028 57 10000 5 30 07:38 08.12.2020
5006 Clear 11 1029 62 10000 4 40 05:26 08.12.2020
5007 Clouds 10 1030 66 10000 5 30 02:24 08.12.2020
5008 Clouds 10 1030 61 10000 7 40 00:44 08.12.2020
5009 Clouds 10 1030 71 10000 5 10 23:18 07.12.2020
5010 Clouds 10 1030 71 8000 5 10 22:20 07.12.2020
5011 Clouds 10 1030 81 6000 4 360 20:57 07.12.2020
5012 Mist 9 1030 81 5000 4 340 18:58 07.12.2020
5013 Mist 10 1030 81 5000 3 360 17:38 07.12.2020
5014 Mist 10 1030 81 5000 4 360 17:18 07.12.2020
5015 Clouds 10 1031 76 7000 4 360 16:23 07.12.2020
5016 Clouds 10 1030 81 7000 3 360 15:24 07.12.2020
5017 Clouds 10 1031 81 7000 4 10 14:28 07.12.2020
5018 Clouds 10 1031 76 8000 5 10 13:35 07.12.2020
5019 Clouds 11 1030 71 10000 6 10 11:52 07.12.2020
5020 Clouds 11 1030 71 10000 6 10 11:32 07.12.2020
5021 Clouds 11 1029 76 10000 6 20 10:22 07.12.2020
5022 Clouds 12 1028 71 10000 6 30 08:32 07.12.2020
5023 Clouds 13 1028 71 10000 7 360 07:23 07.12.2020
5024 Clouds 14 1029 67 10000 6 20 05:26 07.12.2020
5025 Clear 13 1029 71 10000 3 360 02:18 07.12.2020
5026 Clear 12 1029 81 10000 2 10 00:31 07.12.2020
5027 Clear 11 1027 81 10000 2 350 22:45 06.12.2020
5028 Clear 11 1027 76 10000 1 10 21:44 06.12.2020
5029 Clear 12 1027 71 10000 2 70 20:35 06.12.2020
5030 Clear 12 1027 71 10000 2 90 19:57 06.12.2020
5031 Clear 12 1027 71 10000 2 80 18:52 06.12.2020
5032 Clear 12 1028 62 10000 2 80 17:24 06.12.2020
5033 Clear 12 1028 62 10000 1 70 16:27 06.12.2020
5034 Clear 12 1028 62 10000 2 90 14:21 06.12.2020
5035 Clear 12 1027 58 10000 3 80 12:52 06.12.2020
5036 Clear 12 1027 62 10000 2 100 12:27 06.12.2020
5037 Clear 12 1026 62 10000 4 100 11:37 06.12.2020
5038 Clear 12 1026 62 10000 4 110 11:18 06.12.2020
5039 Clear 13 1026 58 10000 3 110 10:26 06.12.2020
5040 Clouds 14 1026 51 10000 2 110 08:45 06.12.2020
5041 Clear 15 1026 58 10000 3 120 06:51 06.12.2020
5042 Clear 11 1029 71 10000 2 360 02:21 06.12.2020
5043 Clear 10 1028 76 10000 3 20 00:42 06.12.2020
5044 Clear 10 1028 76 10000 2 350 00:23 06.12.2020
5045 Clear 9 1027 81 10000 2 360 22:51 05.12.2020
5046 Clear 9 1028 81 10000 2 360 22:20 05.12.2020
5047 Clear 9 1028 81 10000 2 360 21:51 05.12.2020
5048 Clear 9 1028 75 10000 2 360 21:26 05.12.2020
5049 Clear 9 1029 75 10000 2 350 19:48 05.12.2020
5050 Clear 9 1029 75 10000 2 360 18:41 05.12.2020
5051 Clear 8 1029 70 10000 2 340 17:34 05.12.2020
5052 Clear 8 1029 70 10000 1 0 16:33 05.12.2020
5053 Clear 8 1029 70 10000 1 0 15:57 05.12.2020
5054 Clear 8 1030 65 10000 2 10 14:28 05.12.2020
5055 Clear 9 1029 65 10000 3 10 12:24 05.12.2020
5056 Clear 10 1030 57 10000 3 360 11:47 05.12.2020
5057 Clear 10 1030 53 10000 2 20 10:31 05.12.2020
5058 Clear 11 1029 53 10000 1 0 07:49 05.12.2020
5059 Clear 11 1029 53 10000 1 0 07:24 05.12.2020
5060 Clear 12 1032 53 10000 3 30 03:55 05.12.2020
5061 Clear 6 1032 75 10000 1 0 23:55 04.12.2020
5062 Clear 6 1031 80 10000 2 350 22:24 04.12.2020
5063 Clear 6 1031 75 10000 3 340 20:25 04.12.2020
5064 Clear 6 1032 58 10000 3 340 18:53 04.12.2020
5065 Clear 6 1032 75 10000 4 340 18:19 04.12.2020
5066 Clear 6 1027 65 10000 2.8 0 17:37 04.12.2020
5067 Clear 6 1032 75 10000 4 360 15:46 04.12.2020
5068 Clear 7 1032 65 10000 4 20 13:40 04.12.2020
5069 Clear 7 1031 65 10000 5 30 13:22 04.12.2020
5070 Clouds 7 1026 59 10000 4.03 9 12:51 04.12.2020
5071 Clouds 9 1031 61 10000 6 360 10:41 04.12.2020
5072 Clouds 9 1031 61 10000 6 350 09:55 04.12.2020
5073 Clouds 11 1031 57 10000 5 340 07:20 04.12.2020
5074 Clouds 10 1031 57 10000 6 350 06:39 04.12.2020
5075 Clear 7 1033 64 10000 4 330 01:57 04.12.2020
5076 Clear 5 1032 69 10000 3 330 22:52 03.12.2020
5077 Clear 5 1032 69 10000 3 330 22:30 03.12.2020
5078 Clear 5 1032 69 10000 3 330 20:49 03.12.2020
5079 Clear 5 1033 69 10000 6 340 19:29 03.12.2020
5080 Clear 5 1033 61 10000 6 350 18:53 03.12.2020
5081 Clear 6 1033 61 10000 6 350 17:53 03.12.2020
5082 Clear 6 1033 60 10000 7 350 17:18 03.12.2020
5083 Clear 7 1033 70 10000 5 340 15:55 03.12.2020
5084 Clear 7 1033 70 10000 5 340 15:30 03.12.2020
5085 Clear 7 1033 70 10000 5 340 14:48 03.12.2020
5086 Clear 8 1033 65 10000 7 360 13:36 03.12.2020
5087 Clouds 9 1032 66 10000 6 350 12:28 03.12.2020
5088 Clouds 9 1032 66 8000 7 360 11:31 03.12.2020
5089 Clouds 9 1031 66 8000 9 360 10:18 03.12.2020
5090 Clouds 11 1031 54 7000 7 350 06:27 03.12.2020
5091 Mist 10 1032 76 5000 6 330 02:45 03.12.2020
5092 Mist 9 1032 81 4000 7 330 00:57 03.12.2020
5093 Clouds 9 1031 81 10000 6 330 22:47 02.12.2020
5094 Clouds 9 1031 81 10000 7 330 22:26 02.12.2020
5095 Clouds 9 1030 81 10000 5 330 21:18 02.12.2020
5096 Clouds 9 1031 76 10000 7 340 20:44 02.12.2020
5097 Clouds 9 1031 76 10000 7 340 20:26 02.12.2020
5098 Clouds 10 1031 81 10000 6 350 18:37 02.12.2020
5099 Clouds 10 1031 87 10000 6 330 17:45 02.12.2020
5100 Clouds 10 1031 81 10000 4 330 17:27 02.12.2020
5101 Clear 10 1031 76 10000 5 350 15:21 02.12.2020
5102 Clear 11 1030 76 10000 5 10 12:45 02.12.2020
5103 Clouds 11 1029 62 10000 5 10 10:29 02.12.2020
5104 Clouds 12 1029 66 10000 5 30 09:22 02.12.2020
5105 Clear 13 1030 58 10000 4 30 04:25 02.12.2020
5106 Clear 13 1030 58 10000 3 40 04:25 02.12.2020
5107 Clear 11 1028 81 10000 3 10 22:21 01.12.2020
5108 Clear 11 1028 76 10000 2 20 21:36 01.12.2020
5109 Clear 12 1029 66 10000 1 60 19:35 01.12.2020
5110 Clear 12 1030 62 10000 2 60 17:58 01.12.2020
5111 Clear 12 1031 62 10000 3 60 16:36 01.12.2020
5112 Clear 12 1031 62 10000 5 70 13:39 01.12.2020
5113 Clouds 12 1031 58 10000 4 50 12:25 01.12.2020
5114 Clouds 13 1030 58 10000 5 60 11:27 01.12.2020
5115 Clouds 13 1030 62 10000 5 50 10:38 01.12.2020
5116 Clear 14 1029 54 10000 5 80 08:21 01.12.2020
5117 Clear 14 1030 50 10000 6 60 06:48 01.12.2020
5118 Clear 13 1034 66 10000 2 20 01:53 01.12.2020
5119 Clear 11 1034 76 10000 3 10 00:56 01.12.2020
5120 Clouds 10 1028 71 10000 4.28 41 23:21 30.11.2020
5121 Clouds 10 1028 71 10000 4.28 41 22:44 30.11.2020
5122 Clouds 10 1028 71 10000 4.48 36 22:25 30.11.2020
5123 Clear 9 1034 81 10000 3 10 20:48 30.11.2020
5124 Clear 10 1035 76 10000 4 360 19:42 30.11.2020
5125 Clear 9 1035 76 10000 3 360 18:24 30.11.2020
5126 Clear 9 1035 81 10000 3 360 17:47 30.11.2020
5127 Clouds 9 1029 72 10000 4.01 37 16:55 30.11.2020
5128 Clouds 9 1030 71 10000 4.01 29 15:59 30.11.2020
5129 Clear 9 1035 70 10000 4 10 14:46 30.11.2020
5130 Clear 10 1035 61 10000 5 30 13:52 30.11.2020
5131 Clear 10 1035 61 10000 5 40 12:26 30.11.2020
5132 Clear 10 1035 61 10000 5 30 11:57 30.11.2020
5133 Clear 11 1034 57 10000 6 30 10:26 30.11.2020
5134 Clouds 12 1033 54 10000 5 30 09:45 30.11.2020
5135 Clouds 14 1033 47 8000 5 20 07:18 30.11.2020
5136 Clear 8 1034 75 10000 3 350 23:58 29.11.2020
5137 Clear 8 1033 75 10000 3 350 21:51 29.11.2020
5138 Clear 8 1033 75 10000 3 350 21:28 29.11.2020
5139 Clouds 9 1028 68 10000 3.42 1 19:49 29.11.2020
5140 Clear 9 1034 70 10000 3 350 17:47 29.11.2020
5141 Clear 9 1034 70 10000 3 10 15:25 29.11.2020
5142 Clouds 10 1033 66 10000 5 10 13:23 29.11.2020
5143 Clear 10 1032 53 10000 4 360 11:41 29.11.2020
5144 Clear 11 1031 40 10000 5 10 09:42 29.11.2020
5145 Clear 12 1030 40 10000 6 360 08:37 29.11.2020
5146 Clear 11 1032 53 10000 4 340 04:40 29.11.2020
5147 Clear 7 1031 87 10000 3 330 23:19 28.11.2020
5148 Clear 7 1030 87 10000 3 330 22:55 28.11.2020
5149 Clouds 8 1025 77 10000 3.26 348 20:44 28.11.2020
5150 Clear 8 1031 70 10000 4 340 19:38 28.11.2020
5151 Clear 8 1031 70 10000 4 340 19:19 28.11.2020
5152 Clear 8 1031 70 10000 4 330 18:27 28.11.2020
5153 Clear 8 1031 70 10000 4 340 17:40 28.11.2020
5154 Clear 9 1031 75 10000 5 340 16:39 28.11.2020
5155 Clear 9 1031 66 10000 5 340 14:25 28.11.2020
5156 Clear 10 1031 61 10000 5 350 11:29 28.11.2020
5157 Clouds 11 1030 53 10000 6 10 09:37 28.11.2020
5158 Clear 12 1034 57 10000 6 10 03:49 28.11.2020
5159 Clear 11 1033 71 10000 5 360 02:22 28.11.2020
5160 Clear 8 1033 75 10000 5 350 23:23 27.11.2020
5161 Clear 9 1032 75 10000 5 360 22:45 27.11.2020
5162 Clouds 9 1027 75 10000 0.45 318 20:41 27.11.2020
5163 Clear 9 1032 76 10000 6 340 20:23 27.11.2020
5164 Clouds 10 1027 70 10000 5.05 10 19:19 27.11.2020
5165 Clear 10 1032 71 10000 6 360 16:59 27.11.2020
5166 Clouds 11 1032 76 10000 6 360 14:45 27.11.2020
5167 Clouds 11 1032 76 10000 7 360 13:21 27.11.2020
5168 Clouds 11 1032 81 10000 7 360 12:47 27.11.2020
5169 Clouds 11 1031 81 10000 7 10 11:34 27.11.2020
5170 Clouds 11 1030 87 10000 7 360 10:49 27.11.2020
5171 Clouds 11 1030 93 10000 6 10 09:53 27.11.2020
5172 Clouds 12 1030 93 6000 5 330 04:32 27.11.2020
5173 Rain 12 1023 97 10000 3.65 4 22:26 26.11.2020
5174 Mist 12 1027 100 4000 4 340 21:56 26.11.2020
5175 Mist 12 1027 100 5000 5 350 20:49 26.11.2020
5176 Clouds 13 1027 100 8000 4 20 18:37 26.11.2020
5177 Clouds 13 1027 93 8000 5 360 17:34 26.11.2020
5178 Clouds 13 1026 100 8000 4 10 14:24 26.11.2020
5179 Clouds 13 1027 93 8000 4 20 12:58 26.11.2020
5180 Clouds 13 1027 93 8000 4 350 12:40 26.11.2020
5181 Mist 13 1026 100 5000 5 280 11:20 26.11.2020
5182 Mist 13 1024 93 2100 4 270 10:23 26.11.2020
5183 Mist 13 1024 93 2500 3 280 09:37 26.11.2020
5184 Mist 13 1024 93 3000 4 280 08:58 26.11.2020
5185 Mist 13 1024 93 5000 4 280 08:34 26.11.2020
5186 Mist 13 1025 100 2800 4 280 02:19 26.11.2020
5187 Clouds 13 1023 100 8000 3 270 22:20 25.11.2020
5188 Rain 14 1023 100 10000 3 280 20:37 25.11.2020
5189 Clouds 14 1022 100 10000 2 220 19:18 25.11.2020
5190 Rain 14 1023 100 10000 1 0 17:29 25.11.2020
5191 Mist 14 1023 100 4000 4 220 15:46 25.11.2020
5192 Rain 15 1022 100 6000 2 150 14:58 25.11.2020
5193 Rain 15 1022 100 7000 4 110 13:46 25.11.2020
5194 Rain 15 1022 100 7000 4 100 12:57 25.11.2020
5195 Rain 15 1022 100 7000 4 100 12:57 25.11.2020
5196 Rain 15 1023 100 3000 2 330 11:24 25.11.2020
5197 Rain 14 1022 100 7000 3 40 09:21 25.11.2020
5198 Mist 14 1022 100 5000 4 40 08:50 25.11.2020
5199 Mist 14 1023 93 2500 3 20 07:41 25.11.2020
5200 Clouds 13 1026 93 7000 3 40 03:49 25.11.2020
5201 Mist 13 1026 93 5000 3 20 01:49 25.11.2020
5202 Clouds 12 1026 100 8000 4 20 00:20 25.11.2020
5203 Clouds 12 1021 96 10000 2.44 21 23:35 24.11.2020
5204 Mist 11 1025 100 5000 3 10 22:39 24.11.2020
5205 Clouds 11 1026 93 6000 5 10 21:43 24.11.2020
5206 Clouds 11 1026 93 6000 4 10 21:23 24.11.2020
5207 Rain 11 1026 100 8000 3 10 19:48 24.11.2020
5208 Rain 12 1027 100 6000 2 20 17:33 24.11.2020
5209 Rain 11 1027 100 7000 3 360 16:58 24.11.2020
5210 Rain 11 1027 100 6000 3 20 16:38 24.11.2020
5211 Rain 11 1027 100 6000 3 20 15:56 24.11.2020
5212 Mist 11 1027 100 5000 4 30 15:20 24.11.2020
5213 Clouds 11 1027 100 6000 4 10 14:44 24.11.2020
5214 Mist 11 1027 100 5000 3 30 13:36 24.11.2020
5215 Clouds 11 1027 93 6000 4 10 12:39 24.11.2020
5216 Clouds 11 1027 93 6000 3 30 11:59 24.11.2020
5217 Clouds 11 1027 93 6000 4 10 11:24 24.11.2020
5218 Clouds 11 1027 93 6000 3 20 10:25 24.11.2020
5219 Mist 11 1026 100 5000 3 20 09:39 24.11.2020
5220 Mist 11 1027 100 5000 4 10 08:58 24.11.2020
5221 Mist 12 1028 93 3500 4 350 05:53 24.11.2020
5222 Mist 10 1029 100 5000 5 360 00:41 24.11.2020
5223 Clouds 10 1028 100 10000 5 360 22:24 23.11.2020
5224 Clouds 10 1028 93 10000 5 10 21:29 23.11.2020
5225 Clouds 10 1028 93 10000 4 10 20:29 23.11.2020
5226 Clouds 10 1029 87 10000 4 360 19:56 23.11.2020
5227 Clouds 10 1028 93 10000 5 10 17:57 23.11.2020
5228 Rain 10 1029 87 10000 5 10 16:56 23.11.2020
5229 Rain 10 1029 87 10000 5 10 14:50 23.11.2020
5230 Rain 11 1029 87 10000 4 10 13:58 23.11.2020
5231 Rain 12 1029 66 10000 5 30 12:41 23.11.2020
5232 Rain 12 1028 62 10000 4 40 11:59 23.11.2020
5233 Clouds 12 1028 62 10000 5 20 11:40 23.11.2020
5234 Clouds 12 1027 58 10000 5 60 09:59 23.11.2020
5235 Clouds 13 1028 54 10000 5 20 08:58 23.11.2020
5236 Clouds 13 1028 66 10000 4 10 07:58 23.11.2020
5237 Clear 13 1031 66 10000 4 10 03:32 23.11.2020
5238 Clear 11 1030 76 10000 5 350 23:51 22.11.2020
5239 Clouds 11 1030 76 10000 6 360 22:32 22.11.2020
5240 Clouds 11 1030 76 10000 5 360 21:25 22.11.2020
5241 Clouds 11 1030 76 10000 5 350 20:27 22.11.2020
5242 Clouds 11 1030 81 10000 6 350 19:29 22.11.2020
5243 Clouds 11 1030 81 10000 6 350 18:25 22.11.2020
5244 Clouds 12 1030 71 10000 6 360 16:29 22.11.2020
5245 Clouds 12 1025 75 10000 4.97 4 15:27 22.11.2020
5246 Clouds 12 1025 84 10000 5.42 7 13:32 22.11.2020
5247 Clouds 12 1029 87 10000 6 360 12:43 22.11.2020
5248 Clouds 12 1029 87 10000 6 360 11:54 22.11.2020
5249 Clouds 12 1028 87 10000 6 350 10:51 22.11.2020
5250 Clouds 12 1028 87 10000 6 350 10:33 22.11.2020
5251 Clouds 12 1028 87 10000 6 350 10:33 22.11.2020
5252 Clouds 14 1026 93 10000 6 320 04:43 22.11.2020
5253 Clouds 14 1022 93 10000 6 330 00:49 22.11.2020
5254 Clouds 16 1020 93 8000 6 290 22:42 21.11.2020
5255 Mist 16 1019 93 5000 5 290 21:31 21.11.2020
5256 Mist 16 1019 100 4000 3 290 20:49 21.11.2020
5257 Clouds 16 1018 93 6000 3 290 20:20 21.11.2020
5258 Clouds 17 1018 93 7000 2 270 19:42 21.11.2020
5259 Rain 17 1018 93 10000 1 150 18:55 21.11.2020
5260 Clouds 17 1018 93 10000 2 150 17:30 21.11.2020
5261 Rain 17 1019 88 10000 2 160 16:44 21.11.2020
5262 Rain 17 1018 88 10000 3 130 15:40 21.11.2020
5263 Rain 17 1019 82 10000 4 130 15:20 21.11.2020
5264 Rain 17 1019 82 10000 4 130 14:40 21.11.2020
5265 Clouds 18 1019 72 10000 4 130 12:44 21.11.2020
5266 Clouds 18 1019 72 10000 4 130 12:21 21.11.2020
5267 Clouds 18 1018 72 10000 4 120 11:36 21.11.2020
5268 Clouds 17 1018 77 10000 4 140 10:28 21.11.2020
5269 Clouds 17 1018 72 10000 4 140 08:52 21.11.2020
5270 Clouds 17 1018 72 10000 4 140 07:58 21.11.2020
5271 Clouds 17 1019 72 10000 5 130 05:40 21.11.2020
5272 Clouds 16 1020 67 10000 5 90 01:56 21.11.2020
5273 Clouds 15 1021 67 10000 4 110 23:59 20.11.2020
5274 Clouds 15 1021 67 10000 3 80 22:31 20.11.2020
5275 Clouds 15 1021 67 10000 4 80 21:44 20.11.2020
5276 Clouds 14 1021 67 10000 4 70 21:21 20.11.2020
5277 Clouds 14 1021 67 10000 4 70 21:21 20.11.2020
5278 Clouds 14 1021 67 10000 4 80 19:52 20.11.2020
5279 Clouds 14 1022 67 10000 3 70 18:53 20.11.2020
5280 Clouds 14 1022 67 10000 4 70 17:58 20.11.2020
5281 Clouds 14 1022 67 10000 4 50 17:29 20.11.2020
5282 Clouds 14 1023 67 10000 4 40 16:40 20.11.2020
5283 Clouds 14 1023 67 10000 4 50 15:59 20.11.2020
5284 Clouds 14 1022 62 10000 6 50 15:34 20.11.2020
5285 Clouds 14 1023 67 10000 8 40 13:48 20.11.2020
5286 Clouds 14 1023 67 10000 6 40 13:19 20.11.2020
5287 Clouds 14 1023 67 10000 7 40 12:39 20.11.2020
5288 Clouds 14 1022 67 10000 6 40 11:46 20.11.2020
5289 Clouds 14 1022 67 10000 7 30 11:20 20.11.2020
5290 Rain 15 1021 67 10000 7 30 09:31 20.11.2020
5291 Clouds 16 1021 67 10000 5 40 08:26 20.11.2020
5292 Clouds 16 1020 72 10000 7 30 07:34 20.11.2020
5293 Mist 15 1021 93 2500 6 10 03:44 20.11.2020
5294 Clouds 15 1018 82 6000 3 320 22:47 19.11.2020
5295 Clouds 15 1018 82 6000 3 320 22:26 19.11.2020
5296 Clouds 16 1018 87 10000 4 330 21:46 19.11.2020
5297 Clouds 16 1017 87 10000 4 340 20:33 19.11.2020
5298 Rain 16 1018 87 10000 1 0 19:54 19.11.2020
5299 Clouds 15 1018 87 10000 1 0 19:25 19.11.2020
5300 Rain 16 1017 82 7000 6 20 17:46 19.11.2020
5301 Rain 16 1016 72 10000 7 360 16:58 19.11.2020
5302 Clouds 18 1017 68 8000 5 340 15:41 19.11.2020
5303 Clouds 18 1017 63 8000 4 310 15:23 19.11.2020
5304 Rain 19 1015 59 8000 4 10 13:46 19.11.2020
5305 Clouds 19 1014 63 8000 5 10 13:20 19.11.2020
5306 Rain 19 1014 63 8000 4 20 12:40 19.11.2020
5307 Clouds 19 1014 63 8000 5 360 12:19 19.11.2020
5308 Rain 19 1014 63 8000 5 10 11:36 19.11.2020
5309 Clouds 19 1013 56 10000 5 330 10:54 19.11.2020
5310 Clouds 19 1013 56 10000 6 340 10:19 19.11.2020
5311 Clear 20 1012 56 10000 5 330 09:42 19.11.2020
5312 Clear 20 1012 56 10000 5 360 09:24 19.11.2020
5313 Clear 21 1012 60 10000 4 310 08:19 19.11.2020
5314 Clouds 21 1013 72 10000 4 340 02:45 19.11.2020
5315 Clouds 21 1012 68 10000 5 310 01:45 19.11.2020
5316 Clouds 20 1011 72 10000 3 330 23:52 18.11.2020
5317 Clouds 20 1010 82 10000 6 320 23:24 18.11.2020
5318 Clear 21 1009 83 10000 3 280 22:30 18.11.2020
5319 Clear 22 1008 88 10000 3 190 21:47 18.11.2020
5320 Clear 22 1008 88 10000 3 190 21:27 18.11.2020
5321 Clear 22 1008 88 10000 3 180 20:41 18.11.2020
5322 Clear 22 1008 83 10000 4 180 19:46 18.11.2020
5323 Clear 22 1008 83 10000 4 180 19:25 18.11.2020
5324 Clear 23 1008 78 10000 5 180 18:49 18.11.2020
5325 Clear 23 1008 78 10000 5 180 17:55 18.11.2020
5326 Clear 23 1008 78 10000 5 180 17:35 18.11.2020
5327 Clear 23 1009 78 10000 6 170 16:22 18.11.2020
5328 Clear 23 1009 83 10000 6 170 14:49 18.11.2020
5329 Clear 23 1009 83 10000 6 170 14:29 18.11.2020
5330 Clear 24 1009 78 10000 7 170 13:37 18.11.2020
5331 Clear 24 1008 73 10000 5 170 12:45 18.11.2020
5332 Clear 24 1008 73 10000 5 170 11:57 18.11.2020
5333 Clear 24 1008 73 10000 5 160 11:22 18.11.2020
5334 Clear 25 1008 65 10000 7 170 10:30 18.11.2020
5335 Clear 27 1008 54 10000 6 170 08:43 18.11.2020
5336 Clouds 28 1008 51 10000 8 180 07:29 18.11.2020
5337 Clouds 26 1012 65 10000 8 170 04:47 18.11.2020
5338 Clear 22 1012 88 10000 6 150 00:21 18.11.2020
5339 Clear 21 1012 94 10000 7 150 23:25 17.11.2020
5340 Rain 21 1013 94 10000 6 150 22:44 17.11.2020
5341 Clear 21 1013 94 10000 6 150 22:26 17.11.2020
5342 Rain 21 1013 88 10000 5 150 21:47 17.11.2020
5343 Clear 21 1013 88 10000 5 150 21:23 17.11.2020
5344 Clear 21 1013 88 10000 5 150 21:23 17.11.2020
5345 Rain 21 1013 88 10000 6 150 20:43 17.11.2020
5346 Clear 21 1014 88 10000 6 160 20:23 17.11.2020
5347 Clear 21 1014 83 10000 5 160 19:44 17.11.2020
5348 Clear 20 1015 88 10000 6 150 18:23 17.11.2020
5349 Clear 20 1015 88 10000 5 160 17:28 17.11.2020
5350 Clear 20 1015 88 10000 5 150 16:35 17.11.2020
5351 Clear 20 1016 88 10000 7 150 15:54 17.11.2020
5352 Clear 20 1016 88 10000 7 150 15:35 17.11.2020
5353 Clear 21 1016 83 10000 7 150 14:58 17.11.2020
5354 Clear 21 1016 83 10000 7 160 14:29 17.11.2020
5355 Clear 21 1016 83 10000 7 160 14:29 17.11.2020
5356 Clear 21 1016 83 10000 7 150 13:42 17.11.2020
5357 Clear 21 1016 83 10000 5 150 13:20 17.11.2020
5358 Clear 21 1016 83 10000 5 150 12:41 17.11.2020
5359 Rain 22 1016 78 10000 5 150 11:44 17.11.2020
5360 Clear 22 1016 78 10000 6 160 10:56 17.11.2020
5361 Clouds 22 1016 73 10000 6 150 10:33 17.11.2020
5362 Clouds 23 1017 78 10000 5 160 09:51 17.11.2020
5363 Clouds 23 1017 78 10000 5 160 09:29 17.11.2020
5364 Clear 24 1017 69 10000 6 160 08:24 17.11.2020
5365 Clouds 24 1017 64 10000 6 170 07:46 17.11.2020
5366 Clouds 24 1017 61 10000 6 170 06:40 17.11.2020
5367 Clouds 23 1020 73 10000 6 170 03:48 17.11.2020
5368 Clouds 23 1020 78 10000 6 160 02:53 17.11.2020
5369 Clouds 21 1019 94 7000 6 160 01:25 17.11.2020
5370 Clouds 20 1020 94 7000 5 150 00:53 17.11.2020
5371 Clouds 20 1019 93 8000 4 140 23:48 16.11.2020
5372 Clouds 19 1019 93 8000 4 140 23:29 16.11.2020
5373 Clouds 19 1019 93 8000 5 130 22:43 16.11.2020
5374 Clouds 19 1020 93 8000 4 140 22:20 16.11.2020
5375 Clouds 19 1020 93 10000 3 130 21:45 16.11.2020
5376 Clouds 19 1020 93 10000 3 130 21:24 16.11.2020
5377 Clouds 19 1020 93 10000 2 140 20:37 16.11.2020
5378 Clouds 19 1020 93 10000 3 130 20:19 16.11.2020
5379 Clouds 19 1020 93 10000 4 140 19:38 16.11.2020
5380 Clouds 19 1020 93 10000 4 120 19:19 16.11.2020
5381 Clouds 19 1016 92 10000 3.45 127 18:29 16.11.2020
5382 Clouds 19 1021 88 10000 3 130 17:42 16.11.2020
5383 Clouds 19 1021 88 10000 4 130 17:20 16.11.2020
5384 Clouds 19 1021 88 10000 4 120 16:52 16.11.2020
5385 Clouds 19 1021 88 10000 4 120 16:27 16.11.2020
5386 Clouds 19 1021 88 10000 5 110 15:50 16.11.2020
5387 Clouds 19 1021 88 10000 5 110 15:29 16.11.2020
5388 Clouds 19 1021 88 10000 5 110 15:29 16.11.2020
5389 Clouds 19 1022 82 10000 3 100 14:53 16.11.2020
5390 Clouds 19 1022 82 10000 4 100 13:59 16.11.2020
5391 Clouds 19 1022 82 10000 4 100 13:21 16.11.2020
5392 Clouds 19 1022 82 10000 4 100 12:32 16.11.2020
5393 Clouds 19 1022 82 10000 5 110 11:43 16.11.2020
5394 Clouds 19 1022 72 10000 3 90 11:23 16.11.2020
5395 Clouds 19 1021 72 10000 3 80 10:44 16.11.2020
5396 Clouds 19 1021 72 10000 3 80 10:26 16.11.2020
5397 Clouds 20 1021 68 10000 5 100 09:53 16.11.2020
5398 Clouds 21 1021 68 10000 5 100 09:34 16.11.2020
5399 Clouds 21 1021 68 10000 4 80 08:48 16.11.2020
5400 Clouds 21 1021 68 10000 5 120 08:21 16.11.2020
5401 Clouds 21 1022 68 10000 4 110 07:19 16.11.2020
5402 Clouds 21 1022 73 10000 3 100 06:45 16.11.2020
5403 Clouds 22 1023 73 10000 4 90 05:44 16.11.2020
5404 Clouds 21 1024 73 10000 3 100 03:54 16.11.2020
5405 Clouds 19 1024 88 7000 4 80 01:45 16.11.2020
5406 Clouds 18 1024 93 6000 2 90 00:28 16.11.2020
5407 Clouds 17 1023 93 6000 1 30 23:29 15.11.2020
5408 Clouds 17 1023 93 6000 2 20 22:57 15.11.2020
5409 Clear 17 1023 93 6000 2 10 22:24 15.11.2020
5410 Clear 17 1023 93 6000 2 360 21:51 15.11.2020
5411 Clear 17 1023 93 6000 2 360 21:29 15.11.2020
5412 Clear 17 1023 93 6000 2 30 20:51 15.11.2020
5413 Clear 17 1023 93 6000 2 10 20:32 15.11.2020
5414 Clear 17 1023 93 8000 2 350 19:55 15.11.2020
5415 Clear 17 1023 93 8000 2 360 19:37 15.11.2020
5416 Clouds 17 1023 93 8000 2 50 19:18 15.11.2020
5417 Clouds 17 1023 93 8000 2 70 18:43 15.11.2020
5418 Clouds 17 1023 93 8000 2 70 18:24 15.11.2020
5419 Clear 17 1024 88 10000 2 80 17:47 15.11.2020
5420 Clear 17 1024 88 10000 2 100 17:26 15.11.2020
5421 Clear 18 1024 88 10000 2 100 16:52 15.11.2020
5422 Clouds 18 1024 88 10000 3 100 16:24 15.11.2020
5423 Clouds 18 1024 88 10000 3 100 15:58 15.11.2020
5424 Clouds 18 1024 82 10000 3 100 15:39 15.11.2020
5425 Clouds 18 1024 82 10000 3 110 15:21 15.11.2020
5426 Clouds 18 1024 88 10000 4 110 14:41 15.11.2020
5427 Clouds 18 1024 82 10000 3 100 14:21 15.11.2020
5428 Clouds 18 1024 82 10000 3 100 13:40 15.11.2020
5429 Clouds 18 1024 77 10000 3 90 12:53 15.11.2020
5430 Clouds 18 1024 77 10000 3 90 12:26 15.11.2020
5431 Clouds 18 1024 72 10000 3 90 11:58 15.11.2020
5432 Clouds 18 1023 68 10000 3 100 11:40 15.11.2020
5433 Clear 19 1023 68 10000 4 90 11:18 15.11.2020
5434 Clear 19 1023 64 10000 4 100 10:46 15.11.2020
5435 Clear 19 1023 64 10000 4 100 10:27 15.11.2020
5436 Clear 20 1023 60 10000 4 90 09:45 15.11.2020
5437 Clear 20 1023 60 10000 5 90 09:22 15.11.2020
5438 Clear 20 1023 60 10000 4 80 08:53 15.11.2020
5439 Clear 21 1023 60 10000 4 80 08:30 15.11.2020
5440 Clouds 21 1023 53 10000 4 120 07:43 15.11.2020
5441 Clouds 22 1025 49 10000 5 150 05:18 15.11.2020
5442 Clouds 22 1025 53 10000 5 160 04:49 15.11.2020
5443 Mist 17 1025 100 4500 1 0 00:49 15.11.2020
5444 Mist 16 1025 100 4500 1 0 00:29 15.11.2020
5445 Mist 15 1025 93 4000 1 30 23:37 14.11.2020
5446 Mist 15 1025 100 3800 2 360 22:50 14.11.2020
5447 Mist 15 1025 100 3800 2 360 22:31 14.11.2020
5448 Mist 15 1025 100 3800 2 360 22:31 14.11.2020
5449 Mist 15 1025 93 4000 2 350 21:44 14.11.2020
5450 Clear 16 1021 89 10000 1.73 86 21:22 14.11.2020
5451 Clear 16 1021 89 10000 1.73 86 20:57 14.11.2020
5452 Mist 15 1025 93 5000 1 20 20:28 14.11.2020
5453 Clear 15 1025 93 8000 3 10 19:52 14.11.2020
5454 Clear 15 1025 93 8000 3 10 19:32 14.11.2020
5455 Clear 15 1026 87 10000 2 350 18:44 14.11.2020
5456 Clear 15 1026 93 10000 2 350 18:25 14.11.2020
5457 Clear 15 1026 93 10000 2 350 17:57 14.11.2020
5458 Clear 15 1026 87 10000 2 360 17:39 14.11.2020
5459 Clear 16 1026 87 10000 1 0 17:19 14.11.2020
5460 Clear 16 1026 82 10000 1 0 16:41 14.11.2020
5461 Clear 16 1026 82 10000 2 50 16:20 14.11.2020
5462 Clear 16 1026 82 10000 2 50 15:52 14.11.2020
5463 Clear 16 1026 82 10000 2 60 15:26 14.11.2020
5464 Clear 16 1026 77 10000 1 0 14:42 14.11.2020
5465 Clear 16 1026 77 10000 2 100 14:23 14.11.2020
5466 Clear 17 1026 77 10000 2 90 13:42 14.11.2020
5467 Clear 17 1026 77 10000 3 80 13:23 14.11.2020
5468 Clear 17 1026 72 10000 3 80 12:46 14.11.2020
5469 Clear 17 1026 72 10000 3 80 12:28 14.11.2020
5470 Clear 17 1026 68 10000 3 90 11:46 14.11.2020
5471 Clear 18 1026 63 10000 3 100 11:25 14.11.2020
5472 Clear 18 1025 59 10000 3 90 10:45 14.11.2020
5473 Clear 18 1025 59 10000 3 90 10:25 14.11.2020
5474 Clear 19 1025 52 10000 4 90 09:49 14.11.2020
5475 Clouds 19 1026 56 10000 5 90 09:28 14.11.2020
5476 Clouds 20 1026 56 10000 4 80 08:50 14.11.2020
5477 Clouds 20 1026 56 10000 4 80 08:29 14.11.2020
5478 Clouds 20 1026 49 10000 5 110 07:50 14.11.2020
5479 Clouds 20 1026 49 10000 5 110 07:26 14.11.2020
5480 Clouds 21 1026 49 10000 4 90 06:32 14.11.2020
5481 Clouds 20 1027 56 10000 4 70 05:31 14.11.2020
5482 Clouds 19 1028 63 10000 5 80 03:53 14.11.2020
5483 Clear 16 1028 87 10000 2 10 00:56 14.11.2020
5484 Clear 14 1027 87 10000 2 350 23:46 13.11.2020
5485 Clouds 13 1027 93 10000 1 10 23:23 13.11.2020
5486 Clouds 14 1027 87 10000 1 350 22:44 13.11.2020
5487 Clouds 14 1027 87 10000 1 350 22:25 13.11.2020
5488 Clouds 14 1027 87 10000 1.64 33 21:51 13.11.2020
5489 Clouds 14 1027 87 10000 2 340 21:33 13.11.2020
5490 Clouds 14 1027 87 10000 1 0 20:59 13.11.2020
5491 Clouds 14 1027 82 10000 2 340 20:40 13.11.2020
5492 Clear 14 1027 87 10000 2 340 20:20 13.11.2020
5493 Clear 14 1027 87 10000 2 360 19:45 13.11.2020
5494 Clear 14 1027 87 10000 2 360 19:23 13.11.2020
5495 Clear 15 1023 75 10000 1.81 45 18:53 13.11.2020
5496 Clear 14 1028 82 10000 2 360 18:00 13.11.2020
5497 Clear 15 1023 73 10000 1.86 55 17:39 13.11.2020
5498 Clear 15 1028 76 10000 2 20 17:18 13.11.2020
5499 Clouds 15 1028 72 10000 2 40 16:47 13.11.2020
5500 Clouds 15 1028 72 10000 2 50 16:21 13.11.2020
5501 Clouds 15 1028 72 10000 3 60 15:41 13.11.2020
5502 Clouds 15 1028 67 10000 3 60 15:23 13.11.2020
5503 Clouds 15 1028 67 10000 3 60 15:23 13.11.2020
5504 Clouds 16 1028 67 10000 4 40 14:40 13.11.2020
5505 Clouds 16 1028 67 10000 4 50 14:19 13.11.2020
5506 Clear 16 1028 67 10000 3 50 13:40 13.11.2020
5507 Clear 16 1028 63 10000 3 40 13:21 13.11.2020
5508 Clear 16 1028 63 10000 3 40 13:21 13.11.2020
5509 Clear 16 1028 63 10000 3 50 12:45 13.11.2020
5510 Clear 16 1028 59 10000 4 50 12:24 13.11.2020
5511 Clear 16 1027 59 10000 4 40 11:48 13.11.2020
5512 Clear 17 1027 59 10000 4 40 11:24 13.11.2020
5513 Clear 17 1027 59 10000 4 40 10:54 13.11.2020
5514 Clear 17 1027 52 10000 4 50 10:34 13.11.2020
5515 Clear 17 1027 52 10000 4 40 09:53 13.11.2020
5516 Clear 18 1027 48 10000 4 60 09:32 13.11.2020
5517 Clear 18 1027 48 10000 4 60 09:32 13.11.2020
5518 Clear 19 1027 49 10000 5 40 08:55 13.11.2020
5519 Clear 20 1027 49 10000 4 60 08:32 13.11.2020
5520 Clear 19 1027 45 10000 4 50 07:55 13.11.2020
5521 Clear 19 1027 45 10000 4 50 07:37 13.11.2020
5522 Clouds 19 1027 49 10000 5 50 07:18 13.11.2020
5523 Clouds 19 1027 55 10000 5 30 06:37 13.11.2020
5524 Clouds 20 1028 52 10000 4 30 05:42 13.11.2020
5525 Clouds 19 1028 55 10000 3 60 04:24 13.11.2020
5526 Clear 18 1028 67 10000 3 30 01:43 13.11.2020
5527 Clear 16 1028 82 10000 2 10 00:37 13.11.2020
5528 Clear 15 1027 87 10000 2 360 23:59 12.11.2020
5529 Clear 15 1027 82 10000 2 350 23:36 12.11.2020
5530 Clear 14 1027 87 10000 2 10 23:18 12.11.2020
5531 Clear 14 1027 87 10000 2 10 23:18 12.11.2020
5532 Clear 14 1026 87 10000 2 360 22:40 12.11.2020
5533 Clear 14 1026 82 10000 2 360 21:59 12.11.2020
5534 Clear 14 1026 82 10000 1 10 21:41 12.11.2020
5535 Clear 15 1026 82 10000 1 360 21:22 12.11.2020
5536 Clear 15 1026 82 10000 1 10 20:42 12.11.2020
5537 Clear 15 1026 82 10000 1 20 20:24 12.11.2020
5538 Clear 15 1026 82 10000 1 20 19:57 12.11.2020
5539 Clear 15 1027 76 10000 1 20 19:39 12.11.2020
5540 Clear 15 1027 76 10000 2 80 19:21 12.11.2020
5541 Clear 15 1027 77 10000 2 90 18:45 12.11.2020
5542 Clear 15 1027 77 10000 3 90 18:20 12.11.2020
5543 Clear 16 1027 72 10000 2 110 17:43 12.11.2020
5544 Clear 15 1027 77 10000 2 80 17:24 12.11.2020
5545 Clear 16 1027 67 10000 2 100 16:46 12.11.2020
5546 Clear 16 1027 67 10000 2 100 16:24 12.11.2020
5547 Clear 16 1027 67 10000 3 100 15:53 12.11.2020
5548 Clear 16 1027 67 10000 3 100 15:29 12.11.2020
5549 Clear 16 1027 63 10000 3 100 14:56 12.11.2020
5550 Clear 16 1027 63 10000 3 110 14:37 12.11.2020
5551 Clear 16 1027 63 10000 3 110 14:18 12.11.2020
5552 Clear 16 1027 67 10000 4 110 13:45 12.11.2020
5553 Clear 17 1027 63 10000 3 110 13:19 12.11.2020
5554 Clear 17 1027 59 10000 4 100 12:48 12.11.2020
5555 Clear 17 1027 59 10000 4 100 12:25 12.11.2020
5556 Clear 17 1027 59 10000 4 110 11:54 12.11.2020
5557 Clear 17 1027 59 10000 3 110 11:35 12.11.2020
5558 Clear 18 1026 52 10000 4 110 10:53 12.11.2020
5559 Clear 18 1026 52 10000 5 110 10:34 12.11.2020
5560 Clear 19 1026 49 10000 4 130 09:52 12.11.2020
5561 Clear 19 1026 49 10000 4 130 09:27 12.11.2020
5562 Clear 20 1026 46 10000 4 110 08:58 12.11.2020
5563 Clear 20 1026 46 10000 3 150 08:40 12.11.2020
5564 Clear 20 1026 46 10000 3 150 08:40 12.11.2020
5565 Clear 20 1026 46 10000 4 110 08:20 12.11.2020
5566 Clear 20 1026 46 10000 4 110 07:54 12.11.2020
5567 Clear 21 1026 43 10000 4 120 07:31 12.11.2020
5568 Clear 21 1026 46 10000 3 120 06:51 12.11.2020
5569 Clear 21 1027 43 10000 2 120 06:22 12.11.2020
5570 Clear 20 1029 45 10000 4 150 03:45 12.11.2020
5571 Clear 19 1029 48 10000 3 120 03:19 12.11.2020
5572 Clouds 14 1029 81 10000 1 10 00:28 12.11.2020
5573 Clouds 14 1028 81 10000 1 30 23:42 11.11.2020
5574 Clouds 13 1028 87 10000 1.17 102 23:24 11.11.2020
5575 Clouds 14 1028 81 10000 1 0 22:47 11.11.2020
5576 Clouds 14 1028 81 10000 1 10 22:22 11.11.2020
5577 Clouds 13 1028 81 10000 1 10 21:56 11.11.2020
5578 Clouds 13 1029 81 10000 1 0 21:38 11.11.2020
5579 Clear 13 1029 81 10000 1 30 21:19 11.11.2020
5580 Clear 13 1029 81 10000 1 10 20:42 11.11.2020
5581 Clear 13 1029 76 10000 1 40 20:22 11.11.2020
5582 Clear 13 1029 76 10000 1 40 19:55 11.11.2020
5583 Clear 13 1029 76 10000 1 40 19:36 11.11.2020
5584 Clear 13 1030 76 10000 1 50 19:18 11.11.2020
5585 Clear 14 1030 67 10000 1 70 18:41 11.11.2020
5586 Clear 14 1030 67 10000 2 110 18:19 11.11.2020
5587 Clear 14 1030 62 10000 1 100 17:37 11.11.2020
5588 Clear 14 1030 62 10000 2 120 17:19 11.11.2020
5589 Clear 15 1030 62 10000 3 100 16:38 11.11.2020
5590 Clear 15 1030 58 10000 2 90 16:20 11.11.2020
5591 Clear 15 1031 62 10000 2 90 15:41 11.11.2020
5592 Clear 15 1031 58 10000 1 90 15:23 11.11.2020
5593 Clear 15 1031 58 10000 2 100 14:43 11.11.2020
5594 Clear 15 1031 58 10000 2 100 14:23 11.11.2020
5595 Clear 15 1030 58 10000 3 80 13:49 11.11.2020
5596 Clear 15 1031 55 10000 2 90 13:24 11.11.2020
5597 Clear 16 1030 55 10000 4 80 12:22 11.11.2020
5598 Clear 16 1030 55 10000 3 80 11:52 11.11.2020
5599 Clear 16 1030 55 10000 3 80 11:34 11.11.2020
5600 Clouds 16 1030 51 10000 4 80 10:56 11.11.2020
5601 Clouds 16 1030 51 10000 4 80 10:37 11.11.2020
5602 Clouds 17 1029 48 10000 4 80 10:18 11.11.2020
5603 Clouds 17 1029 45 10000 4 70 09:42 11.11.2020
5604 Clouds 18 1029 45 10000 4 60 09:21 11.11.2020
5605 Clouds 18 1029 48 10000 4 60 08:43 11.11.2020
5606 Clouds 18 1029 48 10000 4 60 08:25 11.11.2020
5607 Clouds 19 1029 45 10000 4 100 07:46 11.11.2020
5608 Clouds 20 1030 52 10000 4 60 06:33 11.11.2020
5609 Clouds 19 1030 48 10000 4 50 05:45 11.11.2020
5610 Clear 17 1031 63 10000 3 30 01:58 11.11.2020
5611 Clear 15 1031 76 10000 2 10 00:58 11.11.2020
5612 Clear 14 1031 81 10000 1 360 00:25 11.11.2020
5613 Clear 13 1030 81 10000 1 10 23:40 10.11.2020
5614 Clear 13 1030 87 10000 1.21 32 23:22 10.11.2020
5615 Clear 13 1030 87 10000 1.21 32 22:50 10.11.2020
5616 Clear 13 1030 87 10000 1.19 39 22:26 10.11.2020
5617 Clear 13 1029 81 10000 1 350 21:42 10.11.2020
5618 Clear 13 1029 76 10000 1 10 21:23 10.11.2020
5619 Clear 13 1029 76 10000 1 10 20:58 10.11.2020
5620 Clear 13 1029 81 10000 1.35 41 20:39 10.11.2020
5621 Clear 13 1029 76 10000 1 0 20:21 10.11.2020
5622 Clear 13 1029 76 10000 1.2 32 19:44 10.11.2020
5623 Clear 13 1029 76 10000 1.06 35 19:24 10.11.2020
5624 Clear 13 1029 71 10000 1 0 18:55 10.11.2020
5625 Clear 13 1029 71 10000 1 30 18:37 10.11.2020
5626 Clear 14 1029 58 10000 1 80 18:18 10.11.2020
5627 Clear 14 1029 54 10000 2 90 17:41 10.11.2020
5628 Clear 14 1029 54 10000 1 0 17:23 10.11.2020
5629 Clear 14 1029 54 10000 1 0 16:42 10.11.2020
5630 Clear 14 1029 51 10000 2 120 16:22 10.11.2020
5631 Clear 14 1029 51 10000 2 120 15:54 10.11.2020
5632 Clear 15 1030 51 10000 2 100 15:36 10.11.2020
5633 Clear 15 1030 51 10000 2 110 15:18 10.11.2020
5634 Clear 15 1030 51 10000 1 0 14:39 10.11.2020
5635 Clear 15 1030 48 10000 2 90 14:18 10.11.2020
5636 Clear 15 1029 48 10000 3 80 13:39 10.11.2020
5637 Clear 15 1029 48 10000 3 70 13:20 10.11.2020
5638 Clear 16 1029 48 10000 3 80 12:46 10.11.2020
5639 Clear 16 1029 48 10000 3 80 12:28 10.11.2020
5640 Clear 16 1029 45 10000 3 60 11:43 10.11.2020
5641 Clear 16 1029 45 10000 3 60 11:43 10.11.2020
5642 Clear 16 1028 42 10000 4 40 11:22 10.11.2020
5643 Clear 17 1028 42 10000 4 40 10:57 10.11.2020
5644 Clear 17 1028 39 10000 4 40 10:38 10.11.2020
5645 Clear 17 1028 39 10000 3 50 10:20 10.11.2020
5646 Clear 18 1028 37 10000 3 50 09:46 10.11.2020
5647 Clear 18 1028 39 10000 3 20 09:25 10.11.2020
5648 Clear 19 1028 39 10000 3 20 08:55 10.11.2020
5649 Clear 19 1028 34 10000 2 70 08:27 10.11.2020
5650 Clear 19 1028 37 10000 2 0 07:44 10.11.2020
5651 Clear 19 1028 37 10000 2 0 07:24 10.11.2020
5652 Clear 19 1028 37 10000 2 100 06:41 10.11.2020
5653 Clear 19 1029 39 10000 1 0 05:44 10.11.2020
5654 Clear 18 1029 39 10000 3 100 04:59 10.11.2020
5655 Clear 17 1029 55 10000 3 30 02:36 10.11.2020
5656 Clear 16 1029 62 10000 1 360 01:30 10.11.2020
5657 Clear 13 1028 81 10000 2 360 23:57 09.11.2020
5658 Clear 13 1028 87 10000 1 10 23:36 09.11.2020
5659 Clear 13 1027 81 10000 1 360 22:49 09.11.2020
5660 Clear 13 1027 81 10000 1 360 22:25 09.11.2020
5661 Clear 13 1027 81 10000 1 360 21:56 09.11.2020
5662 Clear 13 1027 81 10000 1 10 21:37 09.11.2020
5663 Clear 13 1027 81 10000 1 10 21:18 09.11.2020
5664 Clear 13 1027 76 10000 1 350 20:37 09.11.2020
5665 Clear 13 1027 81 10000 1 10 20:19 09.11.2020
5666 Clear 13 1027 76 10000 1 10 19:41 09.11.2020
5667 Clear 13 1028 71 10000 1 10 19:22 09.11.2020
5668 Clear 13 1028 66 10000 1 0 18:42 09.11.2020
5669 Clear 14 1028 66 10000 0.94 57 18:20 09.11.2020
5670 Clear 14 1028 58 10000 0.94 57 17:53 09.11.2020
5671 Clear 14 1028 58 10000 0.94 57 17:53 09.11.2020
5672 Clear 14 1028 58 10000 0.94 57 17:33 09.11.2020
5673 Clear 14 1028 58 10000 1 80 16:48 09.11.2020
5674 Clear 14 1028 58 10000 1 80 16:30 09.11.2020
5675 Clear 14 1028 54 10000 2 90 15:58 09.11.2020
5676 Clear 14 1028 54 10000 1 0 15:40 09.11.2020
5677 Clear 15 1028 54 10000 2 100 15:20 09.11.2020
5678 Clear 15 1028 54 10000 2 90 14:44 09.11.2020
5679 Clear 15 1028 54 10000 2 90 14:25 09.11.2020
5680 Clear 15 1027 51 10000 2 80 13:46 09.11.2020
5681 Clear 15 1027 54 10000 3 80 13:20 09.11.2020
5682 Clear 15 1027 54 10000 3 80 13:20 09.11.2020
5683 Clear 15 1027 51 10000 3 80 12:47 09.11.2020
5684 Clear 15 1026 51 10000 3 90 12:25 09.11.2020
5685 Clear 15 1026 51 10000 3 90 11:56 09.11.2020
5686 Clear 16 1026 45 10000 3 30 11:37 09.11.2020
5687 Clear 16 1026 45 10000 3 50 11:18 09.11.2020
5688 Clear 16 1026 42 10000 3 40 10:42 09.11.2020
5689 Clear 17 1026 39 10000 3 20 10:23 09.11.2020
5690 Clear 17 1026 39 10000 2 40 09:41 09.11.2020
5691 Clear 18 1026 39 10000 2 20 09:23 09.11.2020
5692 Clear 18 1026 37 10000 3 40 08:38 09.11.2020
5693 Clear 19 1026 37 10000 2 0 08:19 09.11.2020
5694 Clear 19 1026 37 10000 4 20 07:38 09.11.2020
5695 Clear 19 1026 39 10000 4 360 07:18 09.11.2020
5696 Clear 19 1026 34 10000 5 30 06:22 09.11.2020
5697 Clear 17 1028 45 10000 4 40 02:58 09.11.2020
5698 Clear 16 1028 54 10000 3 40 01:42 09.11.2020
5699 Clear 15 1028 67 10000 2 30 00:57 09.11.2020
5700 Clear 14 1027 66 10000 1 40 23:50 08.11.2020
5701 Clear 14 1027 66 10000 1 40 23:28 08.11.2020
5702 Clear 14 1027 66 10000 2 20 22:45 08.11.2020
5703 Clear 14 1022 59 10000 3.3 17 22:22 08.11.2020
5704 Clear 14 1027 62 10000 2 30 21:52 08.11.2020
5705 Clear 14 1027 62 10000 2 30 21:25 08.11.2020
5706 Clear 14 1027 66 10000 3 40 20:59 08.11.2020
5707 Clear 14 1027 66 10000 3 30 20:39 08.11.2020
5708 Clear 14 1027 71 10000 3 20 20:20 08.11.2020
5709 Clear 14 1027 66 10000 2 20 19:46 08.11.2020
5710 Clear 14 1027 66 10000 2 20 19:24 08.11.2020
5711 Clear 15 1027 66 10000 2 20 18:59 08.11.2020
5712 Clear 15 1027 62 10000 3 20 18:41 08.11.2020
5713 Clear 15 1027 62 10000 3 30 18:21 08.11.2020
5714 Clear 15 1027 62 10000 3 30 17:57 08.11.2020
5715 Clear 15 1027 58 10000 3 30 17:36 08.11.2020
5716 Clear 15 1027 58 10000 3 30 17:18 08.11.2020
5717 Clear 15 1027 54 10000 3 30 16:39 08.11.2020
5718 Clear 15 1028 54 10000 3 40 16:21 08.11.2020
5719 Clear 16 1028 51 10000 3 50 15:50 08.11.2020
5720 Clear 16 1028 51 10000 3 50 15:28 08.11.2020
5721 Clear 16 1028 55 10000 4 50 14:44 08.11.2020
5722 Clear 16 1028 55 10000 4 50 14:24 08.11.2020
5723 Clear 16 1028 55 10000 4 50 14:24 08.11.2020
5724 Clear 16 1028 55 10000 4 50 13:57 08.11.2020
5725 Clear 16 1028 59 10000 4 40 13:38 08.11.2020
5726 Clear 17 1028 51 10000 4 40 13:18 08.11.2020
5727 Clear 17 1028 48 10000 5 40 12:40 08.11.2020
5728 Rain 17 1027 42 10000 4 50 12:22 08.11.2020
5729 Rain 17 1027 42 10000 4 50 11:56 08.11.2020
5730 Rain 17 1027 36 10000 5 40 11:38 08.11.2020
5731 Rain 18 1027 36 10000 5 40 11:19 08.11.2020
5732 Clear 18 1027 34 10000 5 40 10:42 08.11.2020
5733 Clear 18 1027 32 10000 6 30 10:18 08.11.2020
5734 Clear 19 1026 34 10000 6 20 09:42 08.11.2020
5735 Clear 19 1026 28 10000 6 20 09:23 08.11.2020
5736 Clear 20 1026 28 10000 7 20 08:47 08.11.2020
5737 Clear 21 1026 28 10000 7 20 08:27 08.11.2020
5738 Clear 21 1026 28 10000 7 10 07:53 08.11.2020
5739 Clear 20 1026 26 10000 7 20 07:32 08.11.2020
5740 Clear 21 1026 26 10000 7 350 06:45 08.11.2020
5741 Clear 21 1026 28 10000 6 30 05:54 08.11.2020
5742 Clear 20 1026 32 10000 5 40 04:51 08.11.2020
5743 Clouds 20 1026 49 10000 6 50 03:25 08.11.2020
5744 Mist 17 1026 87 2300 3 20 01:19 08.11.2020
5745 Mist 16 1025 82 4000 2 10 00:33 08.11.2020
5746 Clear 16 1021 73 10000 3.35 8 23:57 07.11.2020
5747 Clear 15 1021 72 10000 3.35 8 23:38 07.11.2020
5748 Clear 15 1021 70 10000 3.3 3 23:19 07.11.2020
5749 Clear 15 1020 65 10000 3.3 3 22:40 07.11.2020
5750 Clear 16 1020 63 10000 3.46 359 22:20 07.11.2020
5751 Clear 16 1020 59 10000 3.46 359 21:43 07.11.2020
5752 Clear 16 1020 58 10000 3.4 356 21:19 07.11.2020
5753 Clear 16 1023 58 10000 3 330 20:47 07.11.2020
5754 Clear 16 1019 54 10000 2.97 348 20:29 07.11.2020
5755 Clear 16 1023 55 10000 2 340 19:49 07.11.2020
5756 Clear 16 1023 55 10000 2 340 19:28 07.11.2020
5757 Clear 17 1023 54 10000 2 360 18:45 07.11.2020
5758 Clear 17 1019 50 10000 2.58 341 18:27 07.11.2020
5759 Clear 17 1023 51 10000 2 340 17:57 07.11.2020
5760 Clear 17 1023 51 10000 3 340 17:37 07.11.2020
5761 Clear 18 1023 45 10000 5 340 16:54 07.11.2020
5762 Clear 18 1023 45 10000 5 340 16:36 07.11.2020
5763 Clear 18 1023 48 10000 4 350 16:18 07.11.2020
5764 Clear 18 1023 45 10000 5 340 15:41 07.11.2020
5765 Clear 18 1022 42 10000 6 320 15:22 07.11.2020
5766 Clear 19 1022 52 10000 3 300 14:43 07.11.2020
5767 Clear 19 1022 46 10000 3 310 14:24 07.11.2020
5768 Clear 20 1022 46 10000 3 310 13:52 07.11.2020
5769 Clear 20 1022 46 10000 3 310 13:30 07.11.2020
5770 Clear 20 1022 43 10000 3 320 12:44 07.11.2020
5771 Clear 20 1021 43 10000 4 340 12:20 07.11.2020
5772 Clear 21 1021 46 10000 3 270 11:41 07.11.2020
5773 Clear 21 1021 43 8000 2 260 11:22 07.11.2020
5774 Clear 22 1020 40 8000 3 290 10:45 07.11.2020
5775 Clear 22 1020 40 8000 3 290 10:25 07.11.2020
5776 Clear 23 1020 36 10000 4 300 09:52 07.11.2020
5777 Clear 23 1020 36 10000 4 300 09:32 07.11.2020
5778 Clear 24 1020 36 10000 4 310 08:53 07.11.2020
5779 Clear 25 1020 33 10000 4 300 08:34 07.11.2020
5780 Clear 24 1020 36 10000 3 310 07:49 07.11.2020
5781 Clear 23 1020 33 10000 5 310 07:18 07.11.2020
5782 Clear 24 1020 33 10000 4 310 06:47 07.11.2020
5783 Clear 22 1022 38 10000 4 300 04:43 07.11.2020
5784 Clouds 21 1022 52 7000 3 0 03:23 07.11.2020
5785 Clouds 20 1022 60 7000 3 320 01:28 07.11.2020
5786 Clouds 20 1022 60 7000 3 320 01:28 07.11.2020
5787 Clouds 20 1022 60 7000 3 320 01:28 07.11.2020
5788 Clouds 19 1021 68 6000 2 310 00:41 07.11.2020
5789 Clouds 18 1021 77 8000 1 0 23:49 06.11.2020
5790 Clouds 17 1021 77 8000 1 0 23:19 06.11.2020
5791 Clouds 18 1021 77 8000 1 0 22:41 06.11.2020
5792 Clouds 17 1021 82 8000 1 190 22:19 06.11.2020
5793 Clouds 17 1021 77 8000 1.84 311 21:44 06.11.2020
5794 Clouds 17 1021 77 8000 1.83 311 21:21 06.11.2020
5795 Clouds 17 1021 77 8000 1.83 311 21:21 06.11.2020
5796 Clouds 17 1021 82 8000 1.83 311 20:51 06.11.2020
5797 Clouds 17 1021 77 8000 1 0 20:20 06.11.2020
5798 Clouds 17 1021 77 8000 1 0 20:20 06.11.2020
5799 Clouds 18 1021 72 8000 2 280 19:47 06.11.2020
5800 Clear 18 1021 72 8000 2 280 19:29 06.11.2020
5801 Clear 18 1021 77 8000 2 300 18:59 06.11.2020
5802 Clear 17 1021 82 10000 1 240 18:40 06.11.2020
5803 Clear 18 1020 77 10000 1 0 18:22 06.11.2020
5804 Clear 18 1020 77 10000 1 190 17:48 06.11.2020
5805 Clear 18 1021 72 10000 1 0 17:25 06.11.2020
5806 Clear 18 1021 68 10000 1 10 16:47 06.11.2020
5807 Clear 18 1021 72 10000 2 360 16:24 06.11.2020
5808 Clear 19 1021 68 10000 3 360 15:47 06.11.2020
5809 Rain 19 1021 63 10000 3 10 15:27 06.11.2020
5810 Rain 19 1021 63 10000 2 360 14:51 06.11.2020
5811 Rain 19 1021 63 10000 2 360 14:24 06.11.2020
5812 Rain 20 1020 56 10000 4 360 13:44 06.11.2020
5813 Clear 20 1020 60 10000 3 10 13:23 06.11.2020
5814 Rain 20 1020 60 10000 3 10 12:45 06.11.2020
5815 Rain 20 1020 56 10000 2 10 12:23 06.11.2020
5816 Rain 21 1019 56 10000 3 20 11:43 06.11.2020
5817 Clear 21 1019 53 10000 4 10 11:24 06.11.2020
5818 Clear 22 1019 56 10000 5 10 10:39 06.11.2020
5819 Clear 22 1019 50 10000 4 330 10:19 06.11.2020
5820 Clear 23 1018 50 10000 4 330 09:48 06.11.2020
5821 Clear 23 1018 47 10000 3 340 09:21 06.11.2020
5822 Clear 24 1018 44 10000 4 320 08:49 06.11.2020
5823 Clear 24 1018 44 10000 4 320 08:28 06.11.2020
5824 Clear 25 1018 41 10000 3 330 07:49 06.11.2020
5825 Clear 24 1018 41 10000 3 330 07:30 06.11.2020
5826 Clear 24 1019 44 10000 3 340 06:51 06.11.2020
5827 Clear 24 1019 44 10000 3 340 06:51 06.11.2020
5828 Clear 23 1020 50 10000 3 300 05:42 06.11.2020
5829 Clear 22 1022 68 10000 2 230 03:46 06.11.2020
5830 Clear 17 1021 100 10000 0.48 232 00:48 06.11.2020
5831 Clear 16 1021 100 10000 1 180 00:19 06.11.2020
5832 Clear 16 1021 93 10000 2 140 23:29 05.11.2020
5833 Clear 16 1021 100 10000 1 160 22:57 05.11.2020
5834 Clear 16 1021 100 10000 1 180 22:37 05.11.2020
5835 Clear 16 1021 100 10000 1 170 22:18 05.11.2020
5836 Clear 16 1021 93 10000 2 160 21:42 05.11.2020
5837 Clear 16 1021 93 10000 1 160 21:21 05.11.2020
5838 Clear 16 1021 93 10000 1 160 20:45 05.11.2020
5839 Clear 16 1021 93 10000 1 160 20:26 05.11.2020
5840 Clear 17 1021 87 10000 2 150 19:58 05.11.2020
5841 Clear 16 1021 93 10000 2 150 19:40 05.11.2020
5842 Clear 17 1022 87 10000 2 150 19:20 05.11.2020
5843 Clear 17 1022 87 10000 2 150 18:42 05.11.2020
5844 Clear 17 1022 87 10000 3 150 18:23 05.11.2020
5845 Clear 17 1022 87 10000 3 150 17:51 05.11.2020
5846 Clear 17 1022 87 10000 3 150 17:27 05.11.2020
5847 Clear 17 1022 82 10000 3 150 16:53 05.11.2020
5848 Clear 17 1022 82 10000 3 150 16:29 05.11.2020
5849 Clear 17 1023 82 10000 3 140 15:57 05.11.2020
5850 Clear 17 1023 77 10000 4 140 15:39 05.11.2020
5851 Clear 17 1023 77 10000 4 140 15:20 05.11.2020
5852 Clear 17 1023 72 10000 4 130 14:44 05.11.2020
5853 Clear 17 1023 72 10000 4 130 14:24 05.11.2020
5854 Clear 17 1023 72 10000 5 130 13:41 05.11.2020
5855 Clear 17 1023 68 10000 4 120 13:20 05.11.2020
5856 Clear 17 1023 68 10000 5 130 12:43 05.11.2020
5857 Clear 17 1022 68 10000 4 130 12:23 05.11.2020
5858 Clear 17 1022 68 10000 5 120 11:44 05.11.2020
5859 Clouds 18 1022 68 10000 6 120 11:24 05.11.2020
5860 Clear 18 1022 63 10000 5 130 10:52 05.11.2020
5861 Clear 18 1022 63 10000 5 130 10:28 05.11.2020
5862 Clouds 19 1021 60 10000 4 110 09:50 05.11.2020
5863 Clouds 19 1021 60 10000 4 110 09:25 05.11.2020
5864 Clouds 20 1021 49 10000 7 150 08:55 05.11.2020
5865 Clouds 20 1021 49 10000 6 150 08:36 05.11.2020
5866 Clouds 20 1021 49 10000 7 150 08:18 05.11.2020
5867 Clouds 20 1022 52 10000 5 130 07:28 05.11.2020
5868 Clouds 20 1023 49 10000 5 120 06:50 05.11.2020
5869 Clouds 21 1023 49 10000 5 120 06:32 05.11.2020
5870 Clouds 20 1025 52 10000 5 140 03:45 05.11.2020
5871 Clear 16 1024 63 10000 3 120 00:38 05.11.2020
5872 Clear 16 1024 67 10000 4 130 00:18 05.11.2020
5873 Clear 15 1024 67 10000 4 120 23:36 04.11.2020
5874 Clear 15 1024 67 10000 3 120 23:18 04.11.2020
5875 Clear 15 1023 67 10000 3 120 22:41 04.11.2020
5876 Clear 15 1023 62 10000 3 110 22:21 04.11.2020
5877 Clear 15 1023 62 10000 3 110 21:47 04.11.2020
5878 Clear 15 1023 62 10000 3 110 21:47 04.11.2020
5879 Clear 15 1023 62 10000 3 110 21:27 04.11.2020
5880 Clear 15 1024 62 10000 3 110 20:54 04.11.2020
5881 Clear 15 1024 62 10000 2 120 20:35 04.11.2020
5882 Clear 15 1024 62 10000 2 120 19:59 04.11.2020
5883 Clear 14 1024 67 10000 2 90 19:40 04.11.2020
5884 Clear 14 1024 67 10000 2 90 19:22 04.11.2020
5885 Clear 14 1025 67 10000 1 90 18:41 04.11.2020
5886 Clear 14 1025 62 10000 1 90 18:22 04.11.2020
5887 Clear 14 1025 62 10000 1 110 17:47 04.11.2020
5888 Clear 14 1025 62 10000 1 110 17:27 04.11.2020
5889 Clear 14 1025 62 10000 1 130 16:46 04.11.2020
5890 Clear 14 1025 62 10000 1 130 16:27 04.11.2020
5891 Clear 14 1025 62 10000 2 120 15:59 04.11.2020
5892 Clear 14 1025 58 10000 2 110 15:40 04.11.2020
5893 Clear 14 1025 54 10000 2 110 15:20 04.11.2020
5894 Clear 14 1025 54 10000 3 100 14:44 04.11.2020
5895 Clear 14 1025 54 10000 3 100 14:24 04.11.2020
5896 Clear 14 1025 54 10000 3 100 13:51 04.11.2020
5897 Clear 14 1025 54 10000 3 100 13:21 04.11.2020
5898 Clear 14 1025 54 10000 3 100 12:57 04.11.2020
5899 Clear 15 1025 54 10000 4 90 12:39 04.11.2020
5900 Clear 15 1024 54 10000 3 90 12:21 04.11.2020
5901 Clear 15 1024 51 10000 4 100 11:44 04.11.2020
5902 Clear 15 1024 48 10000 4 100 11:21 04.11.2020
5903 Clear 15 1024 48 10000 4 80 10:48 04.11.2020
5904 Clear 16 1024 45 10000 4 80 10:23 04.11.2020
5905 Clear 16 1024 45 10000 4 80 09:55 04.11.2020
5906 Clear 16 1024 45 10000 4 80 09:27 04.11.2020
5907 Clear 17 1024 42 10000 4 50 08:47 04.11.2020
5908 Clear 18 1024 39 10000 3 70 08:23 04.11.2020
5909 Clear 18 1024 39 10000 3 70 07:57 04.11.2020
5910 Clear 17 1024 42 10000 2 70 07:31 04.11.2020
5911 Clear 18 1024 39 10000 2 0 06:57 04.11.2020
5912 Clear 18 1025 42 10000 3 60 06:38 04.11.2020
5913 Clear 17 1026 42 10000 2 0 04:46 04.11.2020
5914 Clear 16 1028 51 10000 3 330 02:31 04.11.2020
5915 Clear 15 1027 54 10000 4 340 01:32 04.11.2020
5916 Clear 14 1026 66 10000 3 340 23:53 03.11.2020
5917 Clear 13 1026 62 10000 3 310 23:25 03.11.2020
5918 Clouds 13 1022 57 10000 2.37 16 22:54 03.11.2020
5919 Clear 13 1026 62 10000 3 320 22:36 03.11.2020
5920 Clear 13 1026 58 10000 3 320 22:18 03.11.2020
5921 Clear 14 1026 58 10000 3 320 21:41 03.11.2020
5922 Clear 14 1026 58 10000 3 320 21:22 03.11.2020
5923 Clear 14 1026 58 10000 2 320 20:46 03.11.2020
5924 Clear 13 1026 62 10000 3 360 20:26 03.11.2020
5925 Clear 13 1026 58 10000 3 360 19:46 03.11.2020
5926 Clear 13 1026 58 10000 3 360 19:27 03.11.2020
5927 Clear 14 1026 54 10000 3 10 18:57 03.11.2020
5928 Clear 14 1027 54 10000 3 360 18:38 03.11.2020
5929 Clear 14 1027 50 10000 3 10 18:18 03.11.2020
5930 Clear 13 1027 50 10000 3 20 17:43 03.11.2020
5931 Clear 13 1027 50 10000 4 10 17:25 03.11.2020
5932 Clear 13 1027 50 10000 4 10 16:45 03.11.2020
5933 Clear 13 1027 50 10000 4 10 16:25 03.11.2020
5934 Clear 13 1027 54 10000 4 10 15:52 03.11.2020
5935 Clear 13 1027 47 10000 4 10 15:29 03.11.2020
5936 Clear 13 1027 47 10000 4 360 14:53 03.11.2020
5937 Clear 13 1027 47 10000 4 360 14:33 03.11.2020
5938 Clear 14 1027 47 10000 4 20 13:47 03.11.2020
5939 Clear 14 1027 47 10000 4 20 13:24 03.11.2020
5940 Clear 14 1027 47 10000 5 20 12:59 03.11.2020
5941 Rain 14 1026 44 10000 5 20 12:39 03.11.2020
5942 Rain 14 1026 44 10000 6 20 12:20 03.11.2020
5943 Rain 14 1026 38 10000 7 20 11:44 03.11.2020
5944 Rain 15 1026 41 10000 7 20 11:21 03.11.2020
5945 Clear 15 1025 38 10000 7 20 10:40 03.11.2020
5946 Clear 15 1025 38 10000 8 10 10:22 03.11.2020
5947 Clear 16 1025 38 10000 8 10 09:59 03.11.2020
5948 Clear 16 1025 36 10000 7 10 09:37 03.11.2020
5949 Clear 16 1025 36 10000 7 360 09:18 03.11.2020
5950 Clear 17 1025 34 10000 6 20 08:42 03.11.2020
5951 Clear 17 1025 34 10000 7 360 08:23 03.11.2020
5952 Clear 18 1025 36 10000 7 360 07:35 03.11.2020
5953 Clear 18 1025 37 10000 7 350 06:52 03.11.2020
5954 Clear 18 1026 37 10000 6 10 06:19 03.11.2020
5955 Clear 17 1026 45 10000 7 360 03:34 03.11.2020
5956 Clear 16 1024 71 10000 6 360 00:43 03.11.2020
5957 Clear 15 1024 76 10000 6 360 23:59 02.11.2020
5958 Clear 15 1024 76 10000 6 360 23:40 02.11.2020
5959 Clear 15 1024 82 10000 5 360 22:56 02.11.2020
5960 Clear 15 1024 82 8000 5 10 22:37 02.11.2020
5961 Mist 15 1024 87 5000 5 350 22:19 02.11.2020
5962 Mist 15 1024 82 5000 5 340 21:38 02.11.2020
5963 Mist 15 1023 82 5000 3 330 21:19 02.11.2020
5964 Mist 15 1024 82 5000 3 310 20:41 02.11.2020
5965 Mist 15 1023 82 5000 3 310 20:20 02.11.2020
5966 Mist 15 1023 82 5000 3 310 19:57 02.11.2020
5967 Clear 15 1023 82 7000 2 330 19:38 02.11.2020
5968 Clear 15 1023 82 10000 2 340 19:20 02.11.2020
5969 Clear 16 1023 82 10000 2 330 18:39 02.11.2020
5970 Clear 16 1023 87 10000 2 330 18:20 02.11.2020
5971 Clear 16 1023 82 10000 2 330 17:43 02.11.2020
5972 Clear 16 1023 77 10000 2 360 17:25 02.11.2020
5973 Rain 16 1023 77 10000 2 360 16:54 02.11.2020
5974 Clear 16 1023 77 10000 2 350 16:36 02.11.2020
5975 Clear 16 1023 77 10000 3 360 16:18 02.11.2020
5976 Clear 17 1023 72 10000 3 30 15:39 02.11.2020
5977 Clear 17 1023 67 10000 2 30 15:20 02.11.2020
5978 Clear 17 1023 63 10000 2 50 14:49 02.11.2020
5979 Clear 17 1022 63 10000 3 30 14:19 02.11.2020
5980 Clear 18 1022 59 10000 3 40 13:51 02.11.2020
5981 Rain 18 1022 59 10000 3 30 13:22 02.11.2020
5982 Rain 18 1022 59 10000 3 30 12:52 02.11.2020
5983 Rain 18 1022 59 10000 3 40 12:28 02.11.2020
5984 Rain 19 1021 55 10000 3 30 11:46 02.11.2020
5985 Rain 19 1021 55 8000 2 40 11:21 02.11.2020
5986 Clear 19 1021 56 8000 4 30 10:48 02.11.2020
5987 Clouds 19 1021 56 8000 4 30 10:26 02.11.2020
5988 Clouds 20 1021 60 8000 4 20 09:56 02.11.2020
5989 Clouds 20 1020 56 8000 6 20 09:30 02.11.2020
5990 Clouds 21 1020 56 8000 7 360 08:59 02.11.2020
5991 Clouds 21 1020 60 8000 6 20 08:39 02.11.2020
5992 Clouds 22 1020 53 10000 6 20 08:19 02.11.2020
5993 Clouds 22 1020 53 10000 5 340 07:42 02.11.2020
5994 Clouds 22 1021 56 10000 5 360 06:46 02.11.2020
5995 Clear 21 1022 56 10000 4 20 05:39 02.11.2020
5996 Mist 19 1022 82 5000 4 340 01:35 02.11.2020
5997 Mist 17 1022 88 4000 4 330 00:39 02.11.2020
5998 Mist 17 1022 88 4000 4 330 00:39 02.11.2020
5999 Mist 17 1021 93 4000 3 320 00:20 02.11.2020
6000 Mist 17 1021 93 5000 2 320 23:39 01.11.2020
6001 Clouds 16 1021 93 6000 1 0 23:21 01.11.2020
6002 Clouds 16 1021 93 7000 1 0 22:43 01.11.2020
6003 Clouds 16 1021 93 7000 2 300 22:22 01.11.2020
6004 Rain 16 1021 93 7000 2 310 21:43 01.11.2020
6005 Rain 16 1021 93 7000 2 310 21:25 01.11.2020
6006 Rain 17 1021 93 8000 2 340 20:50 01.11.2020
6007 Rain 17 1021 93 8000 2 340 20:28 01.11.2020
6008 Rain 17 1021 93 8000 4 360 19:56 01.11.2020
6009 Rain 17 1021 88 7000 2 360 19:37 01.11.2020
6010 Rain 17 1021 88 8000 3 30 19:19 01.11.2020
6011 Rain 17 1021 93 8000 3 10 18:40 01.11.2020
6012 Rain 17 1021 93 8000 3 10 18:40 01.11.2020
6013 Clouds 17 1021 93 10000 4 360 18:19 01.11.2020
6014 Rain 18 1021 88 10000 4 360 17:45 01.11.2020
6015 Clouds 18 1021 88 10000 4 360 17:27 01.11.2020
6016 Clouds 18 1020 88 8000 4 10 16:57 01.11.2020
6017 Rain 18 1020 77 7000 3 330 16:39 01.11.2020
6018 Rain 18 1020 77 7000 1 0 16:18 01.11.2020
6019 Rain 19 1020 82 7000 1 0 15:39 01.11.2020
6020 Rain 19 1020 77 10000 2 360 15:20 01.11.2020
6021 Clouds 19 1020 77 10000 3 350 14:48 01.11.2020
6022 Rain 19 1020 77 10000 3 350 14:24 01.11.2020
6023 Rain 19 1020 77 10000 3 340 13:58 01.11.2020
6024 Rain 19 1020 77 10000 3 320 13:39 01.11.2020
6025 Rain 19 1020 72 10000 3 340 13:21 01.11.2020
6026 Rain 19 1020 72 10000 4 350 12:43 01.11.2020
6027 Rain 20 1019 72 10000 4 340 12:20 01.11.2020
6028 Rain 20 1019 72 10000 4 350 11:49 01.11.2020
6029 Rain 20 1019 73 10000 3 360 11:18 01.11.2020
6030 Clouds 20 1019 60 10000 4 350 10:42 01.11.2020
6031 Clouds 20 1019 60 10000 4 350 10:24 01.11.2020
6032 Clouds 21 1018 60 10000 3 330 09:49 01.11.2020
6033 Clouds 21 1018 56 10000 1 0 09:26 01.11.2020
6034 Clouds 22 1018 60 10000 2 320 08:40 01.11.2020
6035 Clouds 22 1018 60 10000 2 290 07:57 01.11.2020
6036 Clouds 22 1019 60 10000 3 0 06:52 01.11.2020
6037 Clear 21 1021 77 10000 2 0 02:32 01.11.2020
6038 Clear 20 1020 82 10000 1 0 01:42 01.11.2020
6039 Clear 18 1020 88 10000 2 190 23:58 31.10.2020
6040 Clear 18 1020 88 10000 2 130 23:24 31.10.2020
6041 Clear 18 1020 82 10000 1 0 22:45 31.10.2020
6042 Clear 18 1020 82 10000 1 0 22:24 31.10.2020
6043 Clear 18 1020 82 10000 1 0 22:24 31.10.2020
6044 Clear 17 1020 88 10000 1 0 21:47 31.10.2020
6045 Clear 17 1020 82 10000 2 120 21:22 31.10.2020
6046 Clear 17 1020 82 10000 2 130 20:44 31.10.2020
6047 Clear 17 1020 82 10000 2 130 20:21 31.10.2020
6048 Clear 17 1020 82 10000 2 130 19:58 31.10.2020
6049 Clear 17 1020 82 10000 2 140 19:37 31.10.2020
6050 Clear 17 1020 82 10000 2 120 19:18 31.10.2020
6051 Clear 17 1020 82 10000 2 150 18:42 31.10.2020
6052 Clear 17 1021 77 10000 3 140 17:47 31.10.2020
6053 Clear 17 1021 77 10000 3 140 17:29 31.10.2020
6054 Clear 17 1021 77 10000 3 140 16:59 31.10.2020
6055 Clear 17 1021 72 10000 3 140 16:39 31.10.2020
6056 Clear 17 1021 68 10000 3 130 15:56 31.10.2020
6057 Clear 17 1021 72 10000 3 130 15:27 31.10.2020
6058 Clear 17 1021 67 10000 3 130 14:58 31.10.2020
6059 Rain 17 1021 68 10000 3 120 14:37 31.10.2020
6060 Clear 17 1021 63 10000 3 130 14:18 31.10.2020
6061 Rain 17 1021 63 10000 3 120 13:43 31.10.2020
6062 Rain 17 1021 63 10000 4 140 13:20 31.10.2020
6063 Rain 18 1021 63 10000 5 130 12:27 31.10.2020
6064 Rain 18 1021 59 10000 5 130 11:47 31.10.2020
6065 Clear 18 1021 59 10000 5 130 11:28 31.10.2020
6066 Clear 19 1020 52 10000 5 130 10:54 31.10.2020
6067 Clear 19 1020 49 10000 5 130 10:33 31.10.2020
6068 Clear 21 1020 43 10000 2 250 09:42 31.10.2020
6069 Clear 21 1020 40 10000 3 210 09:20 31.10.2020
6070 Clear 22 1020 40 10000 2 0 08:28 31.10.2020
6071 Clear 22 1021 40 10000 2 240 07:48 31.10.2020
6072 Clear 22 1021 40 10000 2 240 07:26 31.10.2020
6073 Clear 22 1022 43 10000 2 0 06:38 31.10.2020
6074 Clear 20 1025 45 10000 2 110 03:50 31.10.2020
6075 Clear 20 1025 49 10000 2 120 02:51 31.10.2020
6076 Clear 17 1025 72 10000 2 10 00:57 31.10.2020
6077 Clear 15 1025 82 10000 1 10 00:21 31.10.2020
6078 Clear 15 1025 82 10000 1 360 23:46 30.10.2020
6079 Clear 14 1025 82 10000 2 350 23:23 30.10.2020
6080 Clear 14 1024 76 10000 2 350 22:43 30.10.2020
6081 Clear 15 1024 76 10000 1 340 22:22 30.10.2020
6082 Clear 15 1024 76 10000 1 340 21:50 30.10.2020
6083 Clear 15 1024 76 10000 2 360 21:29 30.10.2020
6084 Clear 15 1024 82 10000 2 20 20:59 30.10.2020
6085 Clear 15 1024 76 10000 2 360 20:37 30.10.2020
6086 Clear 15 1024 76 10000 2 360 20:37 30.10.2020
6087 Clear 15 1025 76 10000 2 10 20:18 30.10.2020
6088 Clear 15 1025 76 10000 2 20 19:44 30.10.2020
6089 Clear 15 1025 71 10000 2 350 19:18 30.10.2020
6090 Clear 15 1026 67 10000 2 340 18:44 30.10.2020
6091 Clear 16 1026 67 10000 2 340 18:24 30.10.2020
6092 Clear 16 1026 67 10000 2 310 17:47 30.10.2020
6093 Clear 16 1026 63 10000 2 290 17:22 30.10.2020
6094 Clear 16 1026 63 10000 2 290 16:55 30.10.2020
6095 Clear 16 1026 67 10000 2 350 16:25 30.10.2020
6096 Clear 16 1026 67 10000 3 360 15:56 30.10.2020
6097 Clear 16 1026 63 10000 2 30 15:38 30.10.2020
6098 Clear 16 1026 63 10000 3 20 15:18 30.10.2020
6099 Clear 17 1026 59 10000 3 20 14:42 30.10.2020
6100 Clear 17 1026 59 10000 3 20 14:23 30.10.2020
6101 Rain 17 1026 55 10000 3 50 13:42 30.10.2020
6102 Rain 17 1026 55 10000 2 50 13:20 30.10.2020
6103 Rain 17 1026 55 10000 3 60 12:47 30.10.2020
6104 Rain 17 1026 52 10000 4 60 12:22 30.10.2020
6105 Rain 17 1026 52 10000 4 60 11:56 30.10.2020
6106 Rain 18 1025 52 10000 4 50 11:21 30.10.2020
6107 Clear 18 1025 48 10000 5 60 10:50 30.10.2020
6108 Clear 18 1025 45 10000 5 50 10:25 30.10.2020
6109 Clear 19 1025 42 10000 5 50 09:48 30.10.2020
6110 Clear 19 1025 42 10000 5 50 09:25 30.10.2020
6111 Clear 20 1025 42 10000 4 60 08:59 30.10.2020
6112 Clear 20 1025 37 10000 5 50 08:31 30.10.2020
6113 Clear 20 1024 40 10000 6 40 07:53 30.10.2020
6114 Clear 20 1024 40 10000 6 40 07:35 30.10.2020
6115 Clear 21 1025 37 10000 5 30 06:50 30.10.2020
6116 Clouds 21 1026 46 10000 5 20 05:45 30.10.2020
6117 Clear 19 1027 59 10000 5 20 02:43 30.10.2020
6118 Clear 17 1027 77 10000 3 340 01:18 30.10.2020
6119 Clear 15 1026 82 10000 1 0 23:58 29.10.2020
6120 Clear 15 1026 82 10000 2 320 23:40 29.10.2020
6121 Clouds 15 1026 82 10000 2 300 23:21 29.10.2020
6122 Clouds 15 1026 77 10000 2 300 22:43 29.10.2020
6123 Clouds 15 1026 77 10000 2 300 22:24 29.10.2020
6124 Clear 15 1025 76 10000 2 350 21:43 29.10.2020
6125 Clear 15 1021 72 10000 2.77 5 21:21 29.10.2020
6126 Clear 15 1025 82 10000 2 10 20:42 29.10.2020
6127 Clear 15 1025 82 10000 2 360 20:20 29.10.2020
6128 Clear 15 1025 82 10000 2 360 20:20 29.10.2020
6129 Clear 15 1025 82 10000 3 360 19:45 29.10.2020
6130 Clear 16 1021 70 10000 2.74 6 19:23 29.10.2020
6131 Clear 16 1021 69 10000 2.74 6 18:58 29.10.2020
6132 Clear 16 1021 68 10000 2.74 11 18:39 29.10.2020
6133 Clear 16 1025 72 10000 3 360 18:20 29.10.2020
6134 Clear 16 1025 72 10000 3 360 17:41 29.10.2020
6135 Clear 16 1025 72 10000 2 10 17:21 29.10.2020
6136 Rain 16 1025 67 10000 2 40 16:47 29.10.2020
6137 Clear 16 1025 67 10000 3 40 16:21 29.10.2020
6138 Rain 16 1025 67 10000 3 40 15:57 29.10.2020
6139 Rain 17 1025 63 10000 3 40 15:38 29.10.2020
6140 Rain 17 1025 63 10000 3 50 15:19 29.10.2020
6141 Rain 17 1025 63 10000 4 40 14:45 29.10.2020
6142 Rain 17 1025 63 10000 4 50 14:23 29.10.2020
6143 Rain 17 1025 63 10000 4 50 14:23 29.10.2020
6144 Rain 17 1025 63 10000 4 50 13:48 29.10.2020
6145 Rain 17 1025 63 10000 4 50 13:28 29.10.2020
6146 Rain 17 1025 63 10000 5 50 12:44 29.10.2020
6147 Rain 17 1025 59 10000 5 40 12:20 29.10.2020
6148 Rain 18 1025 59 10000 5 40 11:58 29.10.2020
6149 Rain 18 1024 59 10000 4 40 11:39 29.10.2020
6150 Rain 18 1024 55 10000 4 50 11:20 29.10.2020
6151 Clouds 18 1024 55 10000 5 50 10:37 29.10.2020
6152 Clouds 18 1024 55 10000 5 50 10:37 29.10.2020
6153 Clouds 18 1024 55 10000 5 50 10:37 29.10.2020
6154 Clouds 19 1024 52 10000 5 40 10:19 29.10.2020
6155 Clouds 19 1023 49 10000 4 50 09:50 29.10.2020
6156 Clouds 20 1023 49 10000 4 50 09:26 29.10.2020
6157 Clouds 21 1023 46 10000 4 30 08:46 29.10.2020
6158 Clouds 21 1023 46 10000 4 30 08:24 29.10.2020
6159 Clouds 21 1023 43 10000 5 20 07:49 29.10.2020
6160 Clouds 21 1023 46 10000 3 50 07:19 29.10.2020
6161 Clear 21 1024 49 10000 2 80 06:30 29.10.2020
6162 Clear 21 1025 49 10000 3 80 04:48 29.10.2020
6163 Clouds 20 1021 55 10000 3.35 55 02:28 29.10.2020
6164 Clouds 18 1021 69 10000 2.93 56 00:41 29.10.2020
6165 Rain 18 1021 69 10000 3.27 54 00:21 29.10.2020
6166 Clouds 18 1021 70 10000 3.27 54 23:41 28.10.2020
6167 Clouds 17 1020 70 10000 3.28 49 23:20 28.10.2020
6168 Clouds 17 1024 77 10000 5 50 22:43 28.10.2020
6169 Clouds 17 1024 77 10000 5 50 22:23 28.10.2020
6170 Clouds 18 1024 77 10000 5 40 21:45 28.10.2020
6171 Clouds 18 1024 77 10000 5 40 21:26 28.10.2020
6172 Clear 18 1024 77 10000 4 40 20:44 28.10.2020
6173 Rain 18 1024 77 10000 4 40 20:24 28.10.2020
6174 Rain 18 1024 77 10000 4 40 19:57 28.10.2020
6175 Rain 18 1024 77 10000 4 50 19:39 28.10.2020
6176 Rain 18 1025 77 10000 6 40 19:20 28.10.2020
6177 Clear 18 1024 77 10000 5 40 18:43 28.10.2020
6178 Clouds 18 1024 77 10000 5 50 18:20 28.10.2020
6179 Clouds 18 1024 77 10000 5 50 18:20 28.10.2020
6180 Clouds 19 1024 77 10000 5 40 17:43 28.10.2020
6181 Clouds 19 1024 77 10000 5 40 17:21 28.10.2020
6182 Clouds 19 1025 77 10000 4 50 16:47 28.10.2020
6183 Clouds 19 1025 77 10000 4 10 16:28 28.10.2020
6184 Clouds 19 1025 77 10000 3 360 15:43 28.10.2020
6185 Clouds 19 1021 76 10000 2.51 30 15:20 28.10.2020
6186 Clear 19 1024 72 10000 3 30 14:49 28.10.2020
6187 Clear 19 1024 72 10000 3 30 14:31 28.10.2020
6188 Clouds 19 1021 73 10000 2.49 36 13:59 28.10.2020
6189 Rain 19 1020 71 10000 3.22 46 12:37 28.10.2020
6190 Rain 19 1020 71 10000 3.39 38 12:19 28.10.2020
6191 Rain 19 1020 71 10000 3.39 38 11:42 28.10.2020
6192 Rain 19 1020 71 10000 3.27 36 11:22 28.10.2020
6193 Clouds 19 1019 71 10000 3.27 36 10:53 28.10.2020
6194 Clouds 19 1023 64 10000 6 30 10:34 28.10.2020
6195 Clouds 20 1023 64 10000 6 30 09:56 28.10.2020
6196 Clouds 20 1023 64 10000 6 30 09:37 28.10.2020
6197 Clouds 20 1023 64 10000 5 30 09:19 28.10.2020
6198 Clouds 20 1023 64 10000 5 30 08:43 28.10.2020
6199 Clouds 20 1023 64 10000 5 30 08:23 28.10.2020
6200 Clouds 21 1023 64 10000 5 20 07:44 28.10.2020
6201 Clouds 21 1023 64 10000 5 20 07:26 28.10.2020
6202 Clouds 21 1023 64 10000 4 40 06:40 28.10.2020
6203 Clouds 21 1023 64 10000 4 40 05:48 28.10.2020
6204 Clouds 21 1024 64 10000 3 50 04:52 28.10.2020
6205 Clouds 21 1024 68 10000 3 30 04:24 28.10.2020
6206 Clouds 19 1024 72 10000 2 30 02:25 28.10.2020
6207 Clear 19 1023 77 10000 2 10 00:51 28.10.2020
6208 Clear 18 1022 82 10000 2 20 23:51 27.10.2020
6209 Clouds 18 1022 82 10000 2 10 23:22 27.10.2020
6210 Clouds 18 1022 82 10000 2 20 22:52 27.10.2020
6211 Clouds 18 1022 82 10000 2 20 22:26 27.10.2020
6212 Clouds 18 1022 77 10000 2 40 21:58 27.10.2020
6213 Clouds 18 1022 77 10000 3 20 21:39 27.10.2020
6214 Clear 18 1022 77 10000 2 30 21:20 27.10.2020
6215 Clear 18 1022 77 10000 2 30 20:54 27.10.2020
6216 Clear 18 1022 77 10000 2 70 20:36 27.10.2020
6217 Clear 18 1022 77 10000 2 40 20:18 27.10.2020
6218 Clear 18 1022 77 10000 2 40 20:18 27.10.2020
6219 Clear 18 1022 77 10000 2 50 19:39 27.10.2020
6220 Clear 18 1022 77 10000 2 20 19:20 27.10.2020
6221 Clear 18 1022 77 10000 2 20 18:55 27.10.2020
6222 Clear 18 1023 82 10000 2 360 18:37 27.10.2020
6223 Clear 18 1022 77 10000 2 60 18:18 27.10.2020
6224 Clear 18 1022 77 10000 2 100 17:40 27.10.2020
6225 Clear 18 1022 72 10000 3 70 17:20 27.10.2020
6226 Clear 18 1022 72 10000 3 80 16:46 27.10.2020
6227 Rain 18 1022 72 10000 3 80 16:24 27.10.2020
6228 Clear 18 1022 72 10000 4 80 15:43 27.10.2020
6229 Clear 18 1022 72 10000 3 90 15:25 27.10.2020
6230 Rain 18 1022 72 10000 3 90 14:52 27.10.2020
6231 Rain 18 1022 72 10000 3 90 14:33 27.10.2020
6232 Rain 18 1022 72 10000 2 80 13:59 27.10.2020
6233 Rain 18 1022 72 10000 3 80 13:32 27.10.2020
6234 Rain 18 1021 72 10000 3 80 12:54 27.10.2020
6235 Rain 19 1021 72 10000 3 80 12:36 27.10.2020
6236 Rain 19 1021 64 10000 4 110 12:18 27.10.2020
6237 Rain 19 1021 64 10000 4 110 11:42 27.10.2020
6238 Clear 19 1020 64 10000 4 100 11:21 27.10.2020
6239 Clear 20 1020 60 10000 3 100 10:46 27.10.2020
6240 Clouds 20 1020 60 10000 4 110 10:22 27.10.2020
6241 Clouds 20 1019 60 10000 3 110 09:42 27.10.2020
6242 Clouds 20 1019 60 10000 3 110 09:23 27.10.2020
6243 Clouds 21 1019 60 10000 4 110 08:33 27.10.2020
6244 Clouds 22 1019 56 10000 4 90 07:58 27.10.2020
6245 Clouds 22 1019 53 10000 4 110 07:40 27.10.2020
6246 Clouds 22 1019 56 10000 4 120 07:21 27.10.2020
6247 Clouds 21 1019 56 10000 5 100 06:21 27.10.2020
6248 Clouds 21 1020 64 10000 3 100 05:47 27.10.2020
6249 Clouds 22 1020 64 10000 3 100 05:28 27.10.2020
6250 Clouds 21 1021 64 10000 4 110 03:38 27.10.2020
6251 Clear 19 1020 82 10000 3 100 01:24 27.10.2020
6252 Clear 18 1020 82 10000 3 90 00:48 27.10.2020
6253 Clear 18 1020 82 10000 3 90 23:40 26.10.2020
6254 Clear 18 1019 82 10000 3 110 23:18 26.10.2020
6255 Clear 18 1019 82 10000 3 100 22:44 26.10.2020
6256 Clear 18 1019 82 10000 3 100 22:19 26.10.2020
6257 Clear 18 1019 77 10000 2 90 21:41 26.10.2020
6258 Clear 18 1019 77 10000 2 100 21:19 26.10.2020
6259 Clear 18 1019 77 10000 2 100 20:49 26.10.2020
6260 Clear 18 1019 77 10000 2 100 20:27 26.10.2020
6261 Clear 18 1019 77 10000 3 100 20:27 26.10.2020
6262 Clear 18 1019 77 10000 3 100 19:58 26.10.2020
6263 Clear 18 1019 77 10000 2 90 19:40 26.10.2020
6264 Rain 18 1019 77 10000 2 90 19:20 26.10.2020
6265 Clear 17 1019 82 10000 2 110 18:42 26.10.2020
6266 Clear 17 1019 77 10000 2 120 18:22 26.10.2020
6267 Clear 17 1019 77 10000 2 110 17:44 26.10.2020
6268 Clear 17 1019 77 10000 3 110 17:24 26.10.2020
6269 Clear 17 1019 77 10000 3 110 16:56 26.10.2020
6270 Rain 17 1019 77 10000 3 110 16:37 26.10.2020
6271 Rain 17 1019 77 10000 3 110 16:18 26.10.2020
6272 Rain 17 1019 77 10000 3 110 15:39 26.10.2020
6273 Rain 17 1019 77 10000 3 110 15:19 26.10.2020
6274 Rain 18 1019 77 10000 3 90 14:45 26.10.2020
6275 Rain 18 1019 77 10000 4 110 14:19 26.10.2020
6276 Rain 18 1019 72 10000 3 120 13:42 26.10.2020
6277 Rain 18 1019 72 10000 4 100 13:22 26.10.2020
6278 Rain 18 1019 72 10000 4 120 12:47 26.10.2020
6279 Rain 18 1019 72 10000 4 120 12:27 26.10.2020
6280 Rain 19 1018 68 10000 4 110 11:55 26.10.2020
6281 Clear 19 1018 68 10000 4 110 11:37 26.10.2020
6282 Clear 19 1018 68 10000 4 110 11:37 26.10.2020
6283 Clear 19 1018 68 10000 3 120 11:18 26.10.2020
6284 Clear 20 1018 64 10000 4 100 10:42 26.10.2020
6285 Clear 20 1017 64 10000 4 120 10:22 26.10.2020
6286 Clear 20 1017 64 10000 5 130 09:43 26.10.2020
6287 Clouds 20 1018 60 10000 4 100 09:23 26.10.2020
6288 Clouds 21 1018 60 10000 3 110 08:29 26.10.2020
6289 Clouds 22 1017 53 10000 3 160 07:53 26.10.2020
6290 Clouds 22 1017 53 10000 3 160 07:35 26.10.2020
6291 Clouds 23 1018 49 10000 3 130 06:37 26.10.2020
6292 Rain 23 1019 60 10000 5 140 04:22 26.10.2020
6293 Rain 22 1020 64 10000 5 140 03:42 26.10.2020
6294 Clear 20 1020 72 10000 4 120 01:40 26.10.2020
6295 Clear 18 1020 77 10000 3 110 00:57 26.10.2020
6296 Clear 18 1020 82 10000 3 110 00:32 26.10.2020
6297 Clear 16 1020 87 10000 2 90 23:41 25.10.2020
6298 Clear 16 1020 87 10000 2 90 23:21 25.10.2020
6299 Clear 16 1019 87 10000 1 0 22:40 25.10.2020
6300 Clear 16 1019 82 10000 2 100 22:20 25.10.2020
6301 Clear 16 1019 87 10000 2 100 21:41 25.10.2020
6302 Clear 16 1019 82 10000 2 120 21:22 25.10.2020
6303 Clear 16 1019 82 10000 2 110 20:46 25.10.2020
6304 Clear 16 1019 82 10000 2 110 20:28 25.10.2020
6305 Clear 16 1019 77 10000 2 90 19:59 25.10.2020
6306 Clear 16 1019 82 10000 2 120 19:41 25.10.2020
6307 Clear 16 1019 82 10000 2 120 19:21 25.10.2020
6308 Clear 16 1019 77 10000 2 120 18:42 25.10.2020
6309 Clear 16 1019 77 10000 2 100 18:23 25.10.2020
6310 Clear 16 1019 77 10000 2 100 17:59 25.10.2020
6311 Clear 16 1019 77 10000 2 120 17:38 25.10.2020
6312 Clear 16 1020 72 10000 2 120 17:20 25.10.2020
6313 Clear 16 1020 72 10000 2 110 16:52 25.10.2020
6314 Clear 16 1020 72 10000 2 110 16:31 25.10.2020
6315 Rain 16 1020 72 10000 3 120 15:52 25.10.2020
6316 Clear 16 1020 72 10000 3 120 15:32 25.10.2020
6317 Clear 17 1020 72 10000 3 130 14:59 25.10.2020
6318 Rain 17 1020 67 10000 2 120 14:38 25.10.2020
6319 Clear 17 1020 67 10000 2 110 14:19 25.10.2020
6320 Rain 17 1020 67 10000 3 120 13:42 25.10.2020
6321 Rain 17 1020 63 10000 3 130 13:19 25.10.2020
6322 Rain 17 1020 63 10000 3 130 13:19 25.10.2020
6323 Rain 17 1020 67 10000 3 140 12:46 25.10.2020
6324 Clear 17 1020 67 10000 3 140 12:25 25.10.2020
6325 Rain 18 1020 63 10000 4 160 11:44 25.10.2020
6326 Clear 18 1019 55 10000 3 150 11:21 25.10.2020
6327 Clear 18 1019 55 10000 3 150 11:21 25.10.2020
6328 Clear 18 1019 55 10000 3 150 10:57 25.10.2020
6329 Clear 18 1019 52 10000 4 150 10:38 25.10.2020
6330 Clear 19 1019 49 10000 4 160 10:19 25.10.2020
6331 Clear 20 1019 46 10000 5 160 09:40 25.10.2020
6332 Clear 21 1019 46 10000 5 150 09:19 25.10.2020
6333 Clear 22 1019 40 10000 5 160 08:41 25.10.2020
6334 Clear 22 1019 40 10000 5 160 08:41 25.10.2020
6335 Clear 22 1019 43 10000 4 130 08:22 25.10.2020
6336 Clear 22 1020 43 10000 3 170 07:46 25.10.2020
6337 Clear 21 1020 43 10000 3 170 07:24 25.10.2020
6338 Clear 21 1020 45 10000 3 220 06:36 25.10.2020
6339 Clear 22 1021 46 10000 2 140 05:36 25.10.2020
6340 Rain 20 1022 49 10000 3 0 04:51 25.10.2020
6341 Clear 19 1024 55 10000 3 150 02:45 25.10.2020
6342 Clear 15 1023 82 10000 0.77 115 01:32 25.10.2020
6343 Clear 14 1023 87 10000 1 0 00:48 25.10.2020
6344 Clear 13 1023 76 10000 1 120 00:20 25.10.2020
6345 Clear 13 1023 76 10000 1 120 23:53 24.10.2020
6346 Clear 13 1023 81 10000 1 280 23:26 24.10.2020
6347 Clear 13 1022 81 10000 0.6 125 22:55 24.10.2020
6348 Clear 13 1022 81 10000 0.6 125 22:37 24.10.2020
6349 Clear 13 1022 76 10000 1 0 22:18 24.10.2020
6350 Clear 13 1023 76 10000 0.87 138 21:41 24.10.2020
6351 Clear 14 1023 71 10000 0.73 146 21:20 24.10.2020
6352 Clear 14 1023 71 10000 0.73 146 20:47 24.10.2020
6353 Clear 14 1023 71 10000 1 180 20:23 24.10.2020
6354 Clear 14 1023 67 10000 1 0 19:48 24.10.2020
6355 Rain 14 1023 67 10000 1 0 19:28 24.10.2020
6356 Clear 14 1023 67 10000 1 0 18:56 24.10.2020
6357 Clear 14 1023 67 10000 1 90 18:38 24.10.2020
6358 Clear 14 1024 62 10000 1 0 18:19 24.10.2020
6359 Rain 14 1024 62 10000 1 0 17:37 24.10.2020
6360 Rain 14 1023 58 10000 1 120 17:19 24.10.2020
6361 Rain 15 1023 58 10000 2 110 16:42 24.10.2020
6362 Rain 15 1023 58 10000 2 80 16:19 24.10.2020
6363 Rain 15 1023 58 10000 2 100 15:39 24.10.2020
6364 Rain 15 1023 58 10000 3 70 15:19 24.10.2020
6365 Rain 15 1023 59 10000 3 80 14:46 24.10.2020
6366 Rain 15 1023 59 10000 3 80 14:27 24.10.2020
6367 Rain 16 1023 51 10000 3 50 13:45 24.10.2020
6368 Rain 16 1022 48 10000 3 60 13:24 24.10.2020
6369 Clear 16 1022 48 10000 3 30 12:44 24.10.2020
6370 Clear 17 1022 48 10000 4 40 12:21 24.10.2020
6371 Clear 17 1022 48 10000 4 40 12:21 24.10.2020
6372 Clear 17 1022 45 10000 3 50 11:51 24.10.2020
6373 Clear 18 1022 45 10000 3 50 11:27 24.10.2020
6374 Clear 18 1022 42 10000 3 10 10:52 24.10.2020
6375 Clear 19 1022 42 10000 3 10 10:32 24.10.2020
6376 Clear 20 1022 40 10000 3 40 09:50 24.10.2020
6377 Clear 19 1022 40 10000 3 40 09:28 24.10.2020
6378 Clear 20 1022 42 10000 4 40 08:58 24.10.2020
6379 Clouds 20 1023 40 10000 4 20 08:19 24.10.2020
6380 Clouds 19 1023 40 10000 4 20 07:53 24.10.2020
6381 Clouds 19 1023 40 10000 4 20 07:53 24.10.2020
6382 Clouds 19 1023 40 10000 4 20 07:53 24.10.2020
6383 Clouds 19 1023 45 10000 4 360 07:22 24.10.2020
6384 Clear 18 1024 42 10000 3 360 06:52 24.10.2020
6385 Clear 18 1025 42 10000 2 0 05:47 24.10.2020
6386 Clear 16 1025 48 10000 3 330 02:28 24.10.2020
6387 Clear 13 1024 71 10000 3 360 01:19 24.10.2020
6388 Clear 12 1023 76 10000 2 350 00:39 24.10.2020
6389 Clear 12 1024 71 10000 3 340 00:21 24.10.2020
6390 Clear 12 1024 71 10000 2 360 23:43 23.10.2020
6391 Clear 12 1024 71 10000 2 360 23:23 23.10.2020
6392 Clear 13 1023 66 10000 2 300 22:43 23.10.2020
6393 Clear 13 1023 66 10000 2 300 22:23 23.10.2020
6394 Clear 13 1023 62 10000 2 300 21:59 23.10.2020
6395 Clear 13 1019 54 10000 2.48 345 21:39 23.10.2020
6396 Clear 13 1018 54 10000 3.05 348 21:21 23.10.2020
6397 Clear 13 1023 58 10000 3 340 20:39 23.10.2020
6398 Clear 13 1023 66 10000 4 340 20:20 23.10.2020
6399 Clear 13 1023 66 10000 4 340 19:48 23.10.2020
6400 Clear 14 1023 66 10000 4 340 19:29 23.10.2020
6401 Clear 14 1023 62 10000 3 340 18:49 23.10.2020
6402 Clear 14 1023 62 10000 3 340 18:30 23.10.2020
6403 Clear 14 1023 58 10000 4 350 17:47 23.10.2020
6404 Rain 14 1023 58 10000 4 350 17:23 23.10.2020
6405 Rain 14 1023 58 10000 5 360 16:56 23.10.2020
6406 Rain 14 1023 58 10000 5 360 16:56 23.10.2020
6407 Rain 14 1023 58 10000 5 360 16:56 23.10.2020
6408 Rain 15 1023 58 10000 5 360 16:35 23.10.2020
6409 Rain 15 1023 58 10000 4 10 15:59 23.10.2020
6410 Rain 15 1022 58 10000 4 10 15:40 23.10.2020
6411 Rain 15 1022 58 10000 5 10 15:20 23.10.2020
6412 Rain 15 1022 54 10000 5 10 14:49 23.10.2020
6413 Rain 15 1022 54 10000 5 10 14:30 23.10.2020
6414 Rain 16 1021 51 10000 5 30 13:43 23.10.2020
6415 Rain 16 1021 51 10000 5 30 13:24 23.10.2020
6416 Rain 16 1021 55 10000 5 30 12:51 23.10.2020
6417 Clear 16 1021 55 10000 6 40 12:31 23.10.2020
6418 Rain 17 1020 36 10000 5 330 11:51 23.10.2020
6419 Clear 18 1020 36 10000 5 330 11:28 23.10.2020
6420 Clear 19 1020 37 10000 6 340 10:55 23.10.2020
6421 Clear 19 1020 37 10000 6 340 10:37 23.10.2020
6422 Clear 19 1020 37 10000 6 330 10:19 23.10.2020
6423 Clear 20 1020 37 10000 6 350 09:43 23.10.2020
6424 Clear 20 1020 37 10000 6 350 09:23 23.10.2020
6425 Clear 20 1020 34 10000 6 360 08:50 23.10.2020
6426 Rain 20 1020 35 10000 5 330 08:26 23.10.2020
6427 Clear 20 1020 30 10000 7 330 07:26 23.10.2020
6428 Clear 20 1021 32 10000 7 340 06:49 23.10.2020
6429 Clear 20 1021 37 10000 7 350 06:20 23.10.2020
6430 Clear 18 1022 48 10000 6 340 03:38 23.10.2020
6431 Clear 17 1022 59 10000 4 320 02:26 23.10.2020
6432 Clear 14 1020 71 10000 3 320 00:49 23.10.2020
6433 Clear 14 1020 71 10000 3 320 00:29 23.10.2020
6434 Clear 14 1020 67 10000 3 320 23:37 22.10.2020
6435 Clear 14 1020 71 10000 3 330 23:18 22.10.2020
6436 Clear 14 1020 67 10000 3 320 22:44 22.10.2020
6437 Clear 14 1020 67 10000 3 320 22:22 22.10.2020
6438 Clear 14 1020 67 10000 3 320 21:49 22.10.2020
6439 Clear 15 1020 67 10000 3 320 21:31 22.10.2020
6440 Clear 15 1020 67 10000 3 320 20:59 22.10.2020
6441 Clear 15 1020 71 10000 4 330 20:41 22.10.2020
6442 Clear 15 1020 71 10000 4 330 20:21 22.10.2020
6443 Clear 15 1020 71 10000 4 330 19:42 22.10.2020
6444 Clear 15 1020 67 10000 4 330 19:20 22.10.2020
6445 Clear 15 1020 72 10000 5 330 18:43 22.10.2020
6446 Clear 15 1020 67 10000 5 330 18:21 22.10.2020
6447 Clear 16 1019 67 10000 5 340 17:47 22.10.2020
6448 Clear 16 1020 63 10000 4 340 17:26 22.10.2020
6449 Clear 16 1020 63 10000 4 340 16:57 22.10.2020
6450 Clear 16 1020 63 10000 4 350 16:39 22.10.2020
6451 Clear 16 1020 63 10000 6 360 16:20 22.10.2020
6452 Clear 16 1020 63 10000 6 360 15:44 22.10.2020
6453 Clear 16 1019 59 10000 6 360 15:25 22.10.2020
6454 Clear 16 1019 63 10000 5 10 14:47 22.10.2020
6455 Rain 16 1019 63 10000 5 10 14:25 22.10.2020
6456 Rain 17 1018 59 10000 7 20 13:49 22.10.2020
6457 Rain 17 1018 59 10000 7 20 13:24 22.10.2020
6458 Rain 18 1018 59 10000 7 20 12:53 22.10.2020
6459 Clouds 18 1017 63 10000 7 20 12:24 22.10.2020
6460 Clouds 19 1017 64 8000 7 30 11:50 22.10.2020
6461 Clouds 20 1017 60 6000 7 10 11:20 22.10.2020
6462 Clouds 20 1016 56 6000 6 360 10:51 22.10.2020
6463 Clouds 21 1016 56 6000 6 360 10:29 22.10.2020
6464 Clouds 22 1016 49 6000 6 360 09:52 22.10.2020
6465 Clouds 22 1016 49 6000 5 10 09:33 22.10.2020
6466 Haze 23 1016 53 5000 5 10 08:51 22.10.2020
6467 Haze 23 1016 53 5000 5 10 08:31 22.10.2020
6468 Haze 23 1016 53 5000 5 10 07:58 22.10.2020
6469 Haze 23 1016 52 5000 6 350 07:36 22.10.2020
6470 Haze 22 1017 64 5000 4 350 06:58 22.10.2020
6471 Haze 21 1017 64 5000 5 340 06:27 22.10.2020
6472 Haze 21 1017 72 4500 4 340 05:41 22.10.2020
6473 Haze 21 1018 72 4500 3 330 05:18 22.10.2020
6474 Mist 17 1017 82 5000 3 340 01:46 22.10.2020
6475 Clouds 16 1017 82 6000 4 340 00:26 22.10.2020
6476 Rain 16 1017 82 6000 3 330 23:50 21.10.2020
6477 Rain 16 1017 82 6000 3 330 23:32 21.10.2020
6478 Rain 16 1017 82 6000 3 320 22:41 21.10.2020
6479 Rain 16 1017 77 6000 3 330 22:19 21.10.2020
6480 Rain 16 1017 77 6000 3 330 21:56 21.10.2020
6481 Rain 16 1017 82 5000 3 330 21:37 21.10.2020
6482 Rain 16 1017 77 5000 3 330 21:18 21.10.2020
6483 Rain 16 1017 77 5000 3 330 21:18 21.10.2020
6484 Mist 16 1017 82 5000 3 320 20:47 21.10.2020
6485 Mist 16 1017 82 5000 3 330 20:19 21.10.2020
6486 Rain 17 1017 77 5000 4 330 19:44 21.10.2020
6487 Mist 17 1017 77 5000 4 320 19:26 21.10.2020
6488 Mist 17 1017 77 5000 4 320 18:54 21.10.2020
6489 Mist 17 1017 77 5000 4 320 18:32 21.10.2020
6490 Mist 17 1017 77 5000 4 320 17:54 21.10.2020
6491 Mist 17 1018 82 5000 4 320 17:36 21.10.2020
6492 Mist 17 1017 82 5000 4 320 17:18 21.10.2020
6493 Mist 17 1017 82 5000 4 320 16:40 21.10.2020
6494 Mist 17 1017 88 5000 4 330 16:20 21.10.2020
6495 Mist 17 1017 88 5000 3 340 15:48 21.10.2020
6496 Mist 17 1017 88 5000 3 340 15:28 21.10.2020
6497 Rain 17 1017 88 6000 3 330 14:56 21.10.2020
6498 Rain 17 1017 88 6000 2 330 14:38 21.10.2020
6499 Rain 17 1017 88 10000 2 350 14:19 21.10.2020
6500 Rain 18 1018 77 10000 3 340 13:41 21.10.2020
6501 Rain 17 1017 82 10000 1 0 13:20 21.10.2020
6502 Rain 17 1018 82 10000 2 350 12:41 21.10.2020
6503 Rain 17 1017 77 10000 3 340 12:20 21.10.2020
6504 Clouds 17 1017 77 10000 2 320 11:46 21.10.2020
6505 Rain 17 1017 77 10000 2 320 11:21 21.10.2020
6506 Clouds 17 1017 77 10000 1 0 10:57 21.10.2020
6507 Clouds 17 1017 77 10000 2 10 10:38 21.10.2020
6508 Rain 17 1017 77 10000 2 10 10:20 21.10.2020
6509 Clouds 17 1018 77 10000 6 330 09:39 21.10.2020
6510 Clouds 18 1018 77 10000 6 340 08:59 21.10.2020
6511 Clouds 18 1018 72 10000 6 330 08:40 21.10.2020
6512 Clouds 18 1018 72 10000 6 330 08:22 21.10.2020
6513 Clouds 19 1018 72 10000 5 340 07:48 21.10.2020
6514 Clouds 19 1018 77 10000 4 320 06:59 21.10.2020
6515 Rain 19 1018 82 7000 4 340 06:33 21.10.2020
6516 Rain 18 1020 93 7000 3 350 05:23 21.10.2020
6517 Rain 19 1020 88 10000 3 340 02:37 21.10.2020
6518 Rain 19 1018 82 10000 1 0 00:24 21.10.2020
6519 Rain 19 1018 82 10000 1 360 23:25 20.10.2020
6520 Clouds 19 1019 77 10000 1 340 22:37 20.10.2020
6521 Rain 19 1019 77 10000 1 0 22:19 20.10.2020
6522 Rain 19 1019 77 10000 3 360 21:47 20.10.2020
6523 Rain 19 1020 82 10000 2 350 21:18 20.10.2020
6524 Clouds 19 1020 77 10000 2 360 20:42 20.10.2020
6525 Rain 19 1020 77 10000 2 360 20:23 20.10.2020
6526 Rain 19 1020 77 10000 2 360 19:45 20.10.2020
6527 Clouds 19 1020 72 10000 2 360 19:22 20.10.2020
6528 Clouds 19 1021 68 10000 2 10 18:57 20.10.2020
6529 Clouds 19 1021 68 10000 2 10 18:37 20.10.2020
6530 Clouds 19 1021 68 10000 2 30 17:50 20.10.2020
6531 Clouds 19 1021 68 10000 2 30 17:32 20.10.2020
6532 Clouds 19 1022 63 10000 1 0 16:56 20.10.2020
6533 Clouds 19 1022 63 10000 1 0 16:38 20.10.2020
6534 Clouds 19 1022 63 10000 2.1 94 16:20 20.10.2020
6535 Clouds 19 1022 63 10000 1 60 15:41 20.10.2020
6536 Clouds 19 1022 63 10000 1 0 15:22 20.10.2020
6537 Rain 19 1022 60 10000 1 0 14:44 20.10.2020
6538 Rain 19 1022 60 10000 1 0 14:24 20.10.2020
6539 Rain 19 1022 56 10000 1 80 13:57 20.10.2020
6540 Rain 19 1022 56 10000 2 100 13:38 20.10.2020
6541 Clouds 20 1021 56 10000 3 100 13:19 20.10.2020
6542 Rain 20 1021 60 10000 3 80 12:46 20.10.2020
6543 Rain 20 1021 60 10000 3 80 12:28 20.10.2020
6544 Clear 20 1022 52 10000 3 90 11:46 20.10.2020
6545 Clear 20 1022 52 10000 3 90 11:27 20.10.2020
6546 Clear 21 1022 49 10000 4 80 10:40 20.10.2020
6547 Clear 22 1022 49 10000 4 80 10:22 20.10.2020
6548 Clear 22 1021 46 10000 5 100 09:44 20.10.2020
6549 Clear 23 1021 46 10000 5 100 09:19 20.10.2020
6550 Clear 22 1022 46 10000 5 80 08:39 20.10.2020
6551 Clear 22 1022 46 10000 5 80 08:39 20.10.2020
6552 Clouds 24 1022 43 10000 5 60 07:54 20.10.2020
6553 Clear 22 1022 46 10000 4 50 07:26 20.10.2020
6554 Clear 23 1024 49 10000 5 30 06:55 20.10.2020
6555 Clear 22 1024 46 10000 4 80 06:18 20.10.2020
6556 Clear 21 1026 52 10000 5 70 03:59 20.10.2020
6557 Clear 19 1025 72 10000 3 10 02:30 20.10.2020
6558 Clear 16 1025 87 10000 2 350 01:20 20.10.2020
6559 Clear 16 1025 87 10000 2 340 00:49 20.10.2020
6560 Clear 16 1025 87 10000 2 350 00:22 20.10.2020
6561 Clear 16 1025 87 10000 1 360 23:47 19.10.2020
6562 Clear 16 1024 87 10000 2 350 23:24 19.10.2020
6563 Clear 16 1024 87 10000 2 10 22:44 19.10.2020
6564 Clear 16 1024 87 10000 2 10 22:24 19.10.2020
6565 Clear 16 1024 87 10000 2 10 22:24 19.10.2020
6566 Clouds 15 1025 87 10000 2 360 21:48 19.10.2020
6567 Clouds 16 1025 77 10000 2 340 21:22 19.10.2020
6568 Clouds 16 1025 72 10000 2 330 20:52 19.10.2020
6569 Clouds 16 1025 72 10000 2 330 20:33 19.10.2020
6570 Clouds 16 1025 77 10000 2 350 19:54 19.10.2020
6571 Clouds 16 1025 77 10000 2 350 19:36 19.10.2020
6572 Clear 16 1025 77 10000 2 360 19:18 19.10.2020
6573 Clear 16 1025 77 10000 3 360 18:42 19.10.2020
6574 Clear 17 1026 72 10000 2 20 18:18 19.10.2020
6575 Clear 17 1026 72 10000 2 20 18:18 19.10.2020
6576 Clear 17 1026 67 10000 3 30 17:44 19.10.2020
6577 Clear 17 1026 67 10000 3 30 17:24 19.10.2020
6578 Clear 18 1026 63 10000 3 30 16:46 19.10.2020
6579 Clear 18 1026 63 10000 3 30 16:28 19.10.2020
6580 Clear 18 1022 62 10000 2.38 31 15:44 19.10.2020
6581 Rain 18 1022 62 10000 2.94 30 15:25 19.10.2020
6582 Rain 18 1022 59 10000 2.94 30 14:51 19.10.2020
6583 Rain 18 1021 58 10000 3.4 34 14:26 19.10.2020
6584 Rain 18 1021 58 10000 3.4 34 13:54 19.10.2020
6585 Rain 18 1021 57 10000 3.54 34 13:34 19.10.2020
6586 Rain 19 1020 54 10000 3.57 37 12:56 19.10.2020
6587 Rain 19 1020 53 10000 3.57 37 12:38 19.10.2020
6588 Clouds 19 1020 52 10000 3.28 44 12:19 19.10.2020
6589 Clouds 20 1023 46 10000 5 20 11:39 19.10.2020
6590 Clouds 21 1023 46 10000 5 20 11:18 19.10.2020
6591 Clouds 21 1023 46 10000 5 20 10:40 19.10.2020
6592 Clouds 21 1023 43 10000 4 40 10:20 19.10.2020
6593 Clouds 22 1023 43 10000 4 30 09:48 19.10.2020
6594 Clouds 21 1023 49 10000 3 60 09:19 19.10.2020
6595 Clouds 22 1023 43 10000 4 40 08:48 19.10.2020
6596 Clouds 22 1023 43 10000 4 40 08:23 19.10.2020
6597 Clouds 22 1023 46 10000 4 70 07:43 19.10.2020
6598 Clouds 21 1024 52 10000 4 30 07:19 19.10.2020
6599 Clouds 21 1024 52 10000 4 50 06:19 19.10.2020
6600 Clouds 21 1024 52 10000 4 50 06:19 19.10.2020
6601 Clouds 20 1025 55 10000 4 50 03:49 19.10.2020
6602 Clouds 19 1025 55 10000 5 30 02:28 19.10.2020
6603 Clouds 17 1024 77 10000 3 10 00:50 19.10.2020
6604 Clouds 17 1024 77 10000 3 10 00:24 19.10.2020
6605 Clouds 17 1020 63 10000 2.3 14 23:47 18.10.2020
6606 Clouds 17 1020 63 10000 2.39 13 23:24 18.10.2020
6607 Clouds 17 1024 67 10000 3 20 22:51 18.10.2020
6608 Clear 17 1024 72 10000 3 10 22:22 18.10.2020
6609 Rain 18 1024 72 10000 3 10 21:54 18.10.2020
6610 Rain 18 1023 72 10000 2 350 21:32 18.10.2020
6611 Rain 18 1023 72 10000 2 350 21:32 18.10.2020
6612 Rain 18 1023 67 10000 2 40 20:59 18.10.2020
6613 Rain 18 1023 63 10000 3 40 20:39 18.10.2020
6614 Rain 18 1024 63 10000 2 60 20:19 18.10.2020
6615 Rain 18 1024 63 10000 2 50 19:43 18.10.2020
6616 Rain 18 1024 63 10000 2 20 19:22 18.10.2020
6617 Rain 18 1024 63 10000 3 40 18:48 18.10.2020
6618 Rain 18 1024 63 10000 3 30 18:25 18.10.2020
6619 Rain 18 1024 63 10000 3 50 17:43 18.10.2020
6620 Rain 18 1024 63 10000 3 50 17:25 18.10.2020
6621 Rain 18 1024 59 10000 2 60 16:45 18.10.2020
6622 Rain 19 1024 59 10000 2 60 16:26 18.10.2020
6623 Rain 19 1024 59 10000 2 50 15:57 18.10.2020
6624 Rain 19 1024 59 10000 3 80 15:39 18.10.2020
6625 Rain 19 1024 59 10000 3 50 15:18 18.10.2020
6626 Rain 19 1024 59 10000 3 80 14:50 18.10.2020
6627 Rain 19 1024 59 10000 3 80 14:27 18.10.2020
6628 Rain 19 1024 59 10000 4 40 13:47 18.10.2020
6629 Rain 19 1024 59 10000 4 40 13:27 18.10.2020
6630 Rain 19 1023 59 10000 4 40 12:59 18.10.2020
6631 Rain 19 1023 55 10000 4 10 12:40 18.10.2020
6632 Rain 19 1023 55 10000 4 10 12:20 18.10.2020
6633 Rain 20 1023 49 10000 4 360 11:40 18.10.2020
6634 Rain 20 1023 49 10000 4 360 11:40 18.10.2020
6635 Rain 20 1023 49 10000 4 360 11:22 18.10.2020
6636 Rain 20 1023 45 10000 4 350 10:40 18.10.2020
6637 Rain 20 1023 45 10000 3 350 10:20 18.10.2020
6638 Rain 21 1023 43 10000 3 10 09:49 18.10.2020
6639 Rain 21 1023 40 10000 4 360 09:21 18.10.2020
6640 Clouds 22 1023 40 10000 4 360 08:56 18.10.2020
6641 Clouds 22 1022 43 10000 4 360 08:37 18.10.2020
6642 Clouds 21 1023 43 10000 4 360 08:19 18.10.2020
6643 Clouds 23 1024 37 10000 4 20 06:51 18.10.2020
6644 Clear 21 1025 40 10000 4 40 04:44 18.10.2020
6645 Clear 20 1024 56 10000 4 40 02:55 18.10.2020
6646 Clear 19 1024 77 10000 3 360 01:38 18.10.2020
6647 Rain 17 1024 82 10000 2 10 00:48 18.10.2020
6648 Clear 17 1024 87 10000 3 350 00:24 18.10.2020
6649 Clear 16 1023 87 10000 3 10 23:43 17.10.2020
6650 Clear 17 1023 82 10000 3 360 23:22 17.10.2020
6651 Clear 17 1023 82 10000 3 360 22:59 17.10.2020
6652 Clear 17 1023 87 10000 3 360 22:39 17.10.2020
6653 Clear 17 1023 82 10000 3 10 22:19 17.10.2020
6654 Rain 17 1019 70 10000 2.22 12 21:43 17.10.2020
6655 Rain 17 1019 70 10000 2.18 21 21:21 17.10.2020
6656 Rain 17 1023 77 10000 3 10 20:46 17.10.2020
6657 Rain 17 1023 77 10000 3 10 20:21 17.10.2020
6658 Rain 18 1024 77 10000 2 360 19:45 17.10.2020
6659 Rain 18 1024 72 10000 2 10 19:24 17.10.2020
6660 Rain 18 1024 68 10000 3 10 18:47 17.10.2020
6661 Clouds 18 1024 68 10000 3 10 18:29 17.10.2020
6662 Rain 18 1024 68 10000 2 40 17:58 17.10.2020
6663 Rain 18 1020 63 10000 2.01 37 17:39 17.10.2020
6664 Rain 19 1023 59 10000 3 60 17:20 17.10.2020
6665 Rain 19 1024 59 10000 3 40 16:47 17.10.2020
6666 Rain 19 1024 59 10000 4 60 16:22 17.10.2020
6667 Rain 19 1024 59 10000 3 40 15:43 17.10.2020
6668 Rain 19 1024 59 10000 3 60 15:23 17.10.2020
6669 Rain 19 1024 59 10000 3 60 14:59 17.10.2020
6670 Rain 19 1024 59 10000 4 60 14:38 17.10.2020
6671 Rain 19 1024 59 10000 4 60 14:19 17.10.2020
6672 Rain 19 1024 59 10000 5 40 13:45 17.10.2020
6673 Rain 19 1024 59 10000 5 40 13:26 17.10.2020
6674 Rain 19 1023 60 10000 5 40 12:58 17.10.2020
6675 Clouds 19 1023 60 10000 4 60 12:38 17.10.2020
6676 Rain 20 1023 60 10000 5 50 12:18 17.10.2020
6677 Clouds 20 1023 60 10000 5 40 11:37 17.10.2020
6678 Clouds 20 1023 56 10000 5 30 11:18 17.10.2020
6679 Clouds 21 1022 56 10000 5 10 10:33 17.10.2020
6680 Clouds 22 1022 53 10000 3 350 09:51 17.10.2020
6681 Clouds 22 1022 53 10000 3 350 09:32 17.10.2020
6682 Clouds 22 1022 49 10000 5 10 08:55 17.10.2020
6683 Clouds 23 1023 43 10000 6 30 08:24 17.10.2020
6684 Clouds 22 1023 49 10000 4 350 07:44 17.10.2020
6685 Clouds 22 1023 46 10000 4 10 06:58 17.10.2020
6686 Clear 21 1024 56 10000 4 360 05:32 17.10.2020
6687 Clouds 18 1025 72 10000 5 350 02:30 17.10.2020
6688 Clouds 17 1025 77 10000 4 360 01:56 17.10.2020
6689 Clouds 14 1024 93 10000 2 350 00:47 17.10.2020
6690 Clouds 15 1024 87 10000 3 340 23:54 16.10.2020
6691 Clouds 15 1023 93 10000 3 340 23:22 16.10.2020
6692 Clouds 15 1024 93 10000 3 340 22:44 16.10.2020
6693 Clouds 15 1024 93 10000 3 340 22:24 16.10.2020
6694 Clouds 15 1024 87 10000 3 340 21:50 16.10.2020
6695 Clouds 15 1024 87 10000 3 340 21:32 16.10.2020
6696 Clouds 15 1024 87 10000 3 330 20:58 16.10.2020
6697 Clouds 15 1024 87 10000 3 330 20:39 16.10.2020
6698 Clouds 15 1024 93 10000 3 330 20:19 16.10.2020
6699 Clouds 15 1024 93 10000 2 340 19:39 16.10.2020
6700 Clouds 15 1024 93 10000 2 340 19:39 16.10.2020
6701 Clouds 15 1024 87 10000 3 320 19:21 16.10.2020
6702 Clouds 16 1024 87 10000 3 340 18:46 16.10.2020
6703 Clouds 16 1024 87 10000 3 340 18:27 16.10.2020
6704 Rain 16 1024 87 10000 4 340 17:46 16.10.2020
6705 Rain 15 1024 87 10000 4 340 17:27 16.10.2020
6706 Clouds 15 1024 87 10000 3 340 16:48 16.10.2020
6707 Clouds 15 1024 87 10000 3 340 16:30 16.10.2020
6708 Rain 15 1024 87 10000 3 350 15:43 16.10.2020
6709 Rain 16 1024 87 10000 4 360 15:24 16.10.2020
6710 Rain 15 1024 93 10000 6 360 14:43 16.10.2020
6711 Rain 15 1024 93 10000 5 360 14:20 16.10.2020
6712 Rain 15 1024 93 10000 5 360 13:57 16.10.2020
6713 Rain 15 1023 93 10000 4 10 13:37 16.10.2020
6714 Rain 15 1023 93 10000 3 20 13:19 16.10.2020
6715 Rain 15 1022 93 10000 3 30 12:38 16.10.2020
6716 Rain 15 1022 87 10000 4 40 12:19 16.10.2020
6717 Rain 16 1022 82 10000 4 20 11:42 16.10.2020
6718 Rain 16 1022 87 10000 4 10 11:22 16.10.2020
6719 Rain 16 1022 87 10000 4 10 10:52 16.10.2020
6720 Rain 16 1022 87 10000 4 10 10:30 16.10.2020
6721 Rain 17 1022 87 10000 6 10 09:44 16.10.2020
6722 Rain 17 1022 87 10000 6 10 09:25 16.10.2020
6723 Rain 17 1022 77 10000 4 30 08:58 16.10.2020
6724 Rain 18 1022 88 10000 3 20 08:36 16.10.2020
6725 Rain 18 1022 82 10000 4 30 07:52 16.10.2020
6726 Rain 18 1022 82 10000 4 30 07:30 16.10.2020
6727 Rain 18 1023 82 10000 4 40 06:37 16.10.2020
6728 Rain 17 1024 88 8000 4 10 04:35 16.10.2020
6729 Rain 18 1024 88 10000 3 340 03:27 16.10.2020
6730 Clouds 17 1023 88 10000 2 310 00:54 16.10.2020
6731 Clouds 17 1023 87 10000 1 0 00:24 16.10.2020
6732 Rain 17 1023 77 10000 2 90 23:41 15.10.2020
6733 Rain 17 1022 82 10000 2 100 23:20 15.10.2020
6734 Rain 17 1022 82 10000 1 0 22:50 15.10.2020
6735 Clouds 17 1022 82 10000 1 0 22:26 15.10.2020
6736 Clouds 17 1022 87 10000 1 0 21:55 15.10.2020
6737 Clouds 17 1022 87 10000 2 130 21:36 15.10.2020
6738 Clouds 17 1022 87 10000 2 100 21:18 15.10.2020
6739 Rain 17 1023 82 10000 2 110 20:43 15.10.2020
6740 Rain 16 1023 82 10000 2 80 20:20 15.10.2020
6741 Rain 16 1023 82 10000 2 100 19:43 15.10.2020
6742 Rain 17 1024 82 10000 2 80 19:22 15.10.2020
6743 Rain 16 1023 82 10000 2 110 18:44 15.10.2020
6744 Rain 16 1024 82 10000 1 90 18:25 15.10.2020
6745 Rain 16 1024 82 10000 1 90 17:57 15.10.2020
6746 Rain 16 1024 87 10000 1 100 17:38 15.10.2020
6747 Rain 16 1024 77 10000 2 100 17:20 15.10.2020
6748 Rain 17 1024 77 10000 5 50 16:43 15.10.2020
6749 Rain 17 1024 82 10000 7 20 16:20 15.10.2020
6750 Rain 18 1024 63 10000 4 40 15:42 15.10.2020
6751 Rain 19 1024 63 10000 5 50 15:22 15.10.2020
6752 Rain 19 1024 59 10000 5 70 14:49 15.10.2020
6753 Clouds 19 1024 59 10000 5 70 14:24 15.10.2020
6754 Rain 19 1024 63 10000 6 50 13:47 15.10.2020
6755 Rain 19 1023 59 10000 4 70 13:25 15.10.2020
6756 Rain 19 1023 59 10000 4 70 12:55 15.10.2020
6757 Rain 19 1023 63 10000 4 60 12:32 15.10.2020
6758 Clouds 19 1023 63 10000 5 80 11:59 15.10.2020
6759 Clouds 19 1023 63 10000 5 50 11:40 15.10.2020
6760 Rain 19 1023 56 10000 5 70 11:19 15.10.2020
6761 Rain 19 1023 52 10000 5 60 10:45 15.10.2020
6762 Rain 19 1023 49 10000 4 80 10:25 15.10.2020
6763 Clouds 20 1023 56 10000 6 50 09:40 15.10.2020
6764 Rain 19 1023 72 10000 6 50 09:20 15.10.2020
6765 Clouds 19 1023 72 10000 6 50 08:53 15.10.2020
6766 Clouds 19 1023 72 10000 7 50 08:29 15.10.2020
6767 Rain 20 1024 60 10000 5 60 07:21 15.10.2020
6768 Rain 21 1025 60 10000 5 80 05:55 15.10.2020
6769 Clouds 21 1025 60 10000 6 70 03:57 15.10.2020
6770 Clouds 20 1025 64 10000 3 60 01:43 15.10.2020
6771 Clouds 20 1025 64 10000 4 70 00:58 15.10.2020
6772 Clouds 20 1024 64 10000 5 60 00:19 15.10.2020
6773 Clouds 20 1024 64 10000 5 60 00:19 15.10.2020
6774 Rain 20 1024 60 10000 4 80 23:43 14.10.2020
6775 Rain 20 1023 60 10000 5 80 23:21 14.10.2020
6776 Clouds 20 1023 60 10000 5 80 22:58 14.10.2020
6777 Clouds 20 1024 60 10000 4 70 22:39 14.10.2020
6778 Clouds 20 1024 68 10000 4 80 22:19 14.10.2020
6779 Clouds 20 1024 60 10000 4 80 21:41 14.10.2020
6780 Clouds 20 1024 60 10000 4 80 21:22 14.10.2020
6781 Clouds 20 1024 60 10000 4 80 20:41 14.10.2020
6782 Clouds 20 1024 60 10000 5 90 20:19 14.10.2020
6783 Clouds 20 1024 56 10000 4 80 19:49 14.10.2020
6784 Clouds 20 1024 56 10000 4 80 19:25 14.10.2020
6785 Clouds 20 1024 56 10000 5 80 18:44 14.10.2020
6786 Clouds 20 1024 56 10000 4 80 18:24 14.10.2020
6787 Clouds 20 1024 56 10000 4 80 17:57 14.10.2020
6788 Clouds 20 1025 56 10000 5 60 17:39 14.10.2020
6789 Clouds 20 1025 56 10000 5 70 17:19 14.10.2020
6790 Clouds 20 1025 56 10000 4 60 16:40 14.10.2020
6791 Clouds 20 1025 56 10000 3 70 16:21 14.10.2020
6792 Clouds 20 1024 52 10000 6 70 15:45 14.10.2020
6793 Clouds 20 1024 52 10000 6 70 15:26 14.10.2020
6794 Rain 21 1024 52 10000 4 70 14:45 14.10.2020
6795 Rain 21 1024 52 10000 5 80 14:21 14.10.2020
6796 Rain 21 1024 52 10000 6 80 13:48 14.10.2020
6797 Rain 21 1024 52 10000 5 60 13:24 14.10.2020
6798 Rain 21 1024 52 10000 5 60 12:54 14.10.2020
6799 Rain 21 1023 52 10000 5 70 12:36 14.10.2020